<?xml version='1.0' encoding='UTF-8'?><gpx version="1.1" creator="JPX - https://github.com/jenetics/jpx" xmlns="http://www.topografix.com/GPX/1/1"><trk><trkseg><trkpt lat="53.38314044357028" lon="14.671723712659919"><ele>7.999999999999999</ele><time>2026-04-18T15:39:55.958Z</time></trkpt><trkpt lat="53.383082270945145" lon="14.671776830797072"><ele>8.0</ele><time>2026-04-18T15:39:57.958Z</time></trkpt><trkpt lat="53.38302633567791" lon="14.671836094659897"><ele>8.0</ele><time>2026-04-18T15:39:59.958Z</time></trkpt><trkpt lat="53.38293595034467" lon="14.671904199052364"><ele>8.0</ele><time>2026-04-18T15:40:02.958Z</time></trkpt><trkpt lat="53.382866941000735" lon="14.671880577504606"><ele>7.999999999999999</ele><time>2026-04-18T15:40:05.951Z</time></trkpt><trkpt lat="53.38279711486837" lon="14.672077426987139"><ele>8.0</ele><time>2026-04-18T15:40:08.945Z</time></trkpt><trkpt lat="53.38280848331206" lon="14.672224150994888"><ele>8.600000000000001</ele><time>2026-04-18T15:40:09.943Z</time></trkpt><trkpt lat="53.38284169209381" lon="14.672402515254207"><ele>9.200000000000001</ele><time>2026-04-18T15:40:10.942Z</time></trkpt><trkpt lat="53.382870106321334" lon="14.672565033074509"><ele>9.8</ele><time>2026-04-18T15:40:11.94Z</time></trkpt><trkpt lat="53.38290750939991" lon="14.672752736782272"><ele>10.4</ele><time>2026-04-18T15:40:12.939Z</time></trkpt><trkpt lat="53.3829459945992" lon="14.672932211257368"><ele>11.0</ele><time>2026-04-18T15:40:13.938Z</time></trkpt><trkpt lat="53.38297881905127" lon="14.673124745281825"><ele>11.25</ele><time>2026-04-18T15:40:14.936Z</time></trkpt><trkpt lat="53.382997193707595" lon="14.673331377756648"><ele>11.5</ele><time>2026-04-18T15:40:15.935Z</time></trkpt><trkpt lat="53.38298086050222" lon="14.67355159426611"><ele>11.75</ele><time>2026-04-18T15:40:16.934Z</time></trkpt><trkpt lat="53.382980423321676" lon="14.673784455102343"><ele>12.0</ele><time>2026-04-18T15:40:17.933Z</time></trkpt><trkpt lat="53.38295576631444" lon="14.674013467938973"><ele>12.0</ele><time>2026-04-18T15:40:18.932Z</time></trkpt><trkpt lat="53.38293347537111" lon="14.674254168143241"><ele>12.0</ele><time>2026-04-18T15:40:19.931Z</time></trkpt><trkpt lat="53.38291095417007" lon="14.674503119955071"><ele>12.0</ele><time>2026-04-18T15:40:20.931Z</time></trkpt><trkpt lat="53.38288438602611" lon="14.67475291687955"><ele>12.0</ele><time>2026-04-18T15:40:21.93Z</time></trkpt><trkpt lat="53.38286137141014" lon="14.675014081430678"><ele>12.333333333333332</ele><time>2026-04-18T15:40:22.929Z</time></trkpt><trkpt lat="53.38283453636468" lon="14.675283278400585"><ele>12.666666666666666</ele><time>2026-04-18T15:40:23.928Z</time></trkpt><trkpt lat="53.38281135865606" lon="14.675550289915188"><ele>13.0</ele><time>2026-04-18T15:40:24.928Z</time></trkpt><trkpt lat="53.38278818759111" lon="14.675816270685093"><ele>13.0</ele><time>2026-04-18T15:40:25.927Z</time></trkpt><trkpt lat="53.38276148840603" lon="14.676105565806765"><ele>13.0</ele><time>2026-04-18T15:40:26.927Z</time></trkpt><trkpt lat="53.38273667955137" lon="14.676379965792284"><ele>13.0</ele><time>2026-04-18T15:40:27.926Z</time></trkpt><trkpt lat="53.38269624394603" lon="14.67666788313495"><ele>12.333333333333332</ele><time>2026-04-18T15:40:28.926Z</time></trkpt><trkpt lat="53.382679238904686" lon="14.676970330075962"><ele>11.666666666666666</ele><time>2026-04-18T15:40:29.925Z</time></trkpt><trkpt lat="53.38264893506242" lon="14.677261921209857"><ele>11.0</ele><time>2026-04-18T15:40:30.925Z</time></trkpt><trkpt lat="53.38262848074995" lon="14.677550742140449"><ele>10.666666666666666</ele><time>2026-04-18T15:40:31.924Z</time></trkpt><trkpt lat="53.382599397463395" lon="14.677844395406023"><ele>10.333333333333334</ele><time>2026-04-18T15:40:32.924Z</time></trkpt><trkpt lat="53.38255095425645" lon="14.678132147053224"><ele>10.0</ele><time>2026-04-18T15:40:33.924Z</time></trkpt><trkpt lat="53.38252478163929" lon="14.678432713286341"><ele>9.666666666666668</ele><time>2026-04-18T15:40:34.923Z</time></trkpt><trkpt lat="53.38249798642016" lon="14.678732466087203"><ele>9.333333333333334</ele><time>2026-04-18T15:40:35.923Z</time></trkpt><trkpt lat="53.3824721503661" lon="14.679039983418345"><ele>9.0</ele><time>2026-04-18T15:40:36.923Z</time></trkpt><trkpt lat="53.3824462598064" lon="14.679345763702706"><ele>9.0</ele><time>2026-04-18T15:40:37.922Z</time></trkpt><trkpt lat="53.38242087802268" lon="14.679646739450426"><ele>9.0</ele><time>2026-04-18T15:40:38.922Z</time></trkpt><trkpt lat="53.38239369591954" lon="14.67994793791467"><ele>9.0</ele><time>2026-04-18T15:40:39.922Z</time></trkpt><trkpt lat="53.382359202128946" lon="14.680242039488974"><ele>9.333333333333334</ele><time>2026-04-18T15:40:40.922Z</time></trkpt><trkpt lat="53.38232983941564" lon="14.680521777078688"><ele>9.666666666666668</ele><time>2026-04-18T15:40:41.921Z</time></trkpt><trkpt lat="53.3823026481348" lon="14.680799502588084"><ele>10.0</ele><time>2026-04-18T15:40:42.921Z</time></trkpt><trkpt lat="53.38228801740904" lon="14.681074130068005"><ele>10.333333333333334</ele><time>2026-04-18T15:40:43.921Z</time></trkpt><trkpt lat="53.38225803515435" lon="14.6813303695977"><ele>10.666666666666666</ele><time>2026-04-18T15:40:44.921Z</time></trkpt><trkpt lat="53.382240878062184" lon="14.681584203124206"><ele>11.0</ele><time>2026-04-18T15:40:45.921Z</time></trkpt><trkpt lat="53.38222391847833" lon="14.681832328064573"><ele>10.75</ele><time>2026-04-18T15:40:46.92Z</time></trkpt><trkpt lat="53.38221747400449" lon="14.682060407640602"><ele>10.5</ele><time>2026-04-18T15:40:47.918Z</time></trkpt><trkpt lat="53.382220785087156" lon="14.682279737961878"><ele>10.25</ele><time>2026-04-18T15:40:48.918Z</time></trkpt><trkpt lat="53.38224982880323" lon="14.682465285217674"><ele>10.0</ele><time>2026-04-18T15:40:49.918Z</time></trkpt><trkpt lat="53.3822956916346" lon="14.682636548791603"><ele>10.333333333333334</ele><time>2026-04-18T15:40:50.917Z</time></trkpt><trkpt lat="53.38233774248408" lon="14.682778648273008"><ele>10.666666666666668</ele><time>2026-04-18T15:40:51.918Z</time></trkpt><trkpt lat="53.382378077397775" lon="14.682907389134567"><ele>11.0</ele><time>2026-04-18T15:40:52.918Z</time></trkpt><trkpt lat="53.382406108299016" lon="14.68300843743573"><ele>11.333333333333334</ele><time>2026-04-18T15:40:53.917Z</time></trkpt><trkpt lat="53.38245481475851" lon="14.683126641645007"><ele>11.666666666666666</ele><time>2026-04-18T15:40:56.917Z</time></trkpt><trkpt lat="53.38256453893825" lon="14.683141270949124"><ele>12.0</ele><time>2026-04-18T15:40:58.916Z</time></trkpt><trkpt lat="53.38264650433981" lon="14.683072857174038"><ele>12.0</ele><time>2026-04-18T15:40:59.917Z</time></trkpt><trkpt lat="53.382731575275756" lon="14.682937493234187"><ele>12.0</ele><time>2026-04-18T15:41:00.917Z</time></trkpt><trkpt lat="53.382825273786594" lon="14.68277237360807"><ele>12.0</ele><time>2026-04-18T15:41:01.917Z</time></trkpt><trkpt lat="53.382918768606615" lon="14.682625204299079"><ele>12.0</ele><time>2026-04-18T15:41:02.917Z</time></trkpt><trkpt lat="53.38299659835346" lon="14.682528810392661"><ele>12.166666666666666</ele><time>2026-04-18T15:41:03.917Z</time></trkpt><trkpt lat="53.38306307384736" lon="14.682475516422073"><ele>12.333333333333332</ele><time>2026-04-18T15:41:04.917Z</time></trkpt><trkpt lat="53.38317305144371" lon="14.682581173058004"><ele>12.5</ele><time>2026-04-18T15:41:06.917Z</time></trkpt><trkpt lat="53.383222943761304" lon="14.682679582354332"><ele>12.666666666666666</ele><time>2026-04-18T15:41:07.917Z</time></trkpt><trkpt lat="53.38326989259447" lon="14.682772185421031"><ele>12.833333333333332</ele><time>2026-04-18T15:41:11.916Z</time></trkpt><trkpt lat="53.38329402542004" lon="14.682872847668754"><ele>13.0</ele><time>2026-04-18T15:41:38.916Z</time></trkpt><trkpt lat="53.38325922867872" lon="14.682756782195803"><ele>12.4</ele><time>2026-04-18T15:41:43.916Z</time></trkpt><trkpt lat="53.38321110697616" lon="14.682612364601626"><ele>11.8</ele><time>2026-04-18T15:41:44.916Z</time></trkpt><trkpt lat="53.383144874229274" lon="14.68250010517537"><ele>11.2</ele><time>2026-04-18T15:41:45.916Z</time></trkpt><trkpt lat="53.38308948215817" lon="14.682438830825333"><ele>10.6</ele><time>2026-04-18T15:41:46.916Z</time></trkpt><trkpt lat="53.38309146789831" lon="14.682330879526603"><ele>10.0</ele><time>2026-04-18T15:41:47.916Z</time></trkpt><trkpt lat="53.38296019047624" lon="14.682453276185118"><ele>10.0</ele><time>2026-04-18T15:41:48.916Z</time></trkpt><trkpt lat="53.382889358429196" lon="14.682553236320578"><ele>10.0</ele><time>2026-04-18T15:41:49.916Z</time></trkpt><trkpt lat="53.38280524536305" lon="14.682684067203567"><ele>10.0</ele><time>2026-04-18T15:41:50.916Z</time></trkpt><trkpt lat="53.38271995173652" lon="14.68282904208036"><ele>10.0</ele><time>2026-04-18T15:41:51.916Z</time></trkpt><trkpt lat="53.38262101210282" lon="14.682969217448456"><ele>10.5</ele><time>2026-04-18T15:41:52.916Z</time></trkpt><trkpt lat="53.38251143681172" lon="14.683121510066991"><ele>11.0</ele><time>2026-04-18T15:41:53.916Z</time></trkpt><trkpt lat="53.38239666517196" lon="14.683249929667731"><ele>11.5</ele><time>2026-04-18T15:41:54.916Z</time></trkpt><trkpt lat="53.38228889239566" lon="14.683324326036342"><ele>12.0</ele><time>2026-04-18T15:41:55.916Z</time></trkpt><trkpt lat="53.38219326270493" lon="14.68335212559715"><ele>11.8</ele><time>2026-04-18T15:41:56.916Z</time></trkpt><trkpt lat="53.38212303829439" lon="14.683346572602156"><ele>11.6</ele><time>2026-04-18T15:41:57.916Z</time></trkpt><trkpt lat="53.382013632931226" lon="14.683318186132954"><ele>11.4</ele><time>2026-04-18T15:41:59.916Z</time></trkpt><trkpt lat="53.381935406080984" lon="14.683275775266369"><ele>11.200000000000001</ele><time>2026-04-18T15:42:01.916Z</time></trkpt><trkpt lat="53.38186597431264" lon="14.683181103379177"><ele>11.0</ele><time>2026-04-18T15:42:03.916Z</time></trkpt><trkpt lat="53.38182226662801" lon="14.683009791218383"><ele>11.0</ele><time>2026-04-18T15:42:05.916Z</time></trkpt><trkpt lat="53.381766471965285" lon="14.682827743738612"><ele>11.0</ele><time>2026-04-18T15:42:07.916Z</time></trkpt><trkpt lat="53.381684195277465" lon="14.682679436123442"><ele>11.0</ele><time>2026-04-18T15:42:09.916Z</time></trkpt><trkpt lat="53.3816184292731" lon="14.682643770421532"><ele>11.0</ele><time>2026-04-18T15:42:10.916Z</time></trkpt><trkpt lat="53.381547001731775" lon="14.682602311716675"><ele>11.0</ele><time>2026-04-18T15:42:11.916Z</time></trkpt><trkpt lat="53.381472238305335" lon="14.682582851666314"><ele>11.0</ele><time>2026-04-18T15:42:12.916Z</time></trkpt><trkpt lat="53.381387964379336" lon="14.68266045830534"><ele>11.0</ele><time>2026-04-18T15:42:13.916Z</time></trkpt><trkpt lat="53.38131110958233" lon="14.682732210247158"><ele>11.0</ele><time>2026-04-18T15:42:14.916Z</time></trkpt><trkpt lat="53.38124357872019" lon="14.682831076645355"><ele>11.0</ele><time>2026-04-18T15:42:15.916Z</time></trkpt><trkpt lat="53.38120690390724" lon="14.682962153259252"><ele>11.0</ele><time>2026-04-18T15:42:16.916Z</time></trkpt><trkpt lat="53.38118745395931" lon="14.683103082709824"><ele>11.0</ele><time>2026-04-18T15:42:17.916Z</time></trkpt><trkpt lat="53.38118763230578" lon="14.683249699967822"><ele>11.200000000000001</ele><time>2026-04-18T15:42:18.916Z</time></trkpt><trkpt lat="53.3812160871294" lon="14.683401149030503"><ele>11.4</ele><time>2026-04-18T15:42:19.916Z</time></trkpt><trkpt lat="53.381273349431105" lon="14.683527321585014"><ele>11.6</ele><time>2026-04-18T15:42:20.916Z</time></trkpt><trkpt lat="53.381335589611574" lon="14.683630138562501"><ele>11.8</ele><time>2026-04-18T15:42:21.916Z</time></trkpt><trkpt lat="53.38140941977917" lon="14.683698495610649"><ele>12.0</ele><time>2026-04-18T15:42:22.916Z</time></trkpt><trkpt lat="53.381489847765984" lon="14.683765858703666"><ele>12.0</ele><time>2026-04-18T15:42:23.916Z</time></trkpt><trkpt lat="53.38159505222453" lon="14.683755941024817"><ele>12.0</ele><time>2026-04-18T15:42:24.915Z</time></trkpt><trkpt lat="53.38170225729436" lon="14.68366750213937"><ele>12.0</ele><time>2026-04-18T15:42:25.915Z</time></trkpt><trkpt lat="53.381754374113754" lon="14.68356902761236"><ele>12.0</ele><time>2026-04-18T15:42:26.915Z</time></trkpt><trkpt lat="53.38178954988145" lon="14.683457261530993"><ele>12.0</ele><time>2026-04-18T15:42:27.915Z</time></trkpt><trkpt lat="53.38184689744622" lon="14.683393683787868"><ele>12.0</ele><time>2026-04-18T15:42:28.915Z</time></trkpt><trkpt lat="53.38199171099096" lon="14.683381376793685"><ele>12.0</ele><time>2026-04-18T15:42:30.915Z</time></trkpt><trkpt lat="53.38205791734627" lon="14.683397530167168"><ele>12.0</ele><time>2026-04-18T15:42:31.915Z</time></trkpt><trkpt lat="53.38218460248384" lon="14.683407637088218"><ele>12.0</ele><time>2026-04-18T15:42:33.915Z</time></trkpt><trkpt lat="53.382266340140646" lon="14.683391838991708"><ele>12.0</ele><time>2026-04-18T15:42:34.915Z</time></trkpt><trkpt lat="53.382359313816536" lon="14.683355979049738"><ele>12.0</ele><time>2026-04-18T15:42:35.915Z</time></trkpt><trkpt lat="53.38245887050916" lon="14.683280763792347"><ele>12.0</ele><time>2026-04-18T15:42:36.915Z</time></trkpt><trkpt lat="53.38255302332961" lon="14.683171740264894"><ele>12.0</ele><time>2026-04-18T15:42:37.915Z</time></trkpt><trkpt lat="53.382637449246516" lon="14.683030504790295"><ele>12.0</ele><time>2026-04-18T15:42:38.915Z</time></trkpt><trkpt lat="53.38273483284102" lon="14.682865836275855"><ele>12.0</ele><time>2026-04-18T15:42:39.915Z</time></trkpt><trkpt lat="53.3828368791917" lon="14.682716436394001"><ele>11.5</ele><time>2026-04-18T15:42:40.915Z</time></trkpt><trkpt lat="53.38292478521528" lon="14.682594894193633"><ele>11.0</ele><time>2026-04-18T15:42:41.915Z</time></trkpt><trkpt lat="53.38299843140617" lon="14.682518098876837"><ele>10.5</ele><time>2026-04-18T15:42:42.915Z</time></trkpt><trkpt lat="53.38305703374779" lon="14.682462804675916"><ele>10.0</ele><time>2026-04-18T15:42:43.915Z</time></trkpt><trkpt lat="53.38322033183423" lon="14.682674430415236"><ele>10.75</ele><time>2026-04-18T15:42:45.915Z</time></trkpt><trkpt lat="53.383299115771315" lon="14.682829826037247"><ele>11.5</ele><time>2026-04-18T15:42:46.915Z</time></trkpt><trkpt lat="53.383391341157754" lon="14.682998059189325"><ele>12.25</ele><time>2026-04-18T15:42:47.915Z</time></trkpt><trkpt lat="53.38349044543756" lon="14.683187459751377"><ele>13.0</ele><time>2026-04-18T15:42:48.915Z</time></trkpt><trkpt lat="53.38359561814039" lon="14.683381337174193"><ele>13.0</ele><time>2026-04-18T15:42:49.915Z</time></trkpt><trkpt lat="53.38370195339108" lon="14.683587792721609"><ele>13.0</ele><time>2026-04-18T15:42:50.915Z</time></trkpt><trkpt lat="53.38381447906594" lon="14.683810211832125"><ele>13.0</ele><time>2026-04-18T15:42:51.915Z</time></trkpt><trkpt lat="53.38393327571544" lon="14.684041643561102"><ele>12.333333333333332</ele><time>2026-04-18T15:42:52.915Z</time></trkpt><trkpt lat="53.3840544416953" lon="14.684275436291541"><ele>11.666666666666666</ele><time>2026-04-18T15:42:53.913Z</time></trkpt><trkpt lat="53.38417507883951" lon="14.684507748873397"><ele>11.0</ele><time>2026-04-18T15:42:54.913Z</time></trkpt><trkpt lat="53.384290667842826" lon="14.684728789435546"><ele>11.0</ele><time>2026-04-18T15:42:55.913Z</time></trkpt><trkpt lat="53.38440735144173" lon="14.684953551814703"><ele>11.0</ele><time>2026-04-18T15:42:56.913Z</time></trkpt><trkpt lat="53.38451522005026" lon="14.685153068780401"><ele>11.0</ele><time>2026-04-18T15:42:57.912Z</time></trkpt><trkpt lat="53.384619381351925" lon="14.68534027943102"><ele>10.200000000000001</ele><time>2026-04-18T15:42:58.912Z</time></trkpt><trkpt lat="53.384699067697305" lon="14.685495271118548"><ele>9.4</ele><time>2026-04-18T15:42:59.913Z</time></trkpt><trkpt lat="53.38476086793839" lon="14.685629938788141"><ele>8.6</ele><time>2026-04-18T15:43:00.912Z</time></trkpt><trkpt lat="53.38479951647776" lon="14.685743183035955"><ele>7.8</ele><time>2026-04-18T15:43:01.912Z</time></trkpt><trkpt lat="53.38484829113443" lon="14.685843437065227"><ele>7.0</ele><time>2026-04-18T15:43:03.912Z</time></trkpt><trkpt lat="53.38479425126146" lon="14.685949744338897"><ele>7.0</ele><time>2026-04-18T15:43:05.913Z</time></trkpt><trkpt lat="53.38476517152083" lon="14.686047691239066"><ele>6.999999999999999</ele><time>2026-04-18T15:43:15.913Z</time></trkpt><trkpt lat="53.3847618097794" lon="14.686223127948466"><ele>6.999999999999999</ele><time>2026-04-18T15:43:19.913Z</time></trkpt><trkpt lat="53.384595263119024" lon="14.686319583814509"><ele>7.0</ele><time>2026-04-18T15:43:21.913Z</time></trkpt><trkpt lat="53.38457444643179" lon="14.68642090070211"><ele>7.0</ele><time>2026-04-18T15:43:24.913Z</time></trkpt><trkpt lat="53.3845671646362" lon="14.686531569868723"><ele>8.6</ele><time>2026-04-18T15:44:12.912Z</time></trkpt><trkpt lat="53.38453343700546" lon="14.686711139121883"><ele>10.2</ele><time>2026-04-18T15:44:15.912Z</time></trkpt><trkpt lat="53.38450202973856" lon="14.686875307692775"><ele>11.8</ele><time>2026-04-18T15:44:17.912Z</time></trkpt><trkpt lat="53.38444285131812" lon="14.68702798299331"><ele>13.4</ele><time>2026-04-18T15:44:19.912Z</time></trkpt><trkpt lat="53.38441297371641" lon="14.687124720236074"><ele>15.0</ele><time>2026-04-18T15:44:20.912Z</time></trkpt><trkpt lat="53.38437601557693" lon="14.687242970152317"><ele>15.0</ele><time>2026-04-18T15:44:22.912Z</time></trkpt><trkpt lat="53.384317062469584" lon="14.68734924745621"><ele>15.0</ele><time>2026-04-18T15:44:24.912Z</time></trkpt><trkpt lat="53.384245878902775" lon="14.687407664681391"><ele>15.0</ele><time>2026-04-18T15:44:26.912Z</time></trkpt><trkpt lat="53.3841468184085" lon="14.687437550128614"><ele>15.0</ele><time>2026-04-18T15:44:28.912Z</time></trkpt><trkpt lat="53.38403929035164" lon="14.687444395891411"><ele>15.0</ele><time>2026-04-18T15:44:30.912Z</time></trkpt><trkpt lat="53.383972624967136" lon="14.687503656642408"><ele>15.0</ele><time>2026-04-18T15:44:31.912Z</time></trkpt><trkpt lat="53.38391299662485" lon="14.687555587300205"><ele>15.0</ele><time>2026-04-18T15:44:32.912Z</time></trkpt><trkpt lat="53.383804624864666" lon="14.687659185221253"><ele>15.0</ele><time>2026-04-18T15:44:34.912Z</time></trkpt><trkpt lat="53.383710545597" lon="14.687743953068104"><ele>15.0</ele><time>2026-04-18T15:44:36.912Z</time></trkpt><trkpt lat="53.38363502927781" lon="14.687813130421917"><ele>15.0</ele><time>2026-04-18T15:44:38.912Z</time></trkpt><trkpt lat="53.38357190932634" lon="14.687910228224176"><ele>16.0</ele><time>2026-04-18T15:44:40.912Z</time></trkpt><trkpt lat="53.38347364200326" lon="14.68797732004834"><ele>17.0</ele><time>2026-04-18T15:44:42.912Z</time></trkpt><trkpt lat="53.38335396845551" lon="14.687953342636547"><ele>18.0</ele><time>2026-04-18T15:44:44.912Z</time></trkpt><trkpt lat="53.38324287259974" lon="14.687911896018228"><ele>19.0</ele><time>2026-04-18T15:44:46.912Z</time></trkpt><trkpt lat="53.383169033804585" lon="14.68791104997046"><ele>20.0</ele><time>2026-04-18T15:44:47.912Z</time></trkpt><trkpt lat="53.383065976058774" lon="14.687911682170606"><ele>19.333333333333336</ele><time>2026-04-18T15:44:49.912Z</time></trkpt><trkpt lat="53.3829912830508" lon="14.687898051099827"><ele>18.666666666666668</ele><time>2026-04-18T15:44:52.912Z</time></trkpt><trkpt lat="53.38291048453524" lon="14.687877307234498"><ele>18.0</ele><time>2026-04-18T15:44:54.912Z</time></trkpt><trkpt lat="53.38287407275051" lon="14.687990483384231"><ele>17.333333333333332</ele><time>2026-04-18T15:45:00.91Z</time></trkpt><trkpt lat="53.38292959858953" lon="14.688069589127112"><ele>16.666666666666664</ele><time>2026-04-18T15:45:03.91Z</time></trkpt><trkpt lat="53.38296917674048" lon="14.688219455211833"><ele>16.0</ele><time>2026-04-18T15:45:08.909Z</time></trkpt><trkpt lat="53.383005176912825" lon="14.68832665849831"><ele>16.666666666666664</ele><time>2026-04-18T15:45:11.91Z</time></trkpt><trkpt lat="53.38303330466388" lon="14.688437805063705"><ele>17.333333333333332</ele><time>2026-04-18T15:45:14.909Z</time></trkpt><trkpt lat="53.38303318022862" lon="14.688549989502452"><ele>18.0</ele><time>2026-04-18T15:45:16.909Z</time></trkpt><trkpt lat="53.38307047395036" lon="14.6886603655371"><ele>18.666666666666668</ele><time>2026-04-18T15:45:19.909Z</time></trkpt><trkpt lat="53.383135285017886" lon="14.68879861412162"><ele>19.333333333333336</ele><time>2026-04-18T15:45:22.909Z</time></trkpt><trkpt lat="53.38316401053259" lon="14.688941626290624"><ele>20.0</ele><time>2026-04-18T15:45:24.909Z</time></trkpt><trkpt lat="53.383208701468384" lon="14.689100688224283"><ele>20.142857142857142</ele><time>2026-04-18T15:45:26.909Z</time></trkpt><trkpt lat="53.38321912288135" lon="14.689232705514492"><ele>20.285714285714285</ele><time>2026-04-18T15:45:28.909Z</time></trkpt><trkpt lat="53.38317397099423" lon="14.689367132920335"><ele>20.42857142857143</ele><time>2026-04-18T15:45:30.909Z</time></trkpt><trkpt lat="53.3831338900779" lon="14.689466549056243"><ele>20.57142857142857</ele><time>2026-04-18T15:45:33.909Z</time></trkpt><trkpt lat="53.38310519463076" lon="14.689569707569294"><ele>20.714285714285715</ele><time>2026-04-18T15:46:26.909Z</time></trkpt><trkpt lat="53.383043335167386" lon="14.689595097248596"><ele>20.857142857142858</ele><time>2026-04-18T15:46:30.909Z</time></trkpt><trkpt lat="53.38298510601462" lon="14.68965532487818"><ele>21.0</ele><time>2026-04-18T15:46:36.909Z</time></trkpt><trkpt lat="53.382951066164416" lon="14.689778376353976"><ele>21.0</ele><time>2026-04-18T15:46:48.909Z</time></trkpt><trkpt lat="53.382925099826295" lon="14.689913660786305"><ele>21.0</ele><time>2026-04-18T15:46:54.909Z</time></trkpt><trkpt lat="53.38298149374583" lon="14.69000639327124"><ele>21.0</ele><time>2026-04-18T15:46:59.909Z</time></trkpt><trkpt lat="53.38301039490121" lon="14.69012884262303"><ele>21.0</ele><time>2026-04-18T15:47:06.907Z</time></trkpt><trkpt lat="53.38303281488105" lon="14.690233265585507"><ele>21.0</ele><time>2026-04-18T15:47:10.907Z</time></trkpt><trkpt lat="53.3830840820717" lon="14.690303933793967"><ele>21.0</ele><time>2026-04-18T15:47:21.907Z</time></trkpt><trkpt lat="53.383124342958766" lon="14.690427076233089"><ele>21.166666666666668</ele><time>2026-04-18T15:47:25.907Z</time></trkpt><trkpt lat="53.38318348272138" lon="14.690505804440754"><ele>21.333333333333332</ele><time>2026-04-18T15:47:28.907Z</time></trkpt><trkpt lat="53.38324907048258" lon="14.690629331020508"><ele>21.5</ele><time>2026-04-18T15:47:31.907Z</time></trkpt><trkpt lat="53.38329129421888" lon="14.69073294050087"><ele>21.666666666666664</ele><time>2026-04-18T15:47:33.907Z</time></trkpt><trkpt lat="53.38332863066058" lon="14.69082261395326"><ele>21.833333333333332</ele><time>2026-04-18T15:47:35.907Z</time></trkpt><trkpt lat="53.38338849432004" lon="14.690879051594752"><ele>22.0</ele><time>2026-04-18T15:47:38.907Z</time></trkpt><trkpt lat="53.38346555375689" lon="14.690852381780047"><ele>22.0</ele><time>2026-04-18T15:47:40.907Z</time></trkpt><trkpt lat="53.383539573921965" lon="14.690819914641175"><ele>22.0</ele><time>2026-04-18T15:47:42.907Z</time></trkpt><trkpt lat="53.38360386949763" lon="14.690817243444513"><ele>22.0</ele><time>2026-04-18T15:47:46.907Z</time></trkpt><trkpt lat="53.38368951417684" lon="14.690728322029967"><ele>22.0</ele><time>2026-04-18T15:47:48.907Z</time></trkpt><trkpt lat="53.383773437010596" lon="14.690697472147923"><ele>22.0</ele><time>2026-04-18T15:47:51.906Z</time></trkpt><trkpt lat="53.383879158718564" lon="14.690736163318682"><ele>22.0</ele><time>2026-04-18T15:47:53.906Z</time></trkpt><trkpt lat="53.383942190546286" lon="14.690824184764882"><ele>22.0</ele><time>2026-04-18T15:47:55.906Z</time></trkpt><trkpt lat="53.38399226533444" lon="14.690922523601627"><ele>22.0</ele><time>2026-04-18T15:47:56.906Z</time></trkpt><trkpt lat="53.38404954607397" lon="14.691056492531361"><ele>22.0</ele><time>2026-04-18T15:47:57.906Z</time></trkpt><trkpt lat="53.38410528532546" lon="14.691173436805443"><ele>22.0</ele><time>2026-04-18T15:47:58.906Z</time></trkpt><trkpt lat="53.384182809330056" lon="14.691325067099605"><ele>22.0</ele><time>2026-04-18T15:47:59.906Z</time></trkpt><trkpt lat="53.38424474185962" lon="14.691435026806923"><ele>22.0</ele><time>2026-04-18T15:48:00.906Z</time></trkpt><trkpt lat="53.384317738305434" lon="14.691533504524775"><ele>22.0</ele><time>2026-04-18T15:48:01.906Z</time></trkpt><trkpt lat="53.38438705652019" lon="14.691615212692836"><ele>22.0</ele><time>2026-04-18T15:48:02.906Z</time></trkpt><trkpt lat="53.38444087523283" lon="14.691674681192922"><ele>22.0</ele><time>2026-04-18T15:48:03.906Z</time></trkpt><trkpt lat="53.38449234175026" lon="14.691744990030346"><ele>22.0</ele><time>2026-04-18T15:48:04.906Z</time></trkpt><trkpt lat="53.384563463567574" lon="14.69183529916032"><ele>22.0</ele><time>2026-04-18T15:48:05.906Z</time></trkpt><trkpt lat="53.38464495017068" lon="14.69190116443728"><ele>22.400000000000002</ele><time>2026-04-18T15:48:06.906Z</time></trkpt><trkpt lat="53.384738282317564" lon="14.692059864024067"><ele>22.8</ele><time>2026-04-18T15:48:08.906Z</time></trkpt><trkpt lat="53.384794113900305" lon="14.692118003984271"><ele>23.2</ele><time>2026-04-18T15:48:09.906Z</time></trkpt><trkpt lat="53.38484911744306" lon="14.69217472282896"><ele>23.6</ele><time>2026-04-18T15:48:10.906Z</time></trkpt><trkpt lat="53.38485830190931" lon="14.692314868453497"><ele>24.0</ele><time>2026-04-18T15:48:12.906Z</time></trkpt><trkpt lat="53.3848369663404" lon="14.692561555947176"><ele>24.0</ele><time>2026-04-18T15:48:14.906Z</time></trkpt><trkpt lat="53.38482724194235" lon="14.692699688696274"><ele>24.0</ele><time>2026-04-18T15:48:15.906Z</time></trkpt><trkpt lat="53.38482318227303" lon="14.69281399169419"><ele>24.0</ele><time>2026-04-18T15:48:16.906Z</time></trkpt><trkpt lat="53.38483845940142" lon="14.692923918322188"><ele>24.0</ele><time>2026-04-18T15:48:17.906Z</time></trkpt><trkpt lat="53.38486852692366" lon="14.693039278672655"><ele>24.0</ele><time>2026-04-18T15:48:18.906Z</time></trkpt><trkpt lat="53.38492667778518" lon="14.693244063605704"><ele>24.0</ele><time>2026-04-18T15:48:20.906Z</time></trkpt><trkpt lat="53.38497020736693" lon="14.693367663190969"><ele>24.0</ele><time>2026-04-18T15:48:21.906Z</time></trkpt><trkpt lat="53.38500857280504" lon="14.69347363682476"><ele>24.0</ele><time>2026-04-18T15:48:22.906Z</time></trkpt><trkpt lat="53.38504368602989" lon="14.693586186629732"><ele>24.0</ele><time>2026-04-18T15:48:23.906Z</time></trkpt><trkpt lat="53.38508177904056" lon="14.693718966464035"><ele>24.0</ele><time>2026-04-18T15:48:24.906Z</time></trkpt><trkpt lat="53.385142361252726" lon="14.693863968231213"><ele>24.0</ele><time>2026-04-18T15:48:26.906Z</time></trkpt><trkpt lat="53.38521489119668" lon="14.693987774582851"><ele>24.0</ele><time>2026-04-18T15:48:28.906Z</time></trkpt><trkpt lat="53.38526660357983" lon="14.694060001665857"><ele>23.857142857142854</ele><time>2026-04-18T15:48:30.906Z</time></trkpt><trkpt lat="53.385290556017054" lon="14.69416365814704"><ele>23.714285714285715</ele><time>2026-04-18T15:48:32.906Z</time></trkpt><trkpt lat="53.38529729517982" lon="14.694284665072058"><ele>23.57142857142857</ele><time>2026-04-18T15:48:33.906Z</time></trkpt><trkpt lat="53.38528631042747" lon="14.694405205637544"><ele>23.428571428571427</ele><time>2026-04-18T15:48:34.906Z</time></trkpt><trkpt lat="53.38526389595897" lon="14.694518547625979"><ele>23.285714285714285</ele><time>2026-04-18T15:48:35.906Z</time></trkpt><trkpt lat="53.38523660762371" lon="14.694633438740377"><ele>23.142857142857142</ele><time>2026-04-18T15:48:36.906Z</time></trkpt><trkpt lat="53.38522217127935" lon="14.694753941291896"><ele>23.0</ele><time>2026-04-18T15:48:37.906Z</time></trkpt><trkpt lat="53.38522207922428" lon="14.694860590207513"><ele>23.0</ele><time>2026-04-18T15:48:38.906Z</time></trkpt><trkpt lat="53.385227333118245" lon="14.694970389541625"><ele>23.0</ele><time>2026-04-18T15:48:45.906Z</time></trkpt><trkpt lat="53.38523675411191" lon="14.695075982023392"><ele>23.0</ele><time>2026-04-18T15:48:53.906Z</time></trkpt><trkpt lat="53.38531498602548" lon="14.695061787367699"><ele>23.0</ele><time>2026-04-18T15:49:05.906Z</time></trkpt><trkpt lat="53.385399246834446" lon="14.695027036822914"><ele>23.0</ele><time>2026-04-18T15:49:11.903Z</time></trkpt><trkpt lat="53.385457770954844" lon="14.69496837648269"><ele>23.0</ele><time>2026-04-18T15:49:42.904Z</time></trkpt><trkpt lat="53.38551105349726" lon="14.694895757130755"><ele>23.0</ele><time>2026-04-18T15:49:45.904Z</time></trkpt><trkpt lat="53.38555889280577" lon="14.694823372046292"><ele>22.571428571428573</ele><time>2026-04-18T15:50:56.903Z</time></trkpt><trkpt lat="53.38551632146742" lon="14.694730167759547"><ele>22.142857142857142</ele><time>2026-04-18T15:51:00.903Z</time></trkpt><trkpt lat="53.38555189321733" lon="14.69463497913219"><ele>21.714285714285715</ele><time>2026-04-18T15:51:03.903Z</time></trkpt><trkpt lat="53.3855841811069" lon="14.69453882128058"><ele>21.285714285714285</ele><time>2026-04-18T15:51:06.903Z</time></trkpt><trkpt lat="53.385607896417255" lon="14.694427446095963"><ele>20.857142857142858</ele><time>2026-04-18T15:51:10.903Z</time></trkpt><trkpt lat="53.38567099737514" lon="14.694340345947277"><ele>20.428571428571427</ele><time>2026-04-18T15:51:12.903Z</time></trkpt><trkpt lat="53.38571849670618" lon="14.694255734055625"><ele>20.0</ele><time>2026-04-18T15:51:14.903Z</time></trkpt><trkpt lat="53.385769069040585" lon="14.694190867091654"><ele>19.833333333333336</ele><time>2026-04-18T15:51:16.903Z</time></trkpt><trkpt lat="53.38582829739901" lon="14.694099991863412"><ele>19.666666666666668</ele><time>2026-04-18T15:51:19.901Z</time></trkpt><trkpt lat="53.385883021216266" lon="14.693992309710012"><ele>19.5</ele><time>2026-04-18T15:51:23.901Z</time></trkpt><trkpt lat="53.38593911909968" lon="14.693868634208425"><ele>19.333333333333332</ele><time>2026-04-18T15:51:25.9Z</time></trkpt><trkpt lat="53.38597642134683" lon="14.693769911826498"><ele>19.166666666666664</ele><time>2026-04-18T15:51:26.901Z</time></trkpt><trkpt lat="53.386012999991856" lon="14.69367692103552"><ele>19.0</ele><time>2026-04-18T15:51:27.901Z</time></trkpt><trkpt lat="53.386043296719464" lon="14.693571041099226"><ele>19.4</ele><time>2026-04-18T15:51:28.901Z</time></trkpt><trkpt lat="53.386062659580666" lon="14.693448012027732"><ele>19.799999999999997</ele><time>2026-04-18T15:51:29.901Z</time></trkpt><trkpt lat="53.38608843969758" lon="14.693311915053759"><ele>20.200000000000003</ele><time>2026-04-18T15:51:30.901Z</time></trkpt><trkpt lat="53.38612691845308" lon="14.693166350829426"><ele>20.6</ele><time>2026-04-18T15:51:31.901Z</time></trkpt><trkpt lat="53.386157959491236" lon="14.69302398190154"><ele>21.0</ele><time>2026-04-18T15:51:32.901Z</time></trkpt><trkpt lat="53.38620069419762" lon="14.692851276377464"><ele>21.0</ele><time>2026-04-18T15:51:33.901Z</time></trkpt><trkpt lat="53.38624398754136" lon="14.692733319022313"><ele>21.0</ele><time>2026-04-18T15:51:34.901Z</time></trkpt><trkpt lat="53.3862940503878" lon="14.692638147393517"><ele>21.0</ele><time>2026-04-18T15:51:35.901Z</time></trkpt><trkpt lat="53.38634605295282" lon="14.692538781488665"><ele>21.0</ele><time>2026-04-18T15:51:36.901Z</time></trkpt><trkpt lat="53.38636135356624" lon="14.692423406079174"><ele>21.0</ele><time>2026-04-18T15:51:37.901Z</time></trkpt><trkpt lat="53.38639531576101" lon="14.692315552763233"><ele>21.0</ele><time>2026-04-18T15:51:38.901Z</time></trkpt><trkpt lat="53.38642925551789" lon="14.692210824307688"><ele>20.333333333333332</ele><time>2026-04-18T15:51:39.901Z</time></trkpt><trkpt lat="53.38646409056742" lon="14.692100919089624"><ele>19.666666666666668</ele><time>2026-04-18T15:51:40.901Z</time></trkpt><trkpt lat="53.386501326811405" lon="14.691983067682031"><ele>19.0</ele><time>2026-04-18T15:51:41.901Z</time></trkpt><trkpt lat="53.38652967267664" lon="14.691846965057685"><ele>18.333333333333336</ele><time>2026-04-18T15:51:42.901Z</time></trkpt><trkpt lat="53.38656076230669" lon="14.691731634713245"><ele>17.666666666666668</ele><time>2026-04-18T15:51:43.901Z</time></trkpt><trkpt lat="53.38658771950266" lon="14.691631139649356"><ele>17.0</ele><time>2026-04-18T15:51:44.901Z</time></trkpt><trkpt lat="53.38664133373654" lon="14.691457960605781"><ele>16.333333333333336</ele><time>2026-04-18T15:51:46.901Z</time></trkpt><trkpt lat="53.38665683784354" lon="14.691306865992296"><ele>15.666666666666668</ele><time>2026-04-18T15:51:48.901Z</time></trkpt><trkpt lat="53.386661236847644" lon="14.69120044137815"><ele>15.0</ele><time>2026-04-18T15:51:50.901Z</time></trkpt><trkpt lat="53.38677216741612" lon="14.691208820179305"><ele>14.333333333333332</ele><time>2026-04-18T15:51:55.901Z</time></trkpt><trkpt lat="53.386832949802816" lon="14.691246711098406"><ele>13.666666666666666</ele><time>2026-04-18T15:51:56.901Z</time></trkpt><trkpt lat="53.38689366753044" lon="14.691280061442178"><ele>13.0</ele><time>2026-04-18T15:51:57.901Z</time></trkpt><trkpt lat="53.386969638494165" lon="14.691292292072056"><ele>13.0</ele><time>2026-04-18T15:53:44.898Z</time></trkpt><trkpt lat="53.387093008993546" lon="14.691330688772592"><ele>13.0</ele><time>2026-04-18T15:53:46.898Z</time></trkpt><trkpt lat="53.3872232561116" lon="14.691407870761335"><ele>13.0</ele><time>2026-04-18T15:53:48.898Z</time></trkpt><trkpt lat="53.38729883785619" lon="14.691455112486475"><ele>13.0</ele><time>2026-04-18T15:53:49.898Z</time></trkpt><trkpt lat="53.38736847174517" lon="14.691487477038214"><ele>13.0</ele><time>2026-04-18T15:53:50.898Z</time></trkpt><trkpt lat="53.38744387994095" lon="14.6915208406673"><ele>12.4</ele><time>2026-04-18T15:53:51.898Z</time></trkpt><trkpt lat="53.387531637524056" lon="14.691595080787227"><ele>11.8</ele><time>2026-04-18T15:53:52.898Z</time></trkpt><trkpt lat="53.3876046643077" lon="14.691651379969072"><ele>11.2</ele><time>2026-04-18T15:53:53.898Z</time></trkpt><trkpt lat="53.38766573289385" lon="14.691697250939146"><ele>10.6</ele><time>2026-04-18T15:53:54.898Z</time></trkpt><trkpt lat="53.38777573078399" lon="14.69179135098908"><ele>10.0</ele><time>2026-04-18T15:53:56.898Z</time></trkpt><trkpt lat="53.387866626731274" lon="14.691860711983994"><ele>10.0</ele><time>2026-04-18T15:53:58.898Z</time></trkpt><trkpt lat="53.38795340417885" lon="14.691886998756443"><ele>10.0</ele><time>2026-04-18T15:54:00.898Z</time></trkpt><trkpt lat="53.388053889257655" lon="14.691882010670536"><ele>10.0</ele><time>2026-04-18T15:54:02.898Z</time></trkpt><trkpt lat="53.38812420408089" lon="14.691906776447158"><ele>10.0</ele><time>2026-04-18T15:54:03.898Z</time></trkpt><trkpt lat="53.38819692534738" lon="14.691953287924438"><ele>10.0</ele><time>2026-04-18T15:54:04.898Z</time></trkpt><trkpt lat="53.38827171864074" lon="14.69200816629354"><ele>10.0</ele><time>2026-04-18T15:54:05.898Z</time></trkpt><trkpt lat="53.38835681144423" lon="14.692052573004402"><ele>9.8</ele><time>2026-04-18T15:54:06.898Z</time></trkpt><trkpt lat="53.38842601204726" lon="14.692080352634374"><ele>9.6</ele><time>2026-04-18T15:54:07.898Z</time></trkpt><trkpt lat="53.38849556101098" lon="14.692098820484297"><ele>9.4</ele><time>2026-04-18T15:54:08.898Z</time></trkpt><trkpt lat="53.3885856361958" lon="14.69213769193208"><ele>9.2</ele><time>2026-04-18T15:54:10.898Z</time></trkpt><trkpt lat="53.38870931709323" lon="14.692165428812144"><ele>9.0</ele><time>2026-04-18T15:54:12.898Z</time></trkpt><trkpt lat="53.388813374333246" lon="14.69204632768996"><ele>9.0</ele><time>2026-04-18T15:54:14.898Z</time></trkpt><trkpt lat="53.388853315925566" lon="14.691964590066592"><ele>9.0</ele><time>2026-04-18T15:54:15.898Z</time></trkpt><trkpt lat="53.38892543853927" lon="14.691780887939036"><ele>9.0</ele><time>2026-04-18T15:54:17.898Z</time></trkpt><trkpt lat="53.38897580219842" lon="14.691714904207306"><ele>9.0</ele><time>2026-04-18T15:54:18.898Z</time></trkpt><trkpt lat="53.389038293890046" lon="14.691674783696598"><ele>9.0</ele><time>2026-04-18T15:54:19.898Z</time></trkpt><trkpt lat="53.389104002428624" lon="14.69163962831335"><ele>9.0</ele><time>2026-04-18T15:54:20.898Z</time></trkpt><trkpt lat="53.38919451010513" lon="14.691595187887946"><ele>9.0</ele><time>2026-04-18T15:54:22.898Z</time></trkpt><trkpt lat="53.38919049740217" lon="14.691438461708268"><ele>9.0</ele><time>2026-04-18T15:54:26.898Z</time></trkpt><trkpt lat="53.389180100064955" lon="14.691316199024936"><ele>9.0</ele><time>2026-04-18T15:54:28.898Z</time></trkpt><trkpt lat="53.38921931842143" lon="14.691215990503201"><ele>9.0</ele><time>2026-04-18T15:54:32.898Z</time></trkpt><trkpt lat="53.38922437780195" lon="14.691096393262269"><ele>9.0</ele><time>2026-04-18T15:54:34.898Z</time></trkpt><trkpt lat="53.38923155227421" lon="14.690926803942864"><ele>9.0</ele><time>2026-04-18T15:54:36.898Z</time></trkpt><trkpt lat="53.389237158507456" lon="14.690806336338692"><ele>8.666666666666666</ele><time>2026-04-18T15:54:37.898Z</time></trkpt><trkpt lat="53.38924328843675" lon="14.690675537436363"><ele>8.333333333333334</ele><time>2026-04-18T15:54:38.898Z</time></trkpt><trkpt lat="53.38924841107622" lon="14.690563891351445"><ele>8.0</ele><time>2026-04-18T15:54:39.898Z</time></trkpt><trkpt lat="53.38925501000147" lon="14.690418237066588"><ele>7.666666666666667</ele><time>2026-04-18T15:54:40.898Z</time></trkpt><trkpt lat="53.38926345037453" lon="14.690281104639887"><ele>7.333333333333334</ele><time>2026-04-18T15:54:41.898Z</time></trkpt><trkpt lat="53.38927193787443" lon="14.690114608279853"><ele>7.0</ele><time>2026-04-18T15:54:42.898Z</time></trkpt><trkpt lat="53.38928002341809" lon="14.689935655904119"><ele>6.6</ele><time>2026-04-18T15:54:43.898Z</time></trkpt><trkpt lat="53.38929164671552" lon="14.689755271937473"><ele>6.199999999999999</ele><time>2026-04-18T15:54:44.898Z</time></trkpt><trkpt lat="53.389304332157344" lon="14.689579380862957"><ele>5.8</ele><time>2026-04-18T15:54:45.898Z</time></trkpt><trkpt lat="53.389325252251616" lon="14.689390112123599"><ele>5.4</ele><time>2026-04-18T15:54:46.898Z</time></trkpt><trkpt lat="53.38933593396768" lon="14.68920255415999"><ele>5.0</ele><time>2026-04-18T15:54:47.898Z</time></trkpt><trkpt lat="53.389345843972066" lon="14.68902459549979"><ele>5.0</ele><time>2026-04-18T15:54:48.898Z</time></trkpt><trkpt lat="53.38936173596869" lon="14.68882619181928"><ele>5.0</ele><time>2026-04-18T15:54:49.898Z</time></trkpt><trkpt lat="53.38938186048809" lon="14.688638871912087"><ele>5.0</ele><time>2026-04-18T15:54:50.898Z</time></trkpt><trkpt lat="53.38940841333942" lon="14.688448395976588"><ele>5.0</ele><time>2026-04-18T15:54:51.898Z</time></trkpt><trkpt lat="53.3894267833463" lon="14.688267675940002"><ele>5.25</ele><time>2026-04-18T15:54:52.898Z</time></trkpt><trkpt lat="53.38944319565352" lon="14.68808735487489"><ele>5.5</ele><time>2026-04-18T15:54:53.898Z</time></trkpt><trkpt lat="53.38946858333313" lon="14.687883352967134"><ele>5.75</ele><time>2026-04-18T15:54:54.898Z</time></trkpt><trkpt lat="53.38949059545884" lon="14.687677647522355"><ele>6.0</ele><time>2026-04-18T15:54:55.898Z</time></trkpt><trkpt lat="53.3895145101678" lon="14.687470537959456"><ele>6.0</ele><time>2026-04-18T15:54:56.898Z</time></trkpt><trkpt lat="53.38954391287" lon="14.687258239206344"><ele>6.0</ele><time>2026-04-18T15:54:57.898Z</time></trkpt><trkpt lat="53.38957000706355" lon="14.687046504830445"><ele>6.0</ele><time>2026-04-18T15:54:58.898Z</time></trkpt><trkpt lat="53.38959532705999" lon="14.686847174299771"><ele>6.0</ele><time>2026-04-18T15:54:59.898Z</time></trkpt><trkpt lat="53.389618428753174" lon="14.686679734431582"><ele>6.0</ele><time>2026-04-18T15:55:00.898Z</time></trkpt><trkpt lat="53.3896350685468" lon="14.686520691675456"><ele>6.0</ele><time>2026-04-18T15:55:01.898Z</time></trkpt><trkpt lat="53.38963966595856" lon="14.686370011981575"><ele>6.0</ele><time>2026-04-18T15:55:02.898Z</time></trkpt><trkpt lat="53.389665325047304" lon="14.686247042956595"><ele>6.0</ele><time>2026-04-18T15:55:03.898Z</time></trkpt><trkpt lat="53.38967643979179" lon="14.686128999757189"><ele>6.0</ele><time>2026-04-18T15:55:04.898Z</time></trkpt><trkpt lat="53.389592858070074" lon="14.686002772328205"><ele>6.0</ele><time>2026-04-18T15:55:05.898Z</time></trkpt><trkpt lat="53.38954056761805" lon="14.685910165689053"><ele>5.5</ele><time>2026-04-18T15:55:06.898Z</time></trkpt><trkpt lat="53.38957034600236" lon="14.685649697159379"><ele>5.0</ele><time>2026-04-18T15:55:08.898Z</time></trkpt><trkpt lat="53.3895958805563" lon="14.685479977981126"><ele>4.5</ele><time>2026-04-18T15:55:09.898Z</time></trkpt><trkpt lat="53.38961691710804" lon="14.68529927319121"><ele>4.0</ele><time>2026-04-18T15:55:10.898Z</time></trkpt><trkpt lat="53.389635957250945" lon="14.68509782655935"><ele>4.0</ele><time>2026-04-18T15:55:11.898Z</time></trkpt><trkpt lat="53.389658438532834" lon="14.684890879229476"><ele>4.0</ele><time>2026-04-18T15:55:12.898Z</time></trkpt><trkpt lat="53.389681424097866" lon="14.684675913327688"><ele>4.0</ele><time>2026-04-18T15:55:13.898Z</time></trkpt><trkpt lat="53.389703264802236" lon="14.684464973900104"><ele>4.0</ele><time>2026-04-18T15:55:14.898Z</time></trkpt><trkpt lat="53.389730261040384" lon="14.68422469738376"><ele>3.75</ele><time>2026-04-18T15:55:15.898Z</time></trkpt><trkpt lat="53.38977187545787" lon="14.68400758626508"><ele>3.5</ele><time>2026-04-18T15:55:16.898Z</time></trkpt><trkpt lat="53.38979422276362" lon="14.68379086613288"><ele>3.25</ele><time>2026-04-18T15:55:17.898Z</time></trkpt><trkpt lat="53.38981739935487" lon="14.683599197457859"><ele>3.0</ele><time>2026-04-18T15:55:18.898Z</time></trkpt><trkpt lat="53.38983941642392" lon="14.683442923076854"><ele>3.0</ele><time>2026-04-18T15:55:19.898Z</time></trkpt><trkpt lat="53.38984266160147" lon="14.683293571020146"><ele>3.0</ele><time>2026-04-18T15:55:20.898Z</time></trkpt><trkpt lat="53.389836545393486" lon="14.683158060098593"><ele>3.0</ele><time>2026-04-18T15:55:21.898Z</time></trkpt><trkpt lat="53.38978823318078" lon="14.683033621195005"><ele>3.0</ele><time>2026-04-18T15:55:22.898Z</time></trkpt><trkpt lat="53.389664952548756" lon="14.683018807115824"><ele>3.0</ele><time>2026-04-18T15:55:23.898Z</time></trkpt><trkpt lat="53.38957444386286" lon="14.682989899317503"><ele>2.8</ele><time>2026-04-18T15:55:24.898Z</time></trkpt><trkpt lat="53.3894782255023" lon="14.68296185999357"><ele>2.5999999999999996</ele><time>2026-04-18T15:55:25.898Z</time></trkpt><trkpt lat="53.38936762532171" lon="14.68292740209435"><ele>2.4000000000000004</ele><time>2026-04-18T15:55:26.898Z</time></trkpt><trkpt lat="53.38925260257759" lon="14.682910490580777"><ele>2.2</ele><time>2026-04-18T15:55:27.898Z</time></trkpt><trkpt lat="53.389139638207915" lon="14.682882891874165"><ele>2.0</ele><time>2026-04-18T15:55:28.898Z</time></trkpt><trkpt lat="53.389015149699354" lon="14.682856852082196"><ele>2.0</ele><time>2026-04-18T15:55:29.895Z</time></trkpt><trkpt lat="53.38889130142263" lon="14.682833292311301"><ele>2.0</ele><time>2026-04-18T15:55:30.895Z</time></trkpt><trkpt lat="53.38877156589423" lon="14.682813854533391"><ele>2.0</ele><time>2026-04-18T15:55:31.895Z</time></trkpt><trkpt lat="53.38864488884363" lon="14.682760007884522"><ele>2.0</ele><time>2026-04-18T15:55:32.895Z</time></trkpt><trkpt lat="53.3885111780377" lon="14.682738290717458"><ele>2.75</ele><time>2026-04-18T15:55:33.895Z</time></trkpt><trkpt lat="53.38837243037876" lon="14.682707841231489"><ele>3.5</ele><time>2026-04-18T15:55:34.895Z</time></trkpt><trkpt lat="53.38824304084333" lon="14.682675207979004"><ele>4.25</ele><time>2026-04-18T15:55:35.895Z</time></trkpt><trkpt lat="53.3881111040422" lon="14.682645697701293"><ele>5.0</ele><time>2026-04-18T15:55:36.895Z</time></trkpt><trkpt lat="53.387998523170616" lon="14.682598395511471"><ele>5.166666666666667</ele><time>2026-04-18T15:55:37.895Z</time></trkpt><trkpt lat="53.38789607170341" lon="14.682582982222105"><ele>5.333333333333334</ele><time>2026-04-18T15:55:38.895Z</time></trkpt><trkpt lat="53.38780645091998" lon="14.68255981544977"><ele>5.5</ele><time>2026-04-18T15:55:39.895Z</time></trkpt><trkpt lat="53.38771866004729" lon="14.682535464936278"><ele>5.666666666666667</ele><time>2026-04-18T15:55:40.895Z</time></trkpt><trkpt lat="53.38765189078688" lon="14.682511287102404"><ele>5.833333333333333</ele><time>2026-04-18T15:55:41.895Z</time></trkpt><trkpt lat="53.38759112256233" lon="14.682474748105072"><ele>6.0</ele><time>2026-04-18T15:55:42.895Z</time></trkpt><trkpt lat="53.38749214139542" lon="14.682461333379427"><ele>6.0</ele><time>2026-04-18T15:55:44.895Z</time></trkpt><trkpt lat="53.38751012984688" lon="14.682247107249546"><ele>6.0</ele><time>2026-04-18T15:55:45.895Z</time></trkpt><trkpt lat="53.38748203930995" lon="14.682136622445375"><ele>6.0</ele><time>2026-04-18T15:55:46.895Z</time></trkpt><trkpt lat="53.387453988113904" lon="14.682026393454906"><ele>6.0</ele><time>2026-04-18T15:55:47.895Z</time></trkpt><trkpt lat="53.38741570061053" lon="14.681878511725705"><ele>6.0</ele><time>2026-04-18T15:55:49.895Z</time></trkpt><trkpt lat="53.38738209746727" lon="14.681747867444473"><ele>6.0</ele><time>2026-04-18T15:55:51.895Z</time></trkpt><trkpt lat="53.387349857095266" lon="14.681622651014782"><ele>6.0</ele><time>2026-04-18T15:55:53.895Z</time></trkpt><trkpt lat="53.38732313858207" lon="14.681519270573794"><ele>6.0</ele><time>2026-04-18T15:55:54.895Z</time></trkpt><trkpt lat="53.387281692560215" lon="14.681358915159986"><ele>6.0</ele><time>2026-04-18T15:55:55.895Z</time></trkpt><trkpt lat="53.38723078784629" lon="14.681176257385893"><ele>6.0</ele><time>2026-04-18T15:55:56.895Z</time></trkpt><trkpt lat="53.38717478671564" lon="14.68096791434977"><ele>6.0</ele><time>2026-04-18T15:55:57.895Z</time></trkpt><trkpt lat="53.38711241489732" lon="14.680735970239231"><ele>6.0</ele><time>2026-04-18T15:55:58.895Z</time></trkpt><trkpt lat="53.38704504437283" lon="14.680481162852349"><ele>6.0</ele><time>2026-04-18T15:55:59.895Z</time></trkpt><trkpt lat="53.38698510217151" lon="14.680228961837816"><ele>6.0</ele><time>2026-04-18T15:56:00.895Z</time></trkpt><trkpt lat="53.386916232450034" lon="14.679962889366086"><ele>6.0</ele><time>2026-04-18T15:56:01.895Z</time></trkpt><trkpt lat="53.38684501966504" lon="14.679694885156312"><ele>6.0</ele><time>2026-04-18T15:56:02.895Z</time></trkpt><trkpt lat="53.386764517147085" lon="14.679444806495233"><ele>6.0</ele><time>2026-04-18T15:56:03.895Z</time></trkpt><trkpt lat="53.38671183889093" lon="14.679224299907156"><ele>6.0</ele><time>2026-04-18T15:56:04.895Z</time></trkpt><trkpt lat="53.38666183324611" lon="14.679019017202954"><ele>6.0</ele><time>2026-04-18T15:56:05.895Z</time></trkpt><trkpt lat="53.386611771739474" lon="14.67883484810416"><ele>6.0</ele><time>2026-04-18T15:56:06.895Z</time></trkpt><trkpt lat="53.38658600423355" lon="14.678660571248933"><ele>6.0</ele><time>2026-04-18T15:56:07.895Z</time></trkpt><trkpt lat="53.38653498025226" lon="14.678529969612619"><ele>6.0</ele><time>2026-04-18T15:56:08.895Z</time></trkpt><trkpt lat="53.3865111292226" lon="14.678419234886452"><ele>6.0</ele><time>2026-04-18T15:56:09.895Z</time></trkpt><trkpt lat="53.38648807217526" lon="14.67831462949642"><ele>6.0</ele><time>2026-04-18T15:56:10.895Z</time></trkpt><trkpt lat="53.38647243123463" lon="14.67816522996192"><ele>6.0</ele><time>2026-04-18T15:56:12.895Z</time></trkpt><trkpt lat="53.38657078551677" lon="14.678035731949256"><ele>6.0</ele><time>2026-04-18T15:56:14.895Z</time></trkpt><trkpt lat="53.386668389039535" lon="14.677965049271219"><ele>6.0</ele><time>2026-04-18T15:56:15.895Z</time></trkpt><trkpt lat="53.38678735423576" lon="14.677878901711523"><ele>6.0</ele><time>2026-04-18T15:56:16.895Z</time></trkpt><trkpt lat="53.386922096460495" lon="14.677785233649864"><ele>6.0</ele><time>2026-04-18T15:56:17.895Z</time></trkpt><trkpt lat="53.387054670480595" lon="14.677691708682765"><ele>6.0</ele><time>2026-04-18T15:56:18.895Z</time></trkpt><trkpt lat="53.38719537334149" lon="14.677588750458344"><ele>6.0</ele><time>2026-04-18T15:56:19.895Z</time></trkpt><trkpt lat="53.38732481496784" lon="14.677491144882534"><ele>6.0</ele><time>2026-04-18T15:56:20.895Z</time></trkpt><trkpt lat="53.38743979161709" lon="14.677404864132505"><ele>6.0</ele><time>2026-04-18T15:56:21.895Z</time></trkpt><trkpt lat="53.38755023855055" lon="14.677325644334026"><ele>6.0</ele><time>2026-04-18T15:56:22.895Z</time></trkpt><trkpt lat="53.38765013154131" lon="14.677226122429957"><ele>6.0</ele><time>2026-04-18T15:56:23.895Z</time></trkpt><trkpt lat="53.387746710237316" lon="14.677160198088837"><ele>6.0</ele><time>2026-04-18T15:56:24.895Z</time></trkpt><trkpt lat="53.38784750295159" lon="14.677121330351403"><ele>6.0</ele><time>2026-04-18T15:56:25.895Z</time></trkpt><trkpt lat="53.38792558865794" lon="14.677058284542474"><ele>6.0</ele><time>2026-04-18T15:56:26.895Z</time></trkpt><trkpt lat="53.38800007271094" lon="14.67700378350435"><ele>6.0</ele><time>2026-04-18T15:56:27.895Z</time></trkpt><trkpt lat="53.38806530621721" lon="14.676960586568113"><ele>6.0</ele><time>2026-04-18T15:56:28.895Z</time></trkpt><trkpt lat="53.38812662170434" lon="14.676918699674033"><ele>5.833333333333333</ele><time>2026-04-18T15:56:29.895Z</time></trkpt><trkpt lat="53.388186642473734" lon="14.676868365802815"><ele>5.666666666666667</ele><time>2026-04-18T15:56:30.895Z</time></trkpt><trkpt lat="53.38826428007463" lon="14.676812392143043"><ele>5.5</ele><time>2026-04-18T15:56:31.895Z</time></trkpt><trkpt lat="53.388332898898234" lon="14.676771709018631"><ele>5.333333333333334</ele><time>2026-04-18T15:56:32.895Z</time></trkpt><trkpt lat="53.388397565718776" lon="14.676730100758078"><ele>5.166666666666667</ele><time>2026-04-18T15:56:33.895Z</time></trkpt><trkpt lat="53.38851194405705" lon="14.676650733903497"><ele>5.0</ele><time>2026-04-18T15:56:35.895Z</time></trkpt><trkpt lat="53.3886219595375" lon="14.676557499395518"><ele>5.0</ele><time>2026-04-18T15:56:37.895Z</time></trkpt><trkpt lat="53.388679041903146" lon="14.676508687667479"><ele>5.0</ele><time>2026-04-18T15:56:38.895Z</time></trkpt><trkpt lat="53.38877767959548" lon="14.676429703493199"><ele>5.0</ele><time>2026-04-18T15:56:40.895Z</time></trkpt><trkpt lat="53.388854374042175" lon="14.6763941765386"><ele>5.0</ele><time>2026-04-18T15:56:42.895Z</time></trkpt><trkpt lat="53.38893378251848" lon="14.676337000964695"><ele>5.0</ele><time>2026-04-18T15:56:43.895Z</time></trkpt><trkpt lat="53.389021129966764" lon="14.676274107613798"><ele>5.0</ele><time>2026-04-18T15:56:44.895Z</time></trkpt><trkpt lat="53.38911019553276" lon="14.676214381194209"><ele>5.0</ele><time>2026-04-18T15:56:45.895Z</time></trkpt><trkpt lat="53.389199780493755" lon="14.6761707780526"><ele>5.0</ele><time>2026-04-18T15:56:46.895Z</time></trkpt><trkpt lat="53.38927645260069" lon="14.676112676831771"><ele>5.0</ele><time>2026-04-18T15:56:47.895Z</time></trkpt><trkpt lat="53.389346345468795" lon="14.676057786953118"><ele>5.0</ele><time>2026-04-18T15:56:48.894Z</time></trkpt><trkpt lat="53.3894147203662" lon="14.676019027455276"><ele>5.0</ele><time>2026-04-18T15:56:49.892Z</time></trkpt><trkpt lat="53.389481769220026" lon="14.675975669378403"><ele>5.0</ele><time>2026-04-18T15:56:50.891Z</time></trkpt><trkpt lat="53.38954017279175" lon="14.67591730530146"><ele>5.0</ele><time>2026-04-18T15:56:51.889Z</time></trkpt><trkpt lat="53.38960000842036" lon="14.675871483251337"><ele>5.0</ele><time>2026-04-18T15:56:52.888Z</time></trkpt><trkpt lat="53.38965898188905" lon="14.675825185752792"><ele>5.0</ele><time>2026-04-18T15:56:53.886Z</time></trkpt><trkpt lat="53.389772781744355" lon="14.675738311259447"><ele>5.0</ele><time>2026-04-18T15:56:55.884Z</time></trkpt><trkpt lat="53.389876128264554" lon="14.675668064250635"><ele>5.0</ele><time>2026-04-18T15:56:57.881Z</time></trkpt><trkpt lat="53.38997189584833" lon="14.67559504982399"><ele>4.666666666666667</ele><time>2026-04-18T15:56:59.879Z</time></trkpt><trkpt lat="53.39006671873411" lon="14.675529392229533"><ele>4.333333333333334</ele><time>2026-04-18T15:57:01.878Z</time></trkpt><trkpt lat="53.39015325203687" lon="14.675472394604402"><ele>4.0</ele><time>2026-04-18T15:57:03.876Z</time></trkpt><trkpt lat="53.39022850913812" lon="14.675426618210585"><ele>3.666666666666667</ele><time>2026-04-18T15:57:05.875Z</time></trkpt><trkpt lat="53.390290986170726" lon="14.675378511596234"><ele>3.3333333333333335</ele><time>2026-04-18T15:57:07.873Z</time></trkpt><trkpt lat="53.39037740863479" lon="14.675302294666224"><ele>3.0</ele><time>2026-04-18T15:57:10.872Z</time></trkpt><trkpt lat="53.39044006120105" lon="14.67525905487744"><ele>2.6666666666666665</ele><time>2026-04-18T15:57:12.871Z</time></trkpt><trkpt lat="53.39052587929244" lon="14.675208867010243"><ele>2.3333333333333335</ele><time>2026-04-18T15:57:15.87Z</time></trkpt><trkpt lat="53.390603099070816" lon="14.675134879985242"><ele>2.0</ele><time>2026-04-18T15:57:18.869Z</time></trkpt><trkpt lat="53.3906606079311" lon="14.675089230570542"><ele>1.6666666666666665</ele><time>2026-04-18T15:57:20.868Z</time></trkpt><trkpt lat="53.39072263105221" lon="14.675011290380255"><ele>1.3333333333333333</ele><time>2026-04-18T15:57:22.868Z</time></trkpt><trkpt lat="53.390808959204925" lon="14.674946940128505"><ele>1.0</ele><time>2026-04-18T15:57:24.868Z</time></trkpt><trkpt lat="53.3909052956319" lon="14.674911764577043"><ele>0.9999999999999999</ele><time>2026-04-18T15:57:26.867Z</time></trkpt><trkpt lat="53.39099009084135" lon="14.674850903485305"><ele>1.0</ele><time>2026-04-18T15:57:28.867Z</time></trkpt><trkpt lat="53.39107387599766" lon="14.674790740876928"><ele>1.0</ele><time>2026-04-18T15:57:30.867Z</time></trkpt><trkpt lat="53.39115715112371" lon="14.674730944581912"><ele>1.0</ele><time>2026-04-18T15:57:32.866Z</time></trkpt><trkpt lat="53.39124505600278" lon="14.674667823852321"><ele>0.9999999999999999</ele><time>2026-04-18T15:57:34.866Z</time></trkpt><trkpt lat="53.39131509475367" lon="14.674617532728309"><ele>1.0</ele><time>2026-04-18T15:57:36.863Z</time></trkpt><trkpt lat="53.391378383237445" lon="14.674572091052216"><ele>1.1666666666666665</ele><time>2026-04-18T15:57:38.864Z</time></trkpt><trkpt lat="53.39143668419916" lon="14.67453054073265"><ele>1.3333333333333333</ele><time>2026-04-18T15:57:41.863Z</time></trkpt><trkpt lat="53.391526992363794" lon="14.674466053957824"><ele>1.5</ele><time>2026-04-18T15:58:28.861Z</time></trkpt><trkpt lat="53.391602051963396" lon="14.67441112067964"><ele>1.6666666666666665</ele><time>2026-04-18T15:58:29.861Z</time></trkpt><trkpt lat="53.391684114593346" lon="14.674350588910288"><ele>1.8333333333333333</ele><time>2026-04-18T15:58:30.861Z</time></trkpt><trkpt lat="53.39177442287396" lon="14.67428399279154"><ele>2.0</ele><time>2026-04-18T15:58:31.861Z</time></trkpt><trkpt lat="53.39187308294096" lon="14.674196060993523"><ele>2.0</ele><time>2026-04-18T15:58:32.861Z</time></trkpt><trkpt lat="53.39196371115626" lon="14.674129267931075"><ele>2.0</ele><time>2026-04-18T15:58:33.861Z</time></trkpt><trkpt lat="53.39203695451416" lon="14.674086121220013"><ele>2.0</ele><time>2026-04-18T15:58:34.861Z</time></trkpt><trkpt lat="53.39210572644187" lon="14.674120210802528"><ele>2.0</ele><time>2026-04-18T15:58:36.861Z</time></trkpt><trkpt lat="53.39208606571629" lon="14.674370789608131"><ele>2.0</ele><time>2026-04-18T15:58:38.861Z</time></trkpt><trkpt lat="53.392086438925865" lon="14.674577182578213"><ele>1.9999999999999998</ele><time>2026-04-18T15:58:40.861Z</time></trkpt><trkpt lat="53.392089228258115" lon="14.674746010420803"><ele>2.0</ele><time>2026-04-18T15:58:42.861Z</time></trkpt><trkpt lat="53.39209215509196" lon="14.674937355541006"><ele>2.0</ele><time>2026-04-18T15:58:44.861Z</time></trkpt><trkpt lat="53.3920933082835" lon="14.675052804198137"><ele>2.0</ele><time>2026-04-18T15:58:45.861Z</time></trkpt><trkpt lat="53.392095408657376" lon="14.675172234371145"><ele>1.9999999999999998</ele><time>2026-04-18T15:58:46.861Z</time></trkpt><trkpt lat="53.39209882187294" lon="14.675303429917413"><ele>2.0</ele><time>2026-04-18T15:58:47.861Z</time></trkpt><trkpt lat="53.39210251682026" lon="14.675445454164407"><ele>2.0</ele><time>2026-04-18T15:58:48.861Z</time></trkpt><trkpt lat="53.392106295682034" lon="14.675590706066819"><ele>2.0</ele><time>2026-04-18T15:58:49.861Z</time></trkpt><trkpt lat="53.392110182422094" lon="14.675752076728143"><ele>2.0</ele><time>2026-04-18T15:58:50.861Z</time></trkpt><trkpt lat="53.39211413856976" lon="14.675914031447391"><ele>2.0</ele><time>2026-04-18T15:58:51.861Z</time></trkpt><trkpt lat="53.39211814476284" lon="14.676076721114763"><ele>2.0</ele><time>2026-04-18T15:58:52.861Z</time></trkpt><trkpt lat="53.39212123005675" lon="14.676222391018326"><ele>1.9999999999999998</ele><time>2026-04-18T15:58:53.861Z</time></trkpt><trkpt lat="53.3921236932725" lon="14.676357471882847"><ele>2.0</ele><time>2026-04-18T15:58:54.861Z</time></trkpt><trkpt lat="53.39212595691855" lon="14.67648161011734"><ele>2.0</ele><time>2026-04-18T15:58:55.861Z</time></trkpt><trkpt lat="53.39212799763076" lon="14.676611066970613"><ele>2.0</ele><time>2026-04-18T15:58:56.861Z</time></trkpt><trkpt lat="53.392130447102566" lon="14.6767618404925"><ele>1.9999999999999998</ele><time>2026-04-18T15:58:57.861Z</time></trkpt><trkpt lat="53.392133221765086" lon="14.67692032389433"><ele>2.0</ele><time>2026-04-18T15:58:58.861Z</time></trkpt><trkpt lat="53.39213612406993" lon="14.677083008199855"><ele>2.1666666666666665</ele><time>2026-04-18T15:58:59.861Z</time></trkpt><trkpt lat="53.392142902880124" lon="14.677222503925798"><ele>2.333333333333333</ele><time>2026-04-18T15:59:00.861Z</time></trkpt><trkpt lat="53.3921525462292" lon="14.677382189383442"><ele>2.5</ele><time>2026-04-18T15:59:01.861Z</time></trkpt><trkpt lat="53.39216234723935" lon="14.67752575230103"><ele>2.6666666666666665</ele><time>2026-04-18T15:59:02.861Z</time></trkpt><trkpt lat="53.39215694969684" lon="14.67765352540697"><ele>2.8333333333333335</ele><time>2026-04-18T15:59:03.861Z</time></trkpt><trkpt lat="53.39216375583944" lon="14.677792276299426"><ele>3.0</ele><time>2026-04-18T15:59:04.86Z</time></trkpt><trkpt lat="53.39217087224537" lon="14.677948063323747"><ele>3.0</ele><time>2026-04-18T15:59:05.86Z</time></trkpt><trkpt lat="53.39217851370311" lon="14.678104338913444"><ele>3.0</ele><time>2026-04-18T15:59:06.86Z</time></trkpt><trkpt lat="53.39218339460233" lon="14.678266679268415"><ele>3.0</ele><time>2026-04-18T15:59:07.86Z</time></trkpt><trkpt lat="53.39218325155571" lon="14.678409265168963"><ele>3.0</ele><time>2026-04-18T15:59:08.86Z</time></trkpt><trkpt lat="53.39218083008193" lon="14.678541432709462"><ele>3.0</ele><time>2026-04-18T15:59:09.86Z</time></trkpt><trkpt lat="53.39217054640947" lon="14.678700790456663"><ele>3.2</ele><time>2026-04-18T15:59:10.86Z</time></trkpt><trkpt lat="53.39218621644645" lon="14.678881830858977"><ele>3.4</ele><time>2026-04-18T15:59:11.86Z</time></trkpt><trkpt lat="53.392193124997114" lon="14.679074006807378"><ele>3.6000000000000005</ele><time>2026-04-18T15:59:12.86Z</time></trkpt><trkpt lat="53.39218230323752" lon="14.679260933860519"><ele>3.8000000000000003</ele><time>2026-04-18T15:59:13.86Z</time></trkpt><trkpt lat="53.39218609377936" lon="14.679437590906177"><ele>4.0</ele><time>2026-04-18T15:59:14.86Z</time></trkpt><trkpt lat="53.392192047085274" lon="14.679599015210906"><ele>4.0</ele><time>2026-04-18T15:59:15.86Z</time></trkpt><trkpt lat="53.39220339363464" lon="14.67977558080249"><ele>4.0</ele><time>2026-04-18T15:59:16.86Z</time></trkpt><trkpt lat="53.39220075644025" lon="14.679938809880499"><ele>4.0</ele><time>2026-04-18T15:59:17.86Z</time></trkpt><trkpt lat="53.39220328629684" lon="14.680111959751642"><ele>4.0</ele><time>2026-04-18T15:59:18.86Z</time></trkpt><trkpt lat="53.39220611278789" lon="14.680270818775384"><ele>4.0</ele><time>2026-04-18T15:59:19.86Z</time></trkpt><trkpt lat="53.39220960428311" lon="14.680410109799123"><ele>3.9999999999999996</ele><time>2026-04-18T15:59:20.86Z</time></trkpt><trkpt lat="53.39221801923684" lon="14.68053199127303"><ele>4.0</ele><time>2026-04-18T15:59:21.86Z</time></trkpt><trkpt lat="53.39222077213672" lon="14.680641468665431"><ele>4.0</ele><time>2026-04-18T15:59:22.86Z</time></trkpt><trkpt lat="53.39222458479671" lon="14.68085488379997"><ele>4.0</ele><time>2026-04-18T15:59:24.86Z</time></trkpt><trkpt lat="53.39223105142039" lon="14.680982699294002"><ele>3.9999999999999996</ele><time>2026-04-18T15:59:25.86Z</time></trkpt><trkpt lat="53.392234822686355" lon="14.681114190098318"><ele>4.0</ele><time>2026-04-18T15:59:26.86Z</time></trkpt><trkpt lat="53.3922521849068" lon="14.68129515131083"><ele>4.0</ele><time>2026-04-18T15:59:27.86Z</time></trkpt><trkpt lat="53.39227063080921" lon="14.681499079807438"><ele>4.0</ele><time>2026-04-18T15:59:28.86Z</time></trkpt><trkpt lat="53.392289865955725" lon="14.681688505464917"><ele>4.0</ele><time>2026-04-18T15:59:29.86Z</time></trkpt><trkpt lat="53.39231322917131" lon="14.681859031670704"><ele>4.0</ele><time>2026-04-18T15:59:30.86Z</time></trkpt><trkpt lat="53.392338674434924" lon="14.682013306351566"><ele>4.0</ele><time>2026-04-18T15:59:31.86Z</time></trkpt><trkpt lat="53.3923673343411" lon="14.682174477519649"><ele>4.0</ele><time>2026-04-18T15:59:32.86Z</time></trkpt><trkpt lat="53.39239408446432" lon="14.682339393523646"><ele>4.0</ele><time>2026-04-18T15:59:33.86Z</time></trkpt><trkpt lat="53.39241890957845" lon="14.68248583945446"><ele>4.0</ele><time>2026-04-18T15:59:34.86Z</time></trkpt><trkpt lat="53.39217337045225" lon="14.68267408484968"><ele>4.333333333333333</ele><time>2026-04-18T15:59:35.86Z</time></trkpt><trkpt lat="53.3924880867503" lon="14.682768557640644"><ele>4.666666666666667</ele><time>2026-04-18T15:59:37.86Z</time></trkpt><trkpt lat="53.39253955154642" lon="14.682894115225125"><ele>5.0</ele><time>2026-04-18T15:59:39.86Z</time></trkpt><trkpt lat="53.392345225906276" lon="14.683163084815238"><ele>5.0</ele><time>2026-04-18T15:59:41.858Z</time></trkpt><trkpt lat="53.392367460023536" lon="14.683267241047393"><ele>5.0</ele><time>2026-04-18T15:59:43.858Z</time></trkpt><trkpt lat="53.39240243370938" lon="14.683425878960362"><ele>5.0</ele><time>2026-04-18T15:59:45.858Z</time></trkpt><trkpt lat="53.39242286488417" lon="14.683673161262039"><ele>5.0</ele><time>2026-04-18T15:59:47.858Z</time></trkpt><trkpt lat="53.39242106971117" lon="14.68378625042475"><ele>5.0</ele><time>2026-04-18T15:59:49.858Z</time></trkpt><trkpt lat="53.39244135014509" lon="14.683930755101573"><ele>5.0</ele><time>2026-04-18T15:59:50.858Z</time></trkpt><trkpt lat="53.39241586292917" lon="14.684423805388057"><ele>5.0</ele><time>2026-04-18T15:59:51.858Z</time></trkpt><trkpt lat="53.39245784359064" lon="14.684539353872692"><ele>5.0</ele><time>2026-04-18T15:59:52.858Z</time></trkpt><trkpt lat="53.392497921509346" lon="14.684653581102003"><ele>5.0</ele><time>2026-04-18T15:59:53.858Z</time></trkpt><trkpt lat="53.39253690340096" lon="14.684746898197242"><ele>5.0</ele><time>2026-04-18T15:59:56.858Z</time></trkpt><trkpt lat="53.39260803957043" lon="14.684834844350071"><ele>5.0</ele><time>2026-04-18T15:59:59.858Z</time></trkpt><trkpt lat="53.39300890170989" lon="14.685135836880331"><ele>4.75</ele><time>2026-04-18T16:00:01.858Z</time></trkpt><trkpt lat="53.39303970308737" lon="14.685249512905134"><ele>4.5</ele><time>2026-04-18T16:00:03.858Z</time></trkpt><trkpt lat="53.3930856701367" lon="14.685364484436093"><ele>4.25</ele><time>2026-04-18T16:00:07.858Z</time></trkpt><trkpt lat="53.39313386468915" lon="14.68545535548904"><ele>4.0</ele><time>2026-04-18T16:00:11.858Z</time></trkpt><trkpt lat="53.393706135626765" lon="14.684916297303305"><ele>3.6</ele><time>2026-04-18T16:00:16.858Z</time></trkpt><trkpt lat="53.39377818556683" lon="14.684951309802749"><ele>3.2</ele><time>2026-04-18T16:00:17.858Z</time></trkpt><trkpt lat="53.393851558829354" lon="14.684948560003797"><ele>2.8000000000000003</ele><time>2026-04-18T16:00:18.858Z</time></trkpt><trkpt lat="53.39394757774225" lon="14.684908039331395"><ele>2.4000000000000004</ele><time>2026-04-18T16:00:19.858Z</time></trkpt><trkpt lat="53.39404411255593" lon="14.684856856318042"><ele>2.0</ele><time>2026-04-18T16:00:20.858Z</time></trkpt><trkpt lat="53.394153594989945" lon="14.684783614997324"><ele>1.9999999999999998</ele><time>2026-04-18T16:00:21.858Z</time></trkpt><trkpt lat="53.39425692825643" lon="14.684730105396453"><ele>2.0</ele><time>2026-04-18T16:00:22.858Z</time></trkpt><trkpt lat="53.3943434422037" lon="14.684692958657385"><ele>2.0</ele><time>2026-04-18T16:00:23.857Z</time></trkpt><trkpt lat="53.394428393920585" lon="14.684665067853548"><ele>2.0</ele><time>2026-04-18T16:00:24.857Z</time></trkpt><trkpt lat="53.39450829316137" lon="14.684640786176079"><ele>1.9999999999999998</ele><time>2026-04-18T16:00:25.857Z</time></trkpt><trkpt lat="53.39457432571063" lon="14.684633042190645"><ele>2.0</ele><time>2026-04-18T16:00:26.857Z</time></trkpt><trkpt lat="53.3946955364721" lon="14.68465174579332"><ele>2.6</ele><time>2026-04-18T16:00:28.857Z</time></trkpt><trkpt lat="53.39475394168739" lon="14.684696206213518"><ele>3.2</ele><time>2026-04-18T16:00:29.857Z</time></trkpt><trkpt lat="53.394863024213194" lon="14.684792198740299"><ele>3.8</ele><time>2026-04-18T16:00:31.857Z</time></trkpt><trkpt lat="53.39495977306191" lon="14.684778232231634"><ele>4.4</ele><time>2026-04-18T16:00:33.857Z</time></trkpt><trkpt lat="53.39509055018398" lon="14.684731792261529"><ele>5.0</ele><time>2026-04-18T16:00:35.857Z</time></trkpt><trkpt lat="53.39516425508194" lon="14.68470212071785"><ele>5.0</ele><time>2026-04-18T16:00:36.857Z</time></trkpt><trkpt lat="53.39522943212306" lon="14.684676107727089"><ele>5.0</ele><time>2026-04-18T16:00:37.857Z</time></trkpt><trkpt lat="53.395337316422456" lon="14.684619886643668"><ele>5.0</ele><time>2026-04-18T16:00:39.857Z</time></trkpt><trkpt lat="53.395392817568684" lon="14.68456636259135"><ele>5.0</ele><time>2026-04-18T16:00:42.857Z</time></trkpt><trkpt lat="53.3954369014251" lon="14.684701867165058"><ele>5.0</ele><time>2026-04-18T16:00:44.857Z</time></trkpt><trkpt lat="53.39547256616086" lon="14.684799934737907"><ele>5.0</ele><time>2026-04-18T16:00:45.857Z</time></trkpt><trkpt lat="53.3954905777131" lon="14.684927756464582"><ele>4.6</ele><time>2026-04-18T16:00:46.857Z</time></trkpt><trkpt lat="53.39551479412748" lon="14.685073865842769"><ele>4.2</ele><time>2026-04-18T16:00:47.857Z</time></trkpt><trkpt lat="53.39555009493435" lon="14.685222758526585"><ele>3.8</ele><time>2026-04-18T16:00:48.857Z</time></trkpt><trkpt lat="53.39557519776075" lon="14.68539637910897"><ele>3.4</ele><time>2026-04-18T16:00:49.857Z</time></trkpt><trkpt lat="53.395597433578004" lon="14.685570416303376"><ele>3.0</ele><time>2026-04-18T16:00:50.857Z</time></trkpt><trkpt lat="53.395634856595926" lon="14.685750790766216"><ele>3.0</ele><time>2026-04-18T16:00:51.857Z</time></trkpt><trkpt lat="53.39567021187251" lon="14.685940233162206"><ele>3.0</ele><time>2026-04-18T16:00:52.857Z</time></trkpt><trkpt lat="53.39570874751657" lon="14.686123142778225"><ele>3.0</ele><time>2026-04-18T16:00:53.857Z</time></trkpt><trkpt lat="53.39576229589567" lon="14.686285216668269"><ele>3.0</ele><time>2026-04-18T16:00:54.857Z</time></trkpt><trkpt lat="53.395823961069965" lon="14.686415176609264"><ele>3.0</ele><time>2026-04-18T16:00:55.857Z</time></trkpt><trkpt lat="53.395899671603175" lon="14.686555446341494"><ele>3.0</ele><time>2026-04-18T16:00:56.857Z</time></trkpt><trkpt lat="53.39598063550968" lon="14.686694815116507"><ele>3.0</ele><time>2026-04-18T16:00:57.857Z</time></trkpt><trkpt lat="53.396067485983586" lon="14.686838602232633"><ele>3.0</ele><time>2026-04-18T16:00:58.857Z</time></trkpt><trkpt lat="53.396153110145775" lon="14.68697435117714"><ele>3.0</ele><time>2026-04-18T16:00:59.857Z</time></trkpt><trkpt lat="53.39622489191205" lon="14.687102664782135"><ele>3.0</ele><time>2026-04-18T16:01:00.857Z</time></trkpt><trkpt lat="53.39629258977429" lon="14.687217079123705"><ele>3.0</ele><time>2026-04-18T16:01:01.857Z</time></trkpt><trkpt lat="53.39635224009523" lon="14.68732427604999"><ele>3.0</ele><time>2026-04-18T16:01:02.857Z</time></trkpt><trkpt lat="53.39643202456853" lon="14.687462008484793"><ele>3.0</ele><time>2026-04-18T16:01:03.857Z</time></trkpt><trkpt lat="53.39650473358417" lon="14.687569235566222"><ele>3.0</ele><time>2026-04-18T16:01:04.857Z</time></trkpt><trkpt lat="53.3965779247636" lon="14.687677525103757"><ele>3.2</ele><time>2026-04-18T16:01:05.857Z</time></trkpt><trkpt lat="53.3966718191041" lon="14.687784297310357"><ele>3.4</ele><time>2026-04-18T16:01:06.857Z</time></trkpt><trkpt lat="53.39676795859506" lon="14.687885830206774"><ele>3.6000000000000005</ele><time>2026-04-18T16:01:07.857Z</time></trkpt><trkpt lat="53.396848328957596" lon="14.687962776989071"><ele>3.8000000000000003</ele><time>2026-04-18T16:01:08.857Z</time></trkpt><trkpt lat="53.396921327134756" lon="14.688020403521627"><ele>4.0</ele><time>2026-04-18T16:01:09.857Z</time></trkpt><trkpt lat="53.396977111782654" lon="14.688091590218106"><ele>4.0</ele><time>2026-04-18T16:01:10.857Z</time></trkpt><trkpt lat="53.39703814780205" lon="14.688151263671896"><ele>4.0</ele><time>2026-04-18T16:01:11.857Z</time></trkpt><trkpt lat="53.39708489217473" lon="14.688246981928886"><ele>4.0</ele><time>2026-04-18T16:01:12.857Z</time></trkpt><trkpt lat="53.397075310397035" lon="14.68846154492691"><ele>4.0</ele><time>2026-04-18T16:01:13.857Z</time></trkpt><trkpt lat="53.39707740808285" lon="14.688638573757283"><ele>4.0</ele><time>2026-04-18T16:01:14.857Z</time></trkpt><trkpt lat="53.39708549873472" lon="14.688818020918864"><ele>4.0</ele><time>2026-04-18T16:01:15.857Z</time></trkpt><trkpt lat="53.397093814126315" lon="14.689023079496101"><ele>4.0</ele><time>2026-04-18T16:01:16.857Z</time></trkpt><trkpt lat="53.397107071442726" lon="14.689241387392387"><ele>4.0</ele><time>2026-04-18T16:01:17.857Z</time></trkpt><trkpt lat="53.3971078185045" lon="14.689450976212843"><ele>4.0</ele><time>2026-04-18T16:01:18.857Z</time></trkpt><trkpt lat="53.397101110856696" lon="14.689670360116308"><ele>4.25</ele><time>2026-04-18T16:01:19.857Z</time></trkpt><trkpt lat="53.397076352186915" lon="14.689894901214856"><ele>4.5</ele><time>2026-04-18T16:01:20.857Z</time></trkpt><trkpt lat="53.39705360783644" lon="14.69011705831757"><ele>4.75</ele><time>2026-04-18T16:01:21.857Z</time></trkpt><trkpt lat="53.39703516702956" lon="14.690315845379759"><ele>5.0</ele><time>2026-04-18T16:01:22.857Z</time></trkpt><trkpt lat="53.397018783165116" lon="14.69049836371663"><ele>5.75</ele><time>2026-04-18T16:01:23.857Z</time></trkpt><trkpt lat="53.39699920597087" lon="14.69067952888406"><ele>6.5</ele><time>2026-04-18T16:01:24.857Z</time></trkpt><trkpt lat="53.3969819695887" lon="14.690875434880237"><ele>7.25</ele><time>2026-04-18T16:01:25.857Z</time></trkpt><trkpt lat="53.39697377976526" lon="14.691100149916613"><ele>8.0</ele><time>2026-04-18T16:01:26.857Z</time></trkpt><trkpt lat="53.39697349343033" lon="14.69135249695572"><ele>8.666666666666666</ele><time>2026-04-18T16:01:27.857Z</time></trkpt><trkpt lat="53.39697067674129" lon="14.6916108798954"><ele>9.333333333333334</ele><time>2026-04-18T16:01:28.857Z</time></trkpt><trkpt lat="53.396976119921135" lon="14.691898692994519"><ele>10.0</ele><time>2026-04-18T16:01:29.857Z</time></trkpt><trkpt lat="53.39699074283209" lon="14.692202226523042"><ele>10.666666666666668</ele><time>2026-04-18T16:01:30.857Z</time></trkpt><trkpt lat="53.39700953992471" lon="14.692510771905383"><ele>11.333333333333334</ele><time>2026-04-18T16:01:31.857Z</time></trkpt><trkpt lat="53.39702505403305" lon="14.69283344829916"><ele>12.0</ele><time>2026-04-18T16:01:32.857Z</time></trkpt><trkpt lat="53.3970497011028" lon="14.693171561245151"><ele>12.0</ele><time>2026-04-18T16:01:33.857Z</time></trkpt><trkpt lat="53.39707887327916" lon="14.693518645333898"><ele>12.0</ele><time>2026-04-18T16:01:34.857Z</time></trkpt><trkpt lat="53.397100876026855" lon="14.69387264854309"><ele>12.0</ele><time>2026-04-18T16:01:35.857Z</time></trkpt><trkpt lat="53.39710042209162" lon="14.694222613315695"><ele>12.0</ele><time>2026-04-18T16:01:36.857Z</time></trkpt><trkpt lat="53.39710191064913" lon="14.694569662765227"><ele>12.0</ele><time>2026-04-18T16:01:37.856Z</time></trkpt><trkpt lat="53.3970971847465" lon="14.694916806782004"><ele>12.0</ele><time>2026-04-18T16:01:38.856Z</time></trkpt><trkpt lat="53.39707717750375" lon="14.69525282946038"><ele>12.0</ele><time>2026-04-18T16:01:39.856Z</time></trkpt><trkpt lat="53.39704840576658" lon="14.695567424236096"><ele>12.0</ele><time>2026-04-18T16:01:40.856Z</time></trkpt><trkpt lat="53.39701393140802" lon="14.695876256946457"><ele>12.0</ele><time>2026-04-18T16:01:41.856Z</time></trkpt><trkpt lat="53.39698018432138" lon="14.696189889399168"><ele>12.333333333333332</ele><time>2026-04-18T16:01:42.856Z</time></trkpt><trkpt lat="53.39694869696345" lon="14.696487736926912"><ele>12.666666666666666</ele><time>2026-04-18T16:01:43.856Z</time></trkpt><trkpt lat="53.39691922293885" lon="14.696769755950225"><ele>13.0</ele><time>2026-04-18T16:01:44.856Z</time></trkpt><trkpt lat="53.39689236418924" lon="14.69703012842575"><ele>13.0</ele><time>2026-04-18T16:01:45.856Z</time></trkpt><trkpt lat="53.39686549950606" lon="14.69729180474701"><ele>13.0</ele><time>2026-04-18T16:01:46.856Z</time></trkpt><trkpt lat="53.39683650276266" lon="14.697560470252979"><ele>13.0</ele><time>2026-04-18T16:01:47.854Z</time></trkpt><trkpt lat="53.396804800524606" lon="14.697855834044333"><ele>13.0</ele><time>2026-04-18T16:01:48.854Z</time></trkpt><trkpt lat="53.39677186035538" lon="14.698154001835187"><ele>13.0</ele><time>2026-04-18T16:01:49.854Z</time></trkpt><trkpt lat="53.396739880724006" lon="14.698454367024965"><ele>13.0</ele><time>2026-04-18T16:01:50.854Z</time></trkpt><trkpt lat="53.39671475726746" lon="14.698769914813107"><ele>13.333333333333332</ele><time>2026-04-18T16:01:51.854Z</time></trkpt><trkpt lat="53.396699345906065" lon="14.699061290905437"><ele>13.666666666666668</ele><time>2026-04-18T16:01:52.854Z</time></trkpt><trkpt lat="53.39669466069545" lon="14.699335943933761"><ele>14.0</ele><time>2026-04-18T16:01:53.854Z</time></trkpt><trkpt lat="53.39671710235544" lon="14.699610258034177"><ele>14.333333333333334</ele><time>2026-04-18T16:01:54.854Z</time></trkpt><trkpt lat="53.39672944480537" lon="14.699875685405438"><ele>14.666666666666668</ele><time>2026-04-18T16:01:55.854Z</time></trkpt><trkpt lat="53.39672677619455" lon="14.700149505898572"><ele>15.0</ele><time>2026-04-18T16:01:56.854Z</time></trkpt><trkpt lat="53.396741381140274" lon="14.700418709239191"><ele>15.5</ele><time>2026-04-18T16:01:57.854Z</time></trkpt><trkpt lat="53.39674981732814" lon="14.700656730610971"><ele>16.0</ele><time>2026-04-18T16:01:58.854Z</time></trkpt><trkpt lat="53.396754410758774" lon="14.700882564005457"><ele>16.5</ele><time>2026-04-18T16:01:59.853Z</time></trkpt><trkpt lat="53.39674991398156" lon="14.701094812631547"><ele>17.0</ele><time>2026-04-18T16:02:00.853Z</time></trkpt><trkpt lat="53.3967334567112" lon="14.701294409004767"><ele>17.0</ele><time>2026-04-18T16:02:01.853Z</time></trkpt><trkpt lat="53.39671338408549" lon="14.701488743071705"><ele>17.0</ele><time>2026-04-18T16:02:02.853Z</time></trkpt><trkpt lat="53.39668180380465" lon="14.70169713684646"><ele>17.0</ele><time>2026-04-18T16:02:03.853Z</time></trkpt><trkpt lat="53.39663971554343" lon="14.701927137401764"><ele>17.0</ele><time>2026-04-18T16:02:04.853Z</time></trkpt><trkpt lat="53.39658743733067" lon="14.702178509402954"><ele>17.0</ele><time>2026-04-18T16:02:05.853Z</time></trkpt><trkpt lat="53.39652855101969" lon="14.702437052584107"><ele>17.0</ele><time>2026-04-18T16:02:06.853Z</time></trkpt><trkpt lat="53.39647088078053" lon="14.702697214190913"><ele>17.0</ele><time>2026-04-18T16:02:07.853Z</time></trkpt><trkpt lat="53.39641269848264" lon="14.702971823549971"><ele>16.666666666666668</ele><time>2026-04-18T16:02:08.853Z</time></trkpt><trkpt lat="53.39635973506295" lon="14.703217377509668"><ele>16.333333333333332</ele><time>2026-04-18T16:02:09.853Z</time></trkpt><trkpt lat="53.39630598277726" lon="14.703459747512552"><ele>16.0</ele><time>2026-04-18T16:02:10.853Z</time></trkpt><trkpt lat="53.39624529171081" lon="14.70373250277262"><ele>15.666666666666666</ele><time>2026-04-18T16:02:11.853Z</time></trkpt><trkpt lat="53.39618864273417" lon="14.703995103257967"><ele>15.333333333333332</ele><time>2026-04-18T16:02:12.853Z</time></trkpt><trkpt lat="53.39612066074916" lon="14.704294024237827"><ele>15.0</ele><time>2026-04-18T16:02:13.853Z</time></trkpt><trkpt lat="53.39604937474266" lon="14.704579551348475"><ele>14.666666666666668</ele><time>2026-04-18T16:02:14.853Z</time></trkpt><trkpt lat="53.395970864373496" lon="14.704847707811394"><ele>14.333333333333334</ele><time>2026-04-18T16:02:15.853Z</time></trkpt><trkpt lat="53.395895324808464" lon="14.70506651395304"><ele>14.0</ele><time>2026-04-18T16:02:16.853Z</time></trkpt><trkpt lat="53.39582153101702" lon="14.705255499518264"><ele>14.0</ele><time>2026-04-18T16:02:17.853Z</time></trkpt><trkpt lat="53.39574793648262" lon="14.705422358484459"><ele>14.0</ele><time>2026-04-18T16:02:18.853Z</time></trkpt><trkpt lat="53.395654588453574" lon="14.705617951995492"><ele>14.0</ele><time>2026-04-18T16:02:19.853Z</time></trkpt><trkpt lat="53.39555148051089" lon="14.705826954653093"><ele>14.0</ele><time>2026-04-18T16:02:20.853Z</time></trkpt><trkpt lat="53.395443270440104" lon="14.706038075148816"><ele>13.666666666666668</ele><time>2026-04-18T16:02:21.853Z</time></trkpt><trkpt lat="53.39534079723161" lon="14.706241614562158"><ele>13.333333333333332</ele><time>2026-04-18T16:02:22.853Z</time></trkpt><trkpt lat="53.39523131825632" lon="14.706458443877274"><ele>13.0</ele><time>2026-04-18T16:02:23.853Z</time></trkpt><trkpt lat="53.39512249647472" lon="14.706673055116175"><ele>13.0</ele><time>2026-04-18T16:02:24.853Z</time></trkpt><trkpt lat="53.39501041363068" lon="14.706895241542183"><ele>13.0</ele><time>2026-04-18T16:02:25.853Z</time></trkpt><trkpt lat="53.39489906244033" lon="14.707117709831266"><ele>13.0</ele><time>2026-04-18T16:02:26.853Z</time></trkpt><trkpt lat="53.39479002677279" lon="14.707330843331166"><ele>12.666666666666666</ele><time>2026-04-18T16:02:27.853Z</time></trkpt><trkpt lat="53.39467784510979" lon="14.707554913568503"><ele>12.333333333333332</ele><time>2026-04-18T16:02:28.853Z</time></trkpt><trkpt lat="53.394565681394965" lon="14.7077757977316"><ele>12.0</ele><time>2026-04-18T16:02:29.853Z</time></trkpt><trkpt lat="53.39445736034556" lon="14.70798993776278"><ele>11.5</ele><time>2026-04-18T16:02:30.853Z</time></trkpt><trkpt lat="53.39435077768345" lon="14.708212831153249"><ele>11.0</ele><time>2026-04-18T16:02:31.853Z</time></trkpt><trkpt lat="53.3942571303122" lon="14.708442852399774"><ele>10.5</ele><time>2026-04-18T16:02:32.853Z</time></trkpt><trkpt lat="53.394227009348896" lon="14.708556119113284"><ele>10.0</ele><time>2026-04-18T16:02:33.853Z</time></trkpt><trkpt lat="53.394199361001284" lon="14.708653892406648"><ele>10.0</ele><time>2026-04-18T16:02:36.853Z</time></trkpt><trkpt lat="53.39439989251314" lon="14.708607449347655"><ele>10.0</ele><time>2026-04-18T16:02:41.853Z</time></trkpt><trkpt lat="53.394473265477686" lon="14.708577413271616"><ele>10.0</ele><time>2026-04-18T16:02:42.853Z</time></trkpt><trkpt lat="53.39453672816761" lon="14.708547146886565"><ele>10.0</ele><time>2026-04-18T16:02:43.853Z</time></trkpt><trkpt lat="53.39460884738887" lon="14.708533417025082"><ele>10.0</ele><time>2026-04-18T16:02:44.853Z</time></trkpt><trkpt lat="53.394676084178926" lon="14.708535654422363"><ele>10.6</ele><time>2026-04-18T16:02:45.853Z</time></trkpt><trkpt lat="53.3947589170125" lon="14.708574606568156"><ele>11.2</ele><time>2026-04-18T16:02:46.853Z</time></trkpt><trkpt lat="53.39484278512118" lon="14.708628534936343"><ele>11.8</ele><time>2026-04-18T16:02:47.853Z</time></trkpt><trkpt lat="53.394935817095636" lon="14.708672806269451"><ele>12.4</ele><time>2026-04-18T16:02:48.853Z</time></trkpt><trkpt lat="53.3950275437937" lon="14.70871314241475"><ele>13.0</ele><time>2026-04-18T16:02:49.853Z</time></trkpt><trkpt lat="53.39510628170066" lon="14.70876518869833"><ele>13.0</ele><time>2026-04-18T16:02:50.853Z</time></trkpt><trkpt lat="53.39518226418005" lon="14.708834937913814"><ele>13.0</ele><time>2026-04-18T16:02:51.853Z</time></trkpt><trkpt lat="53.39528292363646" lon="14.708917672269349"><ele>13.0</ele><time>2026-04-18T16:02:52.853Z</time></trkpt><trkpt lat="53.395378481857485" lon="14.70899776797503"><ele>13.0</ele><time>2026-04-18T16:02:53.853Z</time></trkpt><trkpt lat="53.39546992820139" lon="14.70907070626502"><ele>13.0</ele><time>2026-04-18T16:02:54.853Z</time></trkpt><trkpt lat="53.395569668624915" lon="14.709130002982373"><ele>13.600000000000001</ele><time>2026-04-18T16:02:55.853Z</time></trkpt><trkpt lat="53.3956734772644" lon="14.709166565632085"><ele>14.200000000000001</ele><time>2026-04-18T16:02:56.853Z</time></trkpt><trkpt lat="53.39577910567157" lon="14.709211647996677"><ele>14.8</ele><time>2026-04-18T16:02:57.852Z</time></trkpt><trkpt lat="53.39587787501873" lon="14.709247962516653"><ele>15.4</ele><time>2026-04-18T16:02:58.852Z</time></trkpt><trkpt lat="53.395992541954676" lon="14.709303831757964"><ele>16.0</ele><time>2026-04-18T16:02:59.852Z</time></trkpt><trkpt lat="53.39607793867811" lon="14.709351884454035"><ele>15.999999999999998</ele><time>2026-04-18T16:03:00.852Z</time></trkpt><trkpt lat="53.396180943243735" lon="14.709394904960243"><ele>16.0</ele><time>2026-04-18T16:03:01.852Z</time></trkpt><trkpt lat="53.39626842186621" lon="14.709425442684656"><ele>16.0</ele><time>2026-04-18T16:03:02.852Z</time></trkpt><trkpt lat="53.39634372668402" lon="14.709454730216049"><ele>16.0</ele><time>2026-04-18T16:03:03.852Z</time></trkpt><trkpt lat="53.39643225037467" lon="14.709493241904894"><ele>15.999999999999998</ele><time>2026-04-18T16:03:04.852Z</time></trkpt><trkpt lat="53.39651230250294" lon="14.70952724044948"><ele>16.0</ele><time>2026-04-18T16:03:05.852Z</time></trkpt><trkpt lat="53.39664471356841" lon="14.709563378700647"><ele>16.0</ele><time>2026-04-18T16:03:07.852Z</time></trkpt><trkpt lat="53.39675828474288" lon="14.70957769902355"><ele>16.0</ele><time>2026-04-18T16:03:09.852Z</time></trkpt><trkpt lat="53.3968501001913" lon="14.70949486186465"><ele>16.0</ele><time>2026-04-18T16:03:11.852Z</time></trkpt><trkpt lat="53.39689129071437" lon="14.709368430276378"><ele>16.0</ele><time>2026-04-18T16:03:13.852Z</time></trkpt><trkpt lat="53.39691911080224" lon="14.709246316535717"><ele>16.0</ele><time>2026-04-18T16:03:14.852Z</time></trkpt><trkpt lat="53.39695388899113" lon="14.709111364794099"><ele>16.0</ele><time>2026-04-18T16:03:15.852Z</time></trkpt><trkpt lat="53.39700671562582" lon="14.708967078914432"><ele>16.0</ele><time>2026-04-18T16:03:16.852Z</time></trkpt><trkpt lat="53.39705036676104" lon="14.708827515687439"><ele>16.0</ele><time>2026-04-18T16:03:17.852Z</time></trkpt><trkpt lat="53.39708575980803" lon="14.70868811660314"><ele>16.0</ele><time>2026-04-18T16:03:18.852Z</time></trkpt><trkpt lat="53.397113198719964" lon="14.708564653956422"><ele>16.0</ele><time>2026-04-18T16:03:19.852Z</time></trkpt><trkpt lat="53.39714499676697" lon="14.708424386194705"><ele>16.166666666666664</ele><time>2026-04-18T16:03:20.852Z</time></trkpt><trkpt lat="53.39716753313777" lon="14.708299917009665"><ele>16.333333333333332</ele><time>2026-04-18T16:03:21.852Z</time></trkpt><trkpt lat="53.39719138032729" lon="14.708182632630361"><ele>16.5</ele><time>2026-04-18T16:03:22.852Z</time></trkpt><trkpt lat="53.39721897342226" lon="14.708071561444525"><ele>16.666666666666668</ele><time>2026-04-18T16:03:23.852Z</time></trkpt><trkpt lat="53.39724847467768" lon="14.707920139045106"><ele>16.833333333333336</ele><time>2026-04-18T16:03:24.852Z</time></trkpt><trkpt lat="53.39727690454478" lon="14.707769146614519"><ele>17.0</ele><time>2026-04-18T16:03:25.852Z</time></trkpt><trkpt lat="53.39729261800777" lon="14.707625147542563"><ele>17.166666666666668</ele><time>2026-04-18T16:03:26.852Z</time></trkpt><trkpt lat="53.39731686717505" lon="14.707469907092912"><ele>17.333333333333336</ele><time>2026-04-18T16:03:27.852Z</time></trkpt><trkpt lat="53.39733817858814" lon="14.70731916471314"><ele>17.5</ele><time>2026-04-18T16:03:28.852Z</time></trkpt><trkpt lat="53.3973622635486" lon="14.707214477787717"><ele>17.666666666666668</ele><time>2026-04-18T16:03:29.852Z</time></trkpt><trkpt lat="53.3973775193445" lon="14.707094297622957"><ele>17.833333333333332</ele><time>2026-04-18T16:03:30.852Z</time></trkpt><trkpt lat="53.397388413680986" lon="14.706962977424235"><ele>18.0</ele><time>2026-04-18T16:03:31.852Z</time></trkpt><trkpt lat="53.39742036153147" lon="14.706802506759464"><ele>18.2</ele><time>2026-04-18T16:03:32.852Z</time></trkpt><trkpt lat="53.39745391935908" lon="14.706649163618275"><ele>18.4</ele><time>2026-04-18T16:03:33.852Z</time></trkpt><trkpt lat="53.39747070634723" lon="14.706494493566897"><ele>18.599999999999998</ele><time>2026-04-18T16:03:34.852Z</time></trkpt><trkpt lat="53.39748761262775" lon="14.70632867001096"><ele>18.8</ele><time>2026-04-18T16:03:35.852Z</time></trkpt><trkpt lat="53.39751234234395" lon="14.706191302331359"><ele>19.0</ele><time>2026-04-18T16:03:36.852Z</time></trkpt><trkpt lat="53.39753273723848" lon="14.706059114815975"><ele>18.666666666666664</ele><time>2026-04-18T16:03:37.852Z</time></trkpt><trkpt lat="53.39755589592359" lon="14.705959204877509"><ele>18.333333333333332</ele><time>2026-04-18T16:03:38.852Z</time></trkpt><trkpt lat="53.39756997103046" lon="14.705762388463437"><ele>18.0</ele><time>2026-04-18T16:03:40.852Z</time></trkpt><trkpt lat="53.39759102443298" lon="14.705650192502985"><ele>17.666666666666668</ele><time>2026-04-18T16:03:41.852Z</time></trkpt><trkpt lat="53.397604167450694" lon="14.705513349412913"><ele>17.333333333333336</ele><time>2026-04-18T16:03:42.852Z</time></trkpt><trkpt lat="53.397623706334336" lon="14.705372798878646"><ele>17.0</ele><time>2026-04-18T16:03:43.852Z</time></trkpt><trkpt lat="53.397648076830755" lon="14.705245919383053"><ele>16.6</ele><time>2026-04-18T16:03:44.852Z</time></trkpt><trkpt lat="53.39767194781728" lon="14.705140267394835"><ele>16.2</ele><time>2026-04-18T16:03:45.852Z</time></trkpt><trkpt lat="53.39767623161243" lon="14.705007681110887"><ele>15.8</ele><time>2026-04-18T16:03:46.852Z</time></trkpt><trkpt lat="53.397688252320116" lon="14.704790142036982"><ele>15.4</ele><time>2026-04-18T16:03:48.852Z</time></trkpt><trkpt lat="53.39770189692861" lon="14.704679261050174"><ele>15.0</ele><time>2026-04-18T16:03:49.852Z</time></trkpt><trkpt lat="53.39772996782735" lon="14.704501395498438"><ele>14.857142857142858</ele><time>2026-04-18T16:03:51.852Z</time></trkpt><trkpt lat="53.39774951781542" lon="14.704382601534526"><ele>14.714285714285714</ele><time>2026-04-18T16:03:52.852Z</time></trkpt><trkpt lat="53.39776074698308" lon="14.704246542618474"><ele>14.571428571428571</ele><time>2026-04-18T16:03:53.85Z</time></trkpt><trkpt lat="53.39778337755281" lon="14.704131968971966"><ele>14.428571428571429</ele><time>2026-04-18T16:03:54.85Z</time></trkpt><trkpt lat="53.397786049602736" lon="14.704009714716687"><ele>14.285714285714285</ele><time>2026-04-18T16:03:55.85Z</time></trkpt><trkpt lat="53.397801149637225" lon="14.70389015443101"><ele>14.142857142857142</ele><time>2026-04-18T16:03:56.85Z</time></trkpt><trkpt lat="53.39782066649057" lon="14.703781428319816"><ele>14.0</ele><time>2026-04-18T16:03:57.85Z</time></trkpt><trkpt lat="53.39783591953462" lon="14.703569607783923"><ele>14.000000000000002</ele><time>2026-04-18T16:03:59.85Z</time></trkpt><trkpt lat="53.39784541596415" lon="14.70345522132952"><ele>14.0</ele><time>2026-04-18T16:04:00.85Z</time></trkpt><trkpt lat="53.397845891143206" lon="14.703347785174074"><ele>14.0</ele><time>2026-04-18T16:04:01.85Z</time></trkpt><trkpt lat="53.3978263533663" lon="14.70322638251444"><ele>14.0</ele><time>2026-04-18T16:04:02.849Z</time></trkpt><trkpt lat="53.397768157636996" lon="14.703081268702622"><ele>14.000000000000002</ele><time>2026-04-18T16:04:03.849Z</time></trkpt><trkpt lat="53.397697162154174" lon="14.70295812425645"><ele>14.0</ele><time>2026-04-18T16:04:04.849Z</time></trkpt><trkpt lat="53.39762701911587" lon="14.702887033323888"><ele>14.0</ele><time>2026-04-18T16:04:05.85Z</time></trkpt><trkpt lat="53.39755090368694" lon="14.70283477297665"><ele>13.999999999999998</ele><time>2026-04-18T16:04:06.849Z</time></trkpt><trkpt lat="53.39747642738977" lon="14.702698994039265"><ele>13.999999999999998</ele><time>2026-04-18T16:04:08.849Z</time></trkpt><trkpt lat="53.39746743139387" lon="14.70255763947749"><ele>14.0</ele><time>2026-04-18T16:04:10.849Z</time></trkpt><trkpt lat="53.39754364603101" lon="14.70242083136869"><ele>14.0</ele><time>2026-04-18T16:04:13.849Z</time></trkpt><trkpt lat="53.397605649248085" lon="14.702373049747163"><ele>13.833333333333334</ele><time>2026-04-18T16:04:14.849Z</time></trkpt><trkpt lat="53.397656948846844" lon="14.702311069341974"><ele>13.666666666666668</ele><time>2026-04-18T16:04:15.849Z</time></trkpt><trkpt lat="53.39772574504141" lon="14.702219426165136"><ele>13.5</ele><time>2026-04-18T16:04:16.849Z</time></trkpt><trkpt lat="53.397773807030724" lon="14.702147783831087"><ele>13.333333333333332</ele><time>2026-04-18T16:04:17.849Z</time></trkpt><trkpt lat="53.39785032583736" lon="14.702020533055824"><ele>13.166666666666666</ele><time>2026-04-18T16:04:19.849Z</time></trkpt><trkpt lat="53.39789365579787" lon="14.701940904534117"><ele>13.0</ele><time>2026-04-18T16:04:20.849Z</time></trkpt><trkpt lat="53.3979250619136" lon="14.701784340441472"><ele>12.833333333333332</ele><time>2026-04-18T16:04:22.849Z</time></trkpt><trkpt lat="53.39795851173467" lon="14.70160885377897"><ele>12.666666666666666</ele><time>2026-04-18T16:04:24.849Z</time></trkpt><trkpt lat="53.39797893163066" lon="14.70150006379947"><ele>12.5</ele><time>2026-04-18T16:04:25.849Z</time></trkpt><trkpt lat="53.397989689693375" lon="14.7013826642195"><ele>12.333333333333332</ele><time>2026-04-18T16:04:26.849Z</time></trkpt><trkpt lat="53.39801876478002" lon="14.701214237590898"><ele>12.166666666666666</ele><time>2026-04-18T16:04:27.849Z</time></trkpt><trkpt lat="53.39804592081197" lon="14.701071761918387"><ele>12.0</ele><time>2026-04-18T16:04:28.849Z</time></trkpt><trkpt lat="53.398070972435576" lon="14.700918992665546"><ele>12.666666666666666</ele><time>2026-04-18T16:04:29.849Z</time></trkpt><trkpt lat="53.39810044994664" lon="14.70081892823847"><ele>13.333333333333332</ele><time>2026-04-18T16:04:30.849Z</time></trkpt><trkpt lat="53.39812814598485" lon="14.700685504677459"><ele>14.0</ele><time>2026-04-18T16:04:31.849Z</time></trkpt><trkpt lat="53.39814660492348" lon="14.70056076879455"><ele>14.666666666666666</ele><time>2026-04-18T16:04:32.849Z</time></trkpt><trkpt lat="53.39817902927762" lon="14.700404388730204"><ele>15.333333333333332</ele><time>2026-04-18T16:04:33.849Z</time></trkpt><trkpt lat="53.39820136897025" lon="14.700226082089056"><ele>16.0</ele><time>2026-04-18T16:04:34.849Z</time></trkpt><trkpt lat="53.39821621328821" lon="14.700086117227423"><ele>16.400000000000002</ele><time>2026-04-18T16:04:35.849Z</time></trkpt><trkpt lat="53.39823291530549" lon="14.699934809287903"><ele>16.8</ele><time>2026-04-18T16:04:36.849Z</time></trkpt><trkpt lat="53.39826802823652" lon="14.699796838285982"><ele>17.200000000000003</ele><time>2026-04-18T16:04:37.849Z</time></trkpt><trkpt lat="53.39830856814423" lon="14.69961865165831"><ele>17.6</ele><time>2026-04-18T16:04:38.849Z</time></trkpt><trkpt lat="53.39833706819449" lon="14.699450124341187"><ele>18.0</ele><time>2026-04-18T16:04:39.849Z</time></trkpt><trkpt lat="53.39837605833689" lon="14.699296089139693"><ele>18.0</ele><time>2026-04-18T16:04:40.849Z</time></trkpt><trkpt lat="53.3983918685134" lon="14.699178167266085"><ele>18.0</ele><time>2026-04-18T16:04:41.849Z</time></trkpt><trkpt lat="53.398393699586286" lon="14.699041625958266"><ele>18.0</ele><time>2026-04-18T16:04:42.849Z</time></trkpt><trkpt lat="53.39842001567878" lon="14.698797277568556"><ele>18.0</ele><time>2026-04-18T16:04:44.849Z</time></trkpt><trkpt lat="53.39842164455411" lon="14.698663554402916"><ele>18.0</ele><time>2026-04-18T16:04:45.849Z</time></trkpt><trkpt lat="53.39844650651579" lon="14.69845424573028"><ele>17.666666666666668</ele><time>2026-04-18T16:04:47.849Z</time></trkpt><trkpt lat="53.398474533168475" lon="14.698348375988383"><ele>17.333333333333332</ele><time>2026-04-18T16:04:48.849Z</time></trkpt><trkpt lat="53.39850405720607" lon="14.698251525789992"><ele>17.0</ele><time>2026-04-18T16:04:49.849Z</time></trkpt><trkpt lat="53.39852833382145" lon="14.698137249127573"><ele>16.666666666666664</ele><time>2026-04-18T16:04:50.849Z</time></trkpt><trkpt lat="53.39855143645236" lon="14.697990874401428"><ele>16.333333333333332</ele><time>2026-04-18T16:04:51.849Z</time></trkpt><trkpt lat="53.39856667145088" lon="14.697845840774368"><ele>16.0</ele><time>2026-04-18T16:04:52.849Z</time></trkpt><trkpt lat="53.398597007887524" lon="14.697731674979053"><ele>15.75</ele><time>2026-04-18T16:04:53.849Z</time></trkpt><trkpt lat="53.398630858668106" lon="14.6975433683429"><ele>15.5</ele><time>2026-04-18T16:04:55.848Z</time></trkpt><trkpt lat="53.3986553247297" lon="14.69742985256356"><ele>15.25</ele><time>2026-04-18T16:04:59.848Z</time></trkpt><trkpt lat="53.398847790440115" lon="14.697251337586218"><ele>15.0</ele><time>2026-04-18T16:06:04.846Z</time></trkpt><trkpt lat="53.39895730661902" lon="14.697231305060546"><ele>14.75</ele><time>2026-04-18T16:06:05.846Z</time></trkpt><trkpt lat="53.39909442425003" lon="14.697230219087372"><ele>14.5</ele><time>2026-04-18T16:06:06.846Z</time></trkpt><trkpt lat="53.39921812196496" lon="14.69723688609955"><ele>14.25</ele><time>2026-04-18T16:06:07.846Z</time></trkpt><trkpt lat="53.399322500401574" lon="14.69722867082949"><ele>14.0</ele><time>2026-04-18T16:06:08.846Z</time></trkpt><trkpt lat="53.39941814784744" lon="14.697223081471591"><ele>14.0</ele><time>2026-04-18T16:06:09.846Z</time></trkpt><trkpt lat="53.39952593007936" lon="14.697215940922861"><ele>14.0</ele><time>2026-04-18T16:06:10.846Z</time></trkpt><trkpt lat="53.39965553996853" lon="14.697218102149945"><ele>14.0</ele><time>2026-04-18T16:06:11.846Z</time></trkpt><trkpt lat="53.39978275359232" lon="14.697200389485344"><ele>14.0</ele><time>2026-04-18T16:06:12.845Z</time></trkpt><trkpt lat="53.39989484691411" lon="14.697207313493056"><ele>14.2</ele><time>2026-04-18T16:06:13.845Z</time></trkpt><trkpt lat="53.40001314569702" lon="14.697206854721182"><ele>14.399999999999999</ele><time>2026-04-18T16:06:14.845Z</time></trkpt><trkpt lat="53.40012605363109" lon="14.69720198591853"><ele>14.6</ele><time>2026-04-18T16:06:15.845Z</time></trkpt><trkpt lat="53.40023061613207" lon="14.697194653742208"><ele>14.8</ele><time>2026-04-18T16:06:16.845Z</time></trkpt><trkpt lat="53.40033077074819" lon="14.697182674526793"><ele>15.0</ele><time>2026-04-18T16:06:17.845Z</time></trkpt><trkpt lat="53.400405526519656" lon="14.697180921056892"><ele>15.0</ele><time>2026-04-18T16:06:18.845Z</time></trkpt><trkpt lat="53.40047542322035" lon="14.697182526874414"><ele>15.0</ele><time>2026-04-18T16:06:19.845Z</time></trkpt><trkpt lat="53.400572332031786" lon="14.69718770320569"><ele>15.0</ele><time>2026-04-18T16:06:20.845Z</time></trkpt><trkpt lat="53.40069318835214" lon="14.697182401399786"><ele>15.0</ele><time>2026-04-18T16:06:21.845Z</time></trkpt><trkpt lat="53.40081684768207" lon="14.6971828827998"><ele>15.0</ele><time>2026-04-18T16:06:22.845Z</time></trkpt><trkpt lat="53.40095710373292" lon="14.697208412015451"><ele>15.333333333333332</ele><time>2026-04-18T16:06:23.845Z</time></trkpt><trkpt lat="53.40124059810523" lon="14.697203778534016"><ele>15.666666666666666</ele><time>2026-04-18T16:06:25.845Z</time></trkpt><trkpt lat="53.4013749322382" lon="14.697193383673053"><ele>16.0</ele><time>2026-04-18T16:06:26.845Z</time></trkpt><trkpt lat="53.40153655952786" lon="14.697193701825235"><ele>16.0</ele><time>2026-04-18T16:06:27.845Z</time></trkpt><trkpt lat="53.40166405695681" lon="14.697201471639813"><ele>16.0</ele><time>2026-04-18T16:06:28.845Z</time></trkpt><trkpt lat="53.40190475291016" lon="14.697206468553818"><ele>16.0</ele><time>2026-04-18T16:06:31.845Z</time></trkpt><trkpt lat="53.40200064440483" lon="14.69717990449361"><ele>15.999999999999998</ele><time>2026-04-18T16:06:33.845Z</time></trkpt><trkpt lat="53.40209289424894" lon="14.697156602067684"><ele>16.0</ele><time>2026-04-18T16:06:35.845Z</time></trkpt><trkpt lat="53.40216493842367" lon="14.697144257236332"><ele>16.0</ele><time>2026-04-18T16:06:38.845Z</time></trkpt><trkpt lat="53.40223008290419" lon="14.69713426381942"><ele>16.0</ele><time>2026-04-18T16:06:39.845Z</time></trkpt><trkpt lat="53.40236169095223" lon="14.697133341607124"><ele>15.999999999999998</ele><time>2026-04-18T16:06:42.845Z</time></trkpt><trkpt lat="53.40244200955854" lon="14.697131423837702"><ele>16.0</ele><time>2026-04-18T16:06:44.845Z</time></trkpt><trkpt lat="53.40251365457332" lon="14.697119445169943"><ele>15.8</ele><time>2026-04-18T16:06:46.845Z</time></trkpt><trkpt lat="53.402590021366684" lon="14.697108677985865"><ele>15.600000000000001</ele><time>2026-04-18T16:06:48.845Z</time></trkpt><trkpt lat="53.40273971452985" lon="14.69708501889921"><ele>15.4</ele><time>2026-04-18T16:06:51.845Z</time></trkpt><trkpt lat="53.40284675081834" lon="14.697081395976404"><ele>15.2</ele><time>2026-04-18T16:06:53.845Z</time></trkpt><trkpt lat="53.4029125486073" lon="14.69706044038875"><ele>15.0</ele><time>2026-04-18T16:06:54.845Z</time></trkpt><trkpt lat="53.4029827518726" lon="14.697060999273255"><ele>13.8</ele><time>2026-04-18T16:06:55.845Z</time></trkpt><trkpt lat="53.403054566450955" lon="14.697051680052997"><ele>12.6</ele><time>2026-04-18T16:06:56.845Z</time></trkpt><trkpt lat="53.40316253014976" lon="14.697091507918511"><ele>11.4</ele><time>2026-04-18T16:06:58.845Z</time></trkpt><trkpt lat="53.403218192845024" lon="14.697168990133608"><ele>10.2</ele><time>2026-04-18T16:06:59.845Z</time></trkpt><trkpt lat="53.403293631033186" lon="14.6972871899944"><ele>9.0</ele><time>2026-04-18T16:07:00.845Z</time></trkpt><trkpt lat="53.40338875423957" lon="14.697441903884634"><ele>9.0</ele><time>2026-04-18T16:07:01.845Z</time></trkpt><trkpt lat="53.403466399604426" lon="14.697592866105598"><ele>9.0</ele><time>2026-04-18T16:07:02.845Z</time></trkpt><trkpt lat="53.40353550686513" lon="14.697717304389977"><ele>9.0</ele><time>2026-04-18T16:07:03.845Z</time></trkpt><trkpt lat="53.403596414796915" lon="14.697828947225439"><ele>9.0</ele><time>2026-04-18T16:07:04.845Z</time></trkpt><trkpt lat="53.40367114775069" lon="14.697948339639769"><ele>9.0</ele><time>2026-04-18T16:07:05.845Z</time></trkpt><trkpt lat="53.40374226829267" lon="14.698094796133583"><ele>9.2</ele><time>2026-04-18T16:07:06.845Z</time></trkpt><trkpt lat="53.403792030424924" lon="14.698249848516191"><ele>9.4</ele><time>2026-04-18T16:07:07.845Z</time></trkpt><trkpt lat="53.403845374153896" lon="14.698403619704541"><ele>9.6</ele><time>2026-04-18T16:07:08.845Z</time></trkpt><trkpt lat="53.403901030249656" lon="14.698527362065304"><ele>9.8</ele><time>2026-04-18T16:07:09.845Z</time></trkpt><trkpt lat="53.40395254981993" lon="14.698689895947654"><ele>10.0</ele><time>2026-04-18T16:07:10.845Z</time></trkpt><trkpt lat="53.40400608939892" lon="14.698840193844937"><ele>10.4</ele><time>2026-04-18T16:07:11.845Z</time></trkpt><trkpt lat="53.4040384560356" lon="14.698991920616823"><ele>10.8</ele><time>2026-04-18T16:07:12.845Z</time></trkpt><trkpt lat="53.404085778379965" lon="14.69913044683441"><ele>11.2</ele><time>2026-04-18T16:07:13.845Z</time></trkpt><trkpt lat="53.40412419183559" lon="14.699246647558237"><ele>11.6</ele><time>2026-04-18T16:07:14.845Z</time></trkpt><trkpt lat="53.404163096807586" lon="14.699363836254705"><ele>12.0</ele><time>2026-04-18T16:07:15.845Z</time></trkpt><trkpt lat="53.4042201062986" lon="14.699501293669037"><ele>12.0</ele><time>2026-04-18T16:07:16.845Z</time></trkpt><trkpt lat="53.404256945039805" lon="14.699608104074795"><ele>12.0</ele><time>2026-04-18T16:07:17.845Z</time></trkpt><trkpt lat="53.404289658404025" lon="14.699718118352472"><ele>12.0</ele><time>2026-04-18T16:07:18.845Z</time></trkpt><trkpt lat="53.404325116909256" lon="14.699844782314068"><ele>12.0</ele><time>2026-04-18T16:07:19.845Z</time></trkpt><trkpt lat="53.4043965278286" lon="14.69998186862986"><ele>12.0</ele><time>2026-04-18T16:07:20.845Z</time></trkpt><trkpt lat="53.40444449622959" lon="14.700082142228602"><ele>12.0</ele><time>2026-04-18T16:07:21.845Z</time></trkpt><trkpt lat="53.404487641906655" lon="14.700167074349022"><ele>12.0</ele><time>2026-04-18T16:07:22.845Z</time></trkpt><trkpt lat="53.40452489620359" lon="14.700266377983718"><ele>12.0</ele><time>2026-04-18T16:07:23.845Z</time></trkpt><trkpt lat="53.40456653293997" lon="14.700371777693299"><ele>12.0</ele><time>2026-04-18T16:07:24.845Z</time></trkpt><trkpt lat="53.40462018941076" lon="14.70050091962435"><ele>12.0</ele><time>2026-04-18T16:07:25.844Z</time></trkpt><trkpt lat="53.40467066964684" lon="14.70061751438541"><ele>12.0</ele><time>2026-04-18T16:07:26.844Z</time></trkpt><trkpt lat="53.404714604933794" lon="14.70073097164701"><ele>12.0</ele><time>2026-04-18T16:07:27.844Z</time></trkpt><trkpt lat="53.40476550117108" lon="14.700838648780342"><ele>12.0</ele><time>2026-04-18T16:07:28.844Z</time></trkpt><trkpt lat="53.404824901964" lon="14.700985537366481"><ele>12.0</ele><time>2026-04-18T16:07:29.844Z</time></trkpt><trkpt lat="53.404889966636865" lon="14.701132866017916"><ele>12.0</ele><time>2026-04-18T16:07:30.844Z</time></trkpt><trkpt lat="53.40493734142021" lon="14.701242300554156"><ele>12.0</ele><time>2026-04-18T16:07:31.844Z</time></trkpt><trkpt lat="53.40499201845845" lon="14.701368846706721"><ele>12.0</ele><time>2026-04-18T16:07:32.844Z</time></trkpt><trkpt lat="53.405060460295836" lon="14.701493503073705"><ele>12.0</ele><time>2026-04-18T16:07:33.844Z</time></trkpt><trkpt lat="53.4051064902384" lon="14.701612606416878"><ele>12.0</ele><time>2026-04-18T16:07:34.844Z</time></trkpt><trkpt lat="53.40515371836513" lon="14.701737561233255"><ele>12.0</ele><time>2026-04-18T16:07:35.844Z</time></trkpt><trkpt lat="53.405215117788" lon="14.701865538736712"><ele>12.0</ele><time>2026-04-18T16:07:36.844Z</time></trkpt><trkpt lat="53.4052648637811" lon="14.701973333184178"><ele>12.0</ele><time>2026-04-18T16:07:37.844Z</time></trkpt><trkpt lat="53.405323573363845" lon="14.70208357682909"><ele>12.0</ele><time>2026-04-18T16:07:38.844Z</time></trkpt><trkpt lat="53.405371537139914" lon="14.702203847159842"><ele>12.0</ele><time>2026-04-18T16:07:39.844Z</time></trkpt><trkpt lat="53.40541316993847" lon="14.702321274870492"><ele>12.0</ele><time>2026-04-18T16:07:40.844Z</time></trkpt><trkpt lat="53.4054655934377" lon="14.702452744145914"><ele>12.0</ele><time>2026-04-18T16:07:41.844Z</time></trkpt><trkpt lat="53.4055030251142" lon="14.702575085290807"><ele>12.0</ele><time>2026-04-18T16:07:42.844Z</time></trkpt><trkpt lat="53.40554889734725" lon="14.702687341096366"><ele>12.0</ele><time>2026-04-18T16:07:43.844Z</time></trkpt><trkpt lat="53.40559120755183" lon="14.702784436280176"><ele>12.0</ele><time>2026-04-18T16:07:44.844Z</time></trkpt><trkpt lat="53.405655678992225" lon="14.702862634254686"><ele>12.0</ele><time>2026-04-18T16:07:45.844Z</time></trkpt><trkpt lat="53.405739939034625" lon="14.702899706485905"><ele>12.0</ele><time>2026-04-18T16:07:46.844Z</time></trkpt><trkpt lat="53.40583999035003" lon="14.702848289899809"><ele>12.0</ele><time>2026-04-18T16:07:47.844Z</time></trkpt><trkpt lat="53.40597871685332" lon="14.702787214550414"><ele>12.0</ele><time>2026-04-18T16:07:48.844Z</time></trkpt><trkpt lat="53.40607676687208" lon="14.702723430465706"><ele>12.0</ele><time>2026-04-18T16:07:49.844Z</time></trkpt><trkpt lat="53.40614886870223" lon="14.702656021047192"><ele>12.0</ele><time>2026-04-18T16:07:50.844Z</time></trkpt><trkpt lat="53.40621675266359" lon="14.702643055678402"><ele>12.0</ele><time>2026-04-18T16:07:51.844Z</time></trkpt><trkpt lat="53.40628236805435" lon="14.702662259750719"><ele>12.0</ele><time>2026-04-18T16:07:52.844Z</time></trkpt><trkpt lat="53.406368974568515" lon="14.702686115979144"><ele>12.0</ele><time>2026-04-18T16:07:54.844Z</time></trkpt><trkpt lat="53.40640223102151" lon="14.7028135429494"><ele>12.0</ele><time>2026-04-18T16:07:57.844Z</time></trkpt><trkpt lat="53.406356968031886" lon="14.702928642673921"><ele>12.0</ele><time>2026-04-18T16:07:59.844Z</time></trkpt><trkpt lat="53.4063122678887" lon="14.703100259320042"><ele>12.0</ele><time>2026-04-18T16:08:01.844Z</time></trkpt><trkpt lat="53.406297626887486" lon="14.703221561673091"><ele>12.0</ele><time>2026-04-18T16:08:03.844Z</time></trkpt><trkpt lat="53.406273898950474" lon="14.703354230158793"><ele>12.0</ele><time>2026-04-18T16:08:06.843Z</time></trkpt><trkpt lat="53.406236517405596" lon="14.703447652231024"><ele>12.0</ele><time>2026-04-18T16:08:08.843Z</time></trkpt><trkpt lat="53.40622384778023" lon="14.703580191138997"><ele>12.0</ele><time>2026-04-18T16:08:11.843Z</time></trkpt><trkpt lat="53.406178597261174" lon="14.70367473436957"><ele>12.0</ele><time>2026-04-18T16:08:15.843Z</time></trkpt><trkpt lat="53.40635767660135" lon="14.703636438392378"><ele>11.2</ele><time>2026-04-18T16:09:18.842Z</time></trkpt><trkpt lat="53.40643825547603" lon="14.703556898079512"><ele>10.399999999999999</ele><time>2026-04-18T16:09:19.842Z</time></trkpt><trkpt lat="53.406557251653474" lon="14.703548916940319"><ele>9.600000000000001</ele><time>2026-04-18T16:09:20.842Z</time></trkpt><trkpt lat="53.40664448692176" lon="14.703460201359704"><ele>8.8</ele><time>2026-04-18T16:09:21.842Z</time></trkpt><trkpt lat="53.40672304963084" lon="14.70337787612214"><ele>8.0</ele><time>2026-04-18T16:09:22.842Z</time></trkpt><trkpt lat="53.40678399261319" lon="14.703310903820187"><ele>7.999999999999999</ele><time>2026-04-18T16:09:23.842Z</time></trkpt><trkpt lat="53.406865546106815" lon="14.703221464016437"><ele>8.0</ele><time>2026-04-18T16:09:24.842Z</time></trkpt><trkpt lat="53.406915052405374" lon="14.703101067796077"><ele>8.0</ele><time>2026-04-18T16:09:25.842Z</time></trkpt><trkpt lat="53.40695411256182" lon="14.703007307132584"><ele>8.0</ele><time>2026-04-18T16:09:26.841Z</time></trkpt><trkpt lat="53.40700252537979" lon="14.702915899485282"><ele>7.999999999999999</ele><time>2026-04-18T16:09:27.841Z</time></trkpt><trkpt lat="53.407068456939555" lon="14.702815691854964"><ele>8.0</ele><time>2026-04-18T16:09:28.841Z</time></trkpt><trkpt lat="53.40712821449862" lon="14.702688561000242"><ele>8.333333333333332</ele><time>2026-04-18T16:09:29.841Z</time></trkpt><trkpt lat="53.40719571319221" lon="14.702575059421832"><ele>8.666666666666666</ele><time>2026-04-18T16:09:30.841Z</time></trkpt><trkpt lat="53.40726825788698" lon="14.702461174814216"><ele>9.0</ele><time>2026-04-18T16:09:31.841Z</time></trkpt><trkpt lat="53.40732323772065" lon="14.702376288772388"><ele>9.333333333333334</ele><time>2026-04-18T16:09:32.841Z</time></trkpt><trkpt lat="53.40738292699572" lon="14.702270877323473"><ele>9.666666666666668</ele><time>2026-04-18T16:09:33.841Z</time></trkpt><trkpt lat="53.40744332009654" lon="14.702178902623587"><ele>10.0</ele><time>2026-04-18T16:09:34.841Z</time></trkpt><trkpt lat="53.40751398596145" lon="14.70205696234277"><ele>10.0</ele><time>2026-04-18T16:09:35.841Z</time></trkpt><trkpt lat="53.40758032687085" lon="14.701941811541632"><ele>10.0</ele><time>2026-04-18T16:09:36.841Z</time></trkpt><trkpt lat="53.407647053268335" lon="14.701826210702237"><ele>10.0</ele><time>2026-04-18T16:09:37.841Z</time></trkpt><trkpt lat="53.407703378931046" lon="14.701724478947133"><ele>10.0</ele><time>2026-04-18T16:09:38.841Z</time></trkpt><trkpt lat="53.407752339283405" lon="14.701638789488062"><ele>10.0</ele><time>2026-04-18T16:09:39.841Z</time></trkpt><trkpt lat="53.40781849912413" lon="14.70148997232206"><ele>10.0</ele><time>2026-04-18T16:09:41.841Z</time></trkpt><trkpt lat="53.407877243414106" lon="14.701364500229994"><ele>10.0</ele><time>2026-04-18T16:09:43.841Z</time></trkpt><trkpt lat="53.40795527668899" lon="14.701326998686861"><ele>10.0</ele><time>2026-04-18T16:09:45.841Z</time></trkpt><trkpt lat="53.40801231051221" lon="14.701383211328707"><ele>10.0</ele><time>2026-04-18T16:09:47.841Z</time></trkpt><trkpt lat="53.408128912795505" lon="14.701585856149826"><ele>10.0</ele><time>2026-04-18T16:09:49.841Z</time></trkpt><trkpt lat="53.40817728939095" lon="14.701683812042644"><ele>10.0</ele><time>2026-04-18T16:09:50.841Z</time></trkpt><trkpt lat="53.4082092691831" lon="14.70177551568218"><ele>10.0</ele><time>2026-04-18T16:09:51.841Z</time></trkpt><trkpt lat="53.40822692305323" lon="14.701925569060377"><ele>10.0</ele><time>2026-04-18T16:09:53.841Z</time></trkpt><trkpt lat="53.40818344559955" lon="14.702022778821634"><ele>10.0</ele><time>2026-04-18T16:09:55.841Z</time></trkpt><trkpt lat="53.408065819411256" lon="14.702259464656718"><ele>10.0</ele><time>2026-04-18T16:10:57.839Z</time></trkpt><trkpt lat="53.40799187807285" lon="14.702347785283926"><ele>10.0</ele><time>2026-04-18T16:10:58.839Z</time></trkpt><trkpt lat="53.40793334693908" lon="14.7024375214845"><ele>10.0</ele><time>2026-04-18T16:10:59.839Z</time></trkpt><trkpt lat="53.40784929785903" lon="14.702577622091612"><ele>10.0</ele><time>2026-04-18T16:11:01.838Z</time></trkpt><trkpt lat="53.40778647534608" lon="14.702654747759416"><ele>10.0</ele><time>2026-04-18T16:11:02.838Z</time></trkpt><trkpt lat="53.407732893168216" lon="14.702722796902737"><ele>10.0</ele><time>2026-04-18T16:11:03.838Z</time></trkpt><trkpt lat="53.407683944006465" lon="14.702793068355911"><ele>10.0</ele><time>2026-04-18T16:11:04.838Z</time></trkpt><trkpt lat="53.40763536342913" lon="14.702863722438167"><ele>9.833333333333334</ele><time>2026-04-18T16:11:05.838Z</time></trkpt><trkpt lat="53.407556694392746" lon="14.702958083504651"><ele>9.666666666666668</ele><time>2026-04-18T16:11:07.838Z</time></trkpt><trkpt lat="53.40746734732758" lon="14.703011786265192"><ele>9.5</ele><time>2026-04-18T16:11:09.838Z</time></trkpt><trkpt lat="53.40739894368728" lon="14.703034794318558"><ele>9.333333333333334</ele><time>2026-04-18T16:11:10.838Z</time></trkpt><trkpt lat="53.40732862507903" lon="14.703050717812427"><ele>9.166666666666666</ele><time>2026-04-18T16:11:11.838Z</time></trkpt><trkpt lat="53.40724743825971" lon="14.703089016203382"><ele>9.0</ele><time>2026-04-18T16:11:12.838Z</time></trkpt><trkpt lat="53.40717791190192" lon="14.703144922133992"><ele>8.833333333333334</ele><time>2026-04-18T16:11:13.838Z</time></trkpt><trkpt lat="53.40709641729293" lon="14.703215901357712"><ele>8.666666666666666</ele><time>2026-04-18T16:11:15.838Z</time></trkpt><trkpt lat="53.40715266339886" lon="14.703305774093058"><ele>8.5</ele><time>2026-04-18T16:11:32.838Z</time></trkpt><trkpt lat="53.407108873658686" lon="14.703435597807424"><ele>8.333333333333332</ele><time>2026-04-18T16:11:37.838Z</time></trkpt><trkpt lat="53.407046581172494" lon="14.703464585393156"><ele>8.166666666666666</ele><time>2026-04-18T16:11:40.838Z</time></trkpt><trkpt lat="53.40706947918772" lon="14.703579303106348"><ele>8.0</ele><time>2026-04-18T16:11:51.838Z</time></trkpt><trkpt lat="53.40714624687332" lon="14.703640917037715"><ele>8.75</ele><time>2026-04-18T16:11:53.838Z</time></trkpt><trkpt lat="53.40726598303143" lon="14.703735580755856"><ele>9.5</ele><time>2026-04-18T16:11:55.838Z</time></trkpt><trkpt lat="53.40733645166389" lon="14.703781745783676"><ele>10.25</ele><time>2026-04-18T16:11:56.838Z</time></trkpt><trkpt lat="53.40742686144218" lon="14.703867228374932"><ele>11.0</ele><time>2026-04-18T16:11:58.838Z</time></trkpt><trkpt lat="53.40754628091447" lon="14.70399729524261"><ele>11.0</ele><time>2026-04-18T16:12:00.838Z</time></trkpt><trkpt lat="53.407617525814395" lon="14.704066875286795"><ele>11.0</ele><time>2026-04-18T16:12:01.838Z</time></trkpt><trkpt lat="53.40767682362226" lon="14.704109351065757"><ele>11.0</ele><time>2026-04-18T16:12:02.838Z</time></trkpt><trkpt lat="53.40773820674195" lon="14.704166970850276"><ele>11.0</ele><time>2026-04-18T16:12:03.838Z</time></trkpt><trkpt lat="53.407839903419145" lon="14.704251041682337"><ele>11.0</ele><time>2026-04-18T16:12:05.84Z</time></trkpt><trkpt lat="53.40794632831239" lon="14.704362007614462"><ele>10.0</ele><time>2026-04-18T16:12:07.841Z</time></trkpt><trkpt lat="53.40803290836543" lon="14.704457487273547"><ele>9.0</ele><time>2026-04-18T16:12:09.842Z</time></trkpt><trkpt lat="53.40813999603059" lon="14.704519678426417"><ele>8.0</ele><time>2026-04-18T16:12:11.843Z</time></trkpt><trkpt lat="53.40844197732037" lon="14.704665379871367"><ele>7.999999999999999</ele><time>2026-04-18T16:12:19.844Z</time></trkpt><trkpt lat="53.40852921884602" lon="14.704690500473987"><ele>8.0</ele><time>2026-04-18T16:12:20.845Z</time></trkpt><trkpt lat="53.408618814417736" lon="14.70473085011083"><ele>8.0</ele><time>2026-04-18T16:12:21.844Z</time></trkpt><trkpt lat="53.40870196749435" lon="14.70476482296715"><ele>8.0</ele><time>2026-04-18T16:12:22.844Z</time></trkpt><trkpt lat="53.408771117844076" lon="14.70480654952696"><ele>7.999999999999999</ele><time>2026-04-18T16:12:23.845Z</time></trkpt><trkpt lat="53.408847509805476" lon="14.70483423237992"><ele>8.0</ele><time>2026-04-18T16:12:24.845Z</time></trkpt><trkpt lat="53.408932303950124" lon="14.704852639792248"><ele>7.499999999999999</ele><time>2026-04-18T16:12:25.845Z</time></trkpt><trkpt lat="53.40901799122724" lon="14.704878338961402"><ele>7.0</ele><time>2026-04-18T16:12:26.846Z</time></trkpt><trkpt lat="53.4091016979224" lon="14.704941428392523"><ele>6.5</ele><time>2026-04-18T16:12:27.845Z</time></trkpt><trkpt lat="53.409152934802215" lon="14.705015909451616"><ele>6.0</ele><time>2026-04-18T16:12:28.845Z</time></trkpt><trkpt lat="53.409225084120166" lon="14.705147727706194"><ele>5.5</ele><time>2026-04-18T16:12:29.846Z</time></trkpt><trkpt lat="53.409287378861194" lon="14.705265234839095"><ele>5.0</ele><time>2026-04-18T16:12:30.846Z</time></trkpt><trkpt lat="53.40933582544715" lon="14.705397676795293"><ele>3.75</ele><time>2026-04-18T16:12:31.846Z</time></trkpt><trkpt lat="53.40938565113857" lon="14.705550855282079"><ele>2.5</ele><time>2026-04-18T16:12:32.846Z</time></trkpt><trkpt lat="53.40943466667463" lon="14.70574774789116"><ele>1.25</ele><time>2026-04-18T16:12:33.846Z</time></trkpt><trkpt lat="53.40949253530427" lon="14.705925142969505"><ele>0.0</ele><time>2026-04-18T16:12:34.846Z</time></trkpt><trkpt lat="53.40954785143965" lon="14.706132971922116"><ele>0.0</ele><time>2026-04-18T16:12:35.846Z</time></trkpt><trkpt lat="53.409609848200525" lon="14.706335091381188"><ele>0.0</ele><time>2026-04-18T16:12:36.846Z</time></trkpt><trkpt lat="53.409674187586454" lon="14.70652821013469"><ele>0.0</ele><time>2026-04-18T16:12:37.846Z</time></trkpt><trkpt lat="53.40973838420607" lon="14.706758010320222"><ele>0.0</ele><time>2026-04-18T16:12:38.846Z</time></trkpt><trkpt lat="53.4098015357972" lon="14.706966256600852"><ele>0.0</ele><time>2026-04-18T16:12:39.846Z</time></trkpt><trkpt lat="53.4098660393701" lon="14.70716967375483"><ele>0.0</ele><time>2026-04-18T16:12:40.847Z</time></trkpt><trkpt lat="53.40993593259153" lon="14.707393052205337"><ele>0.0</ele><time>2026-04-18T16:12:41.847Z</time></trkpt><trkpt lat="53.41000612568152" lon="14.707605747235684"><ele>0.0</ele><time>2026-04-18T16:12:42.847Z</time></trkpt><trkpt lat="53.41007357248792" lon="14.707826045300136"><ele>0.3333333333333333</ele><time>2026-04-18T16:12:43.847Z</time></trkpt><trkpt lat="53.41013655874035" lon="14.708065513342355"><ele>0.6666666666666666</ele><time>2026-04-18T16:12:44.847Z</time></trkpt><trkpt lat="53.410203635208994" lon="14.70829474913299"><ele>1.0</ele><time>2026-04-18T16:12:45.847Z</time></trkpt><trkpt lat="53.41027061428282" lon="14.708521388853368"><ele>1.0</ele><time>2026-04-18T16:12:46.847Z</time></trkpt><trkpt lat="53.41033679908289" lon="14.70875029141015"><ele>1.0</ele><time>2026-04-18T16:12:47.847Z</time></trkpt><trkpt lat="53.4103937685193" lon="14.70898869068917"><ele>1.0</ele><time>2026-04-18T16:12:48.847Z</time></trkpt><trkpt lat="53.4104760847556" lon="14.709210306633244"><ele>0.6666666666666666</ele><time>2026-04-18T16:12:49.847Z</time></trkpt><trkpt lat="53.410533590894275" lon="14.709461349246132"><ele>0.3333333333333333</ele><time>2026-04-18T16:12:50.847Z</time></trkpt><trkpt lat="53.410610548508416" lon="14.70972119691732"><ele>0.0</ele><time>2026-04-18T16:12:51.847Z</time></trkpt><trkpt lat="53.41068872260049" lon="14.709985150832926"><ele>0.0</ele><time>2026-04-18T16:12:52.847Z</time></trkpt><trkpt lat="53.41076538230159" lon="14.710243850389062"><ele>0.0</ele><time>2026-04-18T16:12:53.847Z</time></trkpt><trkpt lat="53.410830023051645" lon="14.710464246030234"><ele>0.0</ele><time>2026-04-18T16:12:54.847Z</time></trkpt><trkpt lat="53.41089535576434" lon="14.710684358482313"><ele>0.0</ele><time>2026-04-18T16:12:55.847Z</time></trkpt><trkpt lat="53.410961484319046" lon="14.71090548405458"><ele>0.0</ele><time>2026-04-18T16:12:56.847Z</time></trkpt><trkpt lat="53.41104058994742" lon="14.711114902434133"><ele>0.0</ele><time>2026-04-18T16:12:57.847Z</time></trkpt><trkpt lat="53.41110688269661" lon="14.711367155015663"><ele>0.0</ele><time>2026-04-18T16:12:58.847Z</time></trkpt><trkpt lat="53.41119149598474" lon="14.711602200055417"><ele>0.0</ele><time>2026-04-18T16:12:59.847Z</time></trkpt><trkpt lat="53.41125191893517" lon="14.711855182095814"><ele>0.0</ele><time>2026-04-18T16:13:00.847Z</time></trkpt><trkpt lat="53.411332715180926" lon="14.712112125648973"><ele>0.0</ele><time>2026-04-18T16:13:01.847Z</time></trkpt><trkpt lat="53.411411986896844" lon="14.712363889715695"><ele>0.0</ele><time>2026-04-18T16:13:02.847Z</time></trkpt><trkpt lat="53.41148499627079" lon="14.712595838955789"><ele>0.0</ele><time>2026-04-18T16:13:03.847Z</time></trkpt><trkpt lat="53.41155868665765" lon="14.712835702397893"><ele>0.25</ele><time>2026-04-18T16:13:04.847Z</time></trkpt><trkpt lat="53.411628185096106" lon="14.713061551281514"><ele>0.5</ele><time>2026-04-18T16:13:05.847Z</time></trkpt><trkpt lat="53.41170716318349" lon="14.71326082889809"><ele>0.75</ele><time>2026-04-18T16:13:06.847Z</time></trkpt><trkpt lat="53.41177020035966" lon="14.713466733197397"><ele>1.0</ele><time>2026-04-18T16:13:07.847Z</time></trkpt><trkpt lat="53.41182423182337" lon="14.713642613426291"><ele>1.0</ele><time>2026-04-18T16:13:08.847Z</time></trkpt><trkpt lat="53.41187883913658" lon="14.71383210584567"><ele>1.0</ele><time>2026-04-18T16:13:09.847Z</time></trkpt><trkpt lat="53.41193391219301" lon="14.714003950498874"><ele>1.0</ele><time>2026-04-18T16:13:10.847Z</time></trkpt><trkpt lat="53.411975900394644" lon="14.714158226477915"><ele>1.0</ele><time>2026-04-18T16:13:11.847Z</time></trkpt><trkpt lat="53.4119851362843" lon="14.714308752616134"><ele>1.0</ele><time>2026-04-18T16:13:12.847Z</time></trkpt><trkpt lat="53.4120033471094" lon="14.714425941508567"><ele>1.0</ele><time>2026-04-18T16:13:13.847Z</time></trkpt><trkpt lat="53.41201918831874" lon="14.71453219228457"><ele>1.0</ele><time>2026-04-18T16:13:14.847Z</time></trkpt><trkpt lat="53.41207671091686" lon="14.714707371919262"><ele>1.0</ele><time>2026-04-18T16:13:16.847Z</time></trkpt><trkpt lat="53.41211582389884" lon="14.714912393057775"><ele>1.0</ele><time>2026-04-18T16:13:18.847Z</time></trkpt><trkpt lat="53.41215351463479" lon="14.715027066999111"><ele>1.0</ele><time>2026-04-18T16:13:19.847Z</time></trkpt><trkpt lat="53.41219762612491" lon="14.715152405098758"><ele>1.1666666666666665</ele><time>2026-04-18T16:13:20.847Z</time></trkpt><trkpt lat="53.41223626811964" lon="14.715267677482132"><ele>1.3333333333333333</ele><time>2026-04-18T16:13:21.847Z</time></trkpt><trkpt lat="53.41226325184153" lon="14.715395886001048"><ele>1.5</ele><time>2026-04-18T16:13:22.847Z</time></trkpt><trkpt lat="53.412310891700294" lon="14.71549824847477"><ele>1.6666666666666665</ele><time>2026-04-18T16:13:23.847Z</time></trkpt><trkpt lat="53.41233174672367" lon="14.71562215959428"><ele>1.8333333333333333</ele><time>2026-04-18T16:13:24.847Z</time></trkpt><trkpt lat="53.41236688800447" lon="14.715737983926894"><ele>2.0</ele><time>2026-04-18T16:13:25.847Z</time></trkpt><trkpt lat="53.412415713683394" lon="14.715929326704616"><ele>1.9999999999999998</ele><time>2026-04-18T16:13:27.847Z</time></trkpt><trkpt lat="53.412450732132946" lon="14.716023234583954"><ele>2.0</ele><time>2026-04-18T16:13:28.847Z</time></trkpt><trkpt lat="53.41242857737532" lon="14.716124300382791"><ele>2.0</ele><time>2026-04-18T16:13:29.847Z</time></trkpt><trkpt lat="53.41239052980062" lon="14.71629189626258"><ele>2.0</ele><time>2026-04-18T16:13:31.847Z</time></trkpt><trkpt lat="53.41236369603737" lon="14.716437308813475"><ele>1.9999999999999998</ele><time>2026-04-18T16:13:33.847Z</time></trkpt><trkpt lat="53.41233427007863" lon="14.716559900145656"><ele>2.0</ele><time>2026-04-18T16:13:35.847Z</time></trkpt><trkpt lat="53.41259740039144" lon="14.716805912525944"><ele>3.2</ele><time>2026-04-18T16:13:36.847Z</time></trkpt><trkpt lat="53.4126369047482" lon="14.7169047770761"><ele>4.4</ele><time>2026-04-18T16:13:37.847Z</time></trkpt><trkpt lat="53.4126251580516" lon="14.71702222867635"><ele>5.6000000000000005</ele><time>2026-04-18T16:13:39.847Z</time></trkpt><trkpt lat="53.41257318776296" lon="14.717150760322305"><ele>6.800000000000001</ele><time>2026-04-18T16:13:41.847Z</time></trkpt><trkpt lat="53.412641438177914" lon="14.71731812520796"><ele>8.0</ele><time>2026-04-18T16:13:43.847Z</time></trkpt><trkpt lat="53.412700647904465" lon="14.7174718270522"><ele>8.0</ele><time>2026-04-18T16:13:44.847Z</time></trkpt><trkpt lat="53.4127407796054" lon="14.717643431172993"><ele>8.0</ele><time>2026-04-18T16:13:45.847Z</time></trkpt><trkpt lat="53.41279405723418" lon="14.717803728986523"><ele>8.0</ele><time>2026-04-18T16:13:46.847Z</time></trkpt><trkpt lat="53.41283162231792" lon="14.717920017505662"><ele>8.0</ele><time>2026-04-18T16:13:47.847Z</time></trkpt><trkpt lat="53.412874983520794" lon="14.718076931208675"><ele>8.0</ele><time>2026-04-18T16:13:48.847Z</time></trkpt><trkpt lat="53.412920296038095" lon="14.718238266031658"><ele>8.75</ele><time>2026-04-18T16:13:49.847Z</time></trkpt><trkpt lat="53.41296766784236" lon="14.718396913069562"><ele>9.5</ele><time>2026-04-18T16:13:50.847Z</time></trkpt><trkpt lat="53.4130266835058" lon="14.71856985496881"><ele>10.25</ele><time>2026-04-18T16:13:51.847Z</time></trkpt><trkpt lat="53.41308250948538" lon="14.718741582250898"><ele>11.0</ele><time>2026-04-18T16:13:52.847Z</time></trkpt><trkpt lat="53.413142817619324" lon="14.718918943181997"><ele>10.5</ele><time>2026-04-18T16:13:53.847Z</time></trkpt><trkpt lat="53.41320723206272" lon="14.719104265835574"><ele>10.0</ele><time>2026-04-18T16:13:54.847Z</time></trkpt><trkpt lat="53.41329483148926" lon="14.719279842965589"><ele>9.5</ele><time>2026-04-18T16:13:55.847Z</time></trkpt><trkpt lat="53.41337400566942" lon="14.71946081541828"><ele>9.0</ele><time>2026-04-18T16:13:56.847Z</time></trkpt><trkpt lat="53.413442317101264" lon="14.719634080392005"><ele>9.0</ele><time>2026-04-18T16:13:57.847Z</time></trkpt><trkpt lat="53.413511913096336" lon="14.71980918714951"><ele>9.0</ele><time>2026-04-18T16:13:58.847Z</time></trkpt><trkpt lat="53.413581447513565" lon="14.7199836492993"><ele>9.0</ele><time>2026-04-18T16:13:59.847Z</time></trkpt><trkpt lat="53.413665609017855" lon="14.720153029770474"><ele>9.0</ele><time>2026-04-18T16:14:00.847Z</time></trkpt><trkpt lat="53.41376091490458" lon="14.72032983072617"><ele>8.5</ele><time>2026-04-18T16:14:01.847Z</time></trkpt><trkpt lat="53.413851722343686" lon="14.7205112216398"><ele>8.0</ele><time>2026-04-18T16:14:02.847Z</time></trkpt><trkpt lat="53.4139376305051" lon="14.720680149011717"><ele>7.5</ele><time>2026-04-18T16:14:03.847Z</time></trkpt><trkpt lat="53.41401382512586" lon="14.72085617230322"><ele>7.0</ele><time>2026-04-18T16:14:04.847Z</time></trkpt><trkpt lat="53.41410052547056" lon="14.720998016669567"><ele>7.6</ele><time>2026-04-18T16:14:05.847Z</time></trkpt><trkpt lat="53.41418909879773" lon="14.721133051348165"><ele>8.2</ele><time>2026-04-18T16:14:06.847Z</time></trkpt><trkpt lat="53.41427770570321" lon="14.721265539011359"><ele>8.8</ele><time>2026-04-18T16:14:07.847Z</time></trkpt><trkpt lat="53.4143580373681" lon="14.721364473554294"><ele>9.4</ele><time>2026-04-18T16:14:08.847Z</time></trkpt><trkpt lat="53.41442064329817" lon="14.72143163654355"><ele>10.0</ele><time>2026-04-18T16:14:09.847Z</time></trkpt><trkpt lat="53.41448803018329" lon="14.721564961508154"><ele>10.0</ele><time>2026-04-18T16:14:11.847Z</time></trkpt><trkpt lat="53.41461968422771" lon="14.721620875671878"><ele>10.0</ele><time>2026-04-18T16:14:12.847Z</time></trkpt><trkpt lat="53.41466114675753" lon="14.721770594233085"><ele>10.0</ele><time>2026-04-18T16:14:13.847Z</time></trkpt><trkpt lat="53.41470183834667" lon="14.721955340748693"><ele>10.0</ele><time>2026-04-18T16:14:14.847Z</time></trkpt><trkpt lat="53.41476499569425" lon="14.722122739357403"><ele>9.6</ele><time>2026-04-18T16:14:15.847Z</time></trkpt><trkpt lat="53.41481286016357" lon="14.722273426605055"><ele>9.2</ele><time>2026-04-18T16:14:16.847Z</time></trkpt><trkpt lat="53.414854601989475" lon="14.7224330693833"><ele>8.8</ele><time>2026-04-18T16:14:17.847Z</time></trkpt><trkpt lat="53.41489930087747" lon="14.722608144311"><ele>8.4</ele><time>2026-04-18T16:14:18.847Z</time></trkpt><trkpt lat="53.41494954013331" lon="14.722789834742592"><ele>8.0</ele><time>2026-04-18T16:14:19.847Z</time></trkpt><trkpt lat="53.41500079271891" lon="14.722938553954785"><ele>8.666666666666666</ele><time>2026-04-18T16:14:20.847Z</time></trkpt><trkpt lat="53.41503820588004" lon="14.723068028198739"><ele>9.333333333333332</ele><time>2026-04-18T16:14:21.847Z</time></trkpt><trkpt lat="53.41507354715483" lon="14.723191264542354"><ele>10.0</ele><time>2026-04-18T16:14:22.846Z</time></trkpt><trkpt lat="53.41511891239599" lon="14.723352902165729"><ele>10.666666666666666</ele><time>2026-04-18T16:14:23.845Z</time></trkpt><trkpt lat="53.415168314543834" lon="14.723459036911887"><ele>11.333333333333334</ele><time>2026-04-18T16:14:24.845Z</time></trkpt><trkpt lat="53.415207414259484" lon="14.723566944483386"><ele>12.0</ele><time>2026-04-18T16:14:25.845Z</time></trkpt><trkpt lat="53.415046544683314" lon="14.723822480146135"><ele>12.6</ele><time>2026-04-18T16:14:32.845Z</time></trkpt><trkpt lat="53.414959462962116" lon="14.723982534381612"><ele>13.2</ele><time>2026-04-18T16:14:34.845Z</time></trkpt><trkpt lat="53.41490074241891" lon="14.724047541399836"><ele>13.8</ele><time>2026-04-18T16:14:35.844Z</time></trkpt><trkpt lat="53.41482204795654" lon="14.724142118750924"><ele>14.4</ele><time>2026-04-18T16:14:37.844Z</time></trkpt><trkpt lat="53.414806981253776" lon="14.724273572277882"><ele>15.0</ele><time>2026-04-18T16:14:39.844Z</time></trkpt><trkpt lat="53.41483904747204" lon="14.724389431935863"><ele>15.666666666666666</ele><time>2026-04-18T16:14:40.844Z</time></trkpt><trkpt lat="53.41487191674959" lon="14.724493717336436"><ele>16.333333333333332</ele><time>2026-04-18T16:14:41.844Z</time></trkpt><trkpt lat="53.41492087104209" lon="14.72458813660961"><ele>17.0</ele><time>2026-04-18T16:14:42.844Z</time></trkpt><trkpt lat="53.414955305496996" lon="14.72468980095941"><ele>17.666666666666664</ele><time>2026-04-18T16:14:43.844Z</time></trkpt><trkpt lat="53.41499070141828" lon="14.724924356266708"><ele>18.333333333333332</ele><time>2026-04-18T16:14:45.844Z</time></trkpt><trkpt lat="53.41499800113909" lon="14.725055473267279"><ele>19.0</ele><time>2026-04-18T16:14:46.844Z</time></trkpt><trkpt lat="53.41500157920468" lon="14.725180168971693"><ele>19.5</ele><time>2026-04-18T16:14:47.844Z</time></trkpt><trkpt lat="53.41501821073977" lon="14.72530395841703"><ele>20.0</ele><time>2026-04-18T16:14:48.844Z</time></trkpt><trkpt lat="53.415054228664204" lon="14.725414109738395"><ele>20.5</ele><time>2026-04-18T16:14:49.844Z</time></trkpt><trkpt lat="53.415109062071714" lon="14.725547596659979"><ele>21.0</ele><time>2026-04-18T16:14:50.844Z</time></trkpt><trkpt lat="53.415141443947455" lon="14.725645400434276"><ele>21.5</ele><time>2026-04-18T16:14:51.844Z</time></trkpt><trkpt lat="53.41516838731055" lon="14.725751683905544"><ele>22.0</ele><time>2026-04-18T16:14:52.844Z</time></trkpt><trkpt lat="53.41519777763572" lon="14.725908593898156"><ele>22.0</ele><time>2026-04-18T16:14:53.844Z</time></trkpt><trkpt lat="53.415220557073" lon="14.72604096751726"><ele>22.0</ele><time>2026-04-18T16:14:54.844Z</time></trkpt><trkpt lat="53.41525453364493" lon="14.726169910802746"><ele>22.0</ele><time>2026-04-18T16:14:55.844Z</time></trkpt><trkpt lat="53.415295572873084" lon="14.726270868523875"><ele>22.0</ele><time>2026-04-18T16:14:56.844Z</time></trkpt><trkpt lat="53.41532842457182" lon="14.726369095046456"><ele>22.0</ele><time>2026-04-18T16:14:57.844Z</time></trkpt><trkpt lat="53.41537368389576" lon="14.726496311474087"><ele>22.0</ele><time>2026-04-18T16:14:58.844Z</time></trkpt><trkpt lat="53.41542502215541" lon="14.726668747227949"><ele>21.0</ele><time>2026-04-18T16:14:59.844Z</time></trkpt><trkpt lat="53.41548835442916" lon="14.726877146014111"><ele>20.0</ele><time>2026-04-18T16:15:00.844Z</time></trkpt><trkpt lat="53.415556783656776" lon="14.727105229130725"><ele>19.0</ele><time>2026-04-18T16:15:02.844Z</time></trkpt><trkpt lat="53.41559776734953" lon="14.7272346234158"><ele>18.0</ele><time>2026-04-18T16:15:03.844Z</time></trkpt><trkpt lat="53.41564589508197" lon="14.727388718759888"><ele>18.0</ele><time>2026-04-18T16:15:04.844Z</time></trkpt><trkpt lat="53.4156898913885" lon="14.727533114135815"><ele>18.0</ele><time>2026-04-18T16:15:05.844Z</time></trkpt><trkpt lat="53.41572767173432" lon="14.7276837373734"><ele>18.0</ele><time>2026-04-18T16:15:06.844Z</time></trkpt><trkpt lat="53.41575919913012" lon="14.727803584241556"><ele>18.0</ele><time>2026-04-18T16:15:07.844Z</time></trkpt><trkpt lat="53.41579111367075" lon="14.72793154046946"><ele>18.0</ele><time>2026-04-18T16:15:08.844Z</time></trkpt><trkpt lat="53.41583196989068" lon="14.728080055341627"><ele>18.2</ele><time>2026-04-18T16:15:09.844Z</time></trkpt><trkpt lat="53.415873117703505" lon="14.728217573027177"><ele>18.4</ele><time>2026-04-18T16:15:10.844Z</time></trkpt><trkpt lat="53.415930123193135" lon="14.728363460542507"><ele>18.599999999999998</ele><time>2026-04-18T16:15:11.844Z</time></trkpt><trkpt lat="53.415972001064105" lon="14.72852489429946"><ele>18.8</ele><time>2026-04-18T16:15:12.844Z</time></trkpt><trkpt lat="53.41601268102431" lon="14.728666764248908"><ele>19.0</ele><time>2026-04-18T16:15:13.844Z</time></trkpt><trkpt lat="53.41604334896859" lon="14.728801386760313"><ele>19.0</ele><time>2026-04-18T16:15:14.844Z</time></trkpt><trkpt lat="53.4160694887509" lon="14.728920580445466"><ele>19.0</ele><time>2026-04-18T16:15:15.844Z</time></trkpt><trkpt lat="53.41610738750429" lon="14.729029251027898"><ele>19.0</ele><time>2026-04-18T16:15:16.844Z</time></trkpt><trkpt lat="53.41616576374351" lon="14.729138684501276"><ele>19.0</ele><time>2026-04-18T16:15:17.844Z</time></trkpt><trkpt lat="53.416246370062936" lon="14.729254226546757"><ele>19.0</ele><time>2026-04-18T16:15:18.844Z</time></trkpt><trkpt lat="53.41635138288357" lon="14.72935669845208"><ele>18.4</ele><time>2026-04-18T16:15:19.844Z</time></trkpt><trkpt lat="53.416414626609324" lon="14.729457601626411"><ele>17.799999999999997</ele><time>2026-04-18T16:15:20.844Z</time></trkpt><trkpt lat="53.416448796987844" lon="14.729569372343942"><ele>17.200000000000003</ele><time>2026-04-18T16:15:21.844Z</time></trkpt><trkpt lat="53.416505096320435" lon="14.729733637364104"><ele>16.6</ele><time>2026-04-18T16:15:22.844Z</time></trkpt><trkpt lat="53.41654820607622" lon="14.729917512171049"><ele>16.0</ele><time>2026-04-18T16:15:23.844Z</time></trkpt><trkpt lat="53.416599181983734" lon="14.730071385259365"><ele>16.2</ele><time>2026-04-18T16:15:24.844Z</time></trkpt><trkpt lat="53.41665603038559" lon="14.730233317216745"><ele>16.400000000000002</ele><time>2026-04-18T16:15:25.844Z</time></trkpt><trkpt lat="53.41670723768697" lon="14.730393789231464"><ele>16.6</ele><time>2026-04-18T16:15:26.844Z</time></trkpt><trkpt lat="53.41676265465784" lon="14.730558821297135"><ele>16.8</ele><time>2026-04-18T16:15:27.844Z</time></trkpt><trkpt lat="53.41680009319038" lon="14.730714848935042"><ele>17.0</ele><time>2026-04-18T16:15:28.844Z</time></trkpt><trkpt lat="53.41683891726936" lon="14.730887283020824"><ele>17.0</ele><time>2026-04-18T16:15:29.844Z</time></trkpt><trkpt lat="53.41688542774784" lon="14.731041736285668"><ele>17.0</ele><time>2026-04-18T16:15:30.844Z</time></trkpt><trkpt lat="53.416941614832254" lon="14.731189853902574"><ele>17.0</ele><time>2026-04-18T16:15:31.844Z</time></trkpt><trkpt lat="53.41699593609779" lon="14.731326920600644"><ele>17.0</ele><time>2026-04-18T16:15:32.843Z</time></trkpt><trkpt lat="53.4170463986946" lon="14.731489294775315"><ele>17.0</ele><time>2026-04-18T16:15:33.843Z</time></trkpt><trkpt lat="53.41710953300548" lon="14.731662114258787"><ele>16.8</ele><time>2026-04-18T16:15:34.843Z</time></trkpt><trkpt lat="53.41716709092152" lon="14.73181755387127"><ele>16.6</ele><time>2026-04-18T16:15:35.843Z</time></trkpt><trkpt lat="53.417228050506274" lon="14.731958189029834"><ele>16.400000000000002</ele><time>2026-04-18T16:15:36.843Z</time></trkpt><trkpt lat="53.41728851521776" lon="14.73208322762182"><ele>16.2</ele><time>2026-04-18T16:15:37.843Z</time></trkpt><trkpt lat="53.41733347171971" lon="14.73223962389724"><ele>16.0</ele><time>2026-04-18T16:15:38.843Z</time></trkpt><trkpt lat="53.41738186470355" lon="14.73237389757907"><ele>15.999999999999998</ele><time>2026-04-18T16:15:39.843Z</time></trkpt><trkpt lat="53.41742311838216" lon="14.732494669704122"><ele>16.0</ele><time>2026-04-18T16:15:40.843Z</time></trkpt><trkpt lat="53.417445255013476" lon="14.732617890776462"><ele>16.0</ele><time>2026-04-18T16:15:41.843Z</time></trkpt><trkpt lat="53.41743449773161" lon="14.732726739108962"><ele>16.0</ele><time>2026-04-18T16:15:42.843Z</time></trkpt><trkpt lat="53.417387642197056" lon="14.732858630667675"><ele>15.999999999999998</ele><time>2026-04-18T16:15:43.843Z</time></trkpt><trkpt lat="53.41732805500445" lon="14.733000477354867"><ele>16.0</ele><time>2026-04-18T16:15:44.843Z</time></trkpt><trkpt lat="53.417263405535074" lon="14.733136650326882"><ele>16.333333333333332</ele><time>2026-04-18T16:15:45.843Z</time></trkpt><trkpt lat="53.417228458761215" lon="14.73323739218498"><ele>16.666666666666664</ele><time>2026-04-18T16:15:46.843Z</time></trkpt><trkpt lat="53.41723685572336" lon="14.733420971516288"><ele>17.0</ele><time>2026-04-18T16:15:48.843Z</time></trkpt><trkpt lat="53.417290718964196" lon="14.733516629498117"><ele>17.333333333333332</ele><time>2026-04-18T16:15:49.843Z</time></trkpt><trkpt lat="53.41735864280868" lon="14.733645876620615"><ele>17.666666666666668</ele><time>2026-04-18T16:15:50.843Z</time></trkpt><trkpt lat="53.41741511177701" lon="14.7337504498937"><ele>18.0</ele><time>2026-04-18T16:15:51.843Z</time></trkpt><trkpt lat="53.41747312458626" lon="14.733917292353306"><ele>17.333333333333332</ele><time>2026-04-18T16:15:52.843Z</time></trkpt><trkpt lat="53.41751839964407" lon="14.734033220985845"><ele>16.666666666666668</ele><time>2026-04-18T16:15:53.843Z</time></trkpt><trkpt lat="53.41756667687407" lon="14.7341717346107"><ele>16.0</ele><time>2026-04-18T16:15:55.843Z</time></trkpt><trkpt lat="53.417635299365166" lon="14.734211498936554"><ele>15.333333333333334</ele><time>2026-04-18T16:16:21.843Z</time></trkpt><trkpt lat="53.417690646324424" lon="14.734379821996164"><ele>14.666666666666668</ele><time>2026-04-18T16:16:23.843Z</time></trkpt><trkpt lat="53.41772756222837" lon="14.73448287670113"><ele>14.0</ele><time>2026-04-18T16:16:24.843Z</time></trkpt><trkpt lat="53.41776746052984" lon="14.734598667173623"><ele>13.2</ele><time>2026-04-18T16:16:25.843Z</time></trkpt><trkpt lat="53.417815936123354" lon="14.734742114840607"><ele>12.399999999999999</ele><time>2026-04-18T16:16:26.843Z</time></trkpt><trkpt lat="53.41787019959479" lon="14.734889436218099"><ele>11.6</ele><time>2026-04-18T16:16:27.843Z</time></trkpt><trkpt lat="53.417922854007415" lon="14.735027765018653"><ele>10.8</ele><time>2026-04-18T16:16:28.843Z</time></trkpt><trkpt lat="53.41796240089451" lon="14.73514067873764"><ele>10.0</ele><time>2026-04-18T16:16:29.842Z</time></trkpt><trkpt lat="53.41800526291536" lon="14.735261878510789"><ele>9.833333333333334</ele><time>2026-04-18T16:16:30.842Z</time></trkpt><trkpt lat="53.41804950394488" lon="14.73539495851566"><ele>9.666666666666668</ele><time>2026-04-18T16:16:31.842Z</time></trkpt><trkpt lat="53.418087834111944" lon="14.735517610812472"><ele>9.5</ele><time>2026-04-18T16:16:32.841Z</time></trkpt><trkpt lat="53.41812805453751" lon="14.735655920711753"><ele>9.333333333333334</ele><time>2026-04-18T16:16:33.842Z</time></trkpt><trkpt lat="53.41817370331207" lon="14.73578174143425"><ele>9.166666666666666</ele><time>2026-04-18T16:16:34.842Z</time></trkpt><trkpt lat="53.418215156310666" lon="14.735894601979227"><ele>9.0</ele><time>2026-04-18T16:16:35.841Z</time></trkpt><trkpt lat="53.41827411385009" lon="14.73604343588943"><ele>9.0</ele><time>2026-04-18T16:16:36.841Z</time></trkpt><trkpt lat="53.418325861433885" lon="14.736148073084252"><ele>9.0</ele><time>2026-04-18T16:16:37.841Z</time></trkpt><trkpt lat="53.41837982504175" lon="14.736271847349533"><ele>9.0</ele><time>2026-04-18T16:16:38.841Z</time></trkpt><trkpt lat="53.41842553313027" lon="14.736403884044508"><ele>9.0</ele><time>2026-04-18T16:16:39.842Z</time></trkpt><trkpt lat="53.41847293420149" lon="14.736546658590145"><ele>9.0</ele><time>2026-04-18T16:16:40.842Z</time></trkpt><trkpt lat="53.41847679078392" lon="14.736697736703606"><ele>9.4</ele><time>2026-04-18T16:16:41.841Z</time></trkpt><trkpt lat="53.41848093894672" lon="14.736901779973135"><ele>9.8</ele><time>2026-04-18T16:16:42.841Z</time></trkpt><trkpt lat="53.41848364560656" lon="14.73709168138136"><ele>10.200000000000001</ele><time>2026-04-18T16:16:43.841Z</time></trkpt><trkpt lat="53.418477093215195" lon="14.73726808152892"><ele>10.600000000000001</ele><time>2026-04-18T16:16:44.841Z</time></trkpt><trkpt lat="53.41846433443454" lon="14.737401691921649"><ele>11.0</ele><time>2026-04-18T16:16:45.841Z</time></trkpt><trkpt lat="53.418459692188556" lon="14.737553743909732"><ele>11.0</ele><time>2026-04-18T16:16:46.841Z</time></trkpt><trkpt lat="53.418469272488835" lon="14.737694662224877"><ele>11.0</ele><time>2026-04-18T16:16:47.841Z</time></trkpt><trkpt lat="53.418483404911" lon="14.737864139216972"><ele>11.0</ele><time>2026-04-18T16:16:48.841Z</time></trkpt><trkpt lat="53.418520413619554" lon="14.738076504228214"><ele>11.0</ele><time>2026-04-18T16:16:50.841Z</time></trkpt><trkpt lat="53.41854661319306" lon="14.738194410497671"><ele>11.0</ele><time>2026-04-18T16:16:51.841Z</time></trkpt><trkpt lat="53.41857585477764" lon="14.73830181338423"><ele>11.333333333333332</ele><time>2026-04-18T16:16:52.841Z</time></trkpt><trkpt lat="53.41860433314222" lon="14.7384243005683"><ele>11.666666666666666</ele><time>2026-04-18T16:16:53.841Z</time></trkpt><trkpt lat="53.41863606113236" lon="14.73851898111899"><ele>12.0</ele><time>2026-04-18T16:16:54.841Z</time></trkpt><trkpt lat="53.418658373925275" lon="14.738638508110107"><ele>12.333333333333332</ele><time>2026-04-18T16:16:55.841Z</time></trkpt><trkpt lat="53.41869835113671" lon="14.738780061432852"><ele>12.666666666666666</ele><time>2026-04-18T16:16:56.841Z</time></trkpt><trkpt lat="53.41872900441887" lon="14.738910181433488"><ele>13.0</ele><time>2026-04-18T16:16:57.841Z</time></trkpt><trkpt lat="53.418758274741904" lon="14.73902194628297"><ele>13.333333333333332</ele><time>2026-04-18T16:16:58.841Z</time></trkpt><trkpt lat="53.41879340393753" lon="14.73914699656955"><ele>13.666666666666666</ele><time>2026-04-18T16:16:59.841Z</time></trkpt><trkpt lat="53.418829372908846" lon="14.739276771852506"><ele>14.0</ele><time>2026-04-18T16:17:00.841Z</time></trkpt><trkpt lat="53.41886349205246" lon="14.739382963985685"><ele>14.333333333333332</ele><time>2026-04-18T16:17:01.841Z</time></trkpt><trkpt lat="53.41890241638514" lon="14.73951084241588"><ele>14.666666666666666</ele><time>2026-04-18T16:17:02.841Z</time></trkpt><trkpt lat="53.41894823540662" lon="14.739656050397148"><ele>15.0</ele><time>2026-04-18T16:17:03.841Z</time></trkpt><trkpt lat="53.41898568245612" lon="14.739775991364858"><ele>15.0</ele><time>2026-04-18T16:17:04.841Z</time></trkpt><trkpt lat="53.41902326391447" lon="14.739901159201004"><ele>15.0</ele><time>2026-04-18T16:17:05.841Z</time></trkpt><trkpt lat="53.419059371787526" lon="14.740034989010939"><ele>15.0</ele><time>2026-04-18T16:17:06.841Z</time></trkpt><trkpt lat="53.419107225629695" lon="14.740151745602477"><ele>15.0</ele><time>2026-04-18T16:17:07.841Z</time></trkpt><trkpt lat="53.419147816473604" lon="14.740302894275402"><ele>15.0</ele><time>2026-04-18T16:17:08.841Z</time></trkpt><trkpt lat="53.41918520552772" lon="14.740453159480886"><ele>15.0</ele><time>2026-04-18T16:17:09.841Z</time></trkpt><trkpt lat="53.41921490946869" lon="14.7405974448825"><ele>15.0</ele><time>2026-04-18T16:17:10.841Z</time></trkpt><trkpt lat="53.41923668418449" lon="14.740770277289398"><ele>15.0</ele><time>2026-04-18T16:17:11.841Z</time></trkpt><trkpt lat="53.41926010549245" lon="14.740954855869857"><ele>15.0</ele><time>2026-04-18T16:17:12.841Z</time></trkpt><trkpt lat="53.41927582015903" lon="14.741155724776057"><ele>15.0</ele><time>2026-04-18T16:17:13.841Z</time></trkpt><trkpt lat="53.41929014874093" lon="14.741325670777531"><ele>14.833333333333334</ele><time>2026-04-18T16:17:14.841Z</time></trkpt><trkpt lat="53.41931522046198" lon="14.741476796242058"><ele>14.666666666666668</ele><time>2026-04-18T16:17:15.841Z</time></trkpt><trkpt lat="53.419326550507115" lon="14.741619182418296"><ele>14.5</ele><time>2026-04-18T16:17:16.841Z</time></trkpt><trkpt lat="53.41934661794349" lon="14.741775656275946"><ele>14.333333333333334</ele><time>2026-04-18T16:17:17.841Z</time></trkpt><trkpt lat="53.41937297642452" lon="14.74191864136325"><ele>14.166666666666668</ele><time>2026-04-18T16:17:18.841Z</time></trkpt><trkpt lat="53.41940081548574" lon="14.742050985721292"><ele>14.0</ele><time>2026-04-18T16:17:19.841Z</time></trkpt><trkpt lat="53.41943069313238" lon="14.74218186387484"><ele>14.333333333333334</ele><time>2026-04-18T16:17:20.841Z</time></trkpt><trkpt lat="53.41946486988161" lon="14.742319560118275"><ele>14.666666666666668</ele><time>2026-04-18T16:17:21.841Z</time></trkpt><trkpt lat="53.41951088009674" lon="14.742462305283173"><ele>15.0</ele><time>2026-04-18T16:17:22.841Z</time></trkpt><trkpt lat="53.41954885688844" lon="14.742593150826362"><ele>15.333333333333332</ele><time>2026-04-18T16:17:23.84Z</time></trkpt><trkpt lat="53.41956963503185" lon="14.742704564495336"><ele>15.666666666666666</ele><time>2026-04-18T16:17:24.84Z</time></trkpt><trkpt lat="53.41960095449965" lon="14.742854719529388"><ele>16.0</ele><time>2026-04-18T16:17:25.84Z</time></trkpt><trkpt lat="53.419624304602046" lon="14.742981164837449"><ele>16.2</ele><time>2026-04-18T16:17:26.84Z</time></trkpt><trkpt lat="53.419638673990455" lon="14.743117696021844"><ele>16.400000000000002</ele><time>2026-04-18T16:17:27.84Z</time></trkpt><trkpt lat="53.419639310327625" lon="14.743237874855364"><ele>16.6</ele><time>2026-04-18T16:17:28.84Z</time></trkpt><trkpt lat="53.41967157367809" lon="14.74341977423769"><ele>16.8</ele><time>2026-04-18T16:17:29.84Z</time></trkpt><trkpt lat="53.41969690926385" lon="14.743578240683036"><ele>17.0</ele><time>2026-04-18T16:17:30.84Z</time></trkpt><trkpt lat="53.41972486937018" lon="14.743735920728966"><ele>17.0</ele><time>2026-04-18T16:17:31.84Z</time></trkpt><trkpt lat="53.41975360608426" lon="14.743870941328884"><ele>17.0</ele><time>2026-04-18T16:17:32.84Z</time></trkpt><trkpt lat="53.419789924090566" lon="14.743995857665123"><ele>17.0</ele><time>2026-04-18T16:17:33.84Z</time></trkpt><trkpt lat="53.419832571884186" lon="14.744142827451544"><ele>17.0</ele><time>2026-04-18T16:17:34.84Z</time></trkpt><trkpt lat="53.419878357514406" lon="14.744283162496076"><ele>17.0</ele><time>2026-04-18T16:17:35.84Z</time></trkpt><trkpt lat="53.41990123403482" lon="14.744404460156083"><ele>17.0</ele><time>2026-04-18T16:17:36.84Z</time></trkpt><trkpt lat="53.41994860758122" lon="14.74461470503278"><ele>17.0</ele><time>2026-04-18T16:17:38.84Z</time></trkpt><trkpt lat="53.41997011988134" lon="14.74475256212881"><ele>17.0</ele><time>2026-04-18T16:17:39.84Z</time></trkpt><trkpt lat="53.42002241298694" lon="14.744895524028943"><ele>17.0</ele><time>2026-04-18T16:17:41.84Z</time></trkpt><trkpt lat="53.419972146279534" lon="14.744997855159614"><ele>17.0</ele><time>2026-04-18T16:17:44.84Z</time></trkpt><trkpt lat="53.41986426593583" lon="14.745103001708724"><ele>17.0</ele><time>2026-04-18T16:17:46.84Z</time></trkpt><trkpt lat="53.41981008475489" lon="14.745163743413828"><ele>17.4</ele><time>2026-04-18T16:17:47.84Z</time></trkpt><trkpt lat="53.41973747367612" lon="14.745263123349943"><ele>17.799999999999997</ele><time>2026-04-18T16:17:49.84Z</time></trkpt><trkpt lat="53.41966696055414" lon="14.745378686668923"><ele>18.2</ele><time>2026-04-18T16:18:19.84Z</time></trkpt><trkpt lat="53.41956132617635" lon="14.745440069278182"><ele>18.599999999999998</ele><time>2026-04-18T16:18:21.84Z</time></trkpt><trkpt lat="53.4194965296472" lon="14.745503058712025"><ele>19.0</ele><time>2026-04-18T16:18:22.84Z</time></trkpt><trkpt lat="53.41942192429903" lon="14.745580047479073"><ele>19.0</ele><time>2026-04-18T16:18:23.84Z</time></trkpt><trkpt lat="53.41934187207779" lon="14.745666688989473"><ele>19.0</ele><time>2026-04-18T16:18:24.84Z</time></trkpt><trkpt lat="53.41925934138827" lon="14.745737437603953"><ele>19.0</ele><time>2026-04-18T16:18:25.84Z</time></trkpt><trkpt lat="53.419165239544284" lon="14.745824300487772"><ele>19.0</ele><time>2026-04-18T16:18:26.84Z</time></trkpt><trkpt lat="53.419075802885246" lon="14.745896185184394"><ele>19.0</ele><time>2026-04-18T16:18:27.84Z</time></trkpt><trkpt lat="53.418993932736065" lon="14.745978344488522"><ele>19.0</ele><time>2026-04-18T16:18:28.84Z</time></trkpt><trkpt lat="53.418902353382464" lon="14.746082178501599"><ele>19.0</ele><time>2026-04-18T16:18:29.84Z</time></trkpt><trkpt lat="53.41880198554402" lon="14.746175930190997"><ele>19.0</ele><time>2026-04-18T16:18:30.84Z</time></trkpt><trkpt lat="53.41870981347125" lon="14.746262485161393"><ele>19.0</ele><time>2026-04-18T16:18:31.84Z</time></trkpt><trkpt lat="53.41861783078308" lon="14.746361917541744"><ele>19.0</ele><time>2026-04-18T16:18:32.84Z</time></trkpt><trkpt lat="53.4185436543528" lon="14.74643560378685"><ele>19.0</ele><time>2026-04-18T16:18:33.84Z</time></trkpt><trkpt lat="53.41847410893358" lon="14.74651005361128"><ele>19.0</ele><time>2026-04-18T16:18:34.84Z</time></trkpt><trkpt lat="53.41840477060002" lon="14.746588850318279"><ele>19.0</ele><time>2026-04-18T16:18:35.838Z</time></trkpt><trkpt lat="53.41832178831675" lon="14.746656905015936"><ele>19.0</ele><time>2026-04-18T16:18:36.839Z</time></trkpt><trkpt lat="53.4182316523467" lon="14.746740076522224"><ele>19.0</ele><time>2026-04-18T16:18:37.839Z</time></trkpt><trkpt lat="53.41815491227112" lon="14.74681106417511"><ele>19.0</ele><time>2026-04-18T16:18:38.838Z</time></trkpt><trkpt lat="53.418081230340924" lon="14.74687535896086"><ele>19.2</ele><time>2026-04-18T16:18:39.838Z</time></trkpt><trkpt lat="53.41799898269808" lon="14.746933010172535"><ele>19.4</ele><time>2026-04-18T16:18:40.838Z</time></trkpt><trkpt lat="53.41791701002581" lon="14.746990324697295"><ele>19.6</ele><time>2026-04-18T16:18:41.838Z</time></trkpt><trkpt lat="53.41782121617122" lon="14.747099739736077"><ele>19.8</ele><time>2026-04-18T16:18:42.838Z</time></trkpt><trkpt lat="53.417732698277845" lon="14.747187435116059"><ele>20.0</ele><time>2026-04-18T16:18:43.838Z</time></trkpt><trkpt lat="53.417652672744524" lon="14.747267810186656"><ele>20.0</ele><time>2026-04-18T16:18:44.838Z</time></trkpt><trkpt lat="53.41756788076376" lon="14.74734686832207"><ele>20.0</ele><time>2026-04-18T16:18:45.838Z</time></trkpt><trkpt lat="53.41748265517867" lon="14.74743200212852"><ele>20.0</ele><time>2026-04-18T16:18:46.838Z</time></trkpt><trkpt lat="53.41738822085121" lon="14.74750817814488"><ele>20.0</ele><time>2026-04-18T16:18:47.838Z</time></trkpt><trkpt lat="53.41730010046845" lon="14.747592855851616"><ele>20.0</ele><time>2026-04-18T16:18:48.838Z</time></trkpt><trkpt lat="53.41720434133453" lon="14.747665027027725"><ele>19.5</ele><time>2026-04-18T16:18:49.838Z</time></trkpt><trkpt lat="53.41712231818109" lon="14.747733283803246"><ele>19.0</ele><time>2026-04-18T16:18:50.838Z</time></trkpt><trkpt lat="53.41703933014711" lon="14.747814580002148"><ele>18.5</ele><time>2026-04-18T16:18:51.838Z</time></trkpt><trkpt lat="53.41696520265732" lon="14.747884208155526"><ele>18.0</ele><time>2026-04-18T16:18:52.838Z</time></trkpt><trkpt lat="53.416901284598254" lon="14.747926874382852"><ele>17.5</ele><time>2026-04-18T16:18:53.838Z</time></trkpt><trkpt lat="53.41683704376912" lon="14.747980455724399"><ele>17.0</ele><time>2026-04-18T16:18:54.838Z</time></trkpt><trkpt lat="53.41677215011877" lon="14.74802962164961"><ele>16.999999999999996</ele><time>2026-04-18T16:18:55.838Z</time></trkpt><trkpt lat="53.41667958807361" lon="14.74808244441106"><ele>17.0</ele><time>2026-04-18T16:18:57.838Z</time></trkpt><trkpt lat="53.41662313655976" lon="14.74813503339992"><ele>17.0</ele><time>2026-04-18T16:32:38.869Z</time></trkpt><trkpt lat="53.41657021576124" lon="14.748199428477513"><ele>17.0</ele><time>2026-04-18T16:32:43.869Z</time></trkpt><trkpt lat="53.41651534783542" lon="14.748268425657493"><ele>17.0</ele><time>2026-04-18T16:32:49.869Z</time></trkpt><trkpt lat="53.41644896136343" lon="14.748337327658383"><ele>16.999999999999996</ele><time>2026-04-18T16:32:55.869Z</time></trkpt><trkpt lat="53.416388300075205" lon="14.74840251385424"><ele>17.0</ele><time>2026-04-18T16:33:02.869Z</time></trkpt><trkpt lat="53.41632149297704" lon="14.74843899815759"><ele>17.75</ele><time>2026-04-18T16:33:09.869Z</time></trkpt><trkpt lat="53.416254772190165" lon="14.748486819169184"><ele>18.5</ele><time>2026-04-18T16:33:16.869Z</time></trkpt><trkpt lat="53.41613610479803" lon="14.748520136473307"><ele>19.25</ele><time>2026-04-18T16:37:22.863Z</time></trkpt><trkpt lat="53.41606681649862" lon="14.748600716495153"><ele>20.0</ele><time>2026-04-18T16:38:01.859Z</time></trkpt><trkpt lat="53.415912904661454" lon="14.748737016399339"><ele>20.166666666666668</ele><time>2026-04-18T16:38:04.859Z</time></trkpt><trkpt lat="53.41582493969597" lon="14.74882046151159"><ele>20.333333333333336</ele><time>2026-04-18T16:38:06.859Z</time></trkpt><trkpt lat="53.41576272269876" lon="14.748917653813542"><ele>20.5</ele><time>2026-04-18T16:38:09.859Z</time></trkpt><trkpt lat="53.41571579579356" lon="14.748992602825071"><ele>20.666666666666668</ele><time>2026-04-18T16:38:12.859Z</time></trkpt><trkpt lat="53.415647408041806" lon="14.74900277662598"><ele>20.833333333333332</ele><time>2026-04-18T16:38:18.859Z</time></trkpt><trkpt lat="53.4155829948166" lon="14.748943100616426"><ele>21.0</ele><time>2026-04-18T16:38:58.859Z</time></trkpt><trkpt lat="53.4155278960579" lon="14.749012543408494"><ele>21.166666666666668</ele><time>2026-04-18T16:39:02.859Z</time></trkpt><trkpt lat="53.415464398211576" lon="14.74907833970462"><ele>21.333333333333332</ele><time>2026-04-18T16:39:03.859Z</time></trkpt><trkpt lat="53.41537127553223" lon="14.749163115928981"><ele>21.5</ele><time>2026-04-18T16:39:04.859Z</time></trkpt><trkpt lat="53.415301420298164" lon="14.749244417573175"><ele>21.666666666666664</ele><time>2026-04-18T16:39:05.859Z</time></trkpt><trkpt lat="53.4152337348476" lon="14.749300855352125"><ele>21.833333333333332</ele><time>2026-04-18T16:39:06.859Z</time></trkpt><trkpt lat="53.41516608622434" lon="14.749362968943355"><ele>22.0</ele><time>2026-04-18T16:39:07.859Z</time></trkpt><trkpt lat="53.41505329276938" lon="14.749494051945527"><ele>22.0</ele><time>2026-04-18T16:39:09.859Z</time></trkpt><trkpt lat="53.41494236807507" lon="14.749611020316493"><ele>22.0</ele><time>2026-04-18T16:39:11.859Z</time></trkpt><trkpt lat="53.414843121679795" lon="14.749749646162945"><ele>22.0</ele><time>2026-04-18T16:39:13.859Z</time></trkpt><trkpt lat="53.41477654420136" lon="14.74981998601053"><ele>22.0</ele><time>2026-04-18T16:39:14.859Z</time></trkpt><trkpt lat="53.41470262389316" lon="14.749905274750459"><ele>22.0</ele><time>2026-04-18T16:39:15.859Z</time></trkpt><trkpt lat="53.41462593033158" lon="14.749979424213148"><ele>21.8</ele><time>2026-04-18T16:39:16.859Z</time></trkpt><trkpt lat="53.41454639622701" lon="14.750057101568"><ele>21.6</ele><time>2026-04-18T16:39:17.859Z</time></trkpt><trkpt lat="53.414455696456784" lon="14.750158447628076"><ele>21.400000000000002</ele><time>2026-04-18T16:39:18.859Z</time></trkpt><trkpt lat="53.41435775511617" lon="14.750245896499122"><ele>21.200000000000003</ele><time>2026-04-18T16:39:19.859Z</time></trkpt><trkpt lat="53.4142823562352" lon="14.750333277774658"><ele>21.0</ele><time>2026-04-18T16:39:20.859Z</time></trkpt><trkpt lat="53.41416239742804" lon="14.750475492959042"><ele>21.0</ele><time>2026-04-18T16:39:22.859Z</time></trkpt><trkpt lat="53.414088584897236" lon="14.750559403936364"><ele>21.0</ele><time>2026-04-18T16:39:23.859Z</time></trkpt><trkpt lat="53.41400218952444" lon="14.750609207403528"><ele>21.0</ele><time>2026-04-18T16:39:24.859Z</time></trkpt><trkpt lat="53.41392422761565" lon="14.7506707110003"><ele>21.0</ele><time>2026-04-18T16:39:25.859Z</time></trkpt><trkpt lat="53.41383302342294" lon="14.75074409154712"><ele>21.0</ele><time>2026-04-18T16:39:26.859Z</time></trkpt><trkpt lat="53.413736574122915" lon="14.75082605475536"><ele>20.8</ele><time>2026-04-18T16:39:27.859Z</time></trkpt><trkpt lat="53.41365549917339" lon="14.750901211919931"><ele>20.6</ele><time>2026-04-18T16:39:28.859Z</time></trkpt><trkpt lat="53.4135732116001" lon="14.750978353816933"><ele>20.4</ele><time>2026-04-18T16:39:29.859Z</time></trkpt><trkpt lat="53.413506034130315" lon="14.751050751454175"><ele>20.2</ele><time>2026-04-18T16:39:30.859Z</time></trkpt><trkpt lat="53.413383933529204" lon="14.751185806498984"><ele>20.0</ele><time>2026-04-18T16:39:32.859Z</time></trkpt><trkpt lat="53.41330913433285" lon="14.751257214718137"><ele>19.8</ele><time>2026-04-18T16:39:33.859Z</time></trkpt><trkpt lat="53.4132211006808" lon="14.751333312011676"><ele>19.6</ele><time>2026-04-18T16:39:34.859Z</time></trkpt><trkpt lat="53.41314094175384" lon="14.751383487410024"><ele>19.4</ele><time>2026-04-18T16:39:35.856Z</time></trkpt><trkpt lat="53.4130329192985" lon="14.75148815832251"><ele>19.2</ele><time>2026-04-18T16:39:37.856Z</time></trkpt><trkpt lat="53.41295635081585" lon="14.751548079153473"><ele>19.0</ele><time>2026-04-18T16:39:38.856Z</time></trkpt><trkpt lat="53.412860778933975" lon="14.751650083008691"><ele>19.0</ele><time>2026-04-18T16:39:39.856Z</time></trkpt><trkpt lat="53.412788623435546" lon="14.751719991160755"><ele>19.0</ele><time>2026-04-18T16:39:40.856Z</time></trkpt><trkpt lat="53.41271369532771" lon="14.751800594854496"><ele>19.0</ele><time>2026-04-18T16:39:41.856Z</time></trkpt><trkpt lat="53.412646205237145" lon="14.751861917941026"><ele>19.0</ele><time>2026-04-18T16:39:42.856Z</time></trkpt><trkpt lat="53.41257591869008" lon="14.75194315376071"><ele>19.0</ele><time>2026-04-18T16:39:43.856Z</time></trkpt><trkpt lat="53.41249699712988" lon="14.751999738448628"><ele>19.0</ele><time>2026-04-18T16:39:44.857Z</time></trkpt><trkpt lat="53.41243159041688" lon="14.7521018973989"><ele>18.8</ele><time>2026-04-18T16:39:45.856Z</time></trkpt><trkpt lat="53.412374547384296" lon="14.752148227309965"><ele>18.599999999999998</ele><time>2026-04-18T16:39:46.856Z</time></trkpt><trkpt lat="53.4122824717768" lon="14.752293962883854"><ele>18.4</ele><time>2026-04-18T16:39:48.855Z</time></trkpt><trkpt lat="53.41225458886203" lon="14.75240772288408"><ele>18.2</ele><time>2026-04-18T16:39:49.855Z</time></trkpt><trkpt lat="53.41225004030491" lon="14.75258132649268"><ele>18.0</ele><time>2026-04-18T16:39:50.855Z</time></trkpt><trkpt lat="53.41225696954922" lon="14.752822881998854"><ele>18.0</ele><time>2026-04-18T16:39:51.855Z</time></trkpt><trkpt lat="53.41225892350339" lon="14.75308391209463"><ele>18.0</ele><time>2026-04-18T16:39:52.855Z</time></trkpt><trkpt lat="53.41223988161331" lon="14.753351314436813"><ele>18.0</ele><time>2026-04-18T16:39:53.855Z</time></trkpt><trkpt lat="53.41223137998674" lon="14.753567788599364"><ele>18.0</ele><time>2026-04-18T16:39:54.855Z</time></trkpt><trkpt lat="53.41222307006118" lon="14.753750451255256"><ele>18.0</ele><time>2026-04-18T16:39:55.855Z</time></trkpt><trkpt lat="53.41221689579369" lon="14.753931110527613"><ele>18.0</ele><time>2026-04-18T16:39:56.855Z</time></trkpt><trkpt lat="53.412215973168735" lon="14.754135545081496"><ele>18.0</ele><time>2026-04-18T16:39:57.855Z</time></trkpt><trkpt lat="53.41222367595485" lon="14.754339122327618"><ele>18.0</ele><time>2026-04-18T16:39:58.855Z</time></trkpt><trkpt lat="53.41222882412662" lon="14.754545049982896"><ele>18.25</ele><time>2026-04-18T16:39:59.855Z</time></trkpt><trkpt lat="53.41224194314654" lon="14.75475776665854"><ele>18.5</ele><time>2026-04-18T16:40:00.855Z</time></trkpt><trkpt lat="53.412260808139926" lon="14.754982989796241"><ele>18.75</ele><time>2026-04-18T16:40:01.855Z</time></trkpt><trkpt lat="53.41227613216798" lon="14.755176491794064"><ele>19.0</ele><time>2026-04-18T16:40:02.855Z</time></trkpt><trkpt lat="53.41229213540522" lon="14.755369291143833"><ele>19.4</ele><time>2026-04-18T16:40:03.855Z</time></trkpt><trkpt lat="53.4122989674137" lon="14.755574563993516"><ele>19.799999999999997</ele><time>2026-04-18T16:40:04.855Z</time></trkpt><trkpt lat="53.412301800507315" lon="14.755757178190422"><ele>20.200000000000003</ele><time>2026-04-18T16:40:05.855Z</time></trkpt><trkpt lat="53.41231416130532" lon="14.75592623456653"><ele>20.6</ele><time>2026-04-18T16:40:06.855Z</time></trkpt><trkpt lat="53.412323073882085" lon="14.756076158960898"><ele>21.0</ele><time>2026-04-18T16:40:07.855Z</time></trkpt><trkpt lat="53.41233941671972" lon="14.75621406690343"><ele>21.0</ele><time>2026-04-18T16:40:08.855Z</time></trkpt><trkpt lat="53.412354366227405" lon="14.756346436439564"><ele>21.0</ele><time>2026-04-18T16:40:09.855Z</time></trkpt><trkpt lat="53.41237526516061" lon="14.75650436577605"><ele>21.0</ele><time>2026-04-18T16:40:10.855Z</time></trkpt><trkpt lat="53.41238886967242" lon="14.756647686775645"><ele>21.0</ele><time>2026-04-18T16:40:11.855Z</time></trkpt><trkpt lat="53.412408201348086" lon="14.756801260836873"><ele>21.0</ele><time>2026-04-18T16:40:12.855Z</time></trkpt><trkpt lat="53.41242464612495" lon="14.756964072781571"><ele>21.200000000000003</ele><time>2026-04-18T16:40:13.855Z</time></trkpt><trkpt lat="53.412439993329585" lon="14.757132771204994"><ele>21.400000000000002</ele><time>2026-04-18T16:40:14.855Z</time></trkpt><trkpt lat="53.412460518847375" lon="14.757329683699062"><ele>21.6</ele><time>2026-04-18T16:40:15.855Z</time></trkpt><trkpt lat="53.41247674570264" lon="14.757496016194482"><ele>21.8</ele><time>2026-04-18T16:40:16.855Z</time></trkpt><trkpt lat="53.41249868480411" lon="14.757672635690346"><ele>22.0</ele><time>2026-04-18T16:40:17.855Z</time></trkpt><trkpt lat="53.41251212489776" lon="14.75785203464809"><ele>22.0</ele><time>2026-04-18T16:40:18.855Z</time></trkpt><trkpt lat="53.41252364453811" lon="14.758037697101434"><ele>22.0</ele><time>2026-04-18T16:40:19.855Z</time></trkpt><trkpt lat="53.4125349163102" lon="14.758223963654375"><ele>22.0</ele><time>2026-04-18T16:40:20.855Z</time></trkpt><trkpt lat="53.412545895913134" lon="14.758408140905326"><ele>22.0</ele><time>2026-04-18T16:40:21.855Z</time></trkpt><trkpt lat="53.41255598645295" lon="14.758565655218758"><ele>22.0</ele><time>2026-04-18T16:40:22.855Z</time></trkpt><trkpt lat="53.4125580901883" lon="14.758713759173"><ele>22.0</ele><time>2026-04-18T16:40:23.855Z</time></trkpt><trkpt lat="53.41256949858639" lon="14.758879655968958"><ele>22.0</ele><time>2026-04-18T16:40:24.855Z</time></trkpt><trkpt lat="53.412579381014694" lon="14.75905594289799"><ele>22.0</ele><time>2026-04-18T16:40:25.855Z</time></trkpt><trkpt lat="53.41257977718809" lon="14.759229262315051"><ele>22.0</ele><time>2026-04-18T16:40:26.855Z</time></trkpt><trkpt lat="53.41258110946406" lon="14.759404934092348"><ele>22.0</ele><time>2026-04-18T16:40:27.855Z</time></trkpt><trkpt lat="53.41258233358384" lon="14.759577833964835"><ele>22.0</ele><time>2026-04-18T16:40:28.855Z</time></trkpt><trkpt lat="53.41258430600446" lon="14.759770549550975"><ele>22.0</ele><time>2026-04-18T16:40:29.855Z</time></trkpt><trkpt lat="53.412587639468065" lon="14.759983302038103"><ele>22.0</ele><time>2026-04-18T16:40:30.855Z</time></trkpt><trkpt lat="53.41257575452095" lon="14.760179710140948"><ele>22.0</ele><time>2026-04-18T16:40:31.855Z</time></trkpt><trkpt lat="53.412567667052464" lon="14.760376680487466"><ele>22.25</ele><time>2026-04-18T16:40:32.855Z</time></trkpt><trkpt lat="53.4125556916555" lon="14.7605596345294"><ele>22.5</ele><time>2026-04-18T16:40:33.855Z</time></trkpt><trkpt lat="53.41254991465629" lon="14.760742263626817"><ele>22.75</ele><time>2026-04-18T16:40:34.855Z</time></trkpt><trkpt lat="53.41254858458645" lon="14.760939335871974"><ele>23.0</ele><time>2026-04-18T16:40:35.855Z</time></trkpt><trkpt lat="53.41253316118493" lon="14.761127825464126"><ele>23.0</ele><time>2026-04-18T16:40:36.855Z</time></trkpt><trkpt lat="53.412522180761286" lon="14.7613237723984"><ele>23.0</ele><time>2026-04-18T16:40:37.855Z</time></trkpt><trkpt lat="53.4125111849012" lon="14.761518043536961"><ele>23.0</ele><time>2026-04-18T16:40:38.855Z</time></trkpt><trkpt lat="53.41250158098825" lon="14.761721181927161"><ele>23.0</ele><time>2026-04-18T16:40:39.855Z</time></trkpt><trkpt lat="53.41248662821576" lon="14.761920117023825"><ele>22.75</ele><time>2026-04-18T16:40:40.855Z</time></trkpt><trkpt lat="53.412474392985764" lon="14.76211851893812"><ele>22.5</ele><time>2026-04-18T16:40:41.855Z</time></trkpt><trkpt lat="53.412468162999076" lon="14.762331405654898"><ele>22.25</ele><time>2026-04-18T16:40:42.855Z</time></trkpt><trkpt lat="53.412454220859836" lon="14.762536397896103"><ele>22.0</ele><time>2026-04-18T16:40:43.855Z</time></trkpt><trkpt lat="53.412447653695175" lon="14.762738245151914"><ele>22.0</ele><time>2026-04-18T16:40:44.855Z</time></trkpt><trkpt lat="53.4124377111208" lon="14.762943604615437"><ele>22.0</ele><time>2026-04-18T16:40:45.855Z</time></trkpt><trkpt lat="53.412438070511975" lon="14.76315233897381"><ele>22.0</ele><time>2026-04-18T16:40:46.855Z</time></trkpt><trkpt lat="53.41243484521718" lon="14.763365723760627"><ele>22.0</ele><time>2026-04-18T16:40:47.855Z</time></trkpt><trkpt lat="53.41242285123326" lon="14.763584854677772"><ele>21.75</ele><time>2026-04-18T16:40:48.855Z</time></trkpt><trkpt lat="53.41240756676521" lon="14.763788425725354"><ele>21.5</ele><time>2026-04-18T16:40:49.855Z</time></trkpt><trkpt lat="53.412399041918434" lon="14.763997592785145"><ele>21.25</ele><time>2026-04-18T16:40:50.855Z</time></trkpt><trkpt lat="53.41240005886845" lon="14.764190874483289"><ele>21.0</ele><time>2026-04-18T16:40:51.855Z</time></trkpt><trkpt lat="53.41238867542721" lon="14.764395308295152"><ele>21.0</ele><time>2026-04-18T16:40:52.855Z</time></trkpt><trkpt lat="53.4123851421888" lon="14.764593253952423"><ele>21.0</ele><time>2026-04-18T16:40:53.855Z</time></trkpt><trkpt lat="53.41238868677292" lon="14.76478159182376"><ele>21.0</ele><time>2026-04-18T16:40:54.855Z</time></trkpt><trkpt lat="53.412384516175386" lon="14.764983047947778"><ele>21.0</ele><time>2026-04-18T16:40:55.855Z</time></trkpt><trkpt lat="53.41238571471987" lon="14.765191592061496"><ele>21.5</ele><time>2026-04-18T16:40:56.855Z</time></trkpt><trkpt lat="53.41238534569016" lon="14.765396356081167"><ele>22.0</ele><time>2026-04-18T16:40:57.855Z</time></trkpt><trkpt lat="53.41239404518202" lon="14.76559786042296"><ele>22.5</ele><time>2026-04-18T16:40:58.855Z</time></trkpt><trkpt lat="53.41240435594792" lon="14.765797434691393"><ele>23.0</ele><time>2026-04-18T16:40:59.855Z</time></trkpt><trkpt lat="53.4124151017182" lon="14.765991529175372"><ele>23.0</ele><time>2026-04-18T16:41:00.855Z</time></trkpt><trkpt lat="53.41240793480051" lon="14.766168860555918"><ele>23.0</ele><time>2026-04-18T16:41:01.855Z</time></trkpt><trkpt lat="53.412414917626734" lon="14.766360364618745"><ele>23.0</ele><time>2026-04-18T16:41:02.855Z</time></trkpt><trkpt lat="53.412413400003636" lon="14.766533318440757"><ele>23.0</ele><time>2026-04-18T16:41:03.855Z</time></trkpt><trkpt lat="53.412410701240844" lon="14.766716774579585"><ele>23.0</ele><time>2026-04-18T16:41:04.855Z</time></trkpt><trkpt lat="53.41240630753994" lon="14.766888764200099"><ele>23.0</ele><time>2026-04-18T16:41:05.855Z</time></trkpt><trkpt lat="53.41240352359498" lon="14.76705296000035"><ele>23.0</ele><time>2026-04-18T16:41:06.855Z</time></trkpt><trkpt lat="53.412401045836845" lon="14.767203338594081"><ele>23.0</ele><time>2026-04-18T16:41:07.855Z</time></trkpt><trkpt lat="53.41240130385495" lon="14.767386455459556"><ele>23.0</ele><time>2026-04-18T16:41:08.855Z</time></trkpt><trkpt lat="53.412402347502756" lon="14.767588149344874"><ele>23.0</ele><time>2026-04-18T16:41:09.855Z</time></trkpt><trkpt lat="53.412408566974314" lon="14.767840267790312"><ele>23.25</ele><time>2026-04-18T16:41:10.855Z</time></trkpt><trkpt lat="53.41241008499706" lon="14.768059575241637"><ele>23.5</ele><time>2026-04-18T16:41:11.855Z</time></trkpt><trkpt lat="53.41241617187005" lon="14.768320429812675"><ele>23.75</ele><time>2026-04-18T16:41:12.855Z</time></trkpt><trkpt lat="53.41240950101993" lon="14.768528754903443"><ele>24.0</ele><time>2026-04-18T16:41:13.855Z</time></trkpt><trkpt lat="53.41240983330203" lon="14.76874207695014"><ele>24.25</ele><time>2026-04-18T16:41:14.855Z</time></trkpt><trkpt lat="53.412409478162566" lon="14.768939447854846"><ele>24.5</ele><time>2026-04-18T16:41:15.855Z</time></trkpt><trkpt lat="53.41241774406891" lon="14.76918103806172"><ele>24.75</ele><time>2026-04-18T16:41:16.855Z</time></trkpt><trkpt lat="53.412429563830806" lon="14.769366267122399"><ele>25.0</ele><time>2026-04-18T16:41:17.855Z</time></trkpt><trkpt lat="53.41244466325324" lon="14.769566854373695"><ele>25.0</ele><time>2026-04-18T16:41:18.855Z</time></trkpt><trkpt lat="53.4124356371583" lon="14.769759242517564"><ele>25.0</ele><time>2026-04-18T16:41:19.855Z</time></trkpt><trkpt lat="53.41243451182229" lon="14.76996566673681"><ele>25.0</ele><time>2026-04-18T16:41:20.855Z</time></trkpt><trkpt lat="53.412436233092315" lon="14.770177376599888"><ele>25.0</ele><time>2026-04-18T16:41:21.855Z</time></trkpt><trkpt lat="53.41243932374055" lon="14.770382807002951"><ele>25.0</ele><time>2026-04-18T16:41:22.855Z</time></trkpt><trkpt lat="53.41243516929337" lon="14.770570926865254"><ele>25.0</ele><time>2026-04-18T16:41:23.855Z</time></trkpt><trkpt lat="53.412446278858155" lon="14.770747740427788"><ele>25.0</ele><time>2026-04-18T16:41:24.855Z</time></trkpt><trkpt lat="53.41242956213038" lon="14.770917369964442"><ele>25.0</ele><time>2026-04-18T16:41:25.855Z</time></trkpt><trkpt lat="53.41241181923999" lon="14.771085876809517"><ele>25.0</ele><time>2026-04-18T16:41:26.855Z</time></trkpt><trkpt lat="53.41239257400268" lon="14.771246624995674"><ele>25.0</ele><time>2026-04-18T16:41:27.855Z</time></trkpt><trkpt lat="53.4123689568875" lon="14.771388137999107"><ele>25.0</ele><time>2026-04-18T16:41:28.855Z</time></trkpt><trkpt lat="53.41234524192941" lon="14.77153455058465"><ele>25.0</ele><time>2026-04-18T16:41:29.855Z</time></trkpt><trkpt lat="53.41232410793316" lon="14.771708866804017"><ele>25.0</ele><time>2026-04-18T16:41:30.855Z</time></trkpt><trkpt lat="53.41230115824573" lon="14.77195549463111"><ele>25.0</ele><time>2026-04-18T16:41:31.855Z</time></trkpt><trkpt lat="53.41230293930399" lon="14.77221361095656"><ele>25.0</ele><time>2026-04-18T16:41:32.855Z</time></trkpt><trkpt lat="53.41230410581351" lon="14.772445281834061"><ele>25.0</ele><time>2026-04-18T16:41:33.855Z</time></trkpt><trkpt lat="53.41228751601172" lon="14.772614002355416"><ele>25.0</ele><time>2026-04-18T16:41:34.855Z</time></trkpt><trkpt lat="53.41228022805044" lon="14.772741833846224"><ele>25.0</ele><time>2026-04-18T16:41:35.855Z</time></trkpt><trkpt lat="53.41226179658378" lon="14.772845226814079"><ele>25.0</ele><time>2026-04-18T16:41:42.854Z</time></trkpt><trkpt lat="53.41226676587198" lon="14.772976472678268"><ele>25.166666666666668</ele><time>2026-04-18T16:41:45.853Z</time></trkpt><trkpt lat="53.41226484191658" lon="14.77308854503947"><ele>25.333333333333336</ele><time>2026-04-18T16:41:46.853Z</time></trkpt><trkpt lat="53.41227871670276" lon="14.773229641058606"><ele>25.5</ele><time>2026-04-18T16:41:47.853Z</time></trkpt><trkpt lat="53.412298271721724" lon="14.773364458986219"><ele>25.666666666666664</ele><time>2026-04-18T16:41:48.853Z</time></trkpt><trkpt lat="53.412305413946015" lon="14.773509623019985"><ele>25.833333333333332</ele><time>2026-04-18T16:41:49.853Z</time></trkpt><trkpt lat="53.41231038829386" lon="14.77364768016346"><ele>26.0</ele><time>2026-04-18T16:41:50.853Z</time></trkpt><trkpt lat="53.41231924132756" lon="14.773835614625332"><ele>26.4</ele><time>2026-04-18T16:41:51.853Z</time></trkpt><trkpt lat="53.41232471017218" lon="14.773978665702447"><ele>26.8</ele><time>2026-04-18T16:41:52.853Z</time></trkpt><trkpt lat="53.412334888167514" lon="14.774135663794198"><ele>27.199999999999996</ele><time>2026-04-18T16:41:53.853Z</time></trkpt><trkpt lat="53.412348837239485" lon="14.774310833511342"><ele>27.599999999999998</ele><time>2026-04-18T16:41:54.853Z</time></trkpt><trkpt lat="53.41237540038353" lon="14.774509308326806"><ele>28.0</ele><time>2026-04-18T16:41:55.853Z</time></trkpt><trkpt lat="53.41239901327272" lon="14.774657946355353"><ele>28.2</ele><time>2026-04-18T16:41:56.853Z</time></trkpt><trkpt lat="53.412414014510745" lon="14.77478111668169"><ele>28.4</ele><time>2026-04-18T16:41:57.853Z</time></trkpt><trkpt lat="53.41242567539408" lon="14.77494514295666"><ele>28.599999999999998</ele><time>2026-04-18T16:41:58.853Z</time></trkpt><trkpt lat="53.41242996310377" lon="14.775107981546226"><ele>28.799999999999997</ele><time>2026-04-18T16:41:59.853Z</time></trkpt><trkpt lat="53.41242798134216" lon="14.77525473887603"><ele>29.0</ele><time>2026-04-18T16:42:00.853Z</time></trkpt><trkpt lat="53.41244463654091" lon="14.775417664355857"><ele>29.0</ele><time>2026-04-18T16:42:01.853Z</time></trkpt><trkpt lat="53.41246611072983" lon="14.775592647447407"><ele>29.0</ele><time>2026-04-18T16:42:02.853Z</time></trkpt><trkpt lat="53.412488722065916" lon="14.775747440998517"><ele>29.0</ele><time>2026-04-18T16:42:03.853Z</time></trkpt><trkpt lat="53.41251222586616" lon="14.77587147611159"><ele>29.0</ele><time>2026-04-18T16:42:04.853Z</time></trkpt><trkpt lat="53.412539905741376" lon="14.776000617372512"><ele>29.0</ele><time>2026-04-18T16:42:05.853Z</time></trkpt><trkpt lat="53.4125828596574" lon="14.776135663402684"><ele>29.2</ele><time>2026-04-18T16:42:06.853Z</time></trkpt><trkpt lat="53.41263596623136" lon="14.776278343596571"><ele>29.4</ele><time>2026-04-18T16:42:07.853Z</time></trkpt><trkpt lat="53.41269190789784" lon="14.77642611843241"><ele>29.6</ele><time>2026-04-18T16:42:08.853Z</time></trkpt><trkpt lat="53.412754802600624" lon="14.776600154011767"><ele>29.8</ele><time>2026-04-18T16:42:09.853Z</time></trkpt><trkpt lat="53.41280269320879" lon="14.776745210259426"><ele>30.0</ele><time>2026-04-18T16:42:10.853Z</time></trkpt><trkpt lat="53.412870385421634" lon="14.776883230322571"><ele>30.2</ele><time>2026-04-18T16:42:11.853Z</time></trkpt><trkpt lat="53.41290997891253" lon="14.776997731701625"><ele>30.4</ele><time>2026-04-18T16:42:12.853Z</time></trkpt><trkpt lat="53.412972960511375" lon="14.77716081500288"><ele>30.6</ele><time>2026-04-18T16:42:13.853Z</time></trkpt><trkpt lat="53.41302276649812" lon="14.777337253245147"><ele>30.8</ele><time>2026-04-18T16:42:14.853Z</time></trkpt><trkpt lat="53.41307129735429" lon="14.777501021805772"><ele>31.0</ele><time>2026-04-18T16:42:15.853Z</time></trkpt><trkpt lat="53.41310660728157" lon="14.777633910924488"><ele>30.833333333333336</ele><time>2026-04-18T16:42:16.853Z</time></trkpt><trkpt lat="53.413142036488225" lon="14.77776946090167"><ele>30.666666666666668</ele><time>2026-04-18T16:42:17.853Z</time></trkpt><trkpt lat="53.41317896683155" lon="14.777909734007675"><ele>30.5</ele><time>2026-04-18T16:42:18.853Z</time></trkpt><trkpt lat="53.41323019268819" lon="14.77802442162841"><ele>30.333333333333336</ele><time>2026-04-18T16:42:19.853Z</time></trkpt><trkpt lat="53.4132894057881" lon="14.778149621789808"><ele>30.166666666666668</ele><time>2026-04-18T16:42:20.853Z</time></trkpt><trkpt lat="53.413334271790866" lon="14.778263251910149"><ele>30.0</ele><time>2026-04-18T16:42:21.853Z</time></trkpt><trkpt lat="53.413371914650256" lon="14.778374465527568"><ele>30.0</ele><time>2026-04-18T16:42:22.853Z</time></trkpt><trkpt lat="53.41342779113658" lon="14.778492525597567"><ele>30.0</ele><time>2026-04-18T16:42:23.853Z</time></trkpt><trkpt lat="53.41346208870388" lon="14.77860252078811"><ele>30.0</ele><time>2026-04-18T16:42:24.853Z</time></trkpt><trkpt lat="53.413529377634276" lon="14.778784174428855"><ele>30.0</ele><time>2026-04-18T16:42:26.853Z</time></trkpt><trkpt lat="53.41355310105638" lon="14.778900423311182"><ele>30.0</ele><time>2026-04-18T16:42:27.853Z</time></trkpt><trkpt lat="53.413586328317166" lon="14.779035501337786"><ele>29.5</ele><time>2026-04-18T16:42:28.853Z</time></trkpt><trkpt lat="53.41361991660232" lon="14.779174799125053"><ele>29.0</ele><time>2026-04-18T16:42:29.853Z</time></trkpt><trkpt lat="53.41365487248179" lon="14.779345046578005"><ele>28.5</ele><time>2026-04-18T16:42:30.853Z</time></trkpt><trkpt lat="53.413671630966896" lon="14.779489714841324"><ele>28.0</ele><time>2026-04-18T16:42:31.853Z</time></trkpt><trkpt lat="53.413689024386805" lon="14.779625886768637"><ele>27.5</ele><time>2026-04-18T16:42:32.853Z</time></trkpt><trkpt lat="53.413709594271246" lon="14.77975153373441"><ele>27.0</ele><time>2026-04-18T16:42:33.853Z</time></trkpt><trkpt lat="53.41376038412656" lon="14.779928415157324"><ele>27.0</ele><time>2026-04-18T16:42:34.853Z</time></trkpt><trkpt lat="53.413802380946485" lon="14.780081114552049"><ele>27.000000000000004</ele><time>2026-04-18T16:42:35.853Z</time></trkpt><trkpt lat="53.413822545110826" lon="14.780194157504797"><ele>27.000000000000004</ele><time>2026-04-18T16:42:36.853Z</time></trkpt><trkpt lat="53.41385700500323" lon="14.780410498561599"><ele>27.0</ele><time>2026-04-18T16:42:38.853Z</time></trkpt><trkpt lat="53.413891813953676" lon="14.780537569439524"><ele>27.0</ele><time>2026-04-18T16:42:39.853Z</time></trkpt><trkpt lat="53.41391457220378" lon="14.780638613943959"><ele>27.333333333333332</ele><time>2026-04-18T16:42:40.853Z</time></trkpt><trkpt lat="53.41393696812512" lon="14.780754419553423"><ele>27.666666666666664</ele><time>2026-04-18T16:42:41.853Z</time></trkpt><trkpt lat="53.41395321426703" lon="14.780904130623743"><ele>28.0</ele><time>2026-04-18T16:42:42.853Z</time></trkpt><trkpt lat="53.41397478235612" lon="14.781051282865663"><ele>28.333333333333332</ele><time>2026-04-18T16:42:43.853Z</time></trkpt><trkpt lat="53.414002348728566" lon="14.781184756893781"><ele>28.666666666666664</ele><time>2026-04-18T16:42:44.853Z</time></trkpt><trkpt lat="53.41403901580293" lon="14.781332747465736"><ele>29.0</ele><time>2026-04-18T16:42:45.853Z</time></trkpt><trkpt lat="53.41407164307925" lon="14.781477017034998"><ele>28.999999999999996</ele><time>2026-04-18T16:42:46.853Z</time></trkpt><trkpt lat="53.4141014414864" lon="14.7815904003571"><ele>29.0</ele><time>2026-04-18T16:42:47.853Z</time></trkpt><trkpt lat="53.41412524971348" lon="14.781712813076389"><ele>29.0</ele><time>2026-04-18T16:42:48.853Z</time></trkpt><trkpt lat="53.41415188690134" lon="14.78185606412477"><ele>29.0</ele><time>2026-04-18T16:42:49.853Z</time></trkpt><trkpt lat="53.414186280272865" lon="14.782015906515808"><ele>28.999999999999996</ele><time>2026-04-18T16:42:50.853Z</time></trkpt><trkpt lat="53.414222378564745" lon="14.78218242810161"><ele>29.0</ele><time>2026-04-18T16:42:51.853Z</time></trkpt><trkpt lat="53.414258297585576" lon="14.782332980901861"><ele>29.0</ele><time>2026-04-18T16:42:52.853Z</time></trkpt><trkpt lat="53.414289571610325" lon="14.782485425018153"><ele>29.0</ele><time>2026-04-18T16:42:53.853Z</time></trkpt><trkpt lat="53.41430313457463" lon="14.78264348766451"><ele>29.0</ele><time>2026-04-18T16:42:54.853Z</time></trkpt><trkpt lat="53.41432332826958" lon="14.782776906944791"><ele>29.0</ele><time>2026-04-18T16:42:55.853Z</time></trkpt><trkpt lat="53.4143486811665" lon="14.782932971641879"><ele>29.0</ele><time>2026-04-18T16:42:56.853Z</time></trkpt><trkpt lat="53.41438371872432" lon="14.78311269666578"><ele>29.0</ele><time>2026-04-18T16:42:57.853Z</time></trkpt><trkpt lat="53.41442347082244" lon="14.783274641337348"><ele>29.0</ele><time>2026-04-18T16:42:58.853Z</time></trkpt><trkpt lat="53.41442686708334" lon="14.783390683965026"><ele>29.0</ele><time>2026-04-18T16:42:59.853Z</time></trkpt><trkpt lat="53.414451713171665" lon="14.78359646501385"><ele>29.0</ele><time>2026-04-18T16:43:00.853Z</time></trkpt><trkpt lat="53.414489450561966" lon="14.783804426057381"><ele>29.0</ele><time>2026-04-18T16:43:01.853Z</time></trkpt><trkpt lat="53.414525343168485" lon="14.783961379436418"><ele>29.166666666666664</ele><time>2026-04-18T16:43:02.853Z</time></trkpt><trkpt lat="53.41453214891295" lon="14.78409408563359"><ele>29.333333333333332</ele><time>2026-04-18T16:43:03.853Z</time></trkpt><trkpt lat="53.41453546946614" lon="14.784217929488664"><ele>29.5</ele><time>2026-04-18T16:43:04.853Z</time></trkpt><trkpt lat="53.4145492248143" lon="14.784364311433709"><ele>29.666666666666664</ele><time>2026-04-18T16:43:05.853Z</time></trkpt><trkpt lat="53.414557618280064" lon="14.784485410311422"><ele>29.833333333333332</ele><time>2026-04-18T16:43:06.853Z</time></trkpt><trkpt lat="53.4145805724199" lon="14.78463857484881"><ele>30.0</ele><time>2026-04-18T16:43:07.853Z</time></trkpt><trkpt lat="53.41459409161414" lon="14.784813084777582"><ele>30.0</ele><time>2026-04-18T16:43:08.853Z</time></trkpt><trkpt lat="53.41460107262341" lon="14.784947555697535"><ele>30.0</ele><time>2026-04-18T16:43:09.853Z</time></trkpt><trkpt lat="53.41463137714914" lon="14.78514802969848"><ele>30.0</ele><time>2026-04-18T16:43:10.853Z</time></trkpt><trkpt lat="53.41466594602801" lon="14.785327921563749"><ele>30.0</ele><time>2026-04-18T16:43:11.853Z</time></trkpt><trkpt lat="53.4146943940316" lon="14.785463401048066"><ele>30.0</ele><time>2026-04-18T16:43:12.853Z</time></trkpt><trkpt lat="53.41471976043902" lon="14.785615162766044"><ele>30.0</ele><time>2026-04-18T16:43:13.853Z</time></trkpt><trkpt lat="53.41474640725697" lon="14.785777319536168"><ele>30.0</ele><time>2026-04-18T16:43:14.853Z</time></trkpt><trkpt lat="53.41476822487204" lon="14.785942360570191"><ele>30.0</ele><time>2026-04-18T16:43:15.853Z</time></trkpt><trkpt lat="53.414792026637365" lon="14.78608586414587"><ele>30.0</ele><time>2026-04-18T16:43:16.853Z</time></trkpt><trkpt lat="53.41481874744703" lon="14.786226827900299"><ele>30.0</ele><time>2026-04-18T16:43:17.853Z</time></trkpt><trkpt lat="53.414854004228125" lon="14.786398471439863"><ele>30.0</ele><time>2026-04-18T16:43:18.853Z</time></trkpt><trkpt lat="53.41489638559778" lon="14.786543085932307"><ele>30.0</ele><time>2026-04-18T16:43:19.853Z</time></trkpt><trkpt lat="53.414947434129886" lon="14.786705082923827"><ele>30.0</ele><time>2026-04-18T16:43:20.853Z</time></trkpt><trkpt lat="53.41499567345797" lon="14.78687736096877"><ele>30.0</ele><time>2026-04-18T16:43:21.853Z</time></trkpt><trkpt lat="53.415036153777265" lon="14.787048194600361"><ele>30.0</ele><time>2026-04-18T16:43:22.853Z</time></trkpt><trkpt lat="53.41507353038647" lon="14.787204676463912"><ele>30.0</ele><time>2026-04-18T16:43:23.853Z</time></trkpt><trkpt lat="53.41511818740634" lon="14.787362715688657"><ele>30.0</ele><time>2026-04-18T16:43:24.853Z</time></trkpt><trkpt lat="53.41516325441432" lon="14.78755349557319"><ele>30.0</ele><time>2026-04-18T16:43:25.853Z</time></trkpt><trkpt lat="53.41519711512974" lon="14.78770021490587"><ele>30.0</ele><time>2026-04-18T16:43:26.853Z</time></trkpt><trkpt lat="53.415253714691076" lon="14.787848381043197"><ele>30.0</ele><time>2026-04-18T16:43:27.853Z</time></trkpt><trkpt lat="53.4153095201068" lon="14.788030171956773"><ele>30.0</ele><time>2026-04-18T16:43:28.853Z</time></trkpt><trkpt lat="53.415348975383225" lon="14.788238394257812"><ele>30.0</ele><time>2026-04-18T16:43:29.853Z</time></trkpt><trkpt lat="53.41539254585962" lon="14.788419825161252"><ele>30.0</ele><time>2026-04-18T16:43:30.853Z</time></trkpt><trkpt lat="53.415448610133005" lon="14.788593537805763"><ele>30.0</ele><time>2026-04-18T16:43:31.853Z</time></trkpt><trkpt lat="53.41550095600956" lon="14.788779751136468"><ele>29.6</ele><time>2026-04-18T16:43:32.853Z</time></trkpt><trkpt lat="53.415544694477155" lon="14.788969156993563"><ele>29.2</ele><time>2026-04-18T16:43:33.853Z</time></trkpt><trkpt lat="53.41558256180593" lon="14.789145146501648"><ele>28.799999999999997</ele><time>2026-04-18T16:43:34.853Z</time></trkpt><trkpt lat="53.41561555144049" lon="14.789320293306286"><ele>28.4</ele><time>2026-04-18T16:43:35.853Z</time></trkpt><trkpt lat="53.41565155021824" lon="14.789489440140933"><ele>28.0</ele><time>2026-04-18T16:43:36.853Z</time></trkpt><trkpt lat="53.41568342767953" lon="14.789659385274687"><ele>28.0</ele><time>2026-04-18T16:43:37.853Z</time></trkpt><trkpt lat="53.41570765826255" lon="14.789779240497309"><ele>27.999999999999996</ele><time>2026-04-18T16:43:38.853Z</time></trkpt><trkpt lat="53.41572535103194" lon="14.789890044188123"><ele>27.999999999999996</ele><time>2026-04-18T16:43:39.853Z</time></trkpt><trkpt lat="53.41574676529915" lon="14.790102323604435"><ele>28.0</ele><time>2026-04-18T16:43:41.853Z</time></trkpt><trkpt lat="53.41577454935824" lon="14.790298510621646"><ele>28.0</ele><time>2026-04-18T16:43:43.853Z</time></trkpt><trkpt lat="53.41579447881638" lon="14.790398894870247"><ele>28.000000000000004</ele><time>2026-04-18T16:43:44.853Z</time></trkpt><trkpt lat="53.41582332671308" lon="14.790506238131394"><ele>28.0</ele><time>2026-04-18T16:43:45.853Z</time></trkpt><trkpt lat="53.41584040230668" lon="14.790615507643793"><ele>28.0</ele><time>2026-04-18T16:43:46.853Z</time></trkpt><trkpt lat="53.41586840763051" lon="14.790730547335482"><ele>28.0</ele><time>2026-04-18T16:43:47.851Z</time></trkpt><trkpt lat="53.41590231884912" lon="14.790860689909485"><ele>28.000000000000004</ele><time>2026-04-18T16:43:48.851Z</time></trkpt><trkpt lat="53.415927528342756" lon="14.790986902090818"><ele>28.0</ele><time>2026-04-18T16:43:49.851Z</time></trkpt><trkpt lat="53.41595529528759" lon="14.791215033560158"><ele>28.0</ele><time>2026-04-18T16:43:51.851Z</time></trkpt><trkpt lat="53.41598552381269" lon="14.791371067915126"><ele>27.999999999999996</ele><time>2026-04-18T16:43:52.851Z</time></trkpt><trkpt lat="53.41602088486506" lon="14.79153193890143"><ele>27.999999999999996</ele><time>2026-04-18T16:43:53.85Z</time></trkpt><trkpt lat="53.4160470290649" lon="14.791653328882857"><ele>28.0</ele><time>2026-04-18T16:43:54.851Z</time></trkpt><trkpt lat="53.41607287590406" lon="14.79180306655563"><ele>28.0</ele><time>2026-04-18T16:43:55.851Z</time></trkpt><trkpt lat="53.41610012307196" lon="14.791931055256834"><ele>28.000000000000004</ele><time>2026-04-18T16:43:56.85Z</time></trkpt><trkpt lat="53.416121952359006" lon="14.792033483872913"><ele>28.0</ele><time>2026-04-18T16:43:57.85Z</time></trkpt><trkpt lat="53.41615164025962" lon="14.792148291601233"><ele>28.0</ele><time>2026-04-18T16:43:58.85Z</time></trkpt><trkpt lat="53.41620297583881" lon="14.792361940031252"><ele>28.0</ele><time>2026-04-18T16:44:00.85Z</time></trkpt><trkpt lat="53.41623319367458" lon="14.79248390273324"><ele>28.000000000000004</ele><time>2026-04-18T16:44:01.85Z</time></trkpt><trkpt lat="53.416276250482305" lon="14.792610872719347"><ele>28.0</ele><time>2026-04-18T16:44:02.85Z</time></trkpt><trkpt lat="53.416305047229116" lon="14.792730149172677"><ele>27.799999999999997</ele><time>2026-04-18T16:44:03.85Z</time></trkpt><trkpt lat="53.416356419634866" lon="14.792908802858625"><ele>27.599999999999998</ele><time>2026-04-18T16:44:05.85Z</time></trkpt><trkpt lat="53.41638922175871" lon="14.793024705300303"><ele>27.400000000000002</ele><time>2026-04-18T16:44:06.85Z</time></trkpt><trkpt lat="53.4164198167432" lon="14.79314968400498"><ele>27.200000000000003</ele><time>2026-04-18T16:44:07.85Z</time></trkpt><trkpt lat="53.41646893925094" lon="14.793304314316984"><ele>27.0</ele><time>2026-04-18T16:44:08.85Z</time></trkpt><trkpt lat="53.41649885892502" lon="14.793419862723843"><ele>26.857142857142858</ele><time>2026-04-18T16:44:09.85Z</time></trkpt><trkpt lat="53.41651791822556" lon="14.793539888212859"><ele>26.714285714285715</ele><time>2026-04-18T16:44:10.85Z</time></trkpt><trkpt lat="53.41655249742464" lon="14.793661149117959"><ele>26.57142857142857</ele><time>2026-04-18T16:44:11.85Z</time></trkpt><trkpt lat="53.41659816106215" lon="14.793757740510078"><ele>26.42857142857143</ele><time>2026-04-18T16:44:12.85Z</time></trkpt><trkpt lat="53.41663546055488" lon="14.793865251439446"><ele>26.28571428571429</ele><time>2026-04-18T16:44:13.85Z</time></trkpt><trkpt lat="53.41666773756389" lon="14.793961274174503"><ele>26.142857142857142</ele><time>2026-04-18T16:44:14.85Z</time></trkpt><trkpt lat="53.416694743380546" lon="14.794072432311681"><ele>26.0</ele><time>2026-04-18T16:44:15.85Z</time></trkpt><trkpt lat="53.416724806849096" lon="14.794180517376457"><ele>25.999999999999996</ele><time>2026-04-18T16:44:16.85Z</time></trkpt><trkpt lat="53.41675667711139" lon="14.79429144675101"><ele>26.0</ele><time>2026-04-18T16:44:17.85Z</time></trkpt><trkpt lat="53.41677969287951" lon="14.794407041107497"><ele>26.0</ele><time>2026-04-18T16:44:18.85Z</time></trkpt><trkpt lat="53.41681068991798" lon="14.79452465882364"><ele>26.0</ele><time>2026-04-18T16:44:19.85Z</time></trkpt><trkpt lat="53.416833930839196" lon="14.794632360448583"><ele>25.999999999999996</ele><time>2026-04-18T16:44:20.85Z</time></trkpt><trkpt lat="53.41689142331253" lon="14.794843664675245"><ele>26.0</ele><time>2026-04-18T16:44:22.85Z</time></trkpt><trkpt lat="53.41693793550236" lon="14.79497523120296"><ele>25.999999999999996</ele><time>2026-04-18T16:44:23.85Z</time></trkpt><trkpt lat="53.41697097675306" lon="14.795098929770216"><ele>26.0</ele><time>2026-04-18T16:44:24.85Z</time></trkpt><trkpt lat="53.41699445666189" lon="14.79520248196843"><ele>26.0</ele><time>2026-04-18T16:44:25.85Z</time></trkpt><trkpt lat="53.417041833267334" lon="14.795380926625498"><ele>26.0</ele><time>2026-04-18T16:44:27.85Z</time></trkpt><trkpt lat="53.417091251210024" lon="14.795524076408418"><ele>25.999999999999996</ele><time>2026-04-18T16:44:29.85Z</time></trkpt><trkpt lat="53.4171180238875" lon="14.795622884294595"><ele>26.0</ele><time>2026-04-18T16:44:30.85Z</time></trkpt><trkpt lat="53.41717800121623" lon="14.795812157234716"><ele>25.999999999999996</ele><time>2026-04-18T16:44:32.85Z</time></trkpt><trkpt lat="53.41720683608782" lon="14.796000929583279"><ele>26.0</ele><time>2026-04-18T16:44:34.85Z</time></trkpt><trkpt lat="53.417258003896286" lon="14.7961750332149"><ele>26.0</ele><time>2026-04-18T16:44:36.85Z</time></trkpt><trkpt lat="53.41728442008119" lon="14.796286404648443"><ele>26.0</ele><time>2026-04-18T16:44:37.85Z</time></trkpt><trkpt lat="53.41730321574953" lon="14.796387312926662"><ele>25.999999999999996</ele><time>2026-04-18T16:44:38.85Z</time></trkpt><trkpt lat="53.417337839698156" lon="14.796486959291279"><ele>26.0</ele><time>2026-04-18T16:44:39.85Z</time></trkpt><trkpt lat="53.41736478119629" lon="14.796621517910006"><ele>25.999999999999996</ele><time>2026-04-18T16:44:40.85Z</time></trkpt><trkpt lat="53.41738929119316" lon="14.796733347554843"><ele>26.0</ele><time>2026-04-18T16:44:41.85Z</time></trkpt><trkpt lat="53.417417110298224" lon="14.796849393492879"><ele>26.0</ele><time>2026-04-18T16:44:42.85Z</time></trkpt><trkpt lat="53.41744332536521" lon="14.797031049357026"><ele>26.0</ele><time>2026-04-18T16:44:44.85Z</time></trkpt><trkpt lat="53.41748413062762" lon="14.797214813270068"><ele>25.999999999999996</ele><time>2026-04-18T16:44:46.85Z</time></trkpt><trkpt lat="53.417510537268186" lon="14.797310931826997"><ele>26.0</ele><time>2026-04-18T16:44:47.85Z</time></trkpt><trkpt lat="53.41754762436874" lon="14.797454355144598"><ele>25.833333333333332</ele><time>2026-04-18T16:44:49.85Z</time></trkpt><trkpt lat="53.417567936774496" lon="14.797602337683424"><ele>25.666666666666664</ele><time>2026-04-18T16:44:51.85Z</time></trkpt><trkpt lat="53.41759332791442" lon="14.79772371205721"><ele>25.5</ele><time>2026-04-18T16:44:53.85Z</time></trkpt><trkpt lat="53.41761940595695" lon="14.79782113286886"><ele>25.333333333333336</ele><time>2026-04-18T16:44:55.85Z</time></trkpt><trkpt lat="53.4176422161109" lon="14.797965643986252"><ele>25.166666666666668</ele><time>2026-04-18T16:44:58.85Z</time></trkpt><trkpt lat="53.417670880421326" lon="14.798073403860373"><ele>25.0</ele><time>2026-04-18T16:45:01.85Z</time></trkpt><trkpt lat="53.41769247859251" lon="14.798178380543929"><ele>24.833333333333336</ele><time>2026-04-18T16:45:04.85Z</time></trkpt><trkpt lat="53.41771583265229" lon="14.798292034528917"><ele>24.666666666666668</ele><time>2026-04-18T16:45:07.85Z</time></trkpt><trkpt lat="53.41774078544437" lon="14.798392285405276"><ele>24.5</ele><time>2026-04-18T16:45:09.85Z</time></trkpt><trkpt lat="53.41778117886485" lon="14.798527373041898"><ele>24.333333333333336</ele><time>2026-04-18T16:45:12.85Z</time></trkpt><trkpt lat="53.417810916478835" lon="14.798644150360317"><ele>24.166666666666668</ele><time>2026-04-18T16:45:14.85Z</time></trkpt><trkpt lat="53.41784022781904" lon="14.798775258018987"><ele>24.0</ele><time>2026-04-18T16:45:17.85Z</time></trkpt><trkpt lat="53.41786107710414" lon="14.798901476660692"><ele>23.857142857142854</ele><time>2026-04-18T16:45:19.85Z</time></trkpt><trkpt lat="53.41788262615224" lon="14.799001267366894"><ele>23.714285714285715</ele><time>2026-04-18T16:45:21.85Z</time></trkpt><trkpt lat="53.417894512821604" lon="14.799132963858135"><ele>23.57142857142857</ele><time>2026-04-18T16:45:23.85Z</time></trkpt><trkpt lat="53.41791907796712" lon="14.799298400347935"><ele>23.428571428571427</ele><time>2026-04-18T16:45:25.85Z</time></trkpt><trkpt lat="53.41794480927359" lon="14.799411148658363"><ele>23.285714285714285</ele><time>2026-04-18T16:45:27.85Z</time></trkpt><trkpt lat="53.41796730974927" lon="14.799510013396453"><ele>23.142857142857142</ele><time>2026-04-18T16:45:29.85Z</time></trkpt><trkpt lat="53.41798778327168" lon="14.799615149898308"><ele>23.0</ele><time>2026-04-18T16:45:31.85Z</time></trkpt><trkpt lat="53.41801738469552" lon="14.79974034702523"><ele>23.599999999999998</ele><time>2026-04-18T16:45:33.85Z</time></trkpt><trkpt lat="53.41803899878181" lon="14.799843581444371"><ele>24.2</ele><time>2026-04-18T16:45:35.85Z</time></trkpt><trkpt lat="53.418069790964346" lon="14.799994162964214"><ele>24.8</ele><time>2026-04-18T16:45:37.85Z</time></trkpt><trkpt lat="53.41809837994108" lon="14.800117461421358"><ele>25.4</ele><time>2026-04-18T16:45:39.85Z</time></trkpt><trkpt lat="53.418127444554656" lon="14.800295797574423"><ele>26.0</ele><time>2026-04-18T16:45:41.85Z</time></trkpt><trkpt lat="53.41817654174678" lon="14.800458292207459"><ele>26.166666666666664</ele><time>2026-04-18T16:45:43.85Z</time></trkpt><trkpt lat="53.418184688176105" lon="14.800564733763133"><ele>26.333333333333332</ele><time>2026-04-18T16:45:44.85Z</time></trkpt><trkpt lat="53.41822622688206" lon="14.800756500700784"><ele>26.5</ele><time>2026-04-18T16:45:46.85Z</time></trkpt><trkpt lat="53.41824852876817" lon="14.800872501547264"><ele>26.666666666666664</ele><time>2026-04-18T16:45:47.85Z</time></trkpt><trkpt lat="53.4182777781998" lon="14.800970550200825"><ele>26.833333333333332</ele><time>2026-04-18T16:45:48.85Z</time></trkpt><trkpt lat="53.418310233540616" lon="14.801069020391056"><ele>27.0</ele><time>2026-04-18T16:45:49.85Z</time></trkpt><trkpt lat="53.41836456147343" lon="14.80125912853873"><ele>27.0</ele><time>2026-04-18T16:45:51.85Z</time></trkpt><trkpt lat="53.41843161651355" lon="14.801407278853153"><ele>27.000000000000004</ele><time>2026-04-18T16:45:53.849Z</time></trkpt><trkpt lat="53.418524031113805" lon="14.8015424903276"><ele>27.000000000000004</ele><time>2026-04-18T16:45:55.849Z</time></trkpt><trkpt lat="53.4185928599432" lon="14.801616763986404"><ele>27.0</ele><time>2026-04-18T16:45:56.849Z</time></trkpt><trkpt lat="53.418657034658004" lon="14.801687099108605"><ele>27.0</ele><time>2026-04-18T16:45:57.849Z</time></trkpt><trkpt lat="53.41872284464905" lon="14.801740801348899"><ele>27.0</ele><time>2026-04-18T16:45:58.849Z</time></trkpt><trkpt lat="53.41879264897293" lon="14.801802508725846"><ele>27.0</ele><time>2026-04-18T16:45:59.849Z</time></trkpt><trkpt lat="53.418859096573705" lon="14.801846894869023"><ele>27.0</ele><time>2026-04-18T16:46:00.849Z</time></trkpt><trkpt lat="53.41891079434198" lon="14.801918857524038"><ele>27.0</ele><time>2026-04-18T16:46:01.849Z</time></trkpt><trkpt lat="53.41900970902942" lon="14.802024209132965"><ele>27.0</ele><time>2026-04-18T16:46:03.849Z</time></trkpt><trkpt lat="53.4190897890822" lon="14.802073431620407"><ele>27.0</ele><time>2026-04-18T16:46:04.849Z</time></trkpt><trkpt lat="53.419168669671386" lon="14.802179201084236"><ele>27.0</ele><time>2026-04-18T16:46:06.849Z</time></trkpt><trkpt lat="53.41923103643514" lon="14.80223640824002"><ele>27.0</ele><time>2026-04-18T16:46:07.849Z</time></trkpt><trkpt lat="53.41928397931131" lon="14.802305979980687"><ele>27.0</ele><time>2026-04-18T16:46:08.849Z</time></trkpt><trkpt lat="53.41935492760021" lon="14.802366180632472"><ele>27.0</ele><time>2026-04-18T16:46:09.849Z</time></trkpt><trkpt lat="53.41941195011599" lon="14.802422716427492"><ele>27.0</ele><time>2026-04-18T16:46:10.849Z</time></trkpt><trkpt lat="53.419521123557445" lon="14.80254766730998"><ele>27.0</ele><time>2026-04-18T16:46:12.849Z</time></trkpt><trkpt lat="53.41962610143325" lon="14.802639872363866"><ele>27.0</ele><time>2026-04-18T16:46:14.849Z</time></trkpt><trkpt lat="53.41972096025225" lon="14.802722680552263"><ele>27.0</ele><time>2026-04-18T16:46:15.849Z</time></trkpt><trkpt lat="53.41981802161636" lon="14.80283522739862"><ele>27.0</ele><time>2026-04-18T16:46:17.849Z</time></trkpt><trkpt lat="53.41988091256365" lon="14.80290260081055"><ele>27.0</ele><time>2026-04-18T16:46:18.849Z</time></trkpt><trkpt lat="53.41993881342793" lon="14.802962141031633"><ele>27.0</ele><time>2026-04-18T16:46:19.849Z</time></trkpt><trkpt lat="53.420010408323904" lon="14.803028682880717"><ele>27.0</ele><time>2026-04-18T16:46:20.849Z</time></trkpt><trkpt lat="53.4201182361829" lon="14.80314332158888"><ele>27.0</ele><time>2026-04-18T16:46:22.849Z</time></trkpt><trkpt lat="53.42017835451342" lon="14.803213153851964"><ele>27.0</ele><time>2026-04-18T16:46:23.849Z</time></trkpt><trkpt lat="53.42024902701414" lon="14.803279944414703"><ele>27.0</ele><time>2026-04-18T16:46:24.849Z</time></trkpt><trkpt lat="53.42030744990973" lon="14.80334056200765"><ele>27.0</ele><time>2026-04-18T16:46:25.849Z</time></trkpt><trkpt lat="53.420375736577434" lon="14.803406262044748"><ele>27.0</ele><time>2026-04-18T16:46:26.849Z</time></trkpt><trkpt lat="53.4204856202817" lon="14.803530339446686"><ele>27.0</ele><time>2026-04-18T16:46:28.849Z</time></trkpt><trkpt lat="53.42054154262692" lon="14.803600294475622"><ele>27.333333333333332</ele><time>2026-04-18T16:46:29.849Z</time></trkpt><trkpt lat="53.42060579629463" lon="14.803661235576586"><ele>27.666666666666664</ele><time>2026-04-18T16:46:30.849Z</time></trkpt><trkpt lat="53.420715449504236" lon="14.803762256295961"><ele>28.0</ele><time>2026-04-18T16:46:32.849Z</time></trkpt><trkpt lat="53.42077065709593" lon="14.80381721561516"><ele>28.333333333333332</ele><time>2026-04-18T16:46:33.849Z</time></trkpt><trkpt lat="53.42083543621634" lon="14.803892992195985"><ele>28.666666666666664</ele><time>2026-04-18T16:46:34.849Z</time></trkpt><trkpt lat="53.420896513196325" lon="14.803972371700533"><ele>29.0</ele><time>2026-04-18T16:46:35.849Z</time></trkpt><trkpt lat="53.420955146041464" lon="14.804041275650208"><ele>29.0</ele><time>2026-04-18T16:46:36.849Z</time></trkpt><trkpt lat="53.42101598596161" lon="14.80410169287991"><ele>29.0</ele><time>2026-04-18T16:46:37.849Z</time></trkpt><trkpt lat="53.42110857055308" lon="14.804191812528714"><ele>29.0</ele><time>2026-04-18T16:46:39.849Z</time></trkpt><trkpt lat="53.4212001961732" lon="14.804306650465069"><ele>29.0</ele><time>2026-04-18T16:46:41.849Z</time></trkpt><trkpt lat="53.42130415765636" lon="14.804398418429102"><ele>29.0</ele><time>2026-04-18T16:46:43.849Z</time></trkpt><trkpt lat="53.421399773375946" lon="14.804481465723352"><ele>28.666666666666664</ele><time>2026-04-18T16:46:45.849Z</time></trkpt><trkpt lat="53.42146260918578" lon="14.804541389689419"><ele>28.333333333333332</ele><time>2026-04-18T16:46:46.849Z</time></trkpt><trkpt lat="53.42151817736204" lon="14.804603191484489"><ele>28.0</ele><time>2026-04-18T16:46:47.849Z</time></trkpt><trkpt lat="53.42158541542157" lon="14.804713292287577"><ele>27.666666666666664</ele><time>2026-04-18T16:46:49.849Z</time></trkpt><trkpt lat="53.42163171250446" lon="14.804790448055133"><ele>27.333333333333332</ele><time>2026-04-18T16:46:50.849Z</time></trkpt><trkpt lat="53.42166919665784" lon="14.804893985169018"><ele>27.0</ele><time>2026-04-18T16:46:51.849Z</time></trkpt><trkpt lat="53.42169416645195" lon="14.805055045118849"><ele>27.400000000000002</ele><time>2026-04-18T16:46:53.849Z</time></trkpt><trkpt lat="53.42171968028162" lon="14.805276075441142"><ele>27.800000000000004</ele><time>2026-04-18T16:46:55.849Z</time></trkpt><trkpt lat="53.42174182398311" lon="14.80548184142482"><ele>28.2</ele><time>2026-04-18T16:46:57.849Z</time></trkpt><trkpt lat="53.42175662301141" lon="14.805592411403763"><ele>28.6</ele><time>2026-04-18T16:46:58.849Z</time></trkpt><trkpt lat="53.42176763752781" lon="14.805705633058917"><ele>29.0</ele><time>2026-04-18T16:46:59.849Z</time></trkpt><trkpt lat="53.42178310801244" lon="14.805809270580538"><ele>29.2</ele><time>2026-04-18T16:47:00.849Z</time></trkpt><trkpt lat="53.42181719798487" lon="14.806020286260479"><ele>29.4</ele><time>2026-04-18T16:47:02.849Z</time></trkpt><trkpt lat="53.42183638514691" lon="14.806128048231534"><ele>29.6</ele><time>2026-04-18T16:47:03.849Z</time></trkpt><trkpt lat="53.421843569538765" lon="14.80625220526109"><ele>29.8</ele><time>2026-04-18T16:47:04.849Z</time></trkpt><trkpt lat="53.421852344844226" lon="14.806368249093461"><ele>30.0</ele><time>2026-04-18T16:47:05.849Z</time></trkpt><trkpt lat="53.42187507172673" lon="14.806564315001268"><ele>30.0</ele><time>2026-04-18T16:47:07.849Z</time></trkpt><trkpt lat="53.42189367635727" lon="14.80671514058515"><ele>30.0</ele><time>2026-04-18T16:47:08.849Z</time></trkpt><trkpt lat="53.42190118313396" lon="14.806821988923557"><ele>30.0</ele><time>2026-04-18T16:47:09.849Z</time></trkpt><trkpt lat="53.42191434479993" lon="14.806930301669707"><ele>30.0</ele><time>2026-04-18T16:47:10.849Z</time></trkpt><trkpt lat="53.42193585291188" lon="14.807135167350797"><ele>30.0</ele><time>2026-04-18T16:47:12.849Z</time></trkpt><trkpt lat="53.42195600407113" lon="14.807265538049961"><ele>30.0</ele><time>2026-04-18T16:47:13.849Z</time></trkpt><trkpt lat="53.421971951416644" lon="14.807420202145652"><ele>29.833333333333332</ele><time>2026-04-18T16:47:14.849Z</time></trkpt><trkpt lat="53.421989472146954" lon="14.807563452459785"><ele>29.666666666666664</ele><time>2026-04-18T16:47:15.849Z</time></trkpt><trkpt lat="53.42199768448837" lon="14.807703435866568"><ele>29.5</ele><time>2026-04-18T16:47:16.849Z</time></trkpt><trkpt lat="53.422008325786294" lon="14.807844756519145"><ele>29.333333333333332</ele><time>2026-04-18T16:47:17.849Z</time></trkpt><trkpt lat="53.42202498002903" lon="14.807968077038833"><ele>29.166666666666664</ele><time>2026-04-18T16:47:18.849Z</time></trkpt><trkpt lat="53.422046633264394" lon="14.808104740463737"><ele>29.0</ele><time>2026-04-18T16:47:19.849Z</time></trkpt><trkpt lat="53.42207040992089" lon="14.808235608623546"><ele>29.0</ele><time>2026-04-18T16:47:20.849Z</time></trkpt><trkpt lat="53.42208336933463" lon="14.808360432058581"><ele>29.0</ele><time>2026-04-18T16:47:21.849Z</time></trkpt><trkpt lat="53.422092097253696" lon="14.808519819173826"><ele>29.0</ele><time>2026-04-18T16:47:22.849Z</time></trkpt><trkpt lat="53.4221026415416" lon="14.808694761044643"><ele>29.0</ele><time>2026-04-18T16:47:23.849Z</time></trkpt><trkpt lat="53.42212428141382" lon="14.808864299000467"><ele>29.0</ele><time>2026-04-18T16:47:24.849Z</time></trkpt><trkpt lat="53.42214196481478" lon="14.809011648920954"><ele>29.0</ele><time>2026-04-18T16:47:25.849Z</time></trkpt><trkpt lat="53.422164259977876" lon="14.809150390685412"><ele>29.0</ele><time>2026-04-18T16:47:26.849Z</time></trkpt><trkpt lat="53.42218899379378" lon="14.809359702336202"><ele>29.0</ele><time>2026-04-18T16:47:28.849Z</time></trkpt><trkpt lat="53.422201475857406" lon="14.809493221039194"><ele>29.0</ele><time>2026-04-18T16:47:29.849Z</time></trkpt><trkpt lat="53.422217368092824" lon="14.8096374871638"><ele>29.0</ele><time>2026-04-18T16:47:30.849Z</time></trkpt><trkpt lat="53.4222381390585" lon="14.809786363896063"><ele>29.166666666666664</ele><time>2026-04-18T16:47:31.849Z</time></trkpt><trkpt lat="53.42225865660988" lon="14.809925975340807"><ele>29.333333333333332</ele><time>2026-04-18T16:47:32.849Z</time></trkpt><trkpt lat="53.422290390546735" lon="14.810064411805971"><ele>29.5</ele><time>2026-04-18T16:47:33.849Z</time></trkpt><trkpt lat="53.4223104231064" lon="14.810188738897965"><ele>29.666666666666664</ele><time>2026-04-18T16:47:34.849Z</time></trkpt><trkpt lat="53.4223346856053" lon="14.810296622706197"><ele>29.833333333333332</ele><time>2026-04-18T16:47:35.849Z</time></trkpt><trkpt lat="53.42235024162938" lon="14.810453888099849"><ele>30.0</ele><time>2026-04-18T16:47:37.849Z</time></trkpt><trkpt lat="53.42236579172809" lon="14.81057561924589"><ele>30.166666666666668</ele><time>2026-04-18T16:47:39.849Z</time></trkpt><trkpt lat="53.422385001247015" lon="14.810703916590107"><ele>30.333333333333336</ele><time>2026-04-18T16:47:41.849Z</time></trkpt><trkpt lat="53.422409556506274" lon="14.810853874446808"><ele>30.5</ele><time>2026-04-18T16:47:43.849Z</time></trkpt><trkpt lat="53.422427329674875" lon="14.811001244181726"><ele>30.666666666666668</ele><time>2026-04-18T16:47:45.849Z</time></trkpt><trkpt lat="53.422446335129074" lon="14.81113807981357"><ele>30.833333333333336</ele><time>2026-04-18T16:47:47.849Z</time></trkpt><trkpt lat="53.422465539618116" lon="14.811251512267495"><ele>31.0</ele><time>2026-04-18T16:47:49.849Z</time></trkpt><trkpt lat="53.42248233906289" lon="14.811366647668752"><ele>31.0</ele><time>2026-04-18T16:48:01.846Z</time></trkpt><trkpt lat="53.42250525427361" lon="14.811486514709866"><ele>31.0</ele><time>2026-04-18T16:48:03.846Z</time></trkpt><trkpt lat="53.422513729414646" lon="14.81168124144178"><ele>31.0</ele><time>2026-04-18T16:48:05.846Z</time></trkpt><trkpt lat="53.42252909700834" lon="14.811808235447538"><ele>31.0</ele><time>2026-04-18T16:48:06.846Z</time></trkpt><trkpt lat="53.42254002843224" lon="14.811923303507347"><ele>31.0</ele><time>2026-04-18T16:48:07.846Z</time></trkpt><trkpt lat="53.42254386941212" lon="14.812143603615189"><ele>31.000000000000004</ele><time>2026-04-18T16:48:09.846Z</time></trkpt><trkpt lat="53.42255487794542" lon="14.812258420624916"><ele>31.0</ele><time>2026-04-18T16:48:10.846Z</time></trkpt><trkpt lat="53.42256425582332" lon="14.812387396682956"><ele>31.0</ele><time>2026-04-18T16:48:11.846Z</time></trkpt><trkpt lat="53.42258006854455" lon="14.81252784428871"><ele>31.0</ele><time>2026-04-18T16:48:12.846Z</time></trkpt><trkpt lat="53.42259588529553" lon="14.812659264087966"><ele>31.000000000000004</ele><time>2026-04-18T16:48:13.846Z</time></trkpt><trkpt lat="53.422615382729155" lon="14.812789758413357"><ele>31.0</ele><time>2026-04-18T16:48:14.846Z</time></trkpt><trkpt lat="53.42263189716555" lon="14.812902181172811"><ele>31.0</ele><time>2026-04-18T16:48:15.846Z</time></trkpt><trkpt lat="53.422662407177164" lon="14.813005284072537"><ele>31.0</ele><time>2026-04-18T16:48:16.846Z</time></trkpt><trkpt lat="53.422684353493764" lon="14.813220436123066"><ele>31.0</ele><time>2026-04-18T16:48:18.846Z</time></trkpt><trkpt lat="53.42269338699172" lon="14.813351227769877"><ele>31.0</ele><time>2026-04-18T16:48:19.846Z</time></trkpt><trkpt lat="53.42271209648934" lon="14.813477693418609"><ele>31.0</ele><time>2026-04-18T16:48:20.846Z</time></trkpt><trkpt lat="53.4227429135816" lon="14.813722821669698"><ele>31.0</ele><time>2026-04-18T16:48:22.846Z</time></trkpt><trkpt lat="53.422760497203555" lon="14.81386024169187"><ele>31.0</ele><time>2026-04-18T16:48:23.846Z</time></trkpt><trkpt lat="53.4227716034682" lon="14.814006394794918"><ele>31.0</ele><time>2026-04-18T16:48:24.846Z</time></trkpt><trkpt lat="53.42279955423968" lon="14.814174511271736"><ele>31.0</ele><time>2026-04-18T16:48:25.846Z</time></trkpt><trkpt lat="53.422825862866404" lon="14.814345019740434"><ele>31.0</ele><time>2026-04-18T16:48:26.846Z</time></trkpt><trkpt lat="53.422838863214736" lon="14.814460463342582"><ele>30.8</ele><time>2026-04-18T16:48:27.846Z</time></trkpt><trkpt lat="53.42285796668052" lon="14.81460875714661"><ele>30.6</ele><time>2026-04-18T16:48:28.846Z</time></trkpt><trkpt lat="53.42288066463828" lon="14.814777950133442"><ele>30.4</ele><time>2026-04-18T16:48:29.846Z</time></trkpt><trkpt lat="53.42289153460116" lon="14.81492442773019"><ele>30.2</ele><time>2026-04-18T16:48:30.846Z</time></trkpt><trkpt lat="53.42290606827915" lon="14.81506909011011"><ele>30.0</ele><time>2026-04-18T16:48:31.846Z</time></trkpt><trkpt lat="53.42293185455334" lon="14.815246343622265"><ele>30.0</ele><time>2026-04-18T16:48:32.846Z</time></trkpt><trkpt lat="53.422938884129536" lon="14.815384428033322"><ele>30.0</ele><time>2026-04-18T16:48:33.846Z</time></trkpt><trkpt lat="53.42295997015797" lon="14.815516892056658"><ele>30.0</ele><time>2026-04-18T16:48:34.846Z</time></trkpt><trkpt lat="53.422982833201395" lon="14.815648872895936"><ele>30.0</ele><time>2026-04-18T16:48:35.846Z</time></trkpt><trkpt lat="53.422995002741466" lon="14.815778742167566"><ele>30.0</ele><time>2026-04-18T16:48:36.846Z</time></trkpt><trkpt lat="53.42301858362422" lon="14.81589388861102"><ele>30.0</ele><time>2026-04-18T16:48:38.846Z</time></trkpt><trkpt lat="53.42300775129963" lon="14.81601071719989"><ele>30.0</ele><time>2026-04-18T16:49:15.846Z</time></trkpt><trkpt lat="53.423035638218515" lon="14.816122580893458"><ele>30.0</ele><time>2026-04-18T16:49:22.846Z</time></trkpt><trkpt lat="53.42306269479903" lon="14.81627929282425"><ele>30.0</ele><time>2026-04-18T16:49:25.846Z</time></trkpt><trkpt lat="53.4230843717252" lon="14.816403402926905"><ele>30.0</ele><time>2026-04-18T16:49:27.846Z</time></trkpt><trkpt lat="53.423101019069044" lon="14.81653619968482"><ele>30.0</ele><time>2026-04-18T16:49:29.846Z</time></trkpt><trkpt lat="53.4231207253419" lon="14.816664374555554"><ele>30.0</ele><time>2026-04-18T16:49:31.846Z</time></trkpt><trkpt lat="53.42315041820446" lon="14.816823895945122"><ele>30.0</ele><time>2026-04-18T16:49:33.846Z</time></trkpt><trkpt lat="53.423179730459836" lon="14.816978307599351"><ele>30.0</ele><time>2026-04-18T16:49:35.846Z</time></trkpt><trkpt lat="53.42319648968838" lon="14.817128189790004"><ele>30.0</ele><time>2026-04-18T16:49:37.846Z</time></trkpt><trkpt lat="53.423216785548746" lon="14.817270706245612"><ele>30.0</ele><time>2026-04-18T16:49:39.846Z</time></trkpt><trkpt lat="53.423226516065846" lon="14.817400127489055"><ele>30.0</ele><time>2026-04-18T16:49:41.847Z</time></trkpt><trkpt lat="53.423256069764484" lon="14.817545260499738"><ele>30.0</ele><time>2026-04-18T16:49:43.847Z</time></trkpt><trkpt lat="53.42326890337659" lon="14.817695977274045"><ele>29.8</ele><time>2026-04-18T16:49:45.847Z</time></trkpt><trkpt lat="53.42328047732136" lon="14.817854242927327"><ele>29.6</ele><time>2026-04-18T16:49:47.847Z</time></trkpt><trkpt lat="53.42330500151588" lon="14.81800258588156"><ele>29.4</ele><time>2026-04-18T16:49:49.847Z</time></trkpt><trkpt lat="53.42332007013047" lon="14.818177096408274"><ele>29.2</ele><time>2026-04-18T16:49:51.847Z</time></trkpt><trkpt lat="53.42333207777281" lon="14.818312002996546"><ele>29.0</ele><time>2026-04-18T16:49:53.847Z</time></trkpt><trkpt lat="53.4233412571838" lon="14.818472990810292"><ele>28.666666666666664</ele><time>2026-04-18T16:49:55.847Z</time></trkpt><trkpt lat="53.42334900023168" lon="14.81861376496798"><ele>28.333333333333332</ele><time>2026-04-18T16:49:57.847Z</time></trkpt><trkpt lat="53.42335843480537" lon="14.818732970619694"><ele>28.0</ele><time>2026-04-18T16:49:59.847Z</time></trkpt><trkpt lat="53.42336750204135" lon="14.818883731851654"><ele>27.666666666666664</ele><time>2026-04-18T16:50:01.847Z</time></trkpt><trkpt lat="53.42337696337677" lon="14.819012453612197"><ele>27.333333333333332</ele><time>2026-04-18T16:50:03.847Z</time></trkpt><trkpt lat="53.42337913514565" lon="14.81916215012078"><ele>27.0</ele><time>2026-04-18T16:50:05.844Z</time></trkpt><trkpt lat="53.42340322991022" lon="14.819310446520106"><ele>27.0</ele><time>2026-04-18T16:50:07.844Z</time></trkpt><trkpt lat="53.42340527769172" lon="14.819419693581779"><ele>27.0</ele><time>2026-04-18T16:50:09.844Z</time></trkpt><trkpt lat="53.423426568241794" lon="14.819539652702268"><ele>27.0</ele><time>2026-04-18T16:50:11.844Z</time></trkpt><trkpt lat="53.423440282009864" lon="14.819688989852654"><ele>27.0</ele><time>2026-04-18T16:50:13.844Z</time></trkpt><trkpt lat="53.423444363581716" lon="14.81981579745721"><ele>27.0</ele><time>2026-04-18T16:50:15.843Z</time></trkpt><trkpt lat="53.42345656312321" lon="14.819941879323295"><ele>27.0</ele><time>2026-04-18T16:50:17.844Z</time></trkpt><trkpt lat="53.42348357468159" lon="14.820077278858074"><ele>27.333333333333332</ele><time>2026-04-18T16:50:19.843Z</time></trkpt><trkpt lat="53.42349000340868" lon="14.820216224705042"><ele>27.666666666666664</ele><time>2026-04-18T16:50:21.843Z</time></trkpt><trkpt lat="53.42350410011766" lon="14.820328264006543"><ele>28.0</ele><time>2026-04-18T16:50:23.843Z</time></trkpt><trkpt lat="53.423525613874816" lon="14.820455672216093"><ele>28.333333333333332</ele><time>2026-04-18T16:50:25.843Z</time></trkpt><trkpt lat="53.42353587635493" lon="14.820570107721334"><ele>28.666666666666664</ele><time>2026-04-18T16:50:27.843Z</time></trkpt><trkpt lat="53.42357008949695" lon="14.820720942044908"><ele>29.0</ele><time>2026-04-18T16:50:29.843Z</time></trkpt><trkpt lat="53.4235861714936" lon="14.820876398593725"><ele>29.2</ele><time>2026-04-18T16:50:31.843Z</time></trkpt><trkpt lat="53.4236216394039" lon="14.82105130464735"><ele>29.4</ele><time>2026-04-18T16:50:33.843Z</time></trkpt><trkpt lat="53.42364625356322" lon="14.821275228526309"><ele>29.6</ele><time>2026-04-18T16:50:35.843Z</time></trkpt><trkpt lat="53.423648817831875" lon="14.82145463646074"><ele>29.8</ele><time>2026-04-18T16:50:37.843Z</time></trkpt><trkpt lat="53.423677128563355" lon="14.821583968617697"><ele>30.0</ele><time>2026-04-18T16:50:39.843Z</time></trkpt><trkpt lat="53.42369415415971" lon="14.82171356357697"><ele>30.166666666666668</ele><time>2026-04-18T16:50:42.843Z</time></trkpt><trkpt lat="53.423691707578534" lon="14.82182351699295"><ele>30.333333333333336</ele><time>2026-04-18T16:50:44.843Z</time></trkpt><trkpt lat="53.42370027634097" lon="14.821941175789442"><ele>30.5</ele><time>2026-04-18T16:50:46.843Z</time></trkpt><trkpt lat="53.42372030894729" lon="14.822074833918514"><ele>30.666666666666668</ele><time>2026-04-18T16:50:48.843Z</time></trkpt><trkpt lat="53.42374379123856" lon="14.822211131718623"><ele>30.833333333333336</ele><time>2026-04-18T16:50:50.843Z</time></trkpt><trkpt lat="53.42376214172958" lon="14.82232480415533"><ele>31.0</ele><time>2026-04-18T16:50:52.843Z</time></trkpt><trkpt lat="53.423786505725225" lon="14.822510883386485"><ele>31.0</ele><time>2026-04-18T16:50:54.843Z</time></trkpt><trkpt lat="53.42380317387991" lon="14.822646702796206"><ele>31.0</ele><time>2026-04-18T16:50:56.843Z</time></trkpt><trkpt lat="53.423815302631574" lon="14.822755158404991"><ele>31.0</ele><time>2026-04-18T16:50:59.843Z</time></trkpt><trkpt lat="53.423832188356535" lon="14.822920340503192"><ele>31.0</ele><time>2026-04-18T16:51:01.843Z</time></trkpt><trkpt lat="53.42384219338536" lon="14.82306143320141"><ele>31.0</ele><time>2026-04-18T16:51:02.843Z</time></trkpt><trkpt lat="53.423867819834044" lon="14.823307943994768"><ele>31.25</ele><time>2026-04-18T16:51:04.843Z</time></trkpt><trkpt lat="53.42388215097346" lon="14.823487199234968"><ele>31.5</ele><time>2026-04-18T16:51:05.843Z</time></trkpt><trkpt lat="53.42390867626244" lon="14.823645277400392"><ele>31.75</ele><time>2026-04-18T16:51:06.843Z</time></trkpt><trkpt lat="53.42392645038572" lon="14.82385526150972"><ele>32.0</ele><time>2026-04-18T16:51:07.843Z</time></trkpt><trkpt lat="53.423948146043195" lon="14.824087697381483"><ele>31.75</ele><time>2026-04-18T16:51:08.843Z</time></trkpt><trkpt lat="53.423971862655655" lon="14.824338115504766"><ele>31.5</ele><time>2026-04-18T16:51:09.843Z</time></trkpt><trkpt lat="53.42399469848271" lon="14.824566668113059"><ele>31.25</ele><time>2026-04-18T16:51:10.843Z</time></trkpt><trkpt lat="53.42402622126468" lon="14.824785080569086"><ele>31.0</ele><time>2026-04-18T16:51:11.843Z</time></trkpt><trkpt lat="53.42404002456057" lon="14.82494027132888"><ele>31.0</ele><time>2026-04-18T16:51:12.843Z</time></trkpt><trkpt lat="53.424057587325194" lon="14.825092105499976"><ele>31.0</ele><time>2026-04-18T16:51:13.843Z</time></trkpt><trkpt lat="53.42408112767469" lon="14.82526374677812"><ele>31.0</ele><time>2026-04-18T16:51:14.843Z</time></trkpt><trkpt lat="53.42410218904734" lon="14.825426303811865"><ele>31.0</ele><time>2026-04-18T16:51:15.843Z</time></trkpt><trkpt lat="53.424107900262364" lon="14.82553299756302"><ele>31.0</ele><time>2026-04-18T16:51:16.843Z</time></trkpt><trkpt lat="53.42413694872006" lon="14.825759371221404"><ele>31.000000000000004</ele><time>2026-04-18T16:51:18.843Z</time></trkpt><trkpt lat="53.42416639123081" lon="14.825933607144371"><ele>31.0</ele><time>2026-04-18T16:51:19.843Z</time></trkpt><trkpt lat="53.42418572989499" lon="14.826054286213571"><ele>31.0</ele><time>2026-04-18T16:51:20.843Z</time></trkpt><trkpt lat="53.42419450322998" lon="14.826180212912304"><ele>31.0</ele><time>2026-04-18T16:51:21.843Z</time></trkpt><trkpt lat="53.424222227612454" lon="14.826327145347094"><ele>31.000000000000004</ele><time>2026-04-18T16:51:22.843Z</time></trkpt><trkpt lat="53.4242270058631" lon="14.826433969102018"><ele>31.0</ele><time>2026-04-18T16:51:23.843Z</time></trkpt><trkpt lat="53.424249671285615" lon="14.82654431589691"><ele>31.0</ele><time>2026-04-18T16:51:24.843Z</time></trkpt><trkpt lat="53.4242604650223" lon="14.826666197173301"><ele>31.0</ele><time>2026-04-18T16:51:25.843Z</time></trkpt><trkpt lat="53.42428442949744" lon="14.8268365055489"><ele>31.0</ele><time>2026-04-18T16:51:27.843Z</time></trkpt><trkpt lat="53.4243142451647" lon="14.826953877397687"><ele>31.0</ele><time>2026-04-18T16:51:29.843Z</time></trkpt><trkpt lat="53.4243443265626" lon="14.827114175387589"><ele>31.0</ele><time>2026-04-18T16:51:55.843Z</time></trkpt><trkpt lat="53.42430293347666" lon="14.827268688435312"><ele>31.0</ele><time>2026-04-18T16:51:57.843Z</time></trkpt><trkpt lat="53.424263604083166" lon="14.827379609315626"><ele>31.0</ele><time>2026-04-18T16:51:59.843Z</time></trkpt><trkpt lat="53.42420669913336" lon="14.827549121244491"><ele>31.0</ele><time>2026-04-18T16:52:01.843Z</time></trkpt><trkpt lat="53.42414103028285" lon="14.827711297507848"><ele>31.0</ele><time>2026-04-18T16:52:03.843Z</time></trkpt><trkpt lat="53.424093922628614" lon="14.82789967224518"><ele>31.0</ele><time>2026-04-18T16:52:05.843Z</time></trkpt><trkpt lat="53.42406292011326" lon="14.828036295615231"><ele>31.0</ele><time>2026-04-18T16:52:07.843Z</time></trkpt><trkpt lat="53.424013054582" lon="14.828195518079442"><ele>31.0</ele><time>2026-04-18T16:52:09.843Z</time></trkpt><trkpt lat="53.42394861318739" lon="14.828374579554156"><ele>31.0</ele><time>2026-04-18T16:52:11.842Z</time></trkpt><trkpt lat="53.423878569148854" lon="14.828562341401996"><ele>31.0</ele><time>2026-04-18T16:52:13.842Z</time></trkpt><trkpt lat="53.42384581462498" lon="14.82866598131335"><ele>31.0</ele><time>2026-04-18T16:52:14.841Z</time></trkpt><trkpt lat="53.42378956408134" lon="14.828793278590222"><ele>31.200000000000003</ele><time>2026-04-18T16:52:16.841Z</time></trkpt><trkpt lat="53.423727981514716" lon="14.828944857693099"><ele>31.400000000000002</ele><time>2026-04-18T16:52:18.841Z</time></trkpt><trkpt lat="53.42368792031642" lon="14.829095731643568"><ele>31.6</ele><time>2026-04-18T16:52:20.842Z</time></trkpt><trkpt lat="53.42365284256263" lon="14.829250723175038"><ele>31.8</ele><time>2026-04-18T16:52:22.841Z</time></trkpt><trkpt lat="53.423598515587514" lon="14.829413751304827"><ele>32.0</ele><time>2026-04-18T16:52:24.841Z</time></trkpt><trkpt lat="53.42354390237986" lon="14.82948822941879"><ele>31.999999999999996</ele><time>2026-04-18T16:52:26.841Z</time></trkpt><trkpt lat="53.42350287962955" lon="14.829599271697973"><ele>32.0</ele><time>2026-04-18T16:52:28.841Z</time></trkpt><trkpt lat="53.42349102921709" lon="14.829730777524448"><ele>32.0</ele><time>2026-04-18T16:52:30.841Z</time></trkpt><trkpt lat="53.423504229465564" lon="14.829899907690814"><ele>32.0</ele><time>2026-04-18T16:52:32.841Z</time></trkpt><trkpt lat="53.423521073699646" lon="14.830002061556469"><ele>31.999999999999996</ele><time>2026-04-18T16:52:33.841Z</time></trkpt><trkpt lat="53.42354297888357" lon="14.830198919165733"><ele>32.0</ele><time>2026-04-18T16:52:35.841Z</time></trkpt><trkpt lat="53.4235678836597" lon="14.83036656509624"><ele>31.666666666666664</ele><time>2026-04-18T16:52:37.841Z</time></trkpt><trkpt lat="53.42358626765177" lon="14.8304978901242"><ele>31.333333333333332</ele><time>2026-04-18T16:52:39.841Z</time></trkpt><trkpt lat="53.423604976247084" lon="14.830625714977844"><ele>31.0</ele><time>2026-04-18T16:52:40.841Z</time></trkpt><trkpt lat="53.42362612070634" lon="14.830746200906871"><ele>30.666666666666664</ele><time>2026-04-18T16:52:41.841Z</time></trkpt><trkpt lat="53.423613374786285" lon="14.83092088226788"><ele>30.333333333333332</ele><time>2026-04-18T16:52:45.841Z</time></trkpt><trkpt lat="53.42364173782415" lon="14.831025223465696"><ele>30.0</ele><time>2026-04-18T16:52:48.841Z</time></trkpt><trkpt lat="53.4236585000283" lon="14.831146506794267"><ele>30.0</ele><time>2026-04-18T16:52:49.841Z</time></trkpt><trkpt lat="53.42368303628401" lon="14.831275336844506"><ele>30.0</ele><time>2026-04-18T16:52:51.841Z</time></trkpt><trkpt lat="53.423673619934945" lon="14.831423411986803"><ele>30.0</ele><time>2026-04-18T16:52:53.841Z</time></trkpt><trkpt lat="53.42370481992519" lon="14.831593857391685"><ele>30.0</ele><time>2026-04-18T16:52:56.841Z</time></trkpt><trkpt lat="53.42372604789041" lon="14.831704192349223"><ele>30.0</ele><time>2026-04-18T16:52:58.841Z</time></trkpt><trkpt lat="53.42375200865414" lon="14.83188517080238"><ele>29.5</ele><time>2026-04-18T16:53:00.841Z</time></trkpt><trkpt lat="53.42377537557121" lon="14.83200530700592"><ele>29.0</ele><time>2026-04-18T16:53:02.841Z</time></trkpt><trkpt lat="53.42380098808446" lon="14.832145639612806"><ele>28.5</ele><time>2026-04-18T16:53:05.841Z</time></trkpt><trkpt lat="53.42381481442045" lon="14.832277636591282"><ele>28.0</ele><time>2026-04-18T16:53:08.841Z</time></trkpt><trkpt lat="53.42379848315036" lon="14.832405782783987"><ele>27.5</ele><time>2026-04-18T16:53:11.841Z</time></trkpt><trkpt lat="53.42379044129032" lon="14.8325163268001"><ele>27.0</ele><time>2026-04-18T16:53:14.841Z</time></trkpt><trkpt lat="53.42378315634655" lon="14.832657534226229"><ele>26.714285714285715</ele><time>2026-04-18T16:53:17.841Z</time></trkpt><trkpt lat="53.42379463749424" lon="14.832792163446177"><ele>26.428571428571427</ele><time>2026-04-18T16:53:20.841Z</time></trkpt><trkpt lat="53.423797378325574" lon="14.832908741501154"><ele>26.142857142857146</ele><time>2026-04-18T16:53:23.841Z</time></trkpt><trkpt lat="53.423775204407434" lon="14.833015602757332"><ele>25.857142857142858</ele><time>2026-04-18T16:53:27.841Z</time></trkpt><trkpt lat="53.42370604944107" lon="14.833079108075813"><ele>25.571428571428573</ele><time>2026-04-18T16:53:29.841Z</time></trkpt><trkpt lat="53.423642664168376" lon="14.833089021329672"><ele>25.28571428571429</ele><time>2026-04-18T16:53:31.841Z</time></trkpt><trkpt lat="53.42356136017205" lon="14.833117324049923"><ele>25.0</ele><time>2026-04-18T16:53:34.841Z</time></trkpt><trkpt lat="53.423499931914" lon="14.833151356274941"><ele>25.000000000000004</ele><time>2026-04-18T16:53:36.841Z</time></trkpt><trkpt lat="53.423419704813156" lon="14.833177336299956"><ele>25.0</ele><time>2026-04-18T16:53:37.841Z</time></trkpt><trkpt lat="53.42334128172007" lon="14.833200875505753"><ele>25.0</ele><time>2026-04-18T16:53:38.841Z</time></trkpt><trkpt lat="53.42323737773" lon="14.833240742201744"><ele>25.0</ele><time>2026-04-18T16:53:40.841Z</time></trkpt><trkpt lat="53.42317198549656" lon="14.83327117846656"><ele>25.000000000000004</ele><time>2026-04-18T16:53:41.841Z</time></trkpt><trkpt lat="53.42309974337885" lon="14.833299832445613"><ele>25.0</ele><time>2026-04-18T16:53:42.841Z</time></trkpt><trkpt lat="53.4230284519246" lon="14.833325739653931"><ele>24.833333333333336</ele><time>2026-04-18T16:53:43.841Z</time></trkpt><trkpt lat="53.42294816756476" lon="14.83335111020538"><ele>24.666666666666668</ele><time>2026-04-18T16:53:44.841Z</time></trkpt><trkpt lat="53.42286766882974" lon="14.833375656333843"><ele>24.5</ele><time>2026-04-18T16:53:45.841Z</time></trkpt><trkpt lat="53.42279438411384" lon="14.833397821352099"><ele>24.333333333333336</ele><time>2026-04-18T16:53:46.841Z</time></trkpt><trkpt lat="53.42271738733189" lon="14.83342421407053"><ele>24.166666666666668</ele><time>2026-04-18T16:53:47.841Z</time></trkpt><trkpt lat="53.42264521926471" lon="14.833442782509522"><ele>24.0</ele><time>2026-04-18T16:53:48.841Z</time></trkpt><trkpt lat="53.42253224637843" lon="14.833484659709876"><ele>24.2</ele><time>2026-04-18T16:53:50.841Z</time></trkpt><trkpt lat="53.42240951186433" lon="14.833532820264724"><ele>24.4</ele><time>2026-04-18T16:53:52.841Z</time></trkpt><trkpt lat="53.42234635422397" lon="14.833547931278629"><ele>24.6</ele><time>2026-04-18T16:53:53.841Z</time></trkpt><trkpt lat="53.4222290928674" lon="14.83359159720838"><ele>24.8</ele><time>2026-04-18T16:53:55.841Z</time></trkpt><trkpt lat="53.4220950625531" lon="14.83364082344692"><ele>25.0</ele><time>2026-04-18T16:53:57.841Z</time></trkpt><trkpt lat="53.42202599501092" lon="14.833670594276523"><ele>25.000000000000004</ele><time>2026-04-18T16:53:58.841Z</time></trkpt><trkpt lat="53.4219542675788" lon="14.833699491539104"><ele>25.0</ele><time>2026-04-18T16:53:59.841Z</time></trkpt><trkpt lat="53.42189006125891" lon="14.833726692383278"><ele>25.0</ele><time>2026-04-18T16:54:00.841Z</time></trkpt><trkpt lat="53.42182122768481" lon="14.833742619663273"><ele>25.0</ele><time>2026-04-18T16:54:01.841Z</time></trkpt><trkpt lat="53.42171497774495" lon="14.833781218481208"><ele>25.000000000000004</ele><time>2026-04-18T16:54:03.841Z</time></trkpt><trkpt lat="53.421652719257075" lon="14.833797624441276"><ele>25.0</ele><time>2026-04-18T16:54:05.841Z</time></trkpt><trkpt lat="53.42156635290956" lon="14.8337765644432"><ele>25.000000000000004</ele><time>2026-04-18T16:58:28.836Z</time></trkpt><trkpt lat="53.42148014168273" lon="14.833805022060007"><ele>25.0</ele><time>2026-04-18T16:58:30.833Z</time></trkpt><trkpt lat="53.42140866204144" lon="14.833841664326963"><ele>25.0</ele><time>2026-04-18T16:58:31.833Z</time></trkpt><trkpt lat="53.421328709405955" lon="14.833864713401187"><ele>25.0</ele><time>2026-04-18T16:58:32.832Z</time></trkpt><trkpt lat="53.42124901092758" lon="14.83388454040924"><ele>25.000000000000004</ele><time>2026-04-18T16:58:33.833Z</time></trkpt><trkpt lat="53.421162246562844" lon="14.83391804632462"><ele>25.0</ele><time>2026-04-18T16:58:34.833Z</time></trkpt><trkpt lat="53.42108338629045" lon="14.833941643061586"><ele>24.6</ele><time>2026-04-18T16:58:35.833Z</time></trkpt><trkpt lat="53.420999502234494" lon="14.833978424642014"><ele>24.2</ele><time>2026-04-18T16:58:36.832Z</time></trkpt><trkpt lat="53.42089109556277" lon="14.834021225307653"><ele>23.799999999999997</ele><time>2026-04-18T16:58:37.832Z</time></trkpt><trkpt lat="53.42077951926556" lon="14.834060232048968"><ele>23.4</ele><time>2026-04-18T16:58:38.832Z</time></trkpt><trkpt lat="53.420672112568724" lon="14.834093136244913"><ele>23.0</ele><time>2026-04-18T16:58:39.832Z</time></trkpt><trkpt lat="53.42056945944528" lon="14.834133315983655"><ele>23.0</ele><time>2026-04-18T16:58:40.832Z</time></trkpt><trkpt lat="53.42046913041248" lon="14.834167161678106"><ele>23.0</ele><time>2026-04-18T16:58:41.832Z</time></trkpt><trkpt lat="53.42036920412471" lon="14.834202269470612"><ele>23.0</ele><time>2026-04-18T16:58:42.832Z</time></trkpt><trkpt lat="53.42027331609106" lon="14.834234741114315"><ele>23.0</ele><time>2026-04-18T16:58:43.832Z</time></trkpt><trkpt lat="53.420174260292185" lon="14.834270246035123"><ele>23.0</ele><time>2026-04-18T16:58:44.832Z</time></trkpt><trkpt lat="53.42008539190041" lon="14.834308370195798"><ele>23.4</ele><time>2026-04-18T16:58:45.832Z</time></trkpt><trkpt lat="53.41999520770186" lon="14.834338988381564"><ele>23.799999999999997</ele><time>2026-04-18T16:58:46.832Z</time></trkpt><trkpt lat="53.41989306259662" lon="14.834369972903849"><ele>24.2</ele><time>2026-04-18T16:58:47.832Z</time></trkpt><trkpt lat="53.419792747151" lon="14.834402587809212"><ele>24.6</ele><time>2026-04-18T16:58:48.832Z</time></trkpt><trkpt lat="53.419707887771665" lon="14.834427552090151"><ele>25.0</ele><time>2026-04-18T16:58:49.832Z</time></trkpt><trkpt lat="53.419619342818756" lon="14.834461078137188"><ele>25.0</ele><time>2026-04-18T16:58:50.832Z</time></trkpt><trkpt lat="53.41952652136578" lon="14.834487298682074"><ele>25.0</ele><time>2026-04-18T16:58:51.832Z</time></trkpt><trkpt lat="53.4194365979822" lon="14.834522656927959"><ele>25.0</ele><time>2026-04-18T16:58:52.832Z</time></trkpt><trkpt lat="53.41934580440505" lon="14.83453423355886"><ele>25.0</ele><time>2026-04-18T16:58:53.832Z</time></trkpt><trkpt lat="53.41925745775908" lon="14.834562176941189"><ele>25.0</ele><time>2026-04-18T16:58:54.832Z</time></trkpt><trkpt lat="53.41917243166251" lon="14.834595719263595"><ele>25.000000000000004</ele><time>2026-04-18T16:58:55.832Z</time></trkpt><trkpt lat="53.41909217369998" lon="14.834623076642844"><ele>25.0</ele><time>2026-04-18T16:58:56.832Z</time></trkpt><trkpt lat="53.41901262320008" lon="14.834655429355662"><ele>25.0</ele><time>2026-04-18T16:58:57.832Z</time></trkpt><trkpt lat="53.41892700967868" lon="14.834677585501844"><ele>25.0</ele><time>2026-04-18T16:58:58.832Z</time></trkpt><trkpt lat="53.41885093436932" lon="14.83469355858682"><ele>25.000000000000004</ele><time>2026-04-18T16:58:59.832Z</time></trkpt><trkpt lat="53.41877064024122" lon="14.834720442029797"><ele>25.0</ele><time>2026-04-18T16:59:00.832Z</time></trkpt><trkpt lat="53.418702939107135" lon="14.834744233891797"><ele>25.000000000000004</ele><time>2026-04-18T16:59:01.832Z</time></trkpt><trkpt lat="53.418639237552306" lon="14.834774157777108"><ele>25.0</ele><time>2026-04-18T16:59:02.832Z</time></trkpt><trkpt lat="53.418572140108" lon="14.834795314940976"><ele>25.0</ele><time>2026-04-18T16:59:03.832Z</time></trkpt><trkpt lat="53.418474469438166" lon="14.83482393903295"><ele>25.0</ele><time>2026-04-18T16:59:05.832Z</time></trkpt><trkpt lat="53.41842744166557" lon="14.834950032432891"><ele>25.000000000000004</ele><time>2026-04-18T16:59:08.832Z</time></trkpt><trkpt lat="53.41842193625222" lon="14.835093871332864"><ele>25.0</ele><time>2026-04-18T16:59:09.832Z</time></trkpt><trkpt lat="53.41843781459578" lon="14.835261598121791"><ele>25.166666666666668</ele><time>2026-04-18T16:59:10.832Z</time></trkpt><trkpt lat="53.41846024225968" lon="14.835398446478052"><ele>25.333333333333336</ele><time>2026-04-18T16:59:11.832Z</time></trkpt><trkpt lat="53.41847545201793" lon="14.835511695428163"><ele>25.5</ele><time>2026-04-18T16:59:12.832Z</time></trkpt><trkpt lat="53.41848775377593" lon="14.835641857656304"><ele>25.666666666666664</ele><time>2026-04-18T16:59:13.832Z</time></trkpt><trkpt lat="53.418509662091274" lon="14.835761218086327"><ele>25.833333333333332</ele><time>2026-04-18T16:59:14.832Z</time></trkpt><trkpt lat="53.418532503672715" lon="14.835947609270226"><ele>26.0</ele><time>2026-04-18T16:59:15.832Z</time></trkpt><trkpt lat="53.41855514651294" lon="14.836160991083744"><ele>26.25</ele><time>2026-04-18T16:59:16.832Z</time></trkpt><trkpt lat="53.41858110787218" lon="14.83638551621333"><ele>26.5</ele><time>2026-04-18T16:59:17.832Z</time></trkpt><trkpt lat="53.41860490957459" lon="14.836610261285037"><ele>26.75</ele><time>2026-04-18T16:59:18.832Z</time></trkpt><trkpt lat="53.418635695198354" lon="14.83683883942042"><ele>27.0</ele><time>2026-04-18T16:59:19.832Z</time></trkpt><trkpt lat="53.41865337159993" lon="14.837055602233388"><ele>27.0</ele><time>2026-04-18T16:59:20.832Z</time></trkpt><trkpt lat="53.41868023461807" lon="14.837288464674348"><ele>27.0</ele><time>2026-04-18T16:59:21.832Z</time></trkpt><trkpt lat="53.41870141458458" lon="14.837472103994745"><ele>27.0</ele><time>2026-04-18T16:59:22.832Z</time></trkpt><trkpt lat="53.418723514734296" lon="14.837664142166041"><ele>27.0</ele><time>2026-04-18T16:59:23.832Z</time></trkpt><trkpt lat="53.41873940841628" lon="14.83784524488544"><ele>27.0</ele><time>2026-04-18T16:59:24.832Z</time></trkpt><trkpt lat="53.418764247579524" lon="14.837989397232361"><ele>27.000000000000004</ele><time>2026-04-18T16:59:25.832Z</time></trkpt><trkpt lat="53.41878625331307" lon="14.838130323721371"><ele>27.000000000000004</ele><time>2026-04-18T16:59:26.832Z</time></trkpt><trkpt lat="53.41879729442436" lon="14.838311935317499"><ele>27.0</ele><time>2026-04-18T16:59:27.832Z</time></trkpt><trkpt lat="53.418812684815755" lon="14.838448424859484"><ele>27.0</ele><time>2026-04-18T16:59:28.832Z</time></trkpt><trkpt lat="53.41883023729203" lon="14.838596544710317"><ele>27.200000000000003</ele><time>2026-04-18T16:59:29.832Z</time></trkpt><trkpt lat="53.41884557227525" lon="14.838762145370298"><ele>27.400000000000002</ele><time>2026-04-18T16:59:30.832Z</time></trkpt><trkpt lat="53.41885873682941" lon="14.83892243607064"><ele>27.599999999999998</ele><time>2026-04-18T16:59:31.832Z</time></trkpt><trkpt lat="53.41887628364242" lon="14.839062892965744"><ele>27.799999999999997</ele><time>2026-04-18T16:59:32.832Z</time></trkpt><trkpt lat="53.41888969717837" lon="14.83919505562211"><ele>28.0</ele><time>2026-04-18T16:59:33.832Z</time></trkpt><trkpt lat="53.41891358822213" lon="14.839359843947431"><ele>28.0</ele><time>2026-04-18T16:59:34.832Z</time></trkpt><trkpt lat="53.41893138012816" lon="14.839543164573419"><ele>27.999999999999996</ele><time>2026-04-18T16:59:35.832Z</time></trkpt><trkpt lat="53.41895072619966" lon="14.83969070081583"><ele>27.999999999999996</ele><time>2026-04-18T16:59:36.832Z</time></trkpt><trkpt lat="53.41897840783453" lon="14.83985184459687"><ele>28.0</ele><time>2026-04-18T16:59:37.832Z</time></trkpt><trkpt lat="53.41899414798563" lon="14.840002692703498"><ele>28.0</ele><time>2026-04-18T16:59:38.832Z</time></trkpt><trkpt lat="53.419005885607724" lon="14.840175729960201"><ele>27.799999999999997</ele><time>2026-04-18T16:59:39.832Z</time></trkpt><trkpt lat="53.41903223577319" lon="14.840326531437606"><ele>27.599999999999998</ele><time>2026-04-18T16:59:40.832Z</time></trkpt><trkpt lat="53.41904893700565" lon="14.840491157601345"><ele>27.400000000000002</ele><time>2026-04-18T16:59:41.832Z</time></trkpt><trkpt lat="53.41905517502895" lon="14.840644468934597"><ele>27.200000000000003</ele><time>2026-04-18T16:59:42.832Z</time></trkpt><trkpt lat="53.419064246011075" lon="14.840792958040897"><ele>27.0</ele><time>2026-04-18T16:59:43.832Z</time></trkpt><trkpt lat="53.419077962987686" lon="14.840933890773307"><ele>27.200000000000003</ele><time>2026-04-18T16:59:44.832Z</time></trkpt><trkpt lat="53.419092305795964" lon="14.841072347314919"><ele>27.400000000000002</ele><time>2026-04-18T16:59:45.832Z</time></trkpt><trkpt lat="53.41912326481116" lon="14.841215459190527"><ele>27.599999999999998</ele><time>2026-04-18T16:59:46.832Z</time></trkpt><trkpt lat="53.41913556034439" lon="14.84136815399358"><ele>27.799999999999997</ele><time>2026-04-18T16:59:47.832Z</time></trkpt><trkpt lat="53.41914053860852" lon="14.841518369345804"><ele>28.0</ele><time>2026-04-18T16:59:48.832Z</time></trkpt><trkpt lat="53.419166894760416" lon="14.841711228136143"><ele>28.0</ele><time>2026-04-18T16:59:49.832Z</time></trkpt><trkpt lat="53.41917657164408" lon="14.84184254860054"><ele>27.999999999999996</ele><time>2026-04-18T16:59:50.832Z</time></trkpt><trkpt lat="53.419195082365086" lon="14.84200647496317"><ele>27.999999999999996</ele><time>2026-04-18T16:59:51.832Z</time></trkpt><trkpt lat="53.41920807214747" lon="14.842164922467378"><ele>28.0</ele><time>2026-04-18T16:59:52.832Z</time></trkpt><trkpt lat="53.41921299481896" lon="14.842312973098736"><ele>28.0</ele><time>2026-04-18T16:59:53.832Z</time></trkpt><trkpt lat="53.41924884433078" lon="14.842585242303581"><ele>28.0</ele><time>2026-04-18T16:59:55.832Z</time></trkpt><trkpt lat="53.419274815394125" lon="14.842759909956731"><ele>27.999999999999996</ele><time>2026-04-18T16:59:56.832Z</time></trkpt><trkpt lat="53.419300296375695" lon="14.842936411991522"><ele>27.999999999999996</ele><time>2026-04-18T16:59:57.832Z</time></trkpt><trkpt lat="53.41932246763362" lon="14.843094750454979"><ele>28.0</ele><time>2026-04-18T16:59:58.832Z</time></trkpt><trkpt lat="53.419341586042385" lon="14.843235164918816"><ele>28.0</ele><time>2026-04-18T16:59:59.832Z</time></trkpt><trkpt lat="53.41935381582239" lon="14.843370123332981"><ele>28.166666666666668</ele><time>2026-04-18T17:00:00.832Z</time></trkpt><trkpt lat="53.41938696131227" lon="14.843522130560771"><ele>28.333333333333336</ele><time>2026-04-18T17:00:01.832Z</time></trkpt><trkpt lat="53.419406297613044" lon="14.843666330306094"><ele>28.5</ele><time>2026-04-18T17:00:02.832Z</time></trkpt><trkpt lat="53.41943349169209" lon="14.843823901282452"><ele>28.666666666666664</ele><time>2026-04-18T17:00:03.832Z</time></trkpt><trkpt lat="53.419436063880724" lon="14.843961585624038"><ele>28.833333333333332</ele><time>2026-04-18T17:00:04.832Z</time></trkpt><trkpt lat="53.41944947302086" lon="14.844087462460347"><ele>29.0</ele><time>2026-04-18T17:00:05.832Z</time></trkpt><trkpt lat="53.41946026614846" lon="14.844223401773926"><ele>29.0</ele><time>2026-04-18T17:00:06.832Z</time></trkpt><trkpt lat="53.419478550435564" lon="14.844378934371477"><ele>29.0</ele><time>2026-04-18T17:00:07.832Z</time></trkpt><trkpt lat="53.41950071933968" lon="14.844517927759608"><ele>29.0</ele><time>2026-04-18T17:00:08.832Z</time></trkpt><trkpt lat="53.41954946670561" lon="14.844672018877462"><ele>29.0</ele><time>2026-04-18T17:00:09.832Z</time></trkpt><trkpt lat="53.41955901490686" lon="14.844799976889336"><ele>29.0</ele><time>2026-04-18T17:00:10.832Z</time></trkpt><trkpt lat="53.41956071974129" lon="14.844950168524074"><ele>28.999999999999996</ele><time>2026-04-18T17:00:11.832Z</time></trkpt><trkpt lat="53.41957935780798" lon="14.84509140057923"><ele>29.0</ele><time>2026-04-18T17:00:12.832Z</time></trkpt><trkpt lat="53.41960424314031" lon="14.845234167951453"><ele>29.0</ele><time>2026-04-18T17:00:13.832Z</time></trkpt><trkpt lat="53.41962405877957" lon="14.845371377669919"><ele>29.0</ele><time>2026-04-18T17:00:14.832Z</time></trkpt><trkpt lat="53.41964526580236" lon="14.84551383269414"><ele>28.999999999999996</ele><time>2026-04-18T17:00:15.832Z</time></trkpt><trkpt lat="53.41967210116667" lon="14.845647895295658"><ele>29.0</ele><time>2026-04-18T17:00:16.832Z</time></trkpt><trkpt lat="53.41970211723314" lon="14.84578203179083"><ele>29.166666666666664</ele><time>2026-04-18T17:00:17.832Z</time></trkpt><trkpt lat="53.41970716719525" lon="14.845916905145076"><ele>29.333333333333332</ele><time>2026-04-18T17:00:18.832Z</time></trkpt><trkpt lat="53.41972976888734" lon="14.84605496265305"><ele>29.5</ele><time>2026-04-18T17:00:19.832Z</time></trkpt><trkpt lat="53.41975148460758" lon="14.846189832433605"><ele>29.666666666666664</ele><time>2026-04-18T17:00:20.832Z</time></trkpt><trkpt lat="53.41975679289448" lon="14.846336152619001"><ele>29.833333333333332</ele><time>2026-04-18T17:00:21.832Z</time></trkpt><trkpt lat="53.41976148493001" lon="14.846493637685434"><ele>30.0</ele><time>2026-04-18T17:00:22.832Z</time></trkpt><trkpt lat="53.41980949714653" lon="14.846653334432286"><ele>29.5</ele><time>2026-04-18T17:00:23.832Z</time></trkpt><trkpt lat="53.41984135069255" lon="14.846838509119749"><ele>29.0</ele><time>2026-04-18T17:00:24.832Z</time></trkpt><trkpt lat="53.419869655655205" lon="14.847025940170889"><ele>28.5</ele><time>2026-04-18T17:00:25.832Z</time></trkpt><trkpt lat="53.41989722603301" lon="14.847241517273936"><ele>28.0</ele><time>2026-04-18T17:00:26.832Z</time></trkpt><trkpt lat="53.419912182811494" lon="14.847416051022678"><ele>28.0</ele><time>2026-04-18T17:00:27.832Z</time></trkpt><trkpt lat="53.41993301471692" lon="14.847580855980633"><ele>27.999999999999996</ele><time>2026-04-18T17:00:28.832Z</time></trkpt><trkpt lat="53.41993173205052" lon="14.847722054215206"><ele>27.999999999999996</ele><time>2026-04-18T17:00:29.832Z</time></trkpt><trkpt lat="53.41995560530685" lon="14.847866710910985"><ele>28.0</ele><time>2026-04-18T17:00:30.832Z</time></trkpt><trkpt lat="53.41997177378006" lon="14.848019451939384"><ele>28.0</ele><time>2026-04-18T17:00:31.832Z</time></trkpt><trkpt lat="53.41999388506503" lon="14.848180926378404"><ele>28.000000000000004</ele><time>2026-04-18T17:00:32.832Z</time></trkpt><trkpt lat="53.42001617102546" lon="14.848341496277751"><ele>28.0</ele><time>2026-04-18T17:00:33.832Z</time></trkpt><trkpt lat="53.42003344079116" lon="14.848504627386808"><ele>28.0</ele><time>2026-04-18T17:00:34.832Z</time></trkpt><trkpt lat="53.42004078277779" lon="14.848654917516953"><ele>28.0</ele><time>2026-04-18T17:00:35.83Z</time></trkpt><trkpt lat="53.42003542470182" lon="14.848781340309849"><ele>28.000000000000004</ele><time>2026-04-18T17:00:36.83Z</time></trkpt><trkpt lat="53.42006150155941" lon="14.848906438007214"><ele>28.0</ele><time>2026-04-18T17:00:37.83Z</time></trkpt><trkpt lat="53.42007272745773" lon="14.849136358576585"><ele>28.2</ele><time>2026-04-18T17:00:39.829Z</time></trkpt><trkpt lat="53.42007626764519" lon="14.849265821276283"><ele>28.4</ele><time>2026-04-18T17:00:40.829Z</time></trkpt><trkpt lat="53.42010305937032" lon="14.849405704721674"><ele>28.599999999999998</ele><time>2026-04-18T17:00:41.83Z</time></trkpt><trkpt lat="53.42013295794107" lon="14.84954899316375"><ele>28.799999999999997</ele><time>2026-04-18T17:00:42.829Z</time></trkpt><trkpt lat="53.4201431270777" lon="14.849696715973206"><ele>29.0</ele><time>2026-04-18T17:00:43.829Z</time></trkpt><trkpt lat="53.42016293398467" lon="14.84987441325779"><ele>29.6</ele><time>2026-04-18T17:00:44.83Z</time></trkpt><trkpt lat="53.42019081349282" lon="14.850023126480346"><ele>30.2</ele><time>2026-04-18T17:00:45.829Z</time></trkpt><trkpt lat="53.420218697817184" lon="14.850200675836676"><ele>30.800000000000004</ele><time>2026-04-18T17:00:46.829Z</time></trkpt><trkpt lat="53.420246377424796" lon="14.850352013825903"><ele>31.400000000000002</ele><time>2026-04-18T17:00:47.829Z</time></trkpt><trkpt lat="53.42026835596067" lon="14.850521071750656"><ele>32.0</ele><time>2026-04-18T17:00:48.83Z</time></trkpt><trkpt lat="53.42027876665074" lon="14.85069183440941"><ele>32.0</ele><time>2026-04-18T17:00:49.83Z</time></trkpt><trkpt lat="53.42030663737625" lon="14.850873193619055"><ele>32.0</ele><time>2026-04-18T17:00:50.83Z</time></trkpt><trkpt lat="53.42032658094781" lon="14.851047954817744"><ele>32.0</ele><time>2026-04-18T17:00:51.83Z</time></trkpt><trkpt lat="53.420349077669314" lon="14.851201266616592"><ele>32.0</ele><time>2026-04-18T17:00:52.83Z</time></trkpt><trkpt lat="53.42037045304938" lon="14.851359106609312"><ele>32.0</ele><time>2026-04-18T17:00:53.83Z</time></trkpt><trkpt lat="53.4203864891143" lon="14.85151659820055"><ele>31.999999999999996</ele><time>2026-04-18T17:00:54.83Z</time></trkpt><trkpt lat="53.42041205425666" lon="14.85168985570114"><ele>32.0</ele><time>2026-04-18T17:00:55.83Z</time></trkpt><trkpt lat="53.420426222186336" lon="14.85182000867227"><ele>32.0</ele><time>2026-04-18T17:00:56.83Z</time></trkpt><trkpt lat="53.420436150231076" lon="14.851947976052434"><ele>32.0</ele><time>2026-04-18T17:00:57.83Z</time></trkpt><trkpt lat="53.42045463180766" lon="14.85206746435654"><ele>31.999999999999996</ele><time>2026-04-18T17:00:58.83Z</time></trkpt><trkpt lat="53.420465563335796" lon="14.852198199429106"><ele>32.0</ele><time>2026-04-18T17:00:59.83Z</time></trkpt><trkpt lat="53.42047782648324" lon="14.852343894691716"><ele>32.2</ele><time>2026-04-18T17:01:00.83Z</time></trkpt><trkpt lat="53.42049116581096" lon="14.852501030736542"><ele>32.400000000000006</ele><time>2026-04-18T17:01:01.83Z</time></trkpt><trkpt lat="53.42051366815233" lon="14.852686931587938"><ele>32.599999999999994</ele><time>2026-04-18T17:01:02.83Z</time></trkpt><trkpt lat="53.42053415282416" lon="14.852885578042516"><ele>32.8</ele><time>2026-04-18T17:01:03.83Z</time></trkpt><trkpt lat="53.4205542937124" lon="14.85306975475702"><ele>33.0</ele><time>2026-04-18T17:01:04.83Z</time></trkpt><trkpt lat="53.42058466298388" lon="14.853227625233195"><ele>33.25</ele><time>2026-04-18T17:01:05.83Z</time></trkpt><trkpt lat="53.42059714857679" lon="14.853385443942512"><ele>33.5</ele><time>2026-04-18T17:01:06.83Z</time></trkpt><trkpt lat="53.42062776449825" lon="14.853589653509074"><ele>33.75</ele><time>2026-04-18T17:01:07.83Z</time></trkpt><trkpt lat="53.42066042400857" lon="14.853806545245677"><ele>34.0</ele><time>2026-04-18T17:01:08.83Z</time></trkpt><trkpt lat="53.42067599311811" lon="14.854007761508626"><ele>34.0</ele><time>2026-04-18T17:01:09.83Z</time></trkpt><trkpt lat="53.420696801525544" lon="14.85418906396697"><ele>34.0</ele><time>2026-04-18T17:01:10.83Z</time></trkpt><trkpt lat="53.42072412326087" lon="14.85436478405929"><ele>34.0</ele><time>2026-04-18T17:01:11.83Z</time></trkpt><trkpt lat="53.42074848760378" lon="14.854541356549278"><ele>34.0</ele><time>2026-04-18T17:01:12.83Z</time></trkpt><trkpt lat="53.42076401294297" lon="14.854706799090458"><ele>34.0</ele><time>2026-04-18T17:01:13.83Z</time></trkpt><trkpt lat="53.42078541359091" lon="14.854872901894781"><ele>33.66666666666667</ele><time>2026-04-18T17:01:14.83Z</time></trkpt><trkpt lat="53.42080183946979" lon="14.85499752247994"><ele>33.333333333333336</ele><time>2026-04-18T17:01:15.83Z</time></trkpt><trkpt lat="53.42083417812622" lon="14.85514735400676"><ele>33.0</ele><time>2026-04-18T17:01:16.83Z</time></trkpt><trkpt lat="53.42086399487418" lon="14.855303025669132"><ele>32.666666666666664</ele><time>2026-04-18T17:01:17.83Z</time></trkpt><trkpt lat="53.42088498271418" lon="14.855446383142644"><ele>32.33333333333333</ele><time>2026-04-18T17:01:18.83Z</time></trkpt><trkpt lat="53.42089159275946" lon="14.855567570629413"><ele>32.0</ele><time>2026-04-18T17:01:19.83Z</time></trkpt><trkpt lat="53.420913419250056" lon="14.855701871265536"><ele>31.666666666666664</ele><time>2026-04-18T17:01:20.83Z</time></trkpt><trkpt lat="53.42093758169121" lon="14.855890123449521"><ele>31.333333333333332</ele><time>2026-04-18T17:01:22.83Z</time></trkpt><trkpt lat="53.42095472853281" lon="14.85604532449583"><ele>31.0</ele><time>2026-04-18T17:01:24.83Z</time></trkpt><trkpt lat="53.420946542062396" lon="14.856154695803301"><ele>30.666666666666664</ele><time>2026-04-18T17:01:26.83Z</time></trkpt><trkpt lat="53.42088206846801" lon="14.856200367657848"><ele>30.333333333333332</ele><time>2026-04-18T17:01:29.83Z</time></trkpt><trkpt lat="53.42082548796684" lon="14.856146228129244"><ele>30.0</ele><time>2026-04-18T17:01:31.83Z</time></trkpt><trkpt lat="53.42080821824005" lon="14.85602567379106"><ele>30.0</ele><time>2026-04-18T17:01:33.83Z</time></trkpt><trkpt lat="53.420814256058506" lon="14.855871666147058"><ele>30.0</ele><time>2026-04-18T17:01:35.83Z</time></trkpt><trkpt lat="53.42084898282992" lon="14.855783047213333"><ele>30.0</ele><time>2026-04-18T17:01:37.83Z</time></trkpt><trkpt lat="53.42082641848704" lon="14.855637540787669"><ele>30.0</ele><time>2026-04-18T17:02:09.83Z</time></trkpt><trkpt lat="53.42081459840033" lon="14.85551270417933"><ele>30.0</ele><time>2026-04-18T17:02:11.83Z</time></trkpt><trkpt lat="53.420823122901" lon="14.855380084470509"><ele>30.0</ele><time>2026-04-18T17:02:13.83Z</time></trkpt><trkpt lat="53.420855239891885" lon="14.855262265908525"><ele>30.5</ele><time>2026-04-18T17:02:15.83Z</time></trkpt><trkpt lat="53.42084606447111" lon="14.855043937611986"><ele>31.0</ele><time>2026-04-18T17:02:17.83Z</time></trkpt><trkpt lat="53.42081666535872" lon="14.8548596913229"><ele>31.5</ele><time>2026-04-18T17:02:18.83Z</time></trkpt><trkpt lat="53.42079610722962" lon="14.854683484298247"><ele>32.0</ele><time>2026-04-18T17:02:19.83Z</time></trkpt><trkpt lat="53.42076872022721" lon="14.854509946639903"><ele>31.999999999999996</ele><time>2026-04-18T17:02:20.83Z</time></trkpt><trkpt lat="53.42074713052796" lon="14.854389406069055"><ele>32.0</ele><time>2026-04-18T17:02:21.83Z</time></trkpt><trkpt lat="53.42072334810401" lon="14.854250803307824"><ele>32.0</ele><time>2026-04-18T17:02:22.83Z</time></trkpt><trkpt lat="53.42070948180801" lon="14.854123439225352"><ele>32.0</ele><time>2026-04-18T17:02:23.83Z</time></trkpt><trkpt lat="53.42070005388946" lon="14.854009241522267"><ele>31.999999999999996</ele><time>2026-04-18T17:02:24.83Z</time></trkpt><trkpt lat="53.420676027364664" lon="14.853885687175074"><ele>32.0</ele><time>2026-04-18T17:02:26.83Z</time></trkpt><trkpt lat="53.42068647536964" lon="14.853741032411191"><ele>32.33333333333333</ele><time>2026-04-18T17:02:30.83Z</time></trkpt><trkpt lat="53.420670928435" lon="14.853603268883479"><ele>32.666666666666664</ele><time>2026-04-18T17:02:32.83Z</time></trkpt><trkpt lat="53.42064937396187" lon="14.853452372220461"><ele>33.0</ele><time>2026-04-18T17:02:34.83Z</time></trkpt><trkpt lat="53.420638956483444" lon="14.85334655314782"><ele>33.333333333333336</ele><time>2026-04-18T17:02:35.83Z</time></trkpt><trkpt lat="53.42057211294353" lon="14.8533702492304"><ele>33.66666666666667</ele><time>2026-04-18T17:02:40.83Z</time></trkpt><trkpt lat="53.42059852963507" lon="14.853495459657836"><ele>34.0</ele><time>2026-04-18T17:02:43.827Z</time></trkpt><trkpt lat="53.42066485322345" lon="14.8535763689704"><ele>34.0</ele><time>2026-04-18T17:02:45.827Z</time></trkpt><trkpt lat="53.42069609269106" lon="14.85371214460283"><ele>34.0</ele><time>2026-04-18T17:02:47.827Z</time></trkpt><trkpt lat="53.420701154322174" lon="14.85388478192219"><ele>34.0</ele><time>2026-04-18T17:02:49.827Z</time></trkpt><trkpt lat="53.42071581502454" lon="14.854005550910598"><ele>34.0</ele><time>2026-04-18T17:02:50.828Z</time></trkpt><trkpt lat="53.42072843537766" lon="14.854144468320792"><ele>34.0</ele><time>2026-04-18T17:02:51.827Z</time></trkpt><trkpt lat="53.420748860115324" lon="14.854317869703875"><ele>33.66666666666667</ele><time>2026-04-18T17:02:52.827Z</time></trkpt><trkpt lat="53.42077194824758" lon="14.854496492375798"><ele>33.333333333333336</ele><time>2026-04-18T17:02:53.827Z</time></trkpt><trkpt lat="53.42079640755374" lon="14.854674252893641"><ele>33.0</ele><time>2026-04-18T17:02:54.827Z</time></trkpt><trkpt lat="53.42081029954298" lon="14.854784284866613"><ele>32.666666666666664</ele><time>2026-04-18T17:02:55.827Z</time></trkpt><trkpt lat="53.42082709921144" lon="14.854894697263594"><ele>32.33333333333333</ele><time>2026-04-18T17:02:56.827Z</time></trkpt><trkpt lat="53.4208331816809" lon="14.855003096710456"><ele>32.0</ele><time>2026-04-18T17:02:57.827Z</time></trkpt><trkpt lat="53.42085510062017" lon="14.855163034546981"><ele>31.666666666666664</ele><time>2026-04-18T17:02:59.827Z</time></trkpt><trkpt lat="53.42083565807884" lon="14.8553040594115"><ele>31.333333333333332</ele><time>2026-04-18T17:03:01.827Z</time></trkpt><trkpt lat="53.42080794548737" lon="14.855417705395471"><ele>31.0</ele><time>2026-04-18T17:03:03.827Z</time></trkpt><trkpt lat="53.42077219326062" lon="14.855595353545437"><ele>30.666666666666664</ele><time>2026-04-18T17:03:05.827Z</time></trkpt><trkpt lat="53.42077331808012" lon="14.855729362559087"><ele>30.333333333333332</ele><time>2026-04-18T17:03:07.827Z</time></trkpt><trkpt lat="53.42082163159029" lon="14.855834606139629"><ele>30.0</ele><time>2026-04-18T17:03:09.827Z</time></trkpt><trkpt lat="53.420874446908115" lon="14.85589294581266"><ele>30.0</ele><time>2026-04-18T17:03:11.827Z</time></trkpt><trkpt lat="53.420948518124455" lon="14.855867444482568"><ele>30.0</ele><time>2026-04-18T17:04:13.827Z</time></trkpt><trkpt lat="53.42086435564975" lon="14.855873120055803"><ele>30.0</ele><time>2026-04-18T17:10:00.819Z</time></trkpt><trkpt lat="53.4210015676869" lon="14.855877603629677"><ele>30.0</ele><time>2026-04-18T17:12:18.817Z</time></trkpt><trkpt lat="53.42093667179091" lon="14.855928785243389"><ele>30.0</ele><time>2026-04-18T17:13:08.817Z</time></trkpt><trkpt lat="53.42087874989615" lon="14.85586338571792"><ele>30.0</ele><time>2026-04-18T17:15:00.868Z</time></trkpt><trkpt lat="53.420903062618805" lon="14.856020028515942"><ele>30.0</ele><time>2026-04-18T17:16:54.868Z</time></trkpt><trkpt lat="53.42083233528146" lon="14.856051507664487"><ele>30.0</ele><time>2026-04-18T17:16:57.868Z</time></trkpt><trkpt lat="53.42076878540844" lon="14.856029076559814"><ele>30.0</ele><time>2026-04-18T17:16:59.868Z</time></trkpt><trkpt lat="53.42069029879401" lon="14.855982160030234"><ele>30.0</ele><time>2026-04-18T17:17:01.869Z</time></trkpt><trkpt lat="53.420622082898454" lon="14.855922549055464"><ele>30.0</ele><time>2026-04-18T17:17:03.869Z</time></trkpt><trkpt lat="53.42055438767777" lon="14.855892811725967"><ele>30.0</ele><time>2026-04-18T17:17:05.869Z</time></trkpt><trkpt lat="53.42047174242524" lon="14.8558543893719"><ele>30.333333333333332</ele><time>2026-04-18T17:17:07.869Z</time></trkpt><trkpt lat="53.42040930586727" lon="14.855801376698976"><ele>30.666666666666664</ele><time>2026-04-18T17:17:10.869Z</time></trkpt><trkpt lat="53.420330182228334" lon="14.855758506609245"><ele>31.0</ele><time>2026-04-18T17:17:13.869Z</time></trkpt><trkpt lat="53.42026356556813" lon="14.855710265524642"><ele>31.333333333333332</ele><time>2026-04-18T17:17:15.869Z</time></trkpt><trkpt lat="53.42020870184811" lon="14.855649634296578"><ele>31.666666666666664</ele><time>2026-04-18T17:17:17.869Z</time></trkpt><trkpt lat="53.42013404825233" lon="14.855633173168977"><ele>32.0</ele><time>2026-04-18T17:17:20.869Z</time></trkpt><trkpt lat="53.42004567177219" lon="14.855588045016269"><ele>32.0</ele><time>2026-04-18T17:17:46.866Z</time></trkpt><trkpt lat="53.41998378716333" lon="14.85551903900228"><ele>31.999999999999996</ele><time>2026-04-18T17:17:53.866Z</time></trkpt><trkpt lat="53.41993100877094" lon="14.855458715525328"><ele>32.0</ele><time>2026-04-18T17:17:59.866Z</time></trkpt><trkpt lat="53.41986948974479" lon="14.855435111903248"><ele>32.0</ele><time>2026-04-18T17:18:02.866Z</time></trkpt><trkpt lat="53.41980131514475" lon="14.855401239487167"><ele>31.999999999999996</ele><time>2026-04-18T17:18:05.866Z</time></trkpt><trkpt lat="53.41973427457722" lon="14.855356816527621"><ele>32.0</ele><time>2026-04-18T17:18:08.866Z</time></trkpt><trkpt lat="53.41966282846856" lon="14.855336154007887"><ele>32.0</ele><time>2026-04-18T17:18:11.866Z</time></trkpt><trkpt lat="53.41960486584337" lon="14.855267003311598"><ele>31.999999999999996</ele><time>2026-04-18T17:18:14.866Z</time></trkpt><trkpt lat="53.4195437472161" lon="14.85521772262008"><ele>32.0</ele><time>2026-04-18T17:18:17.866Z</time></trkpt><trkpt lat="53.41949183468488" lon="14.855153447744572"><ele>32.0</ele><time>2026-04-18T17:18:20.866Z</time></trkpt><trkpt lat="53.419438879287526" lon="14.855094487438409"><ele>32.0</ele><time>2026-04-18T17:18:22.866Z</time></trkpt><trkpt lat="53.41935295789311" lon="14.85501449801455"><ele>31.999999999999996</ele><time>2026-04-18T17:18:26.866Z</time></trkpt><trkpt lat="53.41926205426204" lon="14.854979732706816"><ele>32.0</ele><time>2026-04-18T17:18:29.866Z</time></trkpt><trkpt lat="53.4191715172087" lon="14.854955372239765"><ele>31.999999999999996</ele><time>2026-04-18T17:18:32.866Z</time></trkpt><trkpt lat="53.41908438663507" lon="14.854954161656412"><ele>32.0</ele><time>2026-04-18T17:18:35.866Z</time></trkpt><trkpt lat="53.41900130803365" lon="14.85491115072656"><ele>32.0</ele><time>2026-04-18T17:18:38.866Z</time></trkpt><trkpt lat="53.4189268861502" lon="14.854845592533364"><ele>32.0</ele><time>2026-04-18T17:18:41.866Z</time></trkpt><trkpt lat="53.4188451869167" lon="14.854838565515818"><ele>31.999999999999996</ele><time>2026-04-18T17:18:44.866Z</time></trkpt><trkpt lat="53.41875585026715" lon="14.854844994411618"><ele>32.0</ele><time>2026-04-18T17:18:47.866Z</time></trkpt><trkpt lat="53.418691849668924" lon="14.854841444544508"><ele>31.999999999999996</ele><time>2026-04-18T17:18:49.866Z</time></trkpt><trkpt lat="53.41861431572567" lon="14.854771363955226"><ele>32.0</ele><time>2026-04-18T17:18:50.866Z</time></trkpt><trkpt lat="53.418549163473884" lon="14.854754076791362"><ele>32.0</ele><time>2026-04-18T17:18:52.867Z</time></trkpt><trkpt lat="53.41848215155414" lon="14.854751343067687"><ele>32.0</ele><time>2026-04-18T17:18:54.867Z</time></trkpt><trkpt lat="53.41840998983066" lon="14.854746713778004"><ele>31.999999999999996</ele><time>2026-04-18T17:18:56.867Z</time></trkpt><trkpt lat="53.418321312423345" lon="14.854752792306098"><ele>32.0</ele><time>2026-04-18T17:18:59.867Z</time></trkpt><trkpt lat="53.41824163944136" lon="14.854771773612402"><ele>31.999999999999996</ele><time>2026-04-18T17:19:01.867Z</time></trkpt><trkpt lat="53.418157963732405" lon="14.854774408093414"><ele>32.0</ele><time>2026-04-18T17:19:03.867Z</time></trkpt><trkpt lat="53.418072099776474" lon="14.854743159264324"><ele>32.0</ele><time>2026-04-18T17:19:05.867Z</time></trkpt><trkpt lat="53.418001663101094" lon="14.854657237492964"><ele>32.0</ele><time>2026-04-18T17:19:08.867Z</time></trkpt><trkpt lat="53.41794694874715" lon="14.854541902331492"><ele>31.999999999999996</ele><time>2026-04-18T17:19:12.867Z</time></trkpt><trkpt lat="53.41785421581592" lon="14.854522644693159"><ele>32.0</ele><time>2026-04-18T17:19:14.867Z</time></trkpt><trkpt lat="53.41774430910602" lon="14.854627291879712"><ele>32.4</ele><time>2026-04-18T17:19:17.867Z</time></trkpt><trkpt lat="53.417663350610475" lon="14.854653753309265"><ele>32.800000000000004</ele><time>2026-04-18T17:19:18.867Z</time></trkpt><trkpt lat="53.417561983214945" lon="14.85474007505715"><ele>33.2</ele><time>2026-04-18T17:19:20.867Z</time></trkpt><trkpt lat="53.41746130016955" lon="14.854841189182418"><ele>33.6</ele><time>2026-04-18T17:19:22.867Z</time></trkpt><trkpt lat="53.417388342924724" lon="14.854938504382014"><ele>34.0</ele><time>2026-04-18T17:19:24.867Z</time></trkpt><trkpt lat="53.41729454234153" lon="14.8550173863788"><ele>33.99999999999999</ele><time>2026-04-18T17:19:26.867Z</time></trkpt><trkpt lat="53.41724020179042" lon="14.855073327222769"><ele>34.0</ele><time>2026-04-18T17:19:27.867Z</time></trkpt><trkpt lat="53.417171697458805" lon="14.855126713277809"><ele>34.0</ele><time>2026-04-18T17:19:28.867Z</time></trkpt><trkpt lat="53.417109381187224" lon="14.85518502249843"><ele>34.0</ele><time>2026-04-18T17:19:29.863Z</time></trkpt><trkpt lat="53.41705187164834" lon="14.855245523543966"><ele>34.0</ele><time>2026-04-18T17:19:30.863Z</time></trkpt><trkpt lat="53.41699250973509" lon="14.855301947194606"><ele>33.99999999999999</ele><time>2026-04-18T17:19:31.863Z</time></trkpt><trkpt lat="53.416934377783534" lon="14.855357492913107"><ele>34.0</ele><time>2026-04-18T17:19:32.864Z</time></trkpt><trkpt lat="53.41682998787431" lon="14.85547646388855"><ele>34.5</ele><time>2026-04-18T17:19:34.864Z</time></trkpt><trkpt lat="53.416775609822025" lon="14.855529755697738"><ele>35.0</ele><time>2026-04-18T17:19:35.864Z</time></trkpt><trkpt lat="53.41671973579951" lon="14.855589927629184"><ele>35.5</ele><time>2026-04-18T17:19:36.864Z</time></trkpt><trkpt lat="53.41666688550766" lon="14.855661286136167"><ele>36.0</ele><time>2026-04-18T17:19:37.864Z</time></trkpt><trkpt lat="53.416612735622394" lon="14.855760500388552"><ele>36.5</ele><time>2026-04-18T17:19:38.864Z</time></trkpt><trkpt lat="53.41655721910657" lon="14.855831225262838"><ele>37.0</ele><time>2026-04-18T17:19:39.864Z</time></trkpt><trkpt lat="53.416475987332" lon="14.855943664071363"><ele>36.800000000000004</ele><time>2026-04-18T17:19:40.864Z</time></trkpt><trkpt lat="53.416381904725995" lon="14.856049542232343"><ele>36.6</ele><time>2026-04-18T17:19:41.863Z</time></trkpt><trkpt lat="53.41628941633595" lon="14.856143869582594"><ele>36.400000000000006</ele><time>2026-04-18T17:19:42.864Z</time></trkpt><trkpt lat="53.41620456213962" lon="14.856244063084038"><ele>36.2</ele><time>2026-04-18T17:19:43.864Z</time></trkpt><trkpt lat="53.41611299435073" lon="14.856345743695615"><ele>36.0</ele><time>2026-04-18T17:19:44.864Z</time></trkpt><trkpt lat="53.41601229028379" lon="14.856425591778187"><ele>36.0</ele><time>2026-04-18T17:19:45.864Z</time></trkpt><trkpt lat="53.41591254637506" lon="14.856515533373901"><ele>36.0</ele><time>2026-04-18T17:19:46.864Z</time></trkpt><trkpt lat="53.415808691686415" lon="14.856615662321474"><ele>36.0</ele><time>2026-04-18T17:19:47.864Z</time></trkpt><trkpt lat="53.41571208210929" lon="14.856694170653544"><ele>36.0</ele><time>2026-04-18T17:19:48.864Z</time></trkpt><trkpt lat="53.41560485449572" lon="14.856776623354207"><ele>35.75</ele><time>2026-04-18T17:19:49.864Z</time></trkpt><trkpt lat="53.415498121215784" lon="14.856823413339201"><ele>35.5</ele><time>2026-04-18T17:19:50.864Z</time></trkpt><trkpt lat="53.41539277539894" lon="14.856871214737028"><ele>35.25</ele><time>2026-04-18T17:19:51.864Z</time></trkpt><trkpt lat="53.41527871642144" lon="14.856898908721682"><ele>35.0</ele><time>2026-04-18T17:19:52.864Z</time></trkpt><trkpt lat="53.41516400101359" lon="14.856925919903029"><ele>34.8</ele><time>2026-04-18T17:19:53.864Z</time></trkpt><trkpt lat="53.415067002160185" lon="14.856971342931224"><ele>34.6</ele><time>2026-04-18T17:19:54.864Z</time></trkpt><trkpt lat="53.414972378189" lon="14.857007171696107"><ele>34.4</ele><time>2026-04-18T17:19:55.864Z</time></trkpt><trkpt lat="53.414864555195194" lon="14.857028722617102"><ele>34.2</ele><time>2026-04-18T17:19:56.864Z</time></trkpt><trkpt lat="53.41477595794504" lon="14.85702326883602"><ele>34.0</ele><time>2026-04-18T17:19:57.864Z</time></trkpt><trkpt lat="53.41468108523461" lon="14.85702187043848"><ele>34.333333333333336</ele><time>2026-04-18T17:19:58.864Z</time></trkpt><trkpt lat="53.414605440382694" lon="14.857019814859129"><ele>34.66666666666667</ele><time>2026-04-18T17:19:59.864Z</time></trkpt><trkpt lat="53.41454007676134" lon="14.857013412653506"><ele>35.0</ele><time>2026-04-18T17:20:00.864Z</time></trkpt><trkpt lat="53.41444973085237" lon="14.85702325212023"><ele>35.333333333333336</ele><time>2026-04-18T17:20:01.864Z</time></trkpt><trkpt lat="53.414345781071944" lon="14.857031772775272"><ele>35.666666666666664</ele><time>2026-04-18T17:20:02.864Z</time></trkpt><trkpt lat="53.41423540094484" lon="14.857036598929026"><ele>36.0</ele><time>2026-04-18T17:20:03.864Z</time></trkpt><trkpt lat="53.41411541172283" lon="14.8570355796997"><ele>36.0</ele><time>2026-04-18T17:20:04.864Z</time></trkpt><trkpt lat="53.41398564528384" lon="14.857037991502013"><ele>36.0</ele><time>2026-04-18T17:20:05.864Z</time></trkpt><trkpt lat="53.41385989569437" lon="14.85702835589883"><ele>36.0</ele><time>2026-04-18T17:20:06.864Z</time></trkpt><trkpt lat="53.413743489293566" lon="14.857010660144907"><ele>36.0</ele><time>2026-04-18T17:20:07.864Z</time></trkpt><trkpt lat="53.41365060219755" lon="14.857008938582545"><ele>36.2</ele><time>2026-04-18T17:20:08.864Z</time></trkpt><trkpt lat="53.41354770596231" lon="14.857013230654907"><ele>36.400000000000006</ele><time>2026-04-18T17:20:09.864Z</time></trkpt><trkpt lat="53.413452594043356" lon="14.85703720618737"><ele>36.6</ele><time>2026-04-18T17:20:10.864Z</time></trkpt><trkpt lat="53.41337443592679" lon="14.857071563061544"><ele>36.800000000000004</ele><time>2026-04-18T17:20:11.864Z</time></trkpt><trkpt lat="53.413272937173126" lon="14.857114699604717"><ele>37.0</ele><time>2026-04-18T17:20:12.864Z</time></trkpt><trkpt lat="53.41317730831833" lon="14.857159150802227"><ele>37.0</ele><time>2026-04-18T17:20:13.864Z</time></trkpt><trkpt lat="53.41308115368711" lon="14.857217983855984"><ele>37.0</ele><time>2026-04-18T17:20:14.864Z</time></trkpt><trkpt lat="53.412984596560364" lon="14.857307551533854"><ele>37.0</ele><time>2026-04-18T17:20:15.864Z</time></trkpt><trkpt lat="53.412885909254214" lon="14.85740169255505"><ele>37.0</ele><time>2026-04-18T17:20:16.864Z</time></trkpt><trkpt lat="53.412798778201086" lon="14.857487164531857"><ele>37.0</ele><time>2026-04-18T17:20:17.864Z</time></trkpt><trkpt lat="53.4127108550091" lon="14.857551288478351"><ele>36.833333333333336</ele><time>2026-04-18T17:20:18.864Z</time></trkpt><trkpt lat="53.412638375338524" lon="14.85761312492269"><ele>36.66666666666667</ele><time>2026-04-18T17:20:19.864Z</time></trkpt><trkpt lat="53.41257258180056" lon="14.857633828445248"><ele>36.5</ele><time>2026-04-18T17:20:21.864Z</time></trkpt><trkpt lat="53.41247977345867" lon="14.857687707313792"><ele>36.333333333333336</ele><time>2026-04-18T17:20:25.864Z</time></trkpt><trkpt lat="53.41238619166568" lon="14.857710297813156"><ele>36.166666666666664</ele><time>2026-04-18T17:20:27.864Z</time></trkpt><trkpt lat="53.41248317808079" lon="14.857741288895262"><ele>36.0</ele><time>2026-04-18T17:20:39.865Z</time></trkpt><trkpt lat="53.41257746762796" lon="14.857676944164487"><ele>36.0</ele><time>2026-04-18T17:20:40.865Z</time></trkpt><trkpt lat="53.41267438963542" lon="14.857622030159673"><ele>36.0</ele><time>2026-04-18T17:20:41.865Z</time></trkpt><trkpt lat="53.412756807547595" lon="14.857533128769964"><ele>36.0</ele><time>2026-04-18T17:20:43.865Z</time></trkpt><trkpt lat="53.412814182657335" lon="14.857485032962387"><ele>36.0</ele><time>2026-04-18T17:20:45.865Z</time></trkpt><trkpt lat="53.412835886859746" lon="14.857608153847051"><ele>36.0</ele><time>2026-04-18T17:20:49.865Z</time></trkpt><trkpt lat="53.412787792893425" lon="14.857699984002574"><ele>36.0</ele><time>2026-04-18T17:20:51.865Z</time></trkpt><trkpt lat="53.4127104185146" lon="14.857851998315907"><ele>35.833333333333336</ele><time>2026-04-18T17:20:53.865Z</time></trkpt><trkpt lat="53.412673858894856" lon="14.857940039099116"><ele>35.666666666666664</ele><time>2026-04-18T17:20:54.865Z</time></trkpt><trkpt lat="53.412602041378065" lon="14.8580555764215"><ele>35.5</ele><time>2026-04-18T17:20:56.865Z</time></trkpt><trkpt lat="53.412550379581596" lon="14.85815871278686"><ele>35.33333333333333</ele><time>2026-04-18T17:20:58.865Z</time></trkpt><trkpt lat="53.41250785814546" lon="14.85826005327351"><ele>35.166666666666664</ele><time>2026-04-18T17:21:00.865Z</time></trkpt><trkpt lat="53.41247639437654" lon="14.858352783077983"><ele>35.0</ele><time>2026-04-18T17:21:02.865Z</time></trkpt><trkpt lat="53.412405402903815" lon="14.858495403276638"><ele>34.4</ele><time>2026-04-18T17:21:04.865Z</time></trkpt><trkpt lat="53.41233519219715" lon="14.858626401598078"><ele>33.8</ele><time>2026-04-18T17:21:06.865Z</time></trkpt><trkpt lat="53.41228919186235" lon="14.85871195231693"><ele>33.2</ele><time>2026-04-18T17:21:07.865Z</time></trkpt><trkpt lat="53.41221093749333" lon="14.858863608926875"><ele>32.6</ele><time>2026-04-18T17:21:08.865Z</time></trkpt><trkpt lat="53.41215482383021" lon="14.85897792484988"><ele>32.0</ele><time>2026-04-18T17:21:09.865Z</time></trkpt><trkpt lat="53.41210360775303" lon="14.859103829516139"><ele>31.999999999999996</ele><time>2026-04-18T17:21:11.865Z</time></trkpt><trkpt lat="53.41206518266869" lon="14.859209368435165"><ele>32.0</ele><time>2026-04-18T17:21:12.865Z</time></trkpt><trkpt lat="53.412001782811096" lon="14.859308446543869"><ele>32.0</ele><time>2026-04-18T17:21:14.865Z</time></trkpt><trkpt lat="53.411960098787674" lon="14.85939770454543"><ele>32.0</ele><time>2026-04-18T17:21:17.865Z</time></trkpt><trkpt lat="53.41190169704702" lon="14.859499240049571"><ele>31.999999999999996</ele><time>2026-04-18T17:21:20.865Z</time></trkpt><trkpt lat="53.41185724282893" lon="14.859594118491582"><ele>32.0</ele><time>2026-04-18T17:21:41.862Z</time></trkpt><trkpt lat="53.41181251394048" lon="14.85968026894374"><ele>31.57142857142857</ele><time>2026-04-18T17:21:43.862Z</time></trkpt><trkpt lat="53.411758374943744" lon="14.859774233742447"><ele>31.14285714285714</ele><time>2026-04-18T17:21:47.862Z</time></trkpt><trkpt lat="53.411702736279864" lon="14.859862000381646"><ele>30.714285714285715</ele><time>2026-04-18T17:21:52.862Z</time></trkpt><trkpt lat="53.411646155901245" lon="14.85995603564166"><ele>30.285714285714285</ele><time>2026-04-18T17:21:55.862Z</time></trkpt><trkpt lat="53.41160555375419" lon="14.86004224325205"><ele>29.857142857142858</ele><time>2026-04-18T17:21:58.862Z</time></trkpt><trkpt lat="53.41156068459455" lon="14.860142757339766"><ele>29.42857142857143</ele><time>2026-04-18T17:22:02.862Z</time></trkpt><trkpt lat="53.41151433824261" lon="14.860239821502741"><ele>29.000000000000004</ele><time>2026-04-18T17:22:05.862Z</time></trkpt><trkpt lat="53.41146609464239" lon="14.860333362105095"><ele>28.999999999999996</ele><time>2026-04-18T17:22:08.862Z</time></trkpt><trkpt lat="53.41143830069632" lon="14.86043064017145"><ele>29.0</ele><time>2026-04-18T17:22:10.862Z</time></trkpt><trkpt lat="53.411400412361424" lon="14.8605278001524"><ele>29.0</ele><time>2026-04-18T17:22:12.863Z</time></trkpt><trkpt lat="53.41136810715526" lon="14.860620189462466"><ele>29.0</ele><time>2026-04-18T17:22:14.863Z</time></trkpt><trkpt lat="53.41133267942544" lon="14.860730486179687"><ele>28.999999999999996</ele><time>2026-04-18T17:22:16.863Z</time></trkpt><trkpt lat="53.41128879130077" lon="14.860838094872035"><ele>29.0</ele><time>2026-04-18T17:22:18.863Z</time></trkpt><trkpt lat="53.41124862086401" lon="14.860998228537914"><ele>29.799999999999997</ele><time>2026-04-18T17:22:20.863Z</time></trkpt><trkpt lat="53.41121014636369" lon="14.8611347127124"><ele>30.599999999999998</ele><time>2026-04-18T17:22:22.863Z</time></trkpt><trkpt lat="53.41116507739555" lon="14.86127909528073"><ele>31.4</ele><time>2026-04-18T17:22:25.863Z</time></trkpt><trkpt lat="53.41113177079679" lon="14.861415065820502"><ele>32.199999999999996</ele><time>2026-04-18T17:22:27.863Z</time></trkpt><trkpt lat="53.41107713629165" lon="14.861588753096198"><ele>33.0</ele><time>2026-04-18T17:22:29.863Z</time></trkpt><trkpt lat="53.41103767518803" lon="14.861687741277589"><ele>33.166666666666664</ele><time>2026-04-18T17:22:30.863Z</time></trkpt><trkpt lat="53.41100303876877" lon="14.86179612201732"><ele>33.333333333333336</ele><time>2026-04-18T17:22:31.863Z</time></trkpt><trkpt lat="53.41095343364442" lon="14.86189456202871"><ele>33.5</ele><time>2026-04-18T17:22:32.863Z</time></trkpt><trkpt lat="53.41089513622447" lon="14.86201852598173"><ele>33.66666666666667</ele><time>2026-04-18T17:22:33.863Z</time></trkpt><trkpt lat="53.41084876330262" lon="14.86211204350205"><ele>33.833333333333336</ele><time>2026-04-18T17:22:34.863Z</time></trkpt><trkpt lat="53.41078990903689" lon="14.86223606168433"><ele>34.0</ele><time>2026-04-18T17:22:36.863Z</time></trkpt><trkpt lat="53.41072399400371" lon="14.862360091482973"><ele>34.0</ele><time>2026-04-18T17:22:38.863Z</time></trkpt><trkpt lat="53.41065918592462" lon="14.86242054426755"><ele>34.0</ele><time>2026-04-18T17:22:41.863Z</time></trkpt><trkpt lat="53.41057659589681" lon="14.862324930338579"><ele>34.0</ele><time>2026-04-18T17:22:49.863Z</time></trkpt><trkpt lat="53.41046069082098" lon="14.862103514045542"><ele>34.0</ele><time>2026-04-18T17:22:51.863Z</time></trkpt><trkpt lat="53.41038723156893" lon="14.86195687463042"><ele>34.4</ele><time>2026-04-18T17:22:52.863Z</time></trkpt><trkpt lat="53.410309479752364" lon="14.861828750814167"><ele>34.8</ele><time>2026-04-18T17:22:53.863Z</time></trkpt><trkpt lat="53.41023357126741" lon="14.861699012436256"><ele>35.2</ele><time>2026-04-18T17:22:54.863Z</time></trkpt><trkpt lat="53.410172121816565" lon="14.861615292670708"><ele>35.6</ele><time>2026-04-18T17:22:55.863Z</time></trkpt><trkpt lat="53.4101244297833" lon="14.861535552479182"><ele>36.0</ele><time>2026-04-18T17:22:56.863Z</time></trkpt><trkpt lat="53.4100335494579" lon="14.86143466536926"><ele>35.2</ele><time>2026-04-18T17:22:58.863Z</time></trkpt><trkpt lat="53.409959497163" lon="14.861351509211616"><ele>34.400000000000006</ele><time>2026-04-18T17:23:00.863Z</time></trkpt><trkpt lat="53.40987013927029" lon="14.861216284609894"><ele>33.6</ele><time>2026-04-18T17:23:02.863Z</time></trkpt><trkpt lat="53.4097710819442" lon="14.861088700232232"><ele>32.800000000000004</ele><time>2026-04-18T17:23:04.863Z</time></trkpt><trkpt lat="53.40971592522489" lon="14.861012652915054"><ele>32.0</ele><time>2026-04-18T17:23:05.863Z</time></trkpt><trkpt lat="53.40966281366094" lon="14.860931696796499"><ele>30.999999999999996</ele><time>2026-04-18T17:23:06.863Z</time></trkpt><trkpt lat="53.409605594107084" lon="14.860838751455203"><ele>30.0</ele><time>2026-04-18T17:23:07.863Z</time></trkpt><trkpt lat="53.40953560732354" lon="14.860739928404602"><ele>29.0</ele><time>2026-04-18T17:23:08.863Z</time></trkpt><trkpt lat="53.40947257064219" lon="14.86065034609556"><ele>28.0</ele><time>2026-04-18T17:23:09.863Z</time></trkpt><trkpt lat="53.4094216654138" lon="14.860570078635861"><ele>26.999999999999996</ele><time>2026-04-18T17:23:10.863Z</time></trkpt><trkpt lat="53.409343414747354" lon="14.860436735060544"><ele>26.0</ele><time>2026-04-18T17:23:12.863Z</time></trkpt><trkpt lat="53.4092626938115" lon="14.860353557520808"><ele>26.0</ele><time>2026-04-18T17:23:14.863Z</time></trkpt><trkpt lat="53.409190268473274" lon="14.860246857906056"><ele>26.0</ele><time>2026-04-18T17:23:16.863Z</time></trkpt><trkpt lat="53.409097195635006" lon="14.86009722081379"><ele>26.0</ele><time>2026-04-18T17:23:18.863Z</time></trkpt><trkpt lat="53.409039253130345" lon="14.860022340734517"><ele>26.0</ele><time>2026-04-18T17:23:19.863Z</time></trkpt><trkpt lat="53.40897880514487" lon="14.859930696092237"><ele>26.0</ele><time>2026-04-18T17:23:20.863Z</time></trkpt><trkpt lat="53.40890266076491" lon="14.859865615047628"><ele>27.6</ele><time>2026-04-18T17:23:21.863Z</time></trkpt><trkpt lat="53.40880626742224" lon="14.859783422124549"><ele>29.200000000000003</ele><time>2026-04-18T17:23:22.863Z</time></trkpt><trkpt lat="53.408722328810576" lon="14.859649257523214"><ele>30.799999999999997</ele><time>2026-04-18T17:23:23.863Z</time></trkpt><trkpt lat="53.408657834325815" lon="14.859542767993075"><ele>32.4</ele><time>2026-04-18T17:23:24.863Z</time></trkpt><trkpt lat="53.408597599296186" lon="14.859432367601164"><ele>34.0</ele><time>2026-04-18T17:23:25.863Z</time></trkpt><trkpt lat="53.40848936940616" lon="14.859267416253415"><ele>34.75</ele><time>2026-04-18T17:23:27.863Z</time></trkpt><trkpt lat="53.40839757649702" lon="14.859111860496496"><ele>35.5</ele><time>2026-04-18T17:23:28.863Z</time></trkpt><trkpt lat="53.408276461645364" lon="14.858904919573837"><ele>36.25</ele><time>2026-04-18T17:23:29.863Z</time></trkpt><trkpt lat="53.40818207312452" lon="14.858847598976503"><ele>37.0</ele><time>2026-04-18T17:23:30.863Z</time></trkpt><trkpt lat="53.40808826118468" lon="14.858781201725703"><ele>37.0</ele><time>2026-04-18T17:23:31.863Z</time></trkpt><trkpt lat="53.40798654459704" lon="14.85870987381778"><ele>37.0</ele><time>2026-04-18T17:23:32.863Z</time></trkpt><trkpt lat="53.407850417836094" lon="14.858630015859509"><ele>37.0</ele><time>2026-04-18T17:23:33.863Z</time></trkpt><trkpt lat="53.407706192579006" lon="14.858558049533418"><ele>37.0</ele><time>2026-04-18T17:23:34.863Z</time></trkpt><trkpt lat="53.407547675100446" lon="14.858482192309834"><ele>36.5</ele><time>2026-04-18T17:23:35.863Z</time></trkpt><trkpt lat="53.407405709834705" lon="14.858442441232542"><ele>36.0</ele><time>2026-04-18T17:23:36.863Z</time></trkpt><trkpt lat="53.40727663793249" lon="14.85840225111951"><ele>35.5</ele><time>2026-04-18T17:23:37.863Z</time></trkpt><trkpt lat="53.40716241827664" lon="14.858368021912968"><ele>35.0</ele><time>2026-04-18T17:23:38.863Z</time></trkpt><trkpt lat="53.40706407335334" lon="14.858335506740282"><ele>35.0</ele><time>2026-04-18T17:23:39.863Z</time></trkpt><trkpt lat="53.40696011347741" lon="14.858299828705025"><ele>35.0</ele><time>2026-04-18T17:23:40.863Z</time></trkpt><trkpt lat="53.40686729825265" lon="14.858253152187412"><ele>35.0</ele><time>2026-04-18T17:23:41.861Z</time></trkpt><trkpt lat="53.40675433687671" lon="14.85822943880631"><ele>35.0</ele><time>2026-04-18T17:23:42.86Z</time></trkpt><trkpt lat="53.406638780030754" lon="14.858192759552757"><ele>35.0</ele><time>2026-04-18T17:23:43.86Z</time></trkpt><trkpt lat="53.406522768552705" lon="14.858144314704779"><ele>35.0</ele><time>2026-04-18T17:23:44.861Z</time></trkpt><trkpt lat="53.40640529154431" lon="14.85807224696945"><ele>35.0</ele><time>2026-04-18T17:23:45.86Z</time></trkpt><trkpt lat="53.40627712041741" lon="14.858014145076083"><ele>35.0</ele><time>2026-04-18T17:23:46.86Z</time></trkpt><trkpt lat="53.40613460753887" lon="14.857945638026097"><ele>35.0</ele><time>2026-04-18T17:23:47.861Z</time></trkpt><trkpt lat="53.40600051629407" lon="14.857877754714815"><ele>35.0</ele><time>2026-04-18T17:23:48.861Z</time></trkpt><trkpt lat="53.40586387406502" lon="14.85780671385528"><ele>35.0</ele><time>2026-04-18T17:23:49.861Z</time></trkpt><trkpt lat="53.40575388587343" lon="14.857749498595114"><ele>35.0</ele><time>2026-04-18T17:23:50.861Z</time></trkpt><trkpt lat="53.405638424970014" lon="14.857689436593313"><ele>35.0</ele><time>2026-04-18T17:23:51.861Z</time></trkpt><trkpt lat="53.40551268261971" lon="14.857623214481341"><ele>35.0</ele><time>2026-04-18T17:23:52.861Z</time></trkpt><trkpt lat="53.40538302689184" lon="14.857581521575508"><ele>35.0</ele><time>2026-04-18T17:23:53.861Z</time></trkpt><trkpt lat="53.40526845958448" lon="14.857516474417361"><ele>35.0</ele><time>2026-04-18T17:23:54.861Z</time></trkpt><trkpt lat="53.405158779087394" lon="14.857461859892076"><ele>35.0</ele><time>2026-04-18T17:23:55.861Z</time></trkpt><trkpt lat="53.405046200622614" lon="14.857399823327704"><ele>35.0</ele><time>2026-04-18T17:23:56.861Z</time></trkpt><trkpt lat="53.404913851721034" lon="14.857333335394436"><ele>35.0</ele><time>2026-04-18T17:23:57.861Z</time></trkpt><trkpt lat="53.404809845512446" lon="14.857286090202685"><ele>35.0</ele><time>2026-04-18T17:23:58.861Z</time></trkpt><trkpt lat="53.404707185428705" lon="14.857252900887937"><ele>35.0</ele><time>2026-04-18T17:23:59.861Z</time></trkpt><trkpt lat="53.404587341839765" lon="14.857241282822624"><ele>34.666666666666664</ele><time>2026-04-18T17:24:00.861Z</time></trkpt><trkpt lat="53.404424789605855" lon="14.85731865569822"><ele>34.333333333333336</ele><time>2026-04-18T17:24:01.861Z</time></trkpt><trkpt lat="53.40425794096869" lon="14.857357497702756"><ele>34.0</ele><time>2026-04-18T17:24:02.861Z</time></trkpt><trkpt lat="53.40409689948556" lon="14.857439710230622"><ele>34.0</ele><time>2026-04-18T17:24:03.861Z</time></trkpt><trkpt lat="53.40396613899724" lon="14.857495715406978"><ele>34.0</ele><time>2026-04-18T17:24:04.861Z</time></trkpt><trkpt lat="53.403822127348406" lon="14.8575435766091"><ele>34.0</ele><time>2026-04-18T17:24:05.861Z</time></trkpt><trkpt lat="53.403678616165195" lon="14.857584827914954"><ele>34.0</ele><time>2026-04-18T17:24:06.861Z</time></trkpt><trkpt lat="53.40353823490249" lon="14.85763567026813"><ele>33.5</ele><time>2026-04-18T17:24:07.861Z</time></trkpt><trkpt lat="53.40339294585802" lon="14.857682854792438"><ele>33.0</ele><time>2026-04-18T17:24:08.861Z</time></trkpt><trkpt lat="53.40326080787281" lon="14.857735271220536"><ele>32.5</ele><time>2026-04-18T17:24:09.861Z</time></trkpt><trkpt lat="53.40312414814286" lon="14.857785918085542"><ele>32.0</ele><time>2026-04-18T17:24:10.861Z</time></trkpt><trkpt lat="53.403013898293075" lon="14.857835163005374"><ele>31.25</ele><time>2026-04-18T17:24:11.861Z</time></trkpt><trkpt lat="53.40289867396842" lon="14.857874053200927"><ele>30.5</ele><time>2026-04-18T17:24:12.861Z</time></trkpt><trkpt lat="53.40279576432328" lon="14.857906472280874"><ele>29.75</ele><time>2026-04-18T17:24:13.861Z</time></trkpt><trkpt lat="53.4026783990618" lon="14.857946855632465"><ele>29.0</ele><time>2026-04-18T17:24:14.861Z</time></trkpt><trkpt lat="53.40256365439663" lon="14.857995278802566"><ele>29.0</ele><time>2026-04-18T17:24:15.861Z</time></trkpt><trkpt lat="53.402450790208086" lon="14.858026224933042"><ele>29.0</ele><time>2026-04-18T17:24:16.861Z</time></trkpt><trkpt lat="53.4023515489346" lon="14.858061659779173"><ele>29.0</ele><time>2026-04-18T17:24:17.861Z</time></trkpt><trkpt lat="53.40224947222509" lon="14.85809665948103"><ele>29.0</ele><time>2026-04-18T17:24:18.861Z</time></trkpt><trkpt lat="53.402152235287254" lon="14.858125083553977"><ele>29.0</ele><time>2026-04-18T17:24:19.861Z</time></trkpt><trkpt lat="53.40206102542489" lon="14.858150824829824"><ele>28.6</ele><time>2026-04-18T17:24:20.861Z</time></trkpt><trkpt lat="53.4019724515761" lon="14.858167586260421"><ele>28.2</ele><time>2026-04-18T17:24:21.861Z</time></trkpt><trkpt lat="53.40191008366948" lon="14.858201171643618"><ele>27.800000000000004</ele><time>2026-04-18T17:24:22.861Z</time></trkpt><trkpt lat="53.401789126193854" lon="14.85824716769265"><ele>27.400000000000002</ele><time>2026-04-18T17:24:24.861Z</time></trkpt><trkpt lat="53.401687527468866" lon="14.858283008755077"><ele>27.0</ele><time>2026-04-18T17:24:26.861Z</time></trkpt><trkpt lat="53.40156412560876" lon="14.858294096230331"><ele>27.0</ele><time>2026-04-18T17:24:28.862Z</time></trkpt><trkpt lat="53.401492790785696" lon="14.858316769935712"><ele>27.000000000000004</ele><time>2026-04-18T17:24:29.862Z</time></trkpt><trkpt lat="53.401419856566676" lon="14.858367252526644"><ele>27.000000000000004</ele><time>2026-04-18T17:24:30.862Z</time></trkpt><trkpt lat="53.401319032708024" lon="14.858371998823454"><ele>27.0</ele><time>2026-04-18T17:24:31.862Z</time></trkpt><trkpt lat="53.401214688440106" lon="14.85843417788277"><ele>27.0</ele><time>2026-04-18T17:24:32.862Z</time></trkpt><trkpt lat="53.40111208741992" lon="14.858441077929639"><ele>28.0</ele><time>2026-04-18T17:24:33.862Z</time></trkpt><trkpt lat="53.401013380438386" lon="14.858500355859015"><ele>29.000000000000004</ele><time>2026-04-18T17:24:34.862Z</time></trkpt><trkpt lat="53.40092153143315" lon="14.858527176056914"><ele>30.000000000000004</ele><time>2026-04-18T17:24:35.862Z</time></trkpt><trkpt lat="53.40082539894649" lon="14.858570259448916"><ele>31.0</ele><time>2026-04-18T17:24:36.862Z</time></trkpt><trkpt lat="53.40072299872291" lon="14.85861864743951"><ele>32.0</ele><time>2026-04-18T17:24:37.862Z</time></trkpt><trkpt lat="53.40062183908175" lon="14.858665361812768"><ele>32.0</ele><time>2026-04-18T17:24:38.862Z</time></trkpt><trkpt lat="53.40051481070634" lon="14.858703864474444"><ele>32.0</ele><time>2026-04-18T17:24:39.862Z</time></trkpt><trkpt lat="53.40042161041071" lon="14.858743544454423"><ele>32.0</ele><time>2026-04-18T17:24:40.862Z</time></trkpt><trkpt lat="53.400333661307336" lon="14.85878017771222"><ele>32.0</ele><time>2026-04-18T17:24:41.862Z</time></trkpt><trkpt lat="53.400256206283636" lon="14.858810294365979"><ele>32.0</ele><time>2026-04-18T17:24:42.862Z</time></trkpt><trkpt lat="53.400172474520986" lon="14.858814465420181"><ele>32.0</ele><time>2026-04-18T17:24:43.862Z</time></trkpt><trkpt lat="53.40009162420722" lon="14.858863900824167"><ele>32.0</ele><time>2026-04-18T17:24:44.862Z</time></trkpt><trkpt lat="53.40000762164673" lon="14.858901561061494"><ele>32.0</ele><time>2026-04-18T17:24:45.862Z</time></trkpt><trkpt lat="53.399913948937495" lon="14.858938465604588"><ele>32.0</ele><time>2026-04-18T17:24:46.862Z</time></trkpt><trkpt lat="53.399812772365564" lon="14.858979086245995"><ele>32.0</ele><time>2026-04-18T17:24:47.862Z</time></trkpt><trkpt lat="53.399716301753855" lon="14.858987601055945"><ele>31.400000000000002</ele><time>2026-04-18T17:24:48.862Z</time></trkpt><trkpt lat="53.39963450353375" lon="14.859037468374389"><ele>30.800000000000004</ele><time>2026-04-18T17:24:49.862Z</time></trkpt><trkpt lat="53.3995383445485" lon="14.85907308482506"><ele>30.2</ele><time>2026-04-18T17:24:50.862Z</time></trkpt><trkpt lat="53.39944274762404" lon="14.859091541873964"><ele>29.6</ele><time>2026-04-18T17:24:51.862Z</time></trkpt><trkpt lat="53.39935788865978" lon="14.859143084706297"><ele>29.0</ele><time>2026-04-18T17:24:52.862Z</time></trkpt><trkpt lat="53.39925884708816" lon="14.859178587659732"><ele>29.0</ele><time>2026-04-18T17:24:53.862Z</time></trkpt><trkpt lat="53.39916844726933" lon="14.859215294597746"><ele>29.0</ele><time>2026-04-18T17:24:54.862Z</time></trkpt><trkpt lat="53.39906301390297" lon="14.859254725638092"><ele>29.0</ele><time>2026-04-18T17:24:55.862Z</time></trkpt><trkpt lat="53.398966276026634" lon="14.859289111718436"><ele>29.0</ele><time>2026-04-18T17:24:56.862Z</time></trkpt><trkpt lat="53.39886629076314" lon="14.859324223771738"><ele>29.0</ele><time>2026-04-18T17:24:57.862Z</time></trkpt><trkpt lat="53.39877424236647" lon="14.859360842341"><ele>29.6</ele><time>2026-04-18T17:24:58.862Z</time></trkpt><trkpt lat="53.398669743777575" lon="14.859394903990692"><ele>30.2</ele><time>2026-04-18T17:24:59.862Z</time></trkpt><trkpt lat="53.39855791071952" lon="14.859426939630692"><ele>30.800000000000004</ele><time>2026-04-18T17:25:00.862Z</time></trkpt><trkpt lat="53.39845894362108" lon="14.85946265000355"><ele>31.400000000000002</ele><time>2026-04-18T17:25:01.862Z</time></trkpt><trkpt lat="53.398351305646806" lon="14.859492553305396"><ele>32.0</ele><time>2026-04-18T17:25:02.862Z</time></trkpt><trkpt lat="53.39826047677981" lon="14.859520957476779"><ele>32.0</ele><time>2026-04-18T17:25:03.862Z</time></trkpt><trkpt lat="53.39815964981552" lon="14.859553805830673"><ele>32.0</ele><time>2026-04-18T17:25:04.862Z</time></trkpt><trkpt lat="53.3980681334203" lon="14.859585471589387"><ele>32.0</ele><time>2026-04-18T17:25:05.862Z</time></trkpt><trkpt lat="53.39797553279616" lon="14.859606674285043"><ele>32.0</ele><time>2026-04-18T17:25:06.862Z</time></trkpt><trkpt lat="53.397882241018074" lon="14.859636241603893"><ele>32.0</ele><time>2026-04-18T17:25:07.862Z</time></trkpt><trkpt lat="53.39778248852652" lon="14.859668557575404"><ele>31.5</ele><time>2026-04-18T17:25:08.862Z</time></trkpt><trkpt lat="53.3976742220359" lon="14.85970661366648"><ele>31.0</ele><time>2026-04-18T17:25:09.862Z</time></trkpt><trkpt lat="53.39756286065631" lon="14.859740914743105"><ele>30.5</ele><time>2026-04-18T17:25:10.862Z</time></trkpt><trkpt lat="53.39744733939793" lon="14.859778997733574"><ele>30.0</ele><time>2026-04-18T17:25:11.862Z</time></trkpt><trkpt lat="53.397322687578985" lon="14.859814327240182"><ele>30.0</ele><time>2026-04-18T17:25:12.862Z</time></trkpt><trkpt lat="53.39721963476274" lon="14.859855938627968"><ele>30.0</ele><time>2026-04-18T17:25:13.862Z</time></trkpt><trkpt lat="53.39711909045916" lon="14.859889129754537"><ele>30.0</ele><time>2026-04-18T17:25:14.862Z</time></trkpt><trkpt lat="53.397019300200924" lon="14.859929260435672"><ele>30.0</ele><time>2026-04-18T17:25:15.862Z</time></trkpt><trkpt lat="53.396926794756226" lon="14.859936300641012"><ele>30.0</ele><time>2026-04-18T17:25:16.862Z</time></trkpt><trkpt lat="53.39683431606146" lon="14.859967537881808"><ele>30.166666666666668</ele><time>2026-04-18T17:25:17.862Z</time></trkpt><trkpt lat="53.39675340545267" lon="14.860023237049532"><ele>30.333333333333336</ele><time>2026-04-18T17:25:18.862Z</time></trkpt><trkpt lat="53.39666401480777" lon="14.860024234647797"><ele>30.5</ele><time>2026-04-18T17:25:19.862Z</time></trkpt><trkpt lat="53.396583668053275" lon="14.860073680971938"><ele>30.666666666666668</ele><time>2026-04-18T17:25:20.862Z</time></trkpt><trkpt lat="53.39649832701493" lon="14.860099462503646"><ele>30.833333333333336</ele><time>2026-04-18T17:25:21.862Z</time></trkpt><trkpt lat="53.39641559643769" lon="14.860132738163996"><ele>31.0</ele><time>2026-04-18T17:25:22.862Z</time></trkpt><trkpt lat="53.396332931279204" lon="14.860132998853919"><ele>31.0</ele><time>2026-04-18T17:25:23.862Z</time></trkpt><trkpt lat="53.396243580604946" lon="14.860162971101357"><ele>31.0</ele><time>2026-04-18T17:25:24.862Z</time></trkpt><trkpt lat="53.396163558741854" lon="14.860216477710763"><ele>31.0</ele><time>2026-04-18T17:25:25.862Z</time></trkpt><trkpt lat="53.39606645406283" lon="14.860245420016023"><ele>31.0</ele><time>2026-04-18T17:25:26.862Z</time></trkpt><trkpt lat="53.39596704350776" lon="14.860282665778294"><ele>31.0</ele><time>2026-04-18T17:25:27.862Z</time></trkpt><trkpt lat="53.39586034140538" lon="14.860321156103463"><ele>31.0</ele><time>2026-04-18T17:25:28.862Z</time></trkpt><trkpt lat="53.395753745770186" lon="14.860350501655619"><ele>31.0</ele><time>2026-04-18T17:25:29.862Z</time></trkpt><trkpt lat="53.395642071782824" lon="14.860386176560219"><ele>31.0</ele><time>2026-04-18T17:25:30.862Z</time></trkpt><trkpt lat="53.395538211049136" lon="14.860425991545458"><ele>31.0</ele><time>2026-04-18T17:25:31.862Z</time></trkpt><trkpt lat="53.395433653526226" lon="14.860461521049436"><ele>31.0</ele><time>2026-04-18T17:25:32.862Z</time></trkpt><trkpt lat="53.39532772579167" lon="14.860500467585888"><ele>30.4</ele><time>2026-04-18T17:25:33.862Z</time></trkpt><trkpt lat="53.39522010390636" lon="14.86051758831291"><ele>29.8</ele><time>2026-04-18T17:25:34.862Z</time></trkpt><trkpt lat="53.39511583350267" lon="14.860554341013142"><ele>29.199999999999996</ele><time>2026-04-18T17:25:35.862Z</time></trkpt><trkpt lat="53.395017609482395" lon="14.860606744273953"><ele>28.599999999999998</ele><time>2026-04-18T17:25:36.862Z</time></trkpt><trkpt lat="53.39490860633919" lon="14.86064570922218"><ele>28.0</ele><time>2026-04-18T17:25:37.862Z</time></trkpt><trkpt lat="53.39479744472866" lon="14.860686002433246"><ele>27.75</ele><time>2026-04-18T17:25:38.862Z</time></trkpt><trkpt lat="53.39467044814012" lon="14.8607310900932"><ele>27.5</ele><time>2026-04-18T17:25:39.862Z</time></trkpt><trkpt lat="53.394540823659355" lon="14.860777405623875"><ele>27.25</ele><time>2026-04-18T17:25:40.862Z</time></trkpt><trkpt lat="53.39441608147412" lon="14.8608186853958"><ele>27.0</ele><time>2026-04-18T17:25:41.862Z</time></trkpt><trkpt lat="53.39431376446068" lon="14.860856865332627"><ele>27.0</ele><time>2026-04-18T17:25:42.862Z</time></trkpt><trkpt lat="53.39420452785846" lon="14.860897156638526"><ele>27.000000000000004</ele><time>2026-04-18T17:25:43.862Z</time></trkpt><trkpt lat="53.39408061182944" lon="14.860941831233966"><ele>27.000000000000004</ele><time>2026-04-18T17:25:44.862Z</time></trkpt><trkpt lat="53.39396427558928" lon="14.860986010316008"><ele>27.0</ele><time>2026-04-18T17:25:45.862Z</time></trkpt><trkpt lat="53.39387471508173" lon="14.861012279348532"><ele>27.0</ele><time>2026-04-18T17:25:46.862Z</time></trkpt><trkpt lat="53.39378595717903" lon="14.86102447508132"><ele>27.5</ele><time>2026-04-18T17:25:47.86Z</time></trkpt><trkpt lat="53.39369371225877" lon="14.861057058625905"><ele>28.0</ele><time>2026-04-18T17:25:48.86Z</time></trkpt><trkpt lat="53.39361083857235" lon="14.861109718995358"><ele>28.5</ele><time>2026-04-18T17:25:49.86Z</time></trkpt><trkpt lat="53.3935236239147" lon="14.861139402514498"><ele>29.0</ele><time>2026-04-18T17:25:50.86Z</time></trkpt><trkpt lat="53.39344055517859" lon="14.861166111281978"><ele>29.5</ele><time>2026-04-18T17:25:51.86Z</time></trkpt><trkpt lat="53.393353276682475" lon="14.861198470397463"><ele>30.0</ele><time>2026-04-18T17:25:52.86Z</time></trkpt><trkpt lat="53.39326443611083" lon="14.861209327647408"><ele>30.0</ele><time>2026-04-18T17:25:53.86Z</time></trkpt><trkpt lat="53.39317565620266" lon="14.861266144163645"><ele>30.0</ele><time>2026-04-18T17:25:54.86Z</time></trkpt><trkpt lat="53.39308728814581" lon="14.861290431227712"><ele>30.0</ele><time>2026-04-18T17:25:55.86Z</time></trkpt><trkpt lat="53.392992864750774" lon="14.861304843018711"><ele>30.0</ele><time>2026-04-18T17:25:56.86Z</time></trkpt><trkpt lat="53.392916942757" lon="14.861331639017555"><ele>30.0</ele><time>2026-04-18T17:25:57.86Z</time></trkpt><trkpt lat="53.392846910643634" lon="14.861356083758515"><ele>30.0</ele><time>2026-04-18T17:25:58.86Z</time></trkpt><trkpt lat="53.39273470487967" lon="14.861394039987855"><ele>29.4</ele><time>2026-04-18T17:26:00.86Z</time></trkpt><trkpt lat="53.392604437174064" lon="14.86143843801191"><ele>28.8</ele><time>2026-04-18T17:26:02.86Z</time></trkpt><trkpt lat="53.392539359001994" lon="14.861485901863356"><ele>28.200000000000003</ele><time>2026-04-18T17:26:03.86Z</time></trkpt><trkpt lat="53.39244813437014" lon="14.86151063086823"><ele>27.6</ele><time>2026-04-18T17:26:04.86Z</time></trkpt><trkpt lat="53.392335019870025" lon="14.861548245787363"><ele>27.0</ele><time>2026-04-18T17:26:05.86Z</time></trkpt><trkpt lat="53.392225288534995" lon="14.861586738603224"><ele>27.0</ele><time>2026-04-18T17:26:06.86Z</time></trkpt><trkpt lat="53.392129655441366" lon="14.8616010269114"><ele>27.000000000000004</ele><time>2026-04-18T17:26:07.86Z</time></trkpt><trkpt lat="53.39202292273002" lon="14.861637809381012"><ele>27.000000000000004</ele><time>2026-04-18T17:26:08.86Z</time></trkpt><trkpt lat="53.391943162179636" lon="14.861665033946934"><ele>27.0</ele><time>2026-04-18T17:26:09.86Z</time></trkpt><trkpt lat="53.391862128365716" lon="14.861692662282898"><ele>27.0</ele><time>2026-04-18T17:26:10.86Z</time></trkpt><trkpt lat="53.39174751707937" lon="14.861757448771517"><ele>26.8</ele><time>2026-04-18T17:26:12.86Z</time></trkpt><trkpt lat="53.391642421636796" lon="14.861794074086102"><ele>26.6</ele><time>2026-04-18T17:26:14.86Z</time></trkpt><trkpt lat="53.391526607423884" lon="14.861807065429632"><ele>26.400000000000002</ele><time>2026-04-18T17:26:16.86Z</time></trkpt><trkpt lat="53.3914149671942" lon="14.861844839562044"><ele>26.200000000000003</ele><time>2026-04-18T17:26:18.86Z</time></trkpt><trkpt lat="53.39132084773961" lon="14.861904800740335"><ele>26.0</ele><time>2026-04-18T17:26:20.86Z</time></trkpt><trkpt lat="53.39124817169743" lon="14.861922057256395"><ele>26.4</ele><time>2026-04-18T17:26:21.86Z</time></trkpt><trkpt lat="53.391152069466344" lon="14.861953578095658"><ele>26.8</ele><time>2026-04-18T17:26:22.86Z</time></trkpt><trkpt lat="53.39105033763205" lon="14.86198889034525"><ele>27.199999999999996</ele><time>2026-04-18T17:26:23.86Z</time></trkpt><trkpt lat="53.390955095160315" lon="14.862027204198164"><ele>27.599999999999998</ele><time>2026-04-18T17:26:24.86Z</time></trkpt><trkpt lat="53.39086342820038" lon="14.862060863987761"><ele>28.0</ele><time>2026-04-18T17:26:25.86Z</time></trkpt><trkpt lat="53.39076721610706" lon="14.862093442154794"><ele>28.0</ele><time>2026-04-18T17:26:26.86Z</time></trkpt><trkpt lat="53.39066721447894" lon="14.862125905120203"><ele>27.999999999999996</ele><time>2026-04-18T17:26:27.861Z</time></trkpt><trkpt lat="53.39056806651712" lon="14.86215645899889"><ele>27.999999999999996</ele><time>2026-04-18T17:26:28.861Z</time></trkpt><trkpt lat="53.39047245489659" lon="14.862179693281442"><ele>28.0</ele><time>2026-04-18T17:26:29.861Z</time></trkpt><trkpt lat="53.39037373705732" lon="14.862217020800937"><ele>28.0</ele><time>2026-04-18T17:26:30.861Z</time></trkpt><trkpt lat="53.390277124013174" lon="14.862230353871228"><ele>28.5</ele><time>2026-04-18T17:26:31.861Z</time></trkpt><trkpt lat="53.39017333897915" lon="14.862265030642414"><ele>29.0</ele><time>2026-04-18T17:26:32.861Z</time></trkpt><trkpt lat="53.39006851836058" lon="14.862324207503328"><ele>29.5</ele><time>2026-04-18T17:26:33.861Z</time></trkpt><trkpt lat="53.38994835403373" lon="14.862360976012761"><ele>30.0</ele><time>2026-04-18T17:26:34.861Z</time></trkpt><trkpt lat="53.38983237368527" lon="14.8623976375161"><ele>30.0</ele><time>2026-04-18T17:26:35.861Z</time></trkpt><trkpt lat="53.38973608977202" lon="14.862431897082088"><ele>30.0</ele><time>2026-04-18T17:26:36.861Z</time></trkpt><trkpt lat="53.389642616592944" lon="14.862465445333509"><ele>30.0</ele><time>2026-04-18T17:26:37.861Z</time></trkpt><trkpt lat="53.389546038945916" lon="14.862493009413159"><ele>30.0</ele><time>2026-04-18T17:26:38.861Z</time></trkpt><trkpt lat="53.38942310141908" lon="14.862533536578576"><ele>30.0</ele><time>2026-04-18T17:26:39.861Z</time></trkpt><trkpt lat="53.389323063402706" lon="14.862567870550814"><ele>30.2</ele><time>2026-04-18T17:26:40.861Z</time></trkpt><trkpt lat="53.38923457288975" lon="14.862602237928611"><ele>30.4</ele><time>2026-04-18T17:26:41.861Z</time></trkpt><trkpt lat="53.38914054203344" lon="14.862624338306949"><ele>30.6</ele><time>2026-04-18T17:26:42.861Z</time></trkpt><trkpt lat="53.38905165541419" lon="14.862657872857142"><ele>30.8</ele><time>2026-04-18T17:26:43.861Z</time></trkpt><trkpt lat="53.3889534938532" lon="14.86268973130249"><ele>31.0</ele><time>2026-04-18T17:26:44.861Z</time></trkpt><trkpt lat="53.38883983708908" lon="14.86272793444352"><ele>31.4</ele><time>2026-04-18T17:26:45.861Z</time></trkpt><trkpt lat="53.38872464997793" lon="14.862745568280868"><ele>31.8</ele><time>2026-04-18T17:26:46.861Z</time></trkpt><trkpt lat="53.388628653312786" lon="14.862777421311725"><ele>32.199999999999996</ele><time>2026-04-18T17:26:47.861Z</time></trkpt><trkpt lat="53.38854535733534" lon="14.862805060130045"><ele>32.6</ele><time>2026-04-18T17:26:48.861Z</time></trkpt><trkpt lat="53.388475992785175" lon="14.86285641822491"><ele>33.0</ele><time>2026-04-18T17:26:49.861Z</time></trkpt><trkpt lat="53.388352580005716" lon="14.862869026388926"><ele>33.0</ele><time>2026-04-18T17:26:51.861Z</time></trkpt><trkpt lat="53.38827225554603" lon="14.862895470335912"><ele>33.0</ele><time>2026-04-18T17:26:52.861Z</time></trkpt><trkpt lat="53.38818027641753" lon="14.862925959065858"><ele>33.0</ele><time>2026-04-18T17:26:53.861Z</time></trkpt><trkpt lat="53.3880581264756" lon="14.8629665192924"><ele>33.0</ele><time>2026-04-18T17:26:54.861Z</time></trkpt><trkpt lat="53.387939887504864" lon="14.863023356916441"><ele>33.0</ele><time>2026-04-18T17:26:55.861Z</time></trkpt><trkpt lat="53.38781653696239" lon="14.863065676566"><ele>32.5</ele><time>2026-04-18T17:26:56.861Z</time></trkpt><trkpt lat="53.38768309988899" lon="14.863111800703804"><ele>32.0</ele><time>2026-04-18T17:26:57.861Z</time></trkpt><trkpt lat="53.38754390813886" lon="14.863158341597535"><ele>31.5</ele><time>2026-04-18T17:26:58.861Z</time></trkpt><trkpt lat="53.387394348871695" lon="14.863207593159034"><ele>31.0</ele><time>2026-04-18T17:26:59.861Z</time></trkpt><trkpt lat="53.38727373130623" lon="14.863248902112948"><ele>31.0</ele><time>2026-04-18T17:27:00.861Z</time></trkpt><trkpt lat="53.38716573376967" lon="14.863290313142617"><ele>31.0</ele><time>2026-04-18T17:27:01.861Z</time></trkpt><trkpt lat="53.387063038219736" lon="14.86331458816537"><ele>31.0</ele><time>2026-04-18T17:27:02.861Z</time></trkpt><trkpt lat="53.38695649661447" lon="14.863345118151436"><ele>31.0</ele><time>2026-04-18T17:27:03.861Z</time></trkpt><trkpt lat="53.386832342244155" lon="14.863382363882446"><ele>31.0</ele><time>2026-04-18T17:27:04.861Z</time></trkpt><trkpt lat="53.386715540435304" lon="14.863423204303425"><ele>31.200000000000003</ele><time>2026-04-18T17:27:05.861Z</time></trkpt><trkpt lat="53.38661394101834" lon="14.863457912626913"><ele>31.400000000000002</ele><time>2026-04-18T17:27:06.861Z</time></trkpt><trkpt lat="53.38651609405332" lon="14.863487686428428"><ele>31.6</ele><time>2026-04-18T17:27:07.861Z</time></trkpt><trkpt lat="53.386440900901526" lon="14.863523645310847"><ele>31.8</ele><time>2026-04-18T17:27:08.861Z</time></trkpt><trkpt lat="53.38633987322691" lon="14.863541506122457"><ele>32.0</ele><time>2026-04-18T17:27:10.861Z</time></trkpt><trkpt lat="53.386265218124365" lon="14.863588626469106"><ele>31.999999999999996</ele><time>2026-04-18T17:27:12.861Z</time></trkpt><trkpt lat="53.386201633127875" lon="14.863595892791576"><ele>32.0</ele><time>2026-04-18T17:27:20.861Z</time></trkpt><trkpt lat="53.38620697510172" lon="14.86334374282854"><ele>32.0</ele><time>2026-04-18T17:27:29.861Z</time></trkpt><trkpt lat="53.38617990276716" lon="14.863235173208988"><ele>32.0</ele><time>2026-04-18T17:27:32.861Z</time></trkpt><trkpt lat="53.386155043641615" lon="14.863082223103218"><ele>31.999999999999996</ele><time>2026-04-18T17:27:51.861Z</time></trkpt><trkpt lat="53.38620102929539" lon="14.863004795705066"><ele>32.0</ele><time>2026-04-18T17:27:55.859Z</time></trkpt><trkpt lat="53.38626844680602" lon="14.863024449157788"><ele>32.33333333333333</ele><time>2026-04-18T17:28:07.859Z</time></trkpt><trkpt lat="53.38631089974593" lon="14.862908790294881"><ele>32.666666666666664</ele><time>2026-04-18T17:28:11.859Z</time></trkpt><trkpt lat="53.38624675172196" lon="14.862924902956184"><ele>33.0</ele><time>2026-04-18T17:28:16.859Z</time></trkpt><trkpt lat="53.38624219300878" lon="14.863050785409897"><ele>33.333333333333336</ele><time>2026-04-18T17:28:20.859Z</time></trkpt><trkpt lat="53.38627730134607" lon="14.863181273378856"><ele>33.66666666666667</ele><time>2026-04-18T17:28:23.859Z</time></trkpt><trkpt lat="53.38628407013739" lon="14.863309347992178"><ele>34.0</ele><time>2026-04-18T17:28:25.859Z</time></trkpt><trkpt lat="53.38631257984559" lon="14.863414670538633"><ele>33.8</ele><time>2026-04-18T17:28:27.859Z</time></trkpt><trkpt lat="53.38636167482564" lon="14.863530164656918"><ele>33.599999999999994</ele><time>2026-04-18T17:28:30.859Z</time></trkpt><trkpt lat="53.386286892521326" lon="14.863559468920645"><ele>33.4</ele><time>2026-04-18T17:29:16.859Z</time></trkpt><trkpt lat="53.38613813500232" lon="14.863632852502993"><ele>33.199999999999996</ele><time>2026-04-18T17:29:18.859Z</time></trkpt><trkpt lat="53.38601340710951" lon="14.863696441049182"><ele>33.0</ele><time>2026-04-18T17:29:19.859Z</time></trkpt><trkpt lat="53.385851022212776" lon="14.863709244713982"><ele>33.0</ele><time>2026-04-18T17:29:20.859Z</time></trkpt><trkpt lat="53.38570884556318" lon="14.863758336070163"><ele>33.0</ele><time>2026-04-18T17:29:21.859Z</time></trkpt><trkpt lat="53.38554020212219" lon="14.863838041012482"><ele>33.0</ele><time>2026-04-18T17:29:22.859Z</time></trkpt><trkpt lat="53.38538482793045" lon="14.863882731919944"><ele>33.0</ele><time>2026-04-18T17:29:23.859Z</time></trkpt><trkpt lat="53.38524597719338" lon="14.863956622976593"><ele>33.0</ele><time>2026-04-18T17:29:24.859Z</time></trkpt><trkpt lat="53.38513046673126" lon="14.86399419524838"><ele>33.0</ele><time>2026-04-18T17:29:25.859Z</time></trkpt><trkpt lat="53.385027266002474" lon="14.864024834292934"><ele>33.0</ele><time>2026-04-18T17:29:26.859Z</time></trkpt><trkpt lat="53.384938279136016" lon="14.864037231153848"><ele>33.0</ele><time>2026-04-18T17:29:27.859Z</time></trkpt><trkpt lat="53.38483941751865" lon="14.864073538625151"><ele>33.0</ele><time>2026-04-18T17:29:28.86Z</time></trkpt><trkpt lat="53.38473497878237" lon="14.864101224730238"><ele>33.0</ele><time>2026-04-18T17:29:29.86Z</time></trkpt><trkpt lat="53.38463389459853" lon="14.864159316143029"><ele>33.0</ele><time>2026-04-18T17:29:30.86Z</time></trkpt><trkpt lat="53.384536855839166" lon="14.864184461584864"><ele>33.0</ele><time>2026-04-18T17:29:31.86Z</time></trkpt><trkpt lat="53.38442982235661" lon="14.864216896327418"><ele>32.6</ele><time>2026-04-18T17:29:32.86Z</time></trkpt><trkpt lat="53.38432703784436" lon="14.864251471545876"><ele>32.199999999999996</ele><time>2026-04-18T17:29:33.86Z</time></trkpt><trkpt lat="53.38422800920614" lon="14.864282671805851"><ele>31.8</ele><time>2026-04-18T17:29:34.86Z</time></trkpt><trkpt lat="53.38414303140011" lon="14.864314629086893"><ele>31.4</ele><time>2026-04-18T17:29:35.86Z</time></trkpt><trkpt lat="53.38404336363726" lon="14.864362305134968"><ele>31.0</ele><time>2026-04-18T17:29:36.86Z</time></trkpt><trkpt lat="53.38394895032285" lon="14.864401798510018"><ele>31.0</ele><time>2026-04-18T17:29:37.86Z</time></trkpt><trkpt lat="53.383857287080794" lon="14.864432999449543"><ele>31.0</ele><time>2026-04-18T17:29:38.86Z</time></trkpt><trkpt lat="53.38377411809915" lon="14.864456786426615"><ele>31.0</ele><time>2026-04-18T17:29:39.86Z</time></trkpt><trkpt lat="53.38367232955593" lon="14.864472547357428"><ele>31.0</ele><time>2026-04-18T17:29:40.86Z</time></trkpt><trkpt lat="53.38357518567202" lon="14.864504465001858"><ele>31.0</ele><time>2026-04-18T17:29:41.86Z</time></trkpt><trkpt lat="53.383457072879786" lon="14.864550065652644"><ele>31.0</ele><time>2026-04-18T17:29:42.86Z</time></trkpt><trkpt lat="53.383352499134936" lon="14.864597217239481"><ele>31.0</ele><time>2026-04-18T17:29:43.86Z</time></trkpt><trkpt lat="53.38324290379269" lon="14.864640157213996"><ele>31.0</ele><time>2026-04-18T17:29:44.86Z</time></trkpt><trkpt lat="53.383149059407955" lon="14.864673652502114"><ele>31.0</ele><time>2026-04-18T17:29:45.86Z</time></trkpt><trkpt lat="53.38303563958112" lon="14.864714448084246"><ele>31.0</ele><time>2026-04-18T17:29:46.86Z</time></trkpt><trkpt lat="53.38293050159995" lon="14.86474677805952"><ele>30.8</ele><time>2026-04-18T17:29:47.86Z</time></trkpt><trkpt lat="53.38284319479494" lon="14.864775863780073"><ele>30.6</ele><time>2026-04-18T17:29:48.86Z</time></trkpt><trkpt lat="53.38276558043078" lon="14.864769403345019"><ele>30.4</ele><time>2026-04-18T17:29:49.86Z</time></trkpt><trkpt lat="53.382675930878484" lon="14.864736649867599"><ele>30.2</ele><time>2026-04-18T17:29:50.86Z</time></trkpt><trkpt lat="53.38257068406085" lon="14.864692747082099"><ele>30.0</ele><time>2026-04-18T17:29:51.86Z</time></trkpt><trkpt lat="53.38243780324679" lon="14.864579865317708"><ele>30.0</ele><time>2026-04-18T17:29:52.86Z</time></trkpt><trkpt lat="53.38231108162824" lon="14.86445472121461"><ele>30.0</ele><time>2026-04-18T17:29:53.916Z</time></trkpt><trkpt lat="53.38220340828546" lon="14.864356213506882"><ele>30.0</ele><time>2026-04-18T17:29:54.916Z</time></trkpt><trkpt lat="53.38210531608765" lon="14.864290680446382"><ele>30.0</ele><time>2026-04-18T17:29:55.916Z</time></trkpt><trkpt lat="53.38201487601336" lon="14.864220750007183"><ele>31.0</ele><time>2026-04-18T17:29:56.916Z</time></trkpt><trkpt lat="53.381891436982535" lon="14.8641456409073"><ele>32.0</ele><time>2026-04-18T17:29:57.917Z</time></trkpt><trkpt lat="53.381763493617854" lon="14.864082025778854"><ele>33.0</ele><time>2026-04-18T17:29:58.917Z</time></trkpt><trkpt lat="53.38163552737498" lon="14.86403156507129"><ele>34.0</ele><time>2026-04-18T17:29:59.915Z</time></trkpt><trkpt lat="53.38150900697602" lon="14.863986431879711"><ele>34.0</ele><time>2026-04-18T17:30:00.916Z</time></trkpt><trkpt lat="53.38138745563267" lon="14.863938373104613"><ele>34.0</ele><time>2026-04-18T17:30:01.916Z</time></trkpt><trkpt lat="53.381246798252135" lon="14.863912109956777"><ele>34.0</ele><time>2026-04-18T17:30:02.916Z</time></trkpt><trkpt lat="53.38108451885528" lon="14.863919734356577"><ele>34.0</ele><time>2026-04-18T17:30:03.916Z</time></trkpt><trkpt lat="53.38092060816146" lon="14.863949656597388"><ele>34.25</ele><time>2026-04-18T17:30:04.916Z</time></trkpt><trkpt lat="53.38077786347608" lon="14.863979196307305"><ele>34.5</ele><time>2026-04-18T17:30:05.916Z</time></trkpt><trkpt lat="53.380661354324474" lon="14.863984678126974"><ele>34.75</ele><time>2026-04-18T17:30:06.916Z</time></trkpt><trkpt lat="53.38054917540013" lon="14.863990264870807"><ele>35.0</ele><time>2026-04-18T17:30:07.916Z</time></trkpt><trkpt lat="53.38043647897717" lon="14.863984456425618"><ele>35.25</ele><time>2026-04-18T17:30:08.917Z</time></trkpt><trkpt lat="53.3803217276566" lon="14.863944044413538"><ele>35.5</ele><time>2026-04-18T17:30:09.917Z</time></trkpt><trkpt lat="53.38020161092985" lon="14.863934165772196"><ele>35.75</ele><time>2026-04-18T17:30:10.917Z</time></trkpt><trkpt lat="53.380084039558305" lon="14.863921052357375"><ele>36.0</ele><time>2026-04-18T17:30:11.916Z</time></trkpt><trkpt lat="53.3799755553364" lon="14.863906376624378"><ele>36.0</ele><time>2026-04-18T17:30:12.917Z</time></trkpt><trkpt lat="53.379871650153746" lon="14.86387998852309"><ele>36.0</ele><time>2026-04-18T17:30:13.917Z</time></trkpt><trkpt lat="53.37976356625625" lon="14.863872375011235"><ele>36.0</ele><time>2026-04-18T17:30:14.917Z</time></trkpt><trkpt lat="53.37965244628281" lon="14.863871874204435"><ele>36.0</ele><time>2026-04-18T17:30:15.917Z</time></trkpt><trkpt lat="53.379546484025845" lon="14.863847213530406"><ele>36.0</ele><time>2026-04-18T17:30:16.917Z</time></trkpt><trkpt lat="53.37944437160438" lon="14.86384236217241"><ele>35.8</ele><time>2026-04-18T17:30:17.917Z</time></trkpt><trkpt lat="53.37935297253221" lon="14.863836802846986"><ele>35.6</ele><time>2026-04-18T17:30:18.917Z</time></trkpt><trkpt lat="53.379253392731805" lon="14.86383604545831"><ele>35.4</ele><time>2026-04-18T17:30:19.917Z</time></trkpt><trkpt lat="53.379161491961675" lon="14.863820420617623"><ele>35.2</ele><time>2026-04-18T17:30:20.917Z</time></trkpt><trkpt lat="53.37907033575428" lon="14.863809819109644"><ele>35.0</ele><time>2026-04-18T17:30:21.917Z</time></trkpt><trkpt lat="53.37899159218738" lon="14.863815902682102"><ele>35.0</ele><time>2026-04-18T17:30:22.917Z</time></trkpt><trkpt lat="53.378907206188934" lon="14.863826828661246"><ele>35.0</ele><time>2026-04-18T17:30:23.917Z</time></trkpt><trkpt lat="53.37882470182646" lon="14.863841375347675"><ele>35.0</ele><time>2026-04-18T17:30:24.917Z</time></trkpt><trkpt lat="53.37874622459201" lon="14.863855189714542"><ele>35.0</ele><time>2026-04-18T17:30:25.917Z</time></trkpt><trkpt lat="53.37867404074272" lon="14.863870692241468"><ele>35.0</ele><time>2026-04-18T17:30:26.917Z</time></trkpt><trkpt lat="53.378605917251896" lon="14.86388438559045"><ele>35.0</ele><time>2026-04-18T17:30:28.917Z</time></trkpt><trkpt lat="53.37854065980515" lon="14.863908998496692"><ele>34.666666666666664</ele><time>2026-04-18T17:31:22.918Z</time></trkpt><trkpt lat="53.37847521507793" lon="14.863930760775153"><ele>34.33333333333333</ele><time>2026-04-18T17:31:23.918Z</time></trkpt><trkpt lat="53.378403654758884" lon="14.863936888794173"><ele>34.0</ele><time>2026-04-18T17:31:24.918Z</time></trkpt><trkpt lat="53.378292718099985" lon="14.86397356723358"><ele>33.666666666666664</ele><time>2026-04-18T17:31:26.918Z</time></trkpt><trkpt lat="53.3781723401632" lon="14.864005023760335"><ele>33.333333333333336</ele><time>2026-04-18T17:31:28.919Z</time></trkpt><trkpt lat="53.37810935670328" lon="14.864016581887428"><ele>33.0</ele><time>2026-04-18T17:31:29.919Z</time></trkpt><trkpt lat="53.378040784529354" lon="14.86403466784446"><ele>32.57142857142857</ele><time>2026-04-18T17:31:30.919Z</time></trkpt><trkpt lat="53.37796794570916" lon="14.86405948027263"><ele>32.142857142857146</ele><time>2026-04-18T17:31:31.919Z</time></trkpt><trkpt lat="53.37790073371294" lon="14.864073273618004"><ele>31.714285714285715</ele><time>2026-04-18T17:31:32.919Z</time></trkpt><trkpt lat="53.377830391671225" lon="14.864078113191615"><ele>31.285714285714285</ele><time>2026-04-18T17:31:33.919Z</time></trkpt><trkpt lat="53.377753103677094" lon="14.864109267321021"><ele>30.857142857142854</ele><time>2026-04-18T17:31:34.919Z</time></trkpt><trkpt lat="53.37767451667767" lon="14.864125958412036"><ele>30.42857142857143</ele><time>2026-04-18T17:31:35.919Z</time></trkpt><trkpt lat="53.37760860367048" lon="14.864112016383194"><ele>30.0</ele><time>2026-04-18T17:31:36.919Z</time></trkpt><trkpt lat="53.37754213783352" lon="14.864111538746915"><ele>30.0</ele><time>2026-04-18T17:31:37.919Z</time></trkpt><trkpt lat="53.377468591349164" lon="14.864121070131903"><ele>30.0</ele><time>2026-04-18T17:31:38.919Z</time></trkpt><trkpt lat="53.377396336256275" lon="14.864101804516189"><ele>30.0</ele><time>2026-04-18T17:31:39.919Z</time></trkpt><trkpt lat="53.37732634641469" lon="14.864091239879738"><ele>30.0</ele><time>2026-04-18T17:31:40.919Z</time></trkpt><trkpt lat="53.377259092620754" lon="14.864094693166471"><ele>30.0</ele><time>2026-04-18T17:31:41.919Z</time></trkpt><trkpt lat="53.3771158873132" lon="14.864141838972927"><ele>30.0</ele><time>2026-04-18T17:31:43.919Z</time></trkpt><trkpt lat="53.37703510474842" lon="14.864164849656412"><ele>30.0</ele><time>2026-04-18T17:31:44.919Z</time></trkpt><trkpt lat="53.37696312298377" lon="14.864187794411288"><ele>30.0</ele><time>2026-04-18T17:31:45.919Z</time></trkpt><trkpt lat="53.37688883432232" lon="14.864216694478834"><ele>30.0</ele><time>2026-04-18T17:31:46.919Z</time></trkpt><trkpt lat="53.376828778421846" lon="14.86426376072367"><ele>30.0</ele><time>2026-04-18T17:31:47.919Z</time></trkpt><trkpt lat="53.37676195514859" lon="14.864298094043473"><ele>30.0</ele><time>2026-04-18T17:31:48.919Z</time></trkpt><trkpt lat="53.37668333637865" lon="14.864322263380135"><ele>30.0</ele><time>2026-04-18T17:31:49.919Z</time></trkpt><trkpt lat="53.37660533601997" lon="14.864339612533461"><ele>30.0</ele><time>2026-04-18T17:31:50.919Z</time></trkpt><trkpt lat="53.37651971497872" lon="14.864353720275178"><ele>30.166666666666668</ele><time>2026-04-18T17:31:51.919Z</time></trkpt><trkpt lat="53.37643394490316" lon="14.864354192992888"><ele>30.333333333333336</ele><time>2026-04-18T17:31:52.919Z</time></trkpt><trkpt lat="53.37635731648814" lon="14.864340933246162"><ele>30.5</ele><time>2026-04-18T17:31:53.919Z</time></trkpt><trkpt lat="53.37626810122442" lon="14.864340940565311"><ele>30.666666666666668</ele><time>2026-04-18T17:31:54.919Z</time></trkpt><trkpt lat="53.37617293752045" lon="14.8643307913546"><ele>30.833333333333336</ele><time>2026-04-18T17:31:55.919Z</time></trkpt><trkpt lat="53.37609711680817" lon="14.86429786119759"><ele>31.0</ele><time>2026-04-18T17:31:56.919Z</time></trkpt><trkpt lat="53.376029212401" lon="14.864269531305961"><ele>30.4</ele><time>2026-04-18T17:31:57.919Z</time></trkpt><trkpt lat="53.37594319525189" lon="14.864246009595059"><ele>29.8</ele><time>2026-04-18T17:31:58.919Z</time></trkpt><trkpt lat="53.375861495791845" lon="14.864201864233488"><ele>29.199999999999996</ele><time>2026-04-18T17:31:59.919Z</time></trkpt><trkpt lat="53.375796004546096" lon="14.86419085814945"><ele>28.599999999999998</ele><time>2026-04-18T17:32:00.919Z</time></trkpt><trkpt lat="53.375664298109115" lon="14.864156493410768"><ele>28.0</ele><time>2026-04-18T17:32:02.919Z</time></trkpt><trkpt lat="53.375550190986154" lon="14.864112908887066"><ele>27.000000000000004</ele><time>2026-04-18T17:32:04.919Z</time></trkpt><trkpt lat="53.375428163820736" lon="14.864088202381105"><ele>26.0</ele><time>2026-04-18T17:32:06.918Z</time></trkpt><trkpt lat="53.37536464963626" lon="14.864068682669279"><ele>25.0</ele><time>2026-04-18T17:32:07.918Z</time></trkpt><trkpt lat="53.37529813075139" lon="14.864047951859435"><ele>24.0</ele><time>2026-04-18T17:32:08.919Z</time></trkpt><trkpt lat="53.37523469764662" lon="14.86403005571033"><ele>23.0</ele><time>2026-04-18T17:32:09.919Z</time></trkpt><trkpt lat="53.37515335633025" lon="14.864011618135915"><ele>22.0</ele><time>2026-04-18T17:32:10.919Z</time></trkpt><trkpt lat="53.375079193263865" lon="14.863981795050453"><ele>22.0</ele><time>2026-04-18T17:32:11.918Z</time></trkpt><trkpt lat="53.375001621164856" lon="14.86395248155658"><ele>22.0</ele><time>2026-04-18T17:32:12.918Z</time></trkpt><trkpt lat="53.37492622560878" lon="14.863925351179065"><ele>22.0</ele><time>2026-04-18T17:32:13.918Z</time></trkpt><trkpt lat="53.37485499822831" lon="14.863902041012484"><ele>22.0</ele><time>2026-04-18T17:32:14.918Z</time></trkpt><trkpt lat="53.37478767951189" lon="14.863876318313652"><ele>22.0</ele><time>2026-04-18T17:32:15.918Z</time></trkpt><trkpt lat="53.37470935078419" lon="14.86384755857488"><ele>22.0</ele><time>2026-04-18T17:32:16.918Z</time></trkpt><trkpt lat="53.37463220058989" lon="14.863815346539734"><ele>22.285714285714285</ele><time>2026-04-18T17:32:17.919Z</time></trkpt><trkpt lat="53.37455689081845" lon="14.863794152258118"><ele>22.57142857142857</ele><time>2026-04-18T17:32:18.918Z</time></trkpt><trkpt lat="53.37447646442868" lon="14.863764014689725"><ele>22.857142857142854</ele><time>2026-04-18T17:32:19.918Z</time></trkpt><trkpt lat="53.37440137136977" lon="14.863731799905427"><ele>23.142857142857142</ele><time>2026-04-18T17:32:20.918Z</time></trkpt><trkpt lat="53.37433681820115" lon="14.863712636603642"><ele>23.428571428571427</ele><time>2026-04-18T17:32:21.918Z</time></trkpt><trkpt lat="53.37426955560387" lon="14.863686665226178"><ele>23.71428571428571</ele><time>2026-04-18T17:32:22.918Z</time></trkpt><trkpt lat="53.37420702610104" lon="14.86367413365492"><ele>24.0</ele><time>2026-04-18T17:32:23.918Z</time></trkpt><trkpt lat="53.37414098017922" lon="14.863658686378376"><ele>24.0</ele><time>2026-04-18T17:32:24.918Z</time></trkpt><trkpt lat="53.37407425514225" lon="14.863652470498065"><ele>24.0</ele><time>2026-04-18T17:32:25.918Z</time></trkpt><trkpt lat="53.37400560093721" lon="14.863639519207531"><ele>24.0</ele><time>2026-04-18T17:32:26.918Z</time></trkpt><trkpt lat="53.37393149225294" lon="14.863620569235845"><ele>24.0</ele><time>2026-04-18T17:32:27.918Z</time></trkpt><trkpt lat="53.37386385086157" lon="14.863617870575883"><ele>24.0</ele><time>2026-04-18T17:32:28.918Z</time></trkpt><trkpt lat="53.37379763802265" lon="14.863605003662428"><ele>24.0</ele><time>2026-04-18T17:32:29.918Z</time></trkpt><trkpt lat="53.37367970988326" lon="14.863573917290669"><ele>23.0</ele><time>2026-04-18T17:32:31.918Z</time></trkpt><trkpt lat="53.3735713870923" lon="14.863558912025624"><ele>22.0</ele><time>2026-04-18T17:32:33.918Z</time></trkpt><trkpt lat="53.37346356180639" lon="14.86353478336606"><ele>21.0</ele><time>2026-04-18T17:32:35.918Z</time></trkpt><trkpt lat="53.37334288067819" lon="14.863501804066328"><ele>20.0</ele><time>2026-04-18T17:32:37.918Z</time></trkpt><trkpt lat="53.373224580107696" lon="14.863471743622009"><ele>19.6</ele><time>2026-04-18T17:32:39.918Z</time></trkpt><trkpt lat="53.37310545951879" lon="14.863441098431698"><ele>19.2</ele><time>2026-04-18T17:32:41.918Z</time></trkpt><trkpt lat="53.372992714122965" lon="14.8634112226151"><ele>18.8</ele><time>2026-04-18T17:32:43.918Z</time></trkpt><trkpt lat="53.3728881995802" lon="14.863384729345466"><ele>18.4</ele><time>2026-04-18T17:32:45.918Z</time></trkpt><trkpt lat="53.37281574575156" lon="14.863345811698148"><ele>18.0</ele><time>2026-04-18T17:32:47.918Z</time></trkpt><trkpt lat="53.3727506430478" lon="14.86321670938241"><ele>18.0</ele><time>2026-04-18T17:33:02.919Z</time></trkpt><trkpt lat="53.372749566207716" lon="14.863098925818763"><ele>18.0</ele><time>2026-04-18T17:33:03.919Z</time></trkpt><trkpt lat="53.37271827646515" lon="14.862991880111457"><ele>18.0</ele><time>2026-04-18T17:33:05.919Z</time></trkpt><trkpt lat="53.37266132324969" lon="14.86305078372611"><ele>18.0</ele><time>2026-04-18T17:33:08.919Z</time></trkpt><trkpt lat="53.37273386364959" lon="14.863015102899283"><ele>18.0</ele><time>2026-04-18T17:33:31.919Z</time></trkpt><trkpt lat="53.3727829502823" lon="14.862896756021621"><ele>18.0</ele><time>2026-04-18T17:33:34.919Z</time></trkpt><trkpt lat="53.372782327013084" lon="14.862760907436126"><ele>18.0</ele><time>2026-04-18T17:33:36.919Z</time></trkpt><trkpt lat="53.37279220172639" lon="14.862624562411336"><ele>18.0</ele><time>2026-04-18T17:33:38.919Z</time></trkpt><trkpt lat="53.372787600725324" lon="14.862471179601442"><ele>18.0</ele><time>2026-04-18T17:33:40.919Z</time></trkpt><trkpt lat="53.37279025437207" lon="14.862365749005392"><ele>18.0</ele><time>2026-04-18T17:33:41.919Z</time></trkpt><trkpt lat="53.37279692872286" lon="14.862242704763876"><ele>18.0</ele><time>2026-04-18T17:33:42.919Z</time></trkpt><trkpt lat="53.37278774641194" lon="14.862085476629515"><ele>18.0</ele><time>2026-04-18T17:33:43.919Z</time></trkpt><trkpt lat="53.37279616806527" lon="14.86192054954488"><ele>17.8</ele><time>2026-04-18T17:33:44.919Z</time></trkpt><trkpt lat="53.37282199598528" lon="14.86173961431354"><ele>17.6</ele><time>2026-04-18T17:33:45.919Z</time></trkpt><trkpt lat="53.372839465056046" lon="14.861578402639756"><ele>17.4</ele><time>2026-04-18T17:33:46.919Z</time></trkpt><trkpt lat="53.37285736328675" lon="14.861434705985166"><ele>17.2</ele><time>2026-04-18T17:33:47.919Z</time></trkpt><trkpt lat="53.37286943038436" lon="14.861294016833194"><ele>17.0</ele><time>2026-04-18T17:33:48.919Z</time></trkpt><trkpt lat="53.37288654650365" lon="14.861145180173574"><ele>17.0</ele><time>2026-04-18T17:33:49.919Z</time></trkpt><trkpt lat="53.3729032188397" lon="14.860994961312377"><ele>17.0</ele><time>2026-04-18T17:33:50.92Z</time></trkpt><trkpt lat="53.372919320983954" lon="14.860847208385625"><ele>17.0</ele><time>2026-04-18T17:33:51.92Z</time></trkpt><trkpt lat="53.37293589811038" lon="14.860699565731979"><ele>17.0</ele><time>2026-04-18T17:33:52.92Z</time></trkpt><trkpt lat="53.37295216880464" lon="14.86054739337844"><ele>17.0</ele><time>2026-04-18T17:33:53.92Z</time></trkpt><trkpt lat="53.372975879690166" lon="14.860383577619675"><ele>17.0</ele><time>2026-04-18T17:33:54.92Z</time></trkpt><trkpt lat="53.37300688341782" lon="14.860246995032156"><ele>17.0</ele><time>2026-04-18T17:33:55.92Z</time></trkpt><trkpt lat="53.37299533229042" lon="14.860101272834726"><ele>17.0</ele><time>2026-04-18T17:33:56.92Z</time></trkpt><trkpt lat="53.37301353679334" lon="14.859969803140588"><ele>17.0</ele><time>2026-04-18T17:33:57.92Z</time></trkpt><trkpt lat="53.37303426095319" lon="14.859829244771324"><ele>17.0</ele><time>2026-04-18T17:33:58.92Z</time></trkpt><trkpt lat="53.37305399160532" lon="14.859714649624875"><ele>17.0</ele><time>2026-04-18T17:33:59.92Z</time></trkpt><trkpt lat="53.37307175912546" lon="14.859611456279328"><ele>17.0</ele><time>2026-04-18T17:34:00.92Z</time></trkpt><trkpt lat="53.3730910292167" lon="14.859499538153962"><ele>17.0</ele><time>2026-04-18T17:34:01.92Z</time></trkpt><trkpt lat="53.3731069238776" lon="14.859379425157144"><ele>17.0</ele><time>2026-04-18T17:34:02.92Z</time></trkpt><trkpt lat="53.373121298467986" lon="14.859262838348073"><ele>17.0</ele><time>2026-04-18T17:34:03.92Z</time></trkpt><trkpt lat="53.373132245348614" lon="14.859108649688556"><ele>17.0</ele><time>2026-04-18T17:34:05.92Z</time></trkpt><trkpt lat="53.373251079412064" lon="14.858959414433292"><ele>17.0</ele><time>2026-04-18T17:34:57.919Z</time></trkpt><trkpt lat="53.373335057386264" lon="14.858906116728804"><ele>17.0</ele><time>2026-04-18T17:34:58.919Z</time></trkpt><trkpt lat="53.373419090702676" lon="14.858864061374554"><ele>17.0</ele><time>2026-04-18T17:34:59.919Z</time></trkpt><trkpt lat="53.373521561456684" lon="14.858814273803405"><ele>17.0</ele><time>2026-04-18T17:35:00.919Z</time></trkpt><trkpt lat="53.37362973441096" lon="14.858753360214465"><ele>17.0</ele><time>2026-04-18T17:35:01.919Z</time></trkpt><trkpt lat="53.37374584952369" lon="14.858690586779305"><ele>17.0</ele><time>2026-04-18T17:35:02.919Z</time></trkpt><trkpt lat="53.373811867269964" lon="14.858648456807435"><ele>17.0</ele><time>2026-04-18T17:35:03.919Z</time></trkpt><trkpt lat="53.37391515001177" lon="14.858620545633716"><ele>17.0</ele><time>2026-04-18T17:35:04.919Z</time></trkpt><trkpt lat="53.37402515150137" lon="14.858565825377656"><ele>17.0</ele><time>2026-04-18T17:35:05.919Z</time></trkpt><trkpt lat="53.37413369111982" lon="14.858482145299579"><ele>17.0</ele><time>2026-04-18T17:35:06.92Z</time></trkpt><trkpt lat="53.37423644873333" lon="14.858443027358001"><ele>17.0</ele><time>2026-04-18T17:35:07.92Z</time></trkpt><trkpt lat="53.374339361655046" lon="14.858388378074451"><ele>17.0</ele><time>2026-04-18T17:35:08.92Z</time></trkpt><trkpt lat="53.374434589876984" lon="14.858333628670131"><ele>17.0</ele><time>2026-04-18T17:35:09.92Z</time></trkpt><trkpt lat="53.37455190902657" lon="14.85828292598203"><ele>17.0</ele><time>2026-04-18T17:35:10.92Z</time></trkpt><trkpt lat="53.37466699419296" lon="14.858230140954992"><ele>17.0</ele><time>2026-04-18T17:35:11.92Z</time></trkpt><trkpt lat="53.37477285831075" lon="14.858170986820479"><ele>17.2</ele><time>2026-04-18T17:35:12.92Z</time></trkpt><trkpt lat="53.37486365307037" lon="14.85812577828722"><ele>17.4</ele><time>2026-04-18T17:35:13.92Z</time></trkpt><trkpt lat="53.374957351655894" lon="14.858098688180851"><ele>17.6</ele><time>2026-04-18T17:35:14.92Z</time></trkpt><trkpt lat="53.37504135888252" lon="14.858027270238011"><ele>17.8</ele><time>2026-04-18T17:35:15.92Z</time></trkpt><trkpt lat="53.37511662177987" lon="14.858002450280882"><ele>18.0</ele><time>2026-04-18T17:35:16.92Z</time></trkpt><trkpt lat="53.37521015455624" lon="14.85797089189378"><ele>18.0</ele><time>2026-04-18T17:35:17.92Z</time></trkpt><trkpt lat="53.37530222752311" lon="14.85790685789167"><ele>18.0</ele><time>2026-04-18T17:35:18.92Z</time></trkpt><trkpt lat="53.37537261355033" lon="14.857871045183277"><ele>18.0</ele><time>2026-04-18T17:35:19.92Z</time></trkpt><trkpt lat="53.37543970552785" lon="14.857834792192588"><ele>18.0</ele><time>2026-04-18T17:35:20.92Z</time></trkpt><trkpt lat="53.37550373581728" lon="14.857799517061661"><ele>18.0</ele><time>2026-04-18T17:35:21.92Z</time></trkpt><trkpt lat="53.37558723173599" lon="14.857782055040637"><ele>18.0</ele><time>2026-04-18T17:35:22.92Z</time></trkpt><trkpt lat="53.37564952120098" lon="14.85775069546108"><ele>18.333333333333332</ele><time>2026-04-18T17:35:23.92Z</time></trkpt><trkpt lat="53.375754837459716" lon="14.857697334825312"><ele>18.666666666666668</ele><time>2026-04-18T17:35:25.92Z</time></trkpt><trkpt lat="53.375821659885425" lon="14.857664155644633"><ele>19.0</ele><time>2026-04-18T17:35:26.92Z</time></trkpt><trkpt lat="53.375885813658314" lon="14.857632301530831"><ele>19.333333333333336</ele><time>2026-04-18T17:35:30.92Z</time></trkpt><trkpt lat="53.37598888144769" lon="14.857568757531086"><ele>19.666666666666668</ele><time>2026-04-18T17:35:33.92Z</time></trkpt><trkpt lat="53.37606142444843" lon="14.857544813291634"><ele>20.0</ele><time>2026-04-18T17:35:34.92Z</time></trkpt><trkpt lat="53.37613575994148" lon="14.857525995194658"><ele>20.0</ele><time>2026-04-18T17:35:35.92Z</time></trkpt><trkpt lat="53.3762114520043" lon="14.857476173221006"><ele>20.0</ele><time>2026-04-18T17:35:36.92Z</time></trkpt><trkpt lat="53.376285274083955" lon="14.857434441283278"><ele>20.0</ele><time>2026-04-18T17:35:37.92Z</time></trkpt><trkpt lat="53.376348771005304" lon="14.857401398988834"><ele>20.0</ele><time>2026-04-18T17:35:38.92Z</time></trkpt><trkpt lat="53.37641095516415" lon="14.857353857643595"><ele>20.0</ele><time>2026-04-18T17:35:39.92Z</time></trkpt><trkpt lat="53.37647974601692" lon="14.857317795713145"><ele>20.0</ele><time>2026-04-18T17:35:40.92Z</time></trkpt><trkpt lat="53.37657144705064" lon="14.857288343912836"><ele>19.8</ele><time>2026-04-18T17:35:41.92Z</time></trkpt><trkpt lat="53.3766617631179" lon="14.85725837779297"><ele>19.6</ele><time>2026-04-18T17:35:42.92Z</time></trkpt><trkpt lat="53.37673241875701" lon="14.857222459055459"><ele>19.4</ele><time>2026-04-18T17:35:43.92Z</time></trkpt><trkpt lat="53.37683749821597" lon="14.85716672138475"><ele>19.2</ele><time>2026-04-18T17:35:44.92Z</time></trkpt><trkpt lat="53.376917255461116" lon="14.857106956006112"><ele>19.0</ele><time>2026-04-18T17:35:45.92Z</time></trkpt><trkpt lat="53.37701966589788" lon="14.857077869098518"><ele>19.0</ele><time>2026-04-18T17:35:46.92Z</time></trkpt><trkpt lat="53.37712215636428" lon="14.857050020202626"><ele>19.0</ele><time>2026-04-18T17:35:47.92Z</time></trkpt><trkpt lat="53.37721154387345" lon="14.856990040831217"><ele>19.0</ele><time>2026-04-18T17:35:48.92Z</time></trkpt><trkpt lat="53.37729742183864" lon="14.856947479419313"><ele>19.0</ele><time>2026-04-18T17:35:49.92Z</time></trkpt><trkpt lat="53.37739027914579" lon="14.856910660198784"><ele>19.0</ele><time>2026-04-18T17:35:50.92Z</time></trkpt><trkpt lat="53.37747967693757" lon="14.85686106935362"><ele>19.0</ele><time>2026-04-18T17:35:51.92Z</time></trkpt><trkpt lat="53.37757082372424" lon="14.856804107352993"><ele>19.0</ele><time>2026-04-18T17:35:52.92Z</time></trkpt><trkpt lat="53.37766427648383" lon="14.856763198119795"><ele>19.0</ele><time>2026-04-18T17:35:53.92Z</time></trkpt><trkpt lat="53.37776952003692" lon="14.856703912224267"><ele>19.0</ele><time>2026-04-18T17:35:54.92Z</time></trkpt><trkpt lat="53.37786419177356" lon="14.856695563054577"><ele>19.0</ele><time>2026-04-18T17:35:55.92Z</time></trkpt><trkpt lat="53.377949003041074" lon="14.856627007863818"><ele>19.6</ele><time>2026-04-18T17:35:56.92Z</time></trkpt><trkpt lat="53.37803701552239" lon="14.856592310185277"><ele>20.2</ele><time>2026-04-18T17:35:57.921Z</time></trkpt><trkpt lat="53.37811824127147" lon="14.85653662822837"><ele>20.8</ele><time>2026-04-18T17:35:58.921Z</time></trkpt><trkpt lat="53.378215070568785" lon="14.856467363992373"><ele>21.400000000000002</ele><time>2026-04-18T17:35:59.921Z</time></trkpt><trkpt lat="53.378284024211624" lon="14.856410678361659"><ele>22.0</ele><time>2026-04-18T17:36:00.921Z</time></trkpt><trkpt lat="53.3783670758351" lon="14.856341915123602"><ele>22.0</ele><time>2026-04-18T17:36:02.921Z</time></trkpt><trkpt lat="53.378439008248044" lon="14.856300747838677"><ele>22.0</ele><time>2026-04-18T17:36:05.921Z</time></trkpt><trkpt lat="53.37851454096591" lon="14.856192055619735"><ele>22.0</ele><time>2026-04-18T17:36:07.921Z</time></trkpt><trkpt lat="53.37857815706259" lon="14.85615661657774"><ele>22.0</ele><time>2026-04-18T17:36:08.921Z</time></trkpt><trkpt lat="53.37862889638339" lon="14.856071773861647"><ele>22.0</ele><time>2026-04-18T17:36:09.921Z</time></trkpt><trkpt lat="53.37868657186893" lon="14.856010758164631"><ele>22.0</ele><time>2026-04-18T17:36:10.921Z</time></trkpt><trkpt lat="53.37874621254179" lon="14.855945418236443"><ele>22.0</ele><time>2026-04-18T17:36:11.921Z</time></trkpt><trkpt lat="53.37881402257262" lon="14.855880166353387"><ele>22.0</ele><time>2026-04-18T17:36:12.921Z</time></trkpt><trkpt lat="53.378876663982716" lon="14.855813219722819"><ele>22.0</ele><time>2026-04-18T17:36:13.921Z</time></trkpt><trkpt lat="53.37894327717615" lon="14.855766208052762"><ele>22.0</ele><time>2026-04-18T17:36:14.921Z</time></trkpt><trkpt lat="53.379000944359476" lon="14.855673972515266"><ele>22.0</ele><time>2026-04-18T17:36:15.921Z</time></trkpt><trkpt lat="53.37906087780846" lon="14.855624204387416"><ele>22.0</ele><time>2026-04-18T17:36:16.921Z</time></trkpt><trkpt lat="53.37915912476402" lon="14.85553507181835"><ele>21.833333333333332</ele><time>2026-04-18T17:36:18.92Z</time></trkpt><trkpt lat="53.37923512627652" lon="14.855429915787061"><ele>21.666666666666664</ele><time>2026-04-18T17:36:20.92Z</time></trkpt><trkpt lat="53.379299178560416" lon="14.855360504745189"><ele>21.5</ele><time>2026-04-18T17:36:21.92Z</time></trkpt><trkpt lat="53.379354369288194" lon="14.855308545280845"><ele>21.333333333333332</ele><time>2026-04-18T17:36:22.92Z</time></trkpt><trkpt lat="53.37940656988234" lon="14.855246603377209"><ele>21.166666666666668</ele><time>2026-04-18T17:36:23.921Z</time></trkpt><trkpt lat="53.37946331499151" lon="14.855192403571266"><ele>21.0</ele><time>2026-04-18T17:36:24.92Z</time></trkpt><trkpt lat="53.379552663731694" lon="14.85507783263979"><ele>21.0</ele><time>2026-04-18T17:36:26.92Z</time></trkpt><trkpt lat="53.37965187298297" lon="14.854992748862308"><ele>21.0</ele><time>2026-04-18T17:36:28.92Z</time></trkpt><trkpt lat="53.37973891360066" lon="14.854889377800488"><ele>21.0</ele><time>2026-04-18T17:36:30.92Z</time></trkpt><trkpt lat="53.37983528215689" lon="14.854798474448005"><ele>21.0</ele><time>2026-04-18T17:36:32.92Z</time></trkpt><trkpt lat="53.379920591668025" lon="14.854711190754541"><ele>21.0</ele><time>2026-04-18T17:36:34.92Z</time></trkpt><trkpt lat="53.380005939616176" lon="14.85462531767262"><ele>21.200000000000003</ele><time>2026-04-18T17:36:36.92Z</time></trkpt><trkpt lat="53.3800924041833" lon="14.854541287495056"><ele>21.400000000000002</ele><time>2026-04-18T17:36:38.92Z</time></trkpt><trkpt lat="53.380196645506764" lon="14.85443496693391"><ele>21.6</ele><time>2026-04-18T17:36:40.92Z</time></trkpt><trkpt lat="53.380252174269664" lon="14.854377096848536"><ele>21.8</ele><time>2026-04-18T17:36:41.92Z</time></trkpt><trkpt lat="53.38034773266859" lon="14.854279968509454"><ele>22.0</ele><time>2026-04-18T17:36:43.92Z</time></trkpt><trkpt lat="53.380426858116955" lon="14.85419794046527"><ele>22.0</ele><time>2026-04-18T17:36:45.92Z</time></trkpt><trkpt lat="53.380499653720214" lon="14.854140267013467"><ele>22.0</ele><time>2026-04-18T17:36:47.92Z</time></trkpt><trkpt lat="53.38056363186485" lon="14.854072033197774"><ele>22.0</ele><time>2026-04-18T17:36:49.92Z</time></trkpt><trkpt lat="53.380643300691396" lon="14.853991870496513"><ele>22.0</ele><time>2026-04-18T17:36:51.92Z</time></trkpt><trkpt lat="53.38073177129964" lon="14.853904051305877"><ele>22.0</ele><time>2026-04-18T17:36:53.92Z</time></trkpt><trkpt lat="53.38083286360757" lon="14.853793850484637"><ele>22.0</ele><time>2026-04-18T17:36:55.92Z</time></trkpt><trkpt lat="53.38089024387641" lon="14.853737358257325"><ele>22.0</ele><time>2026-04-18T17:36:56.92Z</time></trkpt><trkpt lat="53.38094408798169" lon="14.853682216731361"><ele>22.0</ele><time>2026-04-18T17:36:57.92Z</time></trkpt><trkpt lat="53.381010850960706" lon="14.85361077673238"><ele>22.0</ele><time>2026-04-18T17:36:58.92Z</time></trkpt><trkpt lat="53.381074961318404" lon="14.853552030908682"><ele>22.0</ele><time>2026-04-18T17:36:59.92Z</time></trkpt><trkpt lat="53.38114158294703" lon="14.853485694523894"><ele>22.0</ele><time>2026-04-18T17:37:00.92Z</time></trkpt><trkpt lat="53.38121415559736" lon="14.85341505177847"><ele>22.0</ele><time>2026-04-18T17:37:01.92Z</time></trkpt><trkpt lat="53.38127707539274" lon="14.853340656004294"><ele>22.200000000000003</ele><time>2026-04-18T17:37:02.92Z</time></trkpt><trkpt lat="53.381370444978664" lon="14.85327261600814"><ele>22.4</ele><time>2026-04-18T17:37:04.92Z</time></trkpt><trkpt lat="53.38142479134296" lon="14.853207610646358"><ele>22.6</ele><time>2026-04-18T17:37:05.92Z</time></trkpt><trkpt lat="53.38151377738634" lon="14.853101793436679"><ele>22.799999999999997</ele><time>2026-04-18T17:37:07.92Z</time></trkpt><trkpt lat="53.38160822628911" lon="14.853013953088613"><ele>23.0</ele><time>2026-04-18T17:37:09.92Z</time></trkpt><trkpt lat="53.38163282928385" lon="14.852890361761197"><ele>23.0</ele><time>2026-04-18T17:37:11.92Z</time></trkpt><trkpt lat="53.38160470512045" lon="14.852733639600991"><ele>23.0</ele><time>2026-04-18T17:37:13.92Z</time></trkpt><trkpt lat="53.38158570648905" lon="14.852557925077154"><ele>23.0</ele><time>2026-04-18T17:37:15.92Z</time></trkpt><trkpt lat="53.381578256009796" lon="14.85236262541509"><ele>23.0</ele><time>2026-04-18T17:37:17.92Z</time></trkpt><trkpt lat="53.3815728727486" lon="14.852231402930096"><ele>23.0</ele><time>2026-04-18T17:37:18.92Z</time></trkpt><trkpt lat="53.38157239758514" lon="14.852120715859904"><ele>23.0</ele><time>2026-04-18T17:37:19.921Z</time></trkpt><trkpt lat="53.38156084534283" lon="14.851988202751583"><ele>23.0</ele><time>2026-04-18T17:37:20.921Z</time></trkpt><trkpt lat="53.38156237675029" lon="14.851867049968948"><ele>23.0</ele><time>2026-04-18T17:37:21.921Z</time></trkpt><trkpt lat="53.38155778817219" lon="14.85173763385278"><ele>23.0</ele><time>2026-04-18T17:37:22.921Z</time></trkpt><trkpt lat="53.3815510876575" lon="14.851623715565976"><ele>23.0</ele><time>2026-04-18T17:37:23.921Z</time></trkpt><trkpt lat="53.381549780357275" lon="14.8514822653731"><ele>23.0</ele><time>2026-04-18T17:37:24.921Z</time></trkpt><trkpt lat="53.3815494263554" lon="14.851363474063543"><ele>23.4</ele><time>2026-04-18T17:37:25.921Z</time></trkpt><trkpt lat="53.381545552093975" lon="14.85118129401401"><ele>23.799999999999997</ele><time>2026-04-18T17:37:26.921Z</time></trkpt><trkpt lat="53.381532244542505" lon="14.851021069109331"><ele>24.2</ele><time>2026-04-18T17:37:27.921Z</time></trkpt><trkpt lat="53.3815186669548" lon="14.850866884294762"><ele>24.6</ele><time>2026-04-18T17:37:28.921Z</time></trkpt><trkpt lat="53.381505077580385" lon="14.850756492702153"><ele>25.0</ele><time>2026-04-18T17:37:29.921Z</time></trkpt><trkpt lat="53.381504971430275" lon="14.85059926728833"><ele>25.0</ele><time>2026-04-18T17:37:30.921Z</time></trkpt><trkpt lat="53.38150485930354" lon="14.85044056461498"><ele>25.0</ele><time>2026-04-18T17:37:31.921Z</time></trkpt><trkpt lat="53.381491746694884" lon="14.850278098939652"><ele>25.0</ele><time>2026-04-18T17:37:32.921Z</time></trkpt><trkpt lat="53.38148899066496" lon="14.850139340311744"><ele>25.0</ele><time>2026-04-18T17:37:33.921Z</time></trkpt><trkpt lat="53.38147762155276" lon="14.849969320189983"><ele>25.0</ele><time>2026-04-18T17:37:34.921Z</time></trkpt><trkpt lat="53.38142750511455" lon="14.849825710140268"><ele>25.000000000000004</ele><time>2026-04-18T17:37:36.921Z</time></trkpt><trkpt lat="53.38139866124272" lon="14.849718119513607"><ele>25.0</ele><time>2026-04-18T17:37:37.921Z</time></trkpt><trkpt lat="53.38140625710587" lon="14.849574811487985"><ele>25.0</ele><time>2026-04-18T17:37:38.921Z</time></trkpt><trkpt lat="53.38143912520812" lon="14.849387713169522"><ele>25.0</ele><time>2026-04-18T17:37:39.921Z</time></trkpt><trkpt lat="53.38146230952913" lon="14.849285780008882"><ele>25.000000000000004</ele><time>2026-04-18T17:37:40.921Z</time></trkpt><trkpt lat="53.38145248238496" lon="14.849154261221601"><ele>25.0</ele><time>2026-04-18T17:37:41.921Z</time></trkpt><trkpt lat="53.381418428362664" lon="14.848930433830134"><ele>25.000000000000004</ele><time>2026-04-18T17:37:42.921Z</time></trkpt><trkpt lat="53.381411946892825" lon="14.8488086551608"><ele>25.0</ele><time>2026-04-18T17:37:43.921Z</time></trkpt><trkpt lat="53.38138229797457" lon="14.848655286973976"><ele>25.0</ele><time>2026-04-18T17:37:44.921Z</time></trkpt><trkpt lat="53.3813868861896" lon="14.848470181820245"><ele>25.0</ele><time>2026-04-18T17:37:45.921Z</time></trkpt><trkpt lat="53.381382317219646" lon="14.848333981806377"><ele>25.000000000000004</ele><time>2026-04-18T17:37:46.921Z</time></trkpt><trkpt lat="53.38136561200166" lon="14.848205463387556"><ele>25.0</ele><time>2026-04-18T17:37:47.921Z</time></trkpt><trkpt lat="53.38135082382413" lon="14.84804479022063"><ele>25.000000000000004</ele><time>2026-04-18T17:37:48.921Z</time></trkpt><trkpt lat="53.381359804477455" lon="14.847912921389446"><ele>25.0</ele><time>2026-04-18T17:37:49.921Z</time></trkpt><trkpt lat="53.38135520104406" lon="14.847781248286365"><ele>25.0</ele><time>2026-04-18T17:37:50.921Z</time></trkpt><trkpt lat="53.381340934645856" lon="14.847624814700133"><ele>25.0</ele><time>2026-04-18T17:37:51.921Z</time></trkpt><trkpt lat="53.381340336083575" lon="14.847479260451923"><ele>25.000000000000004</ele><time>2026-04-18T17:37:52.921Z</time></trkpt><trkpt lat="53.38133630445933" lon="14.847337929258963"><ele>25.0</ele><time>2026-04-18T17:37:53.921Z</time></trkpt><trkpt lat="53.38133404141224" lon="14.847211730280696"><ele>24.333333333333336</ele><time>2026-04-18T17:37:54.921Z</time></trkpt><trkpt lat="53.38132116116893" lon="14.847092914783675"><ele>23.666666666666668</ele><time>2026-04-18T17:37:55.921Z</time></trkpt><trkpt lat="53.38130693453067" lon="14.846918815266003"><ele>23.0</ele><time>2026-04-18T17:37:56.921Z</time></trkpt><trkpt lat="53.38130804616081" lon="14.846797795217595"><ele>22.333333333333336</ele><time>2026-04-18T17:37:57.921Z</time></trkpt><trkpt lat="53.381300719485104" lon="14.846680712743638"><ele>21.666666666666668</ele><time>2026-04-18T17:37:58.921Z</time></trkpt><trkpt lat="53.38129742844779" lon="14.846546594798316"><ele>21.0</ele><time>2026-04-18T17:37:59.921Z</time></trkpt><trkpt lat="53.38128761319242" lon="14.846372126571842"><ele>21.0</ele><time>2026-04-18T17:38:00.921Z</time></trkpt><trkpt lat="53.381270060498686" lon="14.846201148110536"><ele>21.0</ele><time>2026-04-18T17:38:01.921Z</time></trkpt><trkpt lat="53.381269458966024" lon="14.846025450935262"><ele>21.0</ele><time>2026-04-18T17:38:02.921Z</time></trkpt><trkpt lat="53.3812673697179" lon="14.84586585656909"><ele>21.0</ele><time>2026-04-18T17:38:03.921Z</time></trkpt><trkpt lat="53.38125972755545" lon="14.845730900314798"><ele>21.0</ele><time>2026-04-18T17:38:04.921Z</time></trkpt><trkpt lat="53.38125683901196" lon="14.845603079594463"><ele>21.0</ele><time>2026-04-18T17:38:05.921Z</time></trkpt><trkpt lat="53.38125340514172" lon="14.845475728170896"><ele>21.0</ele><time>2026-04-18T17:38:06.921Z</time></trkpt><trkpt lat="53.38125478995742" lon="14.84533597196655"><ele>21.0</ele><time>2026-04-18T17:38:07.921Z</time></trkpt><trkpt lat="53.38124843060388" lon="14.845220982993808"><ele>21.0</ele><time>2026-04-18T17:38:08.921Z</time></trkpt><trkpt lat="53.38124471967072" lon="14.845105496498997"><ele>21.0</ele><time>2026-04-18T17:38:09.922Z</time></trkpt><trkpt lat="53.38124728070654" lon="14.844986921604784"><ele>21.0</ele><time>2026-04-18T17:38:10.922Z</time></trkpt><trkpt lat="53.38122962527265" lon="14.844864887583695"><ele>21.0</ele><time>2026-04-18T17:38:11.922Z</time></trkpt><trkpt lat="53.3812242940677" lon="14.844716712106651"><ele>21.200000000000003</ele><time>2026-04-18T17:38:12.922Z</time></trkpt><trkpt lat="53.381222589126935" lon="14.844564702704982"><ele>21.400000000000002</ele><time>2026-04-18T17:38:13.922Z</time></trkpt><trkpt lat="53.38120996429396" lon="14.844412529232056"><ele>21.6</ele><time>2026-04-18T17:38:14.922Z</time></trkpt><trkpt lat="53.381206538844" lon="14.844241812211875"><ele>21.8</ele><time>2026-04-18T17:38:15.922Z</time></trkpt><trkpt lat="53.38120003631444" lon="14.84407133866758"><ele>22.0</ele><time>2026-04-18T17:38:16.922Z</time></trkpt><trkpt lat="53.38118080417854" lon="14.843911491122428"><ele>22.166666666666664</ele><time>2026-04-18T17:38:17.922Z</time></trkpt><trkpt lat="53.381170999486855" lon="14.843769441308941"><ele>22.333333333333332</ele><time>2026-04-18T17:38:18.922Z</time></trkpt><trkpt lat="53.381156254828866" lon="14.843640202090775"><ele>22.5</ele><time>2026-04-18T17:38:19.922Z</time></trkpt><trkpt lat="53.38114366959867" lon="14.843499576374876"><ele>22.666666666666668</ele><time>2026-04-18T17:38:20.922Z</time></trkpt><trkpt lat="53.3811537624475" lon="14.84338851132649"><ele>22.833333333333336</ele><time>2026-04-18T17:38:21.922Z</time></trkpt><trkpt lat="53.3811471816178" lon="14.843261661369263"><ele>23.0</ele><time>2026-04-18T17:38:22.922Z</time></trkpt><trkpt lat="53.38113553927973" lon="14.843027098038444"><ele>23.0</ele><time>2026-04-18T17:38:24.921Z</time></trkpt><trkpt lat="53.38113634667116" lon="14.842898114848616"><ele>23.0</ele><time>2026-04-18T17:38:25.921Z</time></trkpt><trkpt lat="53.38113258311462" lon="14.84275718206032"><ele>23.0</ele><time>2026-04-18T17:38:26.921Z</time></trkpt><trkpt lat="53.38112858905792" lon="14.84263130480741"><ele>23.0</ele><time>2026-04-18T17:38:27.921Z</time></trkpt><trkpt lat="53.381112151233644" lon="14.84249194147736"><ele>23.0</ele><time>2026-04-18T17:38:28.921Z</time></trkpt><trkpt lat="53.38109523440307" lon="14.842348414794026"><ele>23.0</ele><time>2026-04-18T17:38:29.922Z</time></trkpt><trkpt lat="53.381070215428984" lon="14.8421913420385"><ele>23.2</ele><time>2026-04-18T17:38:30.921Z</time></trkpt><trkpt lat="53.38103255426966" lon="14.842010118158655"><ele>23.4</ele><time>2026-04-18T17:38:31.921Z</time></trkpt><trkpt lat="53.38105627035019" lon="14.84184806072434"><ele>23.599999999999998</ele><time>2026-04-18T17:38:33.921Z</time></trkpt><trkpt lat="53.3811004544167" lon="14.841760279450588"><ele>23.799999999999997</ele><time>2026-04-18T17:38:34.921Z</time></trkpt><trkpt lat="53.38111668073539" lon="14.841653201373425"><ele>24.0</ele><time>2026-04-18T17:38:35.922Z</time></trkpt><trkpt lat="53.38104627689785" lon="14.841521897013365"><ele>24.166666666666668</ele><time>2026-04-18T17:38:36.922Z</time></trkpt><trkpt lat="53.38105606955799" lon="14.841388376388295"><ele>24.333333333333336</ele><time>2026-04-18T17:38:37.922Z</time></trkpt><trkpt lat="53.38104531996032" lon="14.84125124246931"><ele>24.5</ele><time>2026-04-18T17:38:38.922Z</time></trkpt><trkpt lat="53.38103890990554" lon="14.841133659306264"><ele>24.666666666666668</ele><time>2026-04-18T17:38:39.922Z</time></trkpt><trkpt lat="53.38103983148516" lon="14.841001406369141"><ele>24.833333333333336</ele><time>2026-04-18T17:38:40.922Z</time></trkpt><trkpt lat="53.381040862495404" lon="14.840878250920582"><ele>25.0</ele><time>2026-04-18T17:38:41.922Z</time></trkpt><trkpt lat="53.38103206936618" lon="14.840741957623063"><ele>25.000000000000004</ele><time>2026-04-18T17:38:42.922Z</time></trkpt><trkpt lat="53.38100141943843" lon="14.840593583399388"><ele>25.0</ele><time>2026-04-18T17:38:43.922Z</time></trkpt><trkpt lat="53.38099998279621" lon="14.8404878708167"><ele>25.0</ele><time>2026-04-18T17:38:44.922Z</time></trkpt><trkpt lat="53.380978079659975" lon="14.840368835734933"><ele>25.0</ele><time>2026-04-18T17:38:45.922Z</time></trkpt><trkpt lat="53.38098426361722" lon="14.840238420459878"><ele>25.000000000000004</ele><time>2026-04-18T17:38:46.922Z</time></trkpt><trkpt lat="53.380973939512664" lon="14.840094224164217"><ele>25.0</ele><time>2026-04-18T17:38:47.922Z</time></trkpt><trkpt lat="53.38096310333399" lon="14.839968300098253"><ele>25.000000000000004</ele><time>2026-04-18T17:38:48.922Z</time></trkpt><trkpt lat="53.38094229328958" lon="14.839786923352426"><ele>25.0</ele><time>2026-04-18T17:38:50.922Z</time></trkpt><trkpt lat="53.3809508368114" lon="14.839651382656289"><ele>25.0</ele><time>2026-04-18T17:38:51.922Z</time></trkpt><trkpt lat="53.38095378419728" lon="14.839523862492513"><ele>25.0</ele><time>2026-04-18T17:38:52.922Z</time></trkpt><trkpt lat="53.380942959163654" lon="14.83940425938612"><ele>25.000000000000004</ele><time>2026-04-18T17:38:53.922Z</time></trkpt><trkpt lat="53.38094573873216" lon="14.83928370849137"><ele>25.0</ele><time>2026-04-18T17:38:54.922Z</time></trkpt><trkpt lat="53.38094914829558" lon="14.839169157963024"><ele>24.666666666666668</ele><time>2026-04-18T17:38:55.922Z</time></trkpt><trkpt lat="53.380942018077356" lon="14.839046018026913"><ele>24.333333333333336</ele><time>2026-04-18T17:38:56.922Z</time></trkpt><trkpt lat="53.38093764091729" lon="14.838926359449584"><ele>24.0</ele><time>2026-04-18T17:38:57.922Z</time></trkpt><trkpt lat="53.380922097887684" lon="14.83879716294014"><ele>23.666666666666668</ele><time>2026-04-18T17:38:58.922Z</time></trkpt><trkpt lat="53.38091463794675" lon="14.838676831532332"><ele>23.333333333333336</ele><time>2026-04-18T17:38:59.922Z</time></trkpt><trkpt lat="53.3809144590612" lon="14.838551604896255"><ele>23.0</ele><time>2026-04-18T17:39:00.922Z</time></trkpt><trkpt lat="53.38091320041989" lon="14.83840109570211"><ele>23.0</ele><time>2026-04-18T17:39:01.922Z</time></trkpt><trkpt lat="53.38089928968011" lon="14.838290760454626"><ele>23.0</ele><time>2026-04-18T17:39:02.922Z</time></trkpt><trkpt lat="53.380879259330214" lon="14.8381841432385"><ele>23.0</ele><time>2026-04-18T17:39:03.922Z</time></trkpt><trkpt lat="53.38088737367776" lon="14.838064814980946"><ele>23.0</ele><time>2026-04-18T17:39:04.922Z</time></trkpt><trkpt lat="53.38087070338591" lon="14.837943150075903"><ele>23.0</ele><time>2026-04-18T17:39:05.922Z</time></trkpt><trkpt lat="53.380858594360525" lon="14.837812245261034"><ele>23.0</ele><time>2026-04-18T17:39:06.922Z</time></trkpt><trkpt lat="53.380859075731074" lon="14.83768112537404"><ele>23.0</ele><time>2026-04-18T17:39:07.922Z</time></trkpt><trkpt lat="53.380859297769945" lon="14.837546196777254"><ele>23.166666666666668</ele><time>2026-04-18T17:39:08.922Z</time></trkpt><trkpt lat="53.380881660246146" lon="14.837403826236713"><ele>23.333333333333336</ele><time>2026-04-18T17:39:09.922Z</time></trkpt><trkpt lat="53.38086610875199" lon="14.837277723572363"><ele>23.5</ele><time>2026-04-18T17:39:10.922Z</time></trkpt><trkpt lat="53.38083671412008" lon="14.837168502340836"><ele>23.666666666666668</ele><time>2026-04-18T17:39:11.922Z</time></trkpt><trkpt lat="53.380827467836085" lon="14.836954324218086"><ele>23.833333333333332</ele><time>2026-04-18T17:39:13.922Z</time></trkpt><trkpt lat="53.38083029081877" lon="14.836846134703958"><ele>24.0</ele><time>2026-04-18T17:39:14.922Z</time></trkpt><trkpt lat="53.38082571133959" lon="14.83666414911198"><ele>24.0</ele><time>2026-04-18T17:39:16.922Z</time></trkpt><trkpt lat="53.380807167870145" lon="14.836477233943254"><ele>24.0</ele><time>2026-04-18T17:39:18.922Z</time></trkpt><trkpt lat="53.38080170556147" lon="14.83636355812411"><ele>24.0</ele><time>2026-04-18T17:39:19.922Z</time></trkpt><trkpt lat="53.38081303093983" lon="14.836175217743603"><ele>24.0</ele><time>2026-04-18T17:39:21.923Z</time></trkpt><trkpt lat="53.380843890814745" lon="14.836006123872922"><ele>24.0</ele><time>2026-04-18T17:39:23.923Z</time></trkpt><trkpt lat="53.3809186125185" lon="14.835874266624876"><ele>23.799999999999997</ele><time>2026-04-18T17:39:25.923Z</time></trkpt><trkpt lat="53.380950333100344" lon="14.835763611051503"><ele>23.599999999999998</ele><time>2026-04-18T17:39:26.923Z</time></trkpt><trkpt lat="53.381006523317254" lon="14.835612361478677"><ele>23.4</ele><time>2026-04-18T17:39:28.923Z</time></trkpt><trkpt lat="53.38106892890802" lon="14.835459726922574"><ele>23.2</ele><time>2026-04-18T17:39:30.923Z</time></trkpt><trkpt lat="53.38110822115318" lon="14.835327108873082"><ele>23.0</ele><time>2026-04-18T17:39:31.923Z</time></trkpt><trkpt lat="53.38116681189852" lon="14.835177661443131"><ele>23.166666666666668</ele><time>2026-04-18T17:39:33.923Z</time></trkpt><trkpt lat="53.381207391848235" lon="14.835076685289001"><ele>23.333333333333336</ele><time>2026-04-18T17:39:35.923Z</time></trkpt><trkpt lat="53.38124842350281" lon="14.834968091468399"><ele>23.5</ele><time>2026-04-18T17:39:38.923Z</time></trkpt><trkpt lat="53.381294546407894" lon="14.834856172643411"><ele>23.666666666666668</ele><time>2026-04-18T17:39:41.923Z</time></trkpt><trkpt lat="53.38136225618846" lon="14.834723768077804"><ele>23.833333333333332</ele><time>2026-04-18T17:39:43.923Z</time></trkpt><trkpt lat="53.38140969534148" lon="14.834611387523251"><ele>24.0</ele><time>2026-04-18T17:39:44.923Z</time></trkpt><trkpt lat="53.38145269570067" lon="14.83450177772203"><ele>24.0</ele><time>2026-04-18T17:39:45.923Z</time></trkpt><trkpt lat="53.381505054052305" lon="14.834383269196127"><ele>24.0</ele><time>2026-04-18T17:39:46.923Z</time></trkpt><trkpt lat="53.381551111640114" lon="14.834258708729076"><ele>24.0</ele><time>2026-04-18T17:39:47.923Z</time></trkpt><trkpt lat="53.38158364752598" lon="14.834155596573176"><ele>24.0</ele><time>2026-04-18T17:39:48.923Z</time></trkpt><trkpt lat="53.381620797382624" lon="14.834045224076208"><ele>24.0</ele><time>2026-04-18T17:39:49.923Z</time></trkpt><trkpt lat="53.38167679549192" lon="14.833906347598024"><ele>24.0</ele><time>2026-04-18T17:39:50.923Z</time></trkpt><trkpt lat="53.381716363238404" lon="14.833783340761697"><ele>23.833333333333332</ele><time>2026-04-18T17:39:51.923Z</time></trkpt><trkpt lat="53.381779124161085" lon="14.833655622143006"><ele>23.666666666666668</ele><time>2026-04-18T17:39:52.923Z</time></trkpt><trkpt lat="53.381843480465825" lon="14.833525327832605"><ele>23.5</ele><time>2026-04-18T17:39:53.923Z</time></trkpt><trkpt lat="53.38187642699039" lon="14.833426186820509"><ele>23.333333333333336</ele><time>2026-04-18T17:39:54.923Z</time></trkpt><trkpt lat="53.38190910968952" lon="14.833322748906912"><ele>23.166666666666668</ele><time>2026-04-18T17:39:55.923Z</time></trkpt><trkpt lat="53.38195366114611" lon="14.833220202426546"><ele>23.0</ele><time>2026-04-18T17:39:56.923Z</time></trkpt><trkpt lat="53.382001554668406" lon="14.833074360656115"><ele>23.0</ele><time>2026-04-18T17:39:57.923Z</time></trkpt><trkpt lat="53.38205620876488" lon="14.832942275068865"><ele>23.0</ele><time>2026-04-18T17:39:58.923Z</time></trkpt><trkpt lat="53.38211270146992" lon="14.832830377769369"><ele>23.0</ele><time>2026-04-18T17:39:59.923Z</time></trkpt><trkpt lat="53.382146887289636" lon="14.832735872218281"><ele>23.0</ele><time>2026-04-18T17:40:00.923Z</time></trkpt><trkpt lat="53.382197001794694" lon="14.832632479954865"><ele>23.0</ele><time>2026-04-18T17:40:01.923Z</time></trkpt><trkpt lat="53.38224657616441" lon="14.832514029698764"><ele>23.0</ele><time>2026-04-18T17:40:02.923Z</time></trkpt><trkpt lat="53.38231718064457" lon="14.832366839789614"><ele>23.0</ele><time>2026-04-18T17:40:03.923Z</time></trkpt><trkpt lat="53.38236256315563" lon="14.832232576820928"><ele>23.0</ele><time>2026-04-18T17:40:04.923Z</time></trkpt><trkpt lat="53.38238579780148" lon="14.832126030413685"><ele>23.0</ele><time>2026-04-18T17:40:05.923Z</time></trkpt><trkpt lat="53.3824344245756" lon="14.831991025416373"><ele>23.0</ele><time>2026-04-18T17:40:06.923Z</time></trkpt><trkpt lat="53.382501186795125" lon="14.831895223165828"><ele>23.0</ele><time>2026-04-18T17:40:07.923Z</time></trkpt><trkpt lat="53.38254858118707" lon="14.831785798299395"><ele>23.0</ele><time>2026-04-18T17:40:08.923Z</time></trkpt><trkpt lat="53.382588547448194" lon="14.831680790496272"><ele>22.833333333333336</ele><time>2026-04-18T17:40:09.923Z</time></trkpt><trkpt lat="53.38263952612575" lon="14.831577856757196"><ele>22.666666666666668</ele><time>2026-04-18T17:40:10.923Z</time></trkpt><trkpt lat="53.382676867155524" lon="14.831486281091262"><ele>22.5</ele><time>2026-04-18T17:40:11.923Z</time></trkpt><trkpt lat="53.38274169967318" lon="14.83132262373818"><ele>22.333333333333332</ele><time>2026-04-18T17:40:13.924Z</time></trkpt><trkpt lat="53.3827865062162" lon="14.831222666080388"><ele>22.166666666666664</ele><time>2026-04-18T17:40:14.924Z</time></trkpt><trkpt lat="53.38283152787729" lon="14.83111679549939"><ele>22.0</ele><time>2026-04-18T17:40:15.924Z</time></trkpt><trkpt lat="53.382878963470745" lon="14.831000387949752"><ele>22.0</ele><time>2026-04-18T17:40:16.924Z</time></trkpt><trkpt lat="53.38291963962408" lon="14.830895772347663"><ele>22.0</ele><time>2026-04-18T17:40:17.924Z</time></trkpt><trkpt lat="53.382987062630754" lon="14.83073704469693"><ele>22.0</ele><time>2026-04-18T17:40:19.924Z</time></trkpt><trkpt lat="53.38305035713396" lon="14.830605787696452"><ele>22.0</ele><time>2026-04-18T17:40:21.924Z</time></trkpt><trkpt lat="53.383104125594635" lon="14.83046636255141"><ele>22.0</ele><time>2026-04-18T17:40:23.924Z</time></trkpt><trkpt lat="53.383165772227294" lon="14.830328754176433"><ele>22.166666666666664</ele><time>2026-04-18T17:40:25.924Z</time></trkpt><trkpt lat="53.38320736844117" lon="14.8302060232701"><ele>22.333333333333332</ele><time>2026-04-18T17:40:28.924Z</time></trkpt><trkpt lat="53.38325679448343" lon="14.830048179813867"><ele>22.5</ele><time>2026-04-18T17:40:51.922Z</time></trkpt><trkpt lat="53.3833070565275" lon="14.829930756351345"><ele>22.666666666666668</ele><time>2026-04-18T17:40:53.922Z</time></trkpt><trkpt lat="53.383353928219094" lon="14.829821179242302"><ele>22.833333333333336</ele><time>2026-04-18T17:40:55.922Z</time></trkpt><trkpt lat="53.38341097676052" lon="14.829704849190232"><ele>23.0</ele><time>2026-04-18T17:40:58.922Z</time></trkpt><trkpt lat="53.38346755981173" lon="14.829575753889776"><ele>22.666666666666668</ele><time>2026-04-18T17:41:00.922Z</time></trkpt><trkpt lat="53.38352435962498" lon="14.829438763433519"><ele>22.333333333333336</ele><time>2026-04-18T17:41:02.922Z</time></trkpt><trkpt lat="53.38357954737632" lon="14.829322267800965"><ele>22.0</ele><time>2026-04-18T17:41:04.922Z</time></trkpt><trkpt lat="53.38361702011269" lon="14.829226540941539"><ele>21.666666666666668</ele><time>2026-04-18T17:41:05.923Z</time></trkpt><trkpt lat="53.38364563971801" lon="14.829124002854755"><ele>21.333333333333332</ele><time>2026-04-18T17:41:06.923Z</time></trkpt><trkpt lat="53.38367785014197" lon="14.82903092437538"><ele>21.0</ele><time>2026-04-18T17:41:07.923Z</time></trkpt><trkpt lat="53.38373849101915" lon="14.828875175856757"><ele>21.0</ele><time>2026-04-18T17:41:09.923Z</time></trkpt><trkpt lat="53.383774741390624" lon="14.828788624594152"><ele>21.0</ele><time>2026-04-18T17:41:10.923Z</time></trkpt><trkpt lat="53.38382847595867" lon="14.828680900952655"><ele>21.0</ele><time>2026-04-18T17:41:11.923Z</time></trkpt><trkpt lat="53.38387870689198" lon="14.82857601012941"><ele>21.0</ele><time>2026-04-18T17:41:12.923Z</time></trkpt><trkpt lat="53.38392482378924" lon="14.82845996639983"><ele>21.0</ele><time>2026-04-18T17:41:13.923Z</time></trkpt><trkpt lat="53.383962326485396" lon="14.828338122223752"><ele>21.0</ele><time>2026-04-18T17:41:14.923Z</time></trkpt><trkpt lat="53.384028390733604" lon="14.828198552468422"><ele>21.0</ele><time>2026-04-18T17:41:15.923Z</time></trkpt><trkpt lat="53.38409025668721" lon="14.828063682990734"><ele>21.0</ele><time>2026-04-18T17:41:16.923Z</time></trkpt><trkpt lat="53.38414390617823" lon="14.827954826169588"><ele>21.0</ele><time>2026-04-18T17:41:17.923Z</time></trkpt><trkpt lat="53.38418567946911" lon="14.82787024104445"><ele>21.0</ele><time>2026-04-18T17:41:18.923Z</time></trkpt><trkpt lat="53.384242662005505" lon="14.827734265294833"><ele>21.0</ele><time>2026-04-18T17:41:20.923Z</time></trkpt><trkpt lat="53.38428943007197" lon="14.827612683470749"><ele>21.0</ele><time>2026-04-18T17:41:22.923Z</time></trkpt><trkpt lat="53.38435514589939" lon="14.827462625741564"><ele>21.0</ele><time>2026-04-18T17:41:24.923Z</time></trkpt><trkpt lat="53.38440824447497" lon="14.827326162059512"><ele>21.0</ele><time>2026-04-18T17:41:26.923Z</time></trkpt><trkpt lat="53.38448213051849" lon="14.827151595799048"><ele>21.0</ele><time>2026-04-18T17:41:28.923Z</time></trkpt><trkpt lat="53.384520791959446" lon="14.827031144836118"><ele>21.0</ele><time>2026-04-18T17:41:29.923Z</time></trkpt><trkpt lat="53.38456076957369" lon="14.826946594981521"><ele>21.0</ele><time>2026-04-18T17:41:30.923Z</time></trkpt><trkpt lat="53.38462707638113" lon="14.8267806248172"><ele>21.200000000000003</ele><time>2026-04-18T17:41:32.923Z</time></trkpt><trkpt lat="53.384689115865804" lon="14.82660744290956"><ele>21.400000000000002</ele><time>2026-04-18T17:41:34.923Z</time></trkpt><trkpt lat="53.38476411391285" lon="14.826426186554238"><ele>21.6</ele><time>2026-04-18T17:41:36.923Z</time></trkpt><trkpt lat="53.38480350377746" lon="14.826332316216481"><ele>21.8</ele><time>2026-04-18T17:41:37.923Z</time></trkpt><trkpt lat="53.384879963309025" lon="14.826184683409748"><ele>22.0</ele><time>2026-04-18T17:41:39.923Z</time></trkpt><trkpt lat="53.38495322781334" lon="14.82601113993042"><ele>22.200000000000003</ele><time>2026-04-18T17:41:41.923Z</time></trkpt><trkpt lat="53.38501759701501" lon="14.825829046983152"><ele>22.4</ele><time>2026-04-18T17:41:43.923Z</time></trkpt><trkpt lat="53.38504937335016" lon="14.825722986051197"><ele>22.6</ele><time>2026-04-18T17:41:44.923Z</time></trkpt><trkpt lat="53.3851007774747" lon="14.825554721691507"><ele>22.799999999999997</ele><time>2026-04-18T17:41:46.923Z</time></trkpt><trkpt lat="53.38517623132518" lon="14.825400993757594"><ele>23.0</ele><time>2026-04-18T17:41:48.923Z</time></trkpt><trkpt lat="53.38521465028495" lon="14.825313709334004"><ele>23.0</ele><time>2026-04-18T17:41:49.923Z</time></trkpt><trkpt lat="53.38525267600353" lon="14.825221264841632"><ele>23.0</ele><time>2026-04-18T17:41:50.923Z</time></trkpt><trkpt lat="53.385309090977096" lon="14.825075355435928"><ele>23.0</ele><time>2026-04-18T17:41:52.923Z</time></trkpt><trkpt lat="53.38535857699119" lon="14.824940972543706"><ele>23.0</ele><time>2026-04-18T17:41:54.923Z</time></trkpt><trkpt lat="53.38540494714453" lon="14.82484638548103"><ele>23.0</ele><time>2026-04-18T17:41:57.924Z</time></trkpt><trkpt lat="53.38546448662863" lon="14.824760903229613"><ele>23.0</ele><time>2026-04-18T17:42:42Z</time></trkpt><trkpt lat="53.38552668872529" lon="14.824684817564298"><ele>22.666666666666668</ele><time>2026-04-18T17:42:42.999Z</time></trkpt><trkpt lat="53.385596094077016" lon="14.824642672864968"><ele>22.333333333333336</ele><time>2026-04-18T17:42:45Z</time></trkpt><trkpt lat="53.38567130999352" lon="14.824611590133877"><ele>22.0</ele><time>2026-04-18T17:42:47Z</time></trkpt><trkpt lat="53.38575935468172" lon="14.824474042590586"><ele>21.666666666666668</ele><time>2026-04-18T17:42:49Z</time></trkpt><trkpt lat="53.385801160969784" lon="14.824376361024969"><ele>21.333333333333332</ele><time>2026-04-18T17:42:50Z</time></trkpt><trkpt lat="53.38583703439089" lon="14.82427020653168"><ele>21.0</ele><time>2026-04-18T17:42:51Z</time></trkpt><trkpt lat="53.385910946023344" lon="14.824113883518601"><ele>21.0</ele><time>2026-04-18T17:42:53Z</time></trkpt><trkpt lat="53.38595262724021" lon="14.82401490713517"><ele>21.0</ele><time>2026-04-18T17:42:54Z</time></trkpt><trkpt lat="53.38602224624867" lon="14.823815907067166"><ele>21.0</ele><time>2026-04-18T17:42:56Z</time></trkpt><trkpt lat="53.38606796479898" lon="14.823696247495308"><ele>21.0</ele><time>2026-04-18T17:42:57Z</time></trkpt><trkpt lat="53.38611545421924" lon="14.823588426711884"><ele>21.0</ele><time>2026-04-18T17:42:58Z</time></trkpt><trkpt lat="53.38618982848541" lon="14.823430691668166"><ele>21.0</ele><time>2026-04-18T17:42:59Z</time></trkpt><trkpt lat="53.386255129317234" lon="14.823271620089686"><ele>21.0</ele><time>2026-04-18T17:43:00Z</time></trkpt><trkpt lat="53.386307650544666" lon="14.82313789326223"><ele>21.0</ele><time>2026-04-18T17:43:01Z</time></trkpt><trkpt lat="53.38636721506398" lon="14.822981044298972"><ele>21.0</ele><time>2026-04-18T17:43:02Z</time></trkpt><trkpt lat="53.386446138441826" lon="14.822795129436537"><ele>21.0</ele><time>2026-04-18T17:43:03Z</time></trkpt><trkpt lat="53.38652014363026" lon="14.82261611677198"><ele>21.0</ele><time>2026-04-18T17:43:04Z</time></trkpt><trkpt lat="53.38657207290115" lon="14.822488846858272"><ele>21.0</ele><time>2026-04-18T17:43:05Z</time></trkpt><trkpt lat="53.38662834791165" lon="14.82233504016636"><ele>21.0</ele><time>2026-04-18T17:43:06Z</time></trkpt><trkpt lat="53.38668784310185" lon="14.82218685061984"><ele>21.0</ele><time>2026-04-18T17:43:07Z</time></trkpt><trkpt lat="53.386754750065776" lon="14.822025607670717"><ele>21.0</ele><time>2026-04-18T17:43:08Z</time></trkpt><trkpt lat="53.386834877804176" lon="14.821854572475088"><ele>21.0</ele><time>2026-04-18T17:43:09Z</time></trkpt><trkpt lat="53.38689338737574" lon="14.821705545924017"><ele>21.0</ele><time>2026-04-18T17:43:10Z</time></trkpt><trkpt lat="53.38696124350437" lon="14.821529489092894"><ele>21.0</ele><time>2026-04-18T17:43:11Z</time></trkpt><trkpt lat="53.38703108591853" lon="14.821347315625262"><ele>21.75</ele><time>2026-04-18T17:43:12Z</time></trkpt><trkpt lat="53.387106732924515" lon="14.821172568546077"><ele>22.5</ele><time>2026-04-18T17:43:13Z</time></trkpt><trkpt lat="53.38716039009039" lon="14.821037233121533"><ele>23.25</ele><time>2026-04-18T17:43:14Z</time></trkpt><trkpt lat="53.38721375745678" lon="14.820900303710008"><ele>24.0</ele><time>2026-04-18T17:43:15Z</time></trkpt><trkpt lat="53.38728757153772" lon="14.820702991866536"><ele>23.0</ele><time>2026-04-18T17:43:16Z</time></trkpt><trkpt lat="53.387352310006044" lon="14.820559645202858"><ele>22.0</ele><time>2026-04-18T17:43:17Z</time></trkpt><trkpt lat="53.38740396723886" lon="14.820461304567552"><ele>21.0</ele><time>2026-04-18T17:43:18Z</time></trkpt><trkpt lat="53.387439474610915" lon="14.82036252109104"><ele>20.0</ele><time>2026-04-18T17:43:19Z</time></trkpt><trkpt lat="53.38748105635933" lon="14.820222249781446"><ele>19.0</ele><time>2026-04-18T17:43:21.001Z</time></trkpt><trkpt lat="53.3874786139421" lon="14.820059805487881"><ele>18.0</ele><time>2026-04-18T17:43:23.001Z</time></trkpt><trkpt lat="53.38746708306773" lon="14.819934455058855"><ele>18.0</ele><time>2026-04-18T17:43:24.001Z</time></trkpt><trkpt lat="53.3874530171917" lon="14.819809450548464"><ele>18.0</ele><time>2026-04-18T17:43:25.001Z</time></trkpt><trkpt lat="53.3874060045132" lon="14.819598029354419"><ele>18.0</ele><time>2026-04-18T17:43:27.001Z</time></trkpt><trkpt lat="53.38738844716441" lon="14.819448539488022"><ele>18.0</ele><time>2026-04-18T17:43:28.001Z</time></trkpt><trkpt lat="53.387380475087745" lon="14.819270882274585"><ele>18.0</ele><time>2026-04-18T17:43:29.001Z</time></trkpt><trkpt lat="53.387368240288225" lon="14.819081006708673"><ele>18.2</ele><time>2026-04-18T17:43:30.001Z</time></trkpt><trkpt lat="53.38734816540363" lon="14.818905872909161"><ele>18.4</ele><time>2026-04-18T17:43:31.001Z</time></trkpt><trkpt lat="53.38733655706109" lon="14.818741581999044"><ele>18.599999999999998</ele><time>2026-04-18T17:43:32.001Z</time></trkpt><trkpt lat="53.38731504068555" lon="14.818561406019455"><ele>18.8</ele><time>2026-04-18T17:43:33.001Z</time></trkpt><trkpt lat="53.38731527684119" lon="14.818377626428328"><ele>19.0</ele><time>2026-04-18T17:43:34.001Z</time></trkpt><trkpt lat="53.38729897334261" lon="14.818240760210411"><ele>19.799999999999997</ele><time>2026-04-18T17:43:35.001Z</time></trkpt><trkpt lat="53.387274114415725" lon="14.81805059596137"><ele>20.599999999999998</ele><time>2026-04-18T17:43:37.001Z</time></trkpt><trkpt lat="53.387258025411334" lon="14.817865320006796"><ele>21.4</ele><time>2026-04-18T17:43:39.001Z</time></trkpt><trkpt lat="53.38725346720741" lon="14.817704039210364"><ele>22.2</ele><time>2026-04-18T17:43:41.001Z</time></trkpt><trkpt lat="53.38725751244529" lon="14.817574806543103"><ele>23.0</ele><time>2026-04-18T17:43:42.001Z</time></trkpt><trkpt lat="53.38729467710211" lon="14.817408566106574"><ele>24.5</ele><time>2026-04-18T17:43:43.001Z</time></trkpt><trkpt lat="53.387384040936986" lon="14.81722802587603"><ele>26.0</ele><time>2026-04-18T17:43:44.001Z</time></trkpt><trkpt lat="53.38746635830113" lon="14.817037394935467"><ele>27.5</ele><time>2026-04-18T17:43:45.001Z</time></trkpt><trkpt lat="53.38754136044405" lon="14.816914366685621"><ele>29.0</ele><time>2026-04-18T17:43:46.001Z</time></trkpt><trkpt lat="53.387597351649354" lon="14.816804886171234"><ele>28.833333333333332</ele><time>2026-04-18T17:43:47.001Z</time></trkpt><trkpt lat="53.387646162598024" lon="14.816720091005871"><ele>28.666666666666664</ele><time>2026-04-18T17:43:48.001Z</time></trkpt><trkpt lat="53.38770908956428" lon="14.816632977722763"><ele>28.5</ele><time>2026-04-18T17:43:49.001Z</time></trkpt><trkpt lat="53.387777336089066" lon="14.8165677878968"><ele>28.333333333333336</ele><time>2026-04-18T17:43:50.001Z</time></trkpt><trkpt lat="53.3878508412431" lon="14.8164964622582"><ele>28.166666666666668</ele><time>2026-04-18T17:43:51.001Z</time></trkpt><trkpt lat="53.38796694876793" lon="14.816404711839503"><ele>28.0</ele><time>2026-04-18T17:43:53.001Z</time></trkpt><trkpt lat="53.38802934690168" lon="14.816361471493705"><ele>28.0</ele><time>2026-04-18T17:43:54.002Z</time></trkpt><trkpt lat="53.38812154083709" lon="14.8162898109813"><ele>27.999999999999996</ele><time>2026-04-18T17:43:56.002Z</time></trkpt><trkpt lat="53.38820609307269" lon="14.816193192688617"><ele>27.999999999999996</ele><time>2026-04-18T17:43:58.002Z</time></trkpt><trkpt lat="53.388296988555986" lon="14.816093194767445"><ele>28.0</ele><time>2026-04-18T17:44:00.002Z</time></trkpt><trkpt lat="53.38838230412314" lon="14.815984135788991"><ele>28.0</ele><time>2026-04-18T17:44:02.002Z</time></trkpt><trkpt lat="53.38847971607718" lon="14.815855609428548"><ele>28.0</ele><time>2026-04-18T17:44:04.002Z</time></trkpt><trkpt lat="53.38852497149283" lon="14.815769178192514"><ele>27.999999999999996</ele><time>2026-04-18T17:44:05.002Z</time></trkpt><trkpt lat="53.388578080821006" lon="14.815706361584885"><ele>27.999999999999996</ele><time>2026-04-18T17:44:06.002Z</time></trkpt><trkpt lat="53.38868528609791" lon="14.815628719678001"><ele>28.0</ele><time>2026-04-18T17:44:08.002Z</time></trkpt><trkpt lat="53.38877176850443" lon="14.81560242203133"><ele>28.0</ele><time>2026-04-18T17:44:09.002Z</time></trkpt><trkpt lat="53.388890232547226" lon="14.815600238998492"><ele>27.75</ele><time>2026-04-18T17:44:10.002Z</time></trkpt><trkpt lat="53.38901197757494" lon="14.81565485967434"><ele>27.5</ele><time>2026-04-18T17:44:11.002Z</time></trkpt><trkpt lat="53.389159447561276" lon="14.81572358718232"><ele>27.25</ele><time>2026-04-18T17:44:12.002Z</time></trkpt><trkpt lat="53.38928640596641" lon="14.815759343269582"><ele>27.0</ele><time>2026-04-18T17:44:13.002Z</time></trkpt><trkpt lat="53.3893898547501" lon="14.815795292015537"><ele>27.0</ele><time>2026-04-18T17:44:14.002Z</time></trkpt><trkpt lat="53.389480456917944" lon="14.815824808350893"><ele>27.0</ele><time>2026-04-18T17:44:15.002Z</time></trkpt><trkpt lat="53.389552158620134" lon="14.81587965461091"><ele>27.0</ele><time>2026-04-18T17:44:16.002Z</time></trkpt><trkpt lat="53.389622465697414" lon="14.815925353875429"><ele>27.0</ele><time>2026-04-18T17:44:17.002Z</time></trkpt><trkpt lat="53.38967761917697" lon="14.815993264975996"><ele>27.0</ele><time>2026-04-18T17:44:18.002Z</time></trkpt><trkpt lat="53.38974174972479" lon="14.816037568257258"><ele>27.0</ele><time>2026-04-18T17:44:19.002Z</time></trkpt><trkpt lat="53.38982673729784" lon="14.816140347266021"><ele>27.0</ele><time>2026-04-18T17:44:21.002Z</time></trkpt><trkpt lat="53.38991537599672" lon="14.81624407364081"><ele>27.000000000000004</ele><time>2026-04-18T17:44:23.002Z</time></trkpt><trkpt lat="53.389969235793885" lon="14.81630533168185"><ele>27.000000000000004</ele><time>2026-04-18T17:44:24.002Z</time></trkpt><trkpt lat="53.39007284454094" lon="14.816411132961614"><ele>27.0</ele><time>2026-04-18T17:44:26.002Z</time></trkpt><trkpt lat="53.39013791827614" lon="14.816483259813625"><ele>27.0</ele><time>2026-04-18T17:44:27.003Z</time></trkpt><trkpt lat="53.3902023959964" lon="14.816559124339124"><ele>27.0</ele><time>2026-04-18T17:44:28.003Z</time></trkpt><trkpt lat="53.39026278287374" lon="14.816609840731648"><ele>27.0</ele><time>2026-04-18T17:44:29.003Z</time></trkpt><trkpt lat="53.39032136493763" lon="14.816671722131593"><ele>27.0</ele><time>2026-04-18T17:44:30.003Z</time></trkpt><trkpt lat="53.39037944640346" lon="14.816743487457142"><ele>27.0</ele><time>2026-04-18T17:44:31.003Z</time></trkpt><trkpt lat="53.39043382180872" lon="14.816820270840903"><ele>27.0</ele><time>2026-04-18T17:44:32.003Z</time></trkpt><trkpt lat="53.390498951023304" lon="14.816883461531578"><ele>27.0</ele><time>2026-04-18T17:44:33.003Z</time></trkpt><trkpt lat="53.39055826467651" lon="14.816959763582611"><ele>27.0</ele><time>2026-04-18T17:44:34.003Z</time></trkpt><trkpt lat="53.390619480924556" lon="14.81703937814745"><ele>26.833333333333332</ele><time>2026-04-18T17:44:35.003Z</time></trkpt><trkpt lat="53.390680268036206" lon="14.817127536758228"><ele>26.666666666666664</ele><time>2026-04-18T17:44:36.003Z</time></trkpt><trkpt lat="53.3907380434141" lon="14.817212784150506"><ele>26.5</ele><time>2026-04-18T17:44:37.003Z</time></trkpt><trkpt lat="53.390795792671966" lon="14.817300896400756"><ele>26.333333333333332</ele><time>2026-04-18T17:44:38.003Z</time></trkpt><trkpt lat="53.39085191002199" lon="14.817399133063"><ele>26.166666666666664</ele><time>2026-04-18T17:44:39.003Z</time></trkpt><trkpt lat="53.39090765219997" lon="14.817495087799028"><ele>26.0</ele><time>2026-04-18T17:44:40.003Z</time></trkpt><trkpt lat="53.39096260446097" lon="14.817592090008965"><ele>25.857142857142858</ele><time>2026-04-18T17:44:41.003Z</time></trkpt><trkpt lat="53.39100940505924" lon="14.817681600093168"><ele>25.714285714285715</ele><time>2026-04-18T17:44:42.002Z</time></trkpt><trkpt lat="53.391056151149925" lon="14.81777367069514"><ele>25.571428571428573</ele><time>2026-04-18T17:44:43.002Z</time></trkpt><trkpt lat="53.39109176914559" lon="14.817863267081712"><ele>25.42857142857143</ele><time>2026-04-18T17:44:44.002Z</time></trkpt><trkpt lat="53.39113225348146" lon="14.8179554997628"><ele>25.285714285714285</ele><time>2026-04-18T17:44:45.002Z</time></trkpt><trkpt lat="53.39117586933165" lon="14.818039710887737"><ele>25.142857142857146</ele><time>2026-04-18T17:44:46.002Z</time></trkpt><trkpt lat="53.39123467034948" lon="14.818184039182931"><ele>25.0</ele><time>2026-04-18T17:44:48.001Z</time></trkpt><trkpt lat="53.391274444689834" lon="14.818304021827393"><ele>25.000000000000004</ele><time>2026-04-18T17:44:50.001Z</time></trkpt><trkpt lat="53.39131452085852" lon="14.818419887823438"><ele>25.0</ele><time>2026-04-18T17:44:52.001Z</time></trkpt><trkpt lat="53.391357248957355" lon="14.818509302711787"><ele>25.0</ele><time>2026-04-18T17:44:54.001Z</time></trkpt><trkpt lat="53.391399017355745" lon="14.818618481474"><ele>25.0</ele><time>2026-04-18T17:44:57.001Z</time></trkpt><trkpt lat="53.391458337002916" lon="14.818711464658882"><ele>25.000000000000004</ele><time>2026-04-18T17:44:59.001Z</time></trkpt><trkpt lat="53.39151760511647" lon="14.818821982240967"><ele>25.0</ele><time>2026-04-18T17:45:02.001Z</time></trkpt><trkpt lat="53.391561493323096" lon="14.818954898406723"><ele>24.8</ele><time>2026-04-18T17:45:05Z</time></trkpt><trkpt lat="53.39159926322268" lon="14.819054895326468"><ele>24.6</ele><time>2026-04-18T17:45:07Z</time></trkpt><trkpt lat="53.391655330920635" lon="14.819206305482185"><ele>24.4</ele><time>2026-04-18T17:45:09Z</time></trkpt><trkpt lat="53.391727539161295" lon="14.81934940014746"><ele>24.2</ele><time>2026-04-18T17:45:11Z</time></trkpt><trkpt lat="53.391806283287174" lon="14.819507316337324"><ele>24.0</ele><time>2026-04-18T17:45:13Z</time></trkpt><trkpt lat="53.391873696422465" lon="14.81965429889679"><ele>24.6</ele><time>2026-04-18T17:45:15Z</time></trkpt><trkpt lat="53.3919727400959" lon="14.819782623541649"><ele>25.2</ele><time>2026-04-18T17:45:17Z</time></trkpt><trkpt lat="53.39202501119693" lon="14.819847492803058"><ele>25.800000000000004</ele><time>2026-04-18T17:45:18Z</time></trkpt><trkpt lat="53.3921053961325" lon="14.81991038013255"><ele>26.400000000000002</ele><time>2026-04-18T17:45:19Z</time></trkpt><trkpt lat="53.39221720478718" lon="14.819945142505121"><ele>27.0</ele><time>2026-04-18T17:45:20Z</time></trkpt><trkpt lat="53.39235815508618" lon="14.819921634804988"><ele>27.25</ele><time>2026-04-18T17:45:21Z</time></trkpt><trkpt lat="53.392504152767664" lon="14.81986412689002"><ele>27.5</ele><time>2026-04-18T17:45:22Z</time></trkpt><trkpt lat="53.39265830810883" lon="14.819809327619764"><ele>27.75</ele><time>2026-04-18T17:45:23Z</time></trkpt><trkpt lat="53.3927251776814" lon="14.819757095538735"><ele>28.0</ele><time>2026-04-18T17:45:24Z</time></trkpt><trkpt lat="53.39279413533617" lon="14.819758530791251"><ele>28.000000000000004</ele><time>2026-04-18T17:45:26Z</time></trkpt><trkpt lat="53.39292045742532" lon="14.81966907252149"><ele>28.0</ele><time>2026-04-18T17:45:28Z</time></trkpt><trkpt lat="53.39299373024435" lon="14.819633829028845"><ele>28.0</ele><time>2026-04-18T17:45:29Z</time></trkpt><trkpt lat="53.39306096943437" lon="14.819586358857922"><ele>28.0</ele><time>2026-04-18T17:45:30Z</time></trkpt><trkpt lat="53.39313274346876" lon="14.819529869189008"><ele>28.000000000000004</ele><time>2026-04-18T17:45:31Z</time></trkpt><trkpt lat="53.39320050867321" lon="14.819488359290402"><ele>28.0</ele><time>2026-04-18T17:45:32Z</time></trkpt><trkpt lat="53.39333259986409" lon="14.819405094101505"><ele>28.0</ele><time>2026-04-18T17:45:34Z</time></trkpt><trkpt lat="53.393393722247346" lon="14.819353965807023"><ele>28.0</ele><time>2026-04-18T17:45:35Z</time></trkpt><trkpt lat="53.393469837477404" lon="14.81930906499447"><ele>28.0</ele><time>2026-04-18T17:45:36Z</time></trkpt><trkpt lat="53.39353762424123" lon="14.819281784387611"><ele>28.0</ele><time>2026-04-18T17:45:37Z</time></trkpt><trkpt lat="53.39361459212789" lon="14.819246875831706"><ele>28.0</ele><time>2026-04-18T17:45:38Z</time></trkpt><trkpt lat="53.39368056908383" lon="14.819190770207873"><ele>28.0</ele><time>2026-04-18T17:45:39Z</time></trkpt><trkpt lat="53.39373761402621" lon="14.819123545223473"><ele>28.0</ele><time>2026-04-18T17:45:40Z</time></trkpt><trkpt lat="53.39380007273021" lon="14.81902322130549"><ele>28.0</ele><time>2026-04-18T17:45:41Z</time></trkpt><trkpt lat="53.393905584741134" lon="14.818751015707173"><ele>28.0</ele><time>2026-04-18T17:45:42Z</time></trkpt><trkpt lat="53.394008663515294" lon="14.818491826557366"><ele>28.0</ele><time>2026-04-18T17:45:43Z</time></trkpt><trkpt lat="53.39414521768807" lon="14.818242204612416"><ele>28.714285714285715</ele><time>2026-04-18T17:45:44Z</time></trkpt><trkpt lat="53.39411123581056" lon="14.818343638482855"><ele>29.42857142857143</ele><time>2026-04-18T17:45:45Z</time></trkpt><trkpt lat="53.394168653365725" lon="14.818254854463532"><ele>30.142857142857142</ele><time>2026-04-18T17:45:46Z</time></trkpt><trkpt lat="53.394221499304486" lon="14.81815526296078"><ele>30.857142857142858</ele><time>2026-04-18T17:45:47Z</time></trkpt><trkpt lat="53.39426620893151" lon="14.81806750210359"><ele>31.571428571428573</ele><time>2026-04-18T17:45:48Z</time></trkpt><trkpt lat="53.39432099057181" lon="14.81799296044542"><ele>32.285714285714285</ele><time>2026-04-18T17:45:49Z</time></trkpt><trkpt lat="53.394383477335374" lon="14.817946054338119"><ele>33.0</ele><time>2026-04-18T17:45:50Z</time></trkpt><trkpt lat="53.394445646304334" lon="14.81789366961837"><ele>33.0</ele><time>2026-04-18T17:45:51Z</time></trkpt><trkpt lat="53.39450777468535" lon="14.817841019785499"><ele>33.0</ele><time>2026-04-18T17:45:52Z</time></trkpt><trkpt lat="53.39457633103905" lon="14.817801246133223"><ele>33.0</ele><time>2026-04-18T17:45:53Z</time></trkpt><trkpt lat="53.39465156605948" lon="14.817771203353296"><ele>33.0</ele><time>2026-04-18T17:45:54Z</time></trkpt><trkpt lat="53.394723360485976" lon="14.817746688183677"><ele>33.0</ele><time>2026-04-18T17:45:55Z</time></trkpt><trkpt lat="53.39478835692967" lon="14.817718032728678"><ele>33.0</ele><time>2026-04-18T17:45:56.001Z</time></trkpt><trkpt lat="53.39486981348257" lon="14.817680689850228"><ele>33.0</ele><time>2026-04-18T17:45:57.001Z</time></trkpt><trkpt lat="53.39493364511934" lon="14.817657102582224"><ele>32.8</ele><time>2026-04-18T17:45:58.001Z</time></trkpt><trkpt lat="53.39499345657086" lon="14.81762132708448"><ele>32.599999999999994</ele><time>2026-04-18T17:45:59.001Z</time></trkpt><trkpt lat="53.39510159829933" lon="14.817570973945454"><ele>32.400000000000006</ele><time>2026-04-18T17:46:01.001Z</time></trkpt><trkpt lat="53.39516257978635" lon="14.817458864887913"><ele>32.2</ele><time>2026-04-18T17:46:03.001Z</time></trkpt><trkpt lat="53.3951515516543" lon="14.81727067905491"><ele>32.0</ele><time>2026-04-18T17:46:05.001Z</time></trkpt><trkpt lat="53.39509990244745" lon="14.817114690061784"><ele>32.0</ele><time>2026-04-18T17:46:06.001Z</time></trkpt><trkpt lat="53.39506287647258" lon="14.81692110630663"><ele>32.0</ele><time>2026-04-18T17:46:07.001Z</time></trkpt><trkpt lat="53.39502793550514" lon="14.816795607089118"><ele>32.0</ele><time>2026-04-18T17:46:08.001Z</time></trkpt><trkpt lat="53.394988048417964" lon="14.816647288186633"><ele>32.0</ele><time>2026-04-18T17:46:09.001Z</time></trkpt><trkpt lat="53.39496186970185" lon="14.816547810998125"><ele>32.0</ele><time>2026-04-18T17:46:10.001Z</time></trkpt><trkpt lat="53.39489816239195" lon="14.816398823958558"><ele>32.285714285714285</ele><time>2026-04-18T17:46:12.001Z</time></trkpt><trkpt lat="53.394882583180895" lon="14.816292706712543"><ele>32.57142857142857</ele><time>2026-04-18T17:46:13.001Z</time></trkpt><trkpt lat="53.39485011133487" lon="14.816180586853177"><ele>32.857142857142854</ele><time>2026-04-18T17:46:14.001Z</time></trkpt><trkpt lat="53.394817065708736" lon="14.816070183808092"><ele>33.14285714285714</ele><time>2026-04-18T17:46:15.001Z</time></trkpt><trkpt lat="53.39478731764624" lon="14.8159662685862"><ele>33.42857142857143</ele><time>2026-04-18T17:46:16.001Z</time></trkpt><trkpt lat="53.39477017701886" lon="14.81585509176968"><ele>33.71428571428571</ele><time>2026-04-18T17:46:17.001Z</time></trkpt><trkpt lat="53.39473892619777" lon="14.815749721018753"><ele>34.0</ele><time>2026-04-18T17:46:18.001Z</time></trkpt><trkpt lat="53.394696579324375" lon="14.81565331594078"><ele>34.0</ele><time>2026-04-18T17:46:19.001Z</time></trkpt><trkpt lat="53.39467614258516" lon="14.815547621014332"><ele>34.0</ele><time>2026-04-18T17:46:20.001Z</time></trkpt><trkpt lat="53.39464405453462" lon="14.815440849103505"><ele>34.0</ele><time>2026-04-18T17:46:21.001Z</time></trkpt><trkpt lat="53.39460665806169" lon="14.815222912394988"><ele>34.0</ele><time>2026-04-18T17:46:23.001Z</time></trkpt><trkpt lat="53.394569382300055" lon="14.815095209111675"><ele>34.0</ele><time>2026-04-18T17:46:24.001Z</time></trkpt><trkpt lat="53.39453881682943" lon="14.814991104955388"><ele>34.0</ele><time>2026-04-18T17:46:25.001Z</time></trkpt><trkpt lat="53.39450808876083" lon="14.814892281032266"><ele>33.66666666666667</ele><time>2026-04-18T17:46:26.001Z</time></trkpt><trkpt lat="53.3944673561859" lon="14.814777370326944"><ele>33.333333333333336</ele><time>2026-04-18T17:46:27.001Z</time></trkpt><trkpt lat="53.39444272215611" lon="14.81467534192963"><ele>33.0</ele><time>2026-04-18T17:46:28.001Z</time></trkpt><trkpt lat="53.39441245751633" lon="14.814560198354727"><ele>32.666666666666664</ele><time>2026-04-18T17:46:29.001Z</time></trkpt><trkpt lat="53.3943880944852" lon="14.814430668767386"><ele>32.33333333333333</ele><time>2026-04-18T17:46:30.001Z</time></trkpt><trkpt lat="53.39435772073847" lon="14.814321148126545"><ele>32.0</ele><time>2026-04-18T17:46:31.001Z</time></trkpt><trkpt lat="53.39432385490191" lon="14.814203337498643"><ele>31.666666666666664</ele><time>2026-04-18T17:46:32.001Z</time></trkpt><trkpt lat="53.39429359637527" lon="14.81408653139021"><ele>31.333333333333332</ele><time>2026-04-18T17:46:33.001Z</time></trkpt><trkpt lat="53.39426444379423" lon="14.813963936816489"><ele>31.0</ele><time>2026-04-18T17:46:34.001Z</time></trkpt><trkpt lat="53.39422781214233" lon="14.813836369050694"><ele>30.666666666666664</ele><time>2026-04-18T17:46:35.001Z</time></trkpt><trkpt lat="53.394195045955726" lon="14.81370461496079"><ele>30.333333333333332</ele><time>2026-04-18T17:46:36.001Z</time></trkpt><trkpt lat="53.39415603038623" lon="14.81357412507793"><ele>30.0</ele><time>2026-04-18T17:46:37.001Z</time></trkpt><trkpt lat="53.394111674972024" lon="14.81344380559368"><ele>30.0</ele><time>2026-04-18T17:46:38.001Z</time></trkpt><trkpt lat="53.3940835426741" lon="14.813323162885212"><ele>30.0</ele><time>2026-04-18T17:46:39.001Z</time></trkpt><trkpt lat="53.394049110894926" lon="14.81319054826574"><ele>30.0</ele><time>2026-04-18T17:46:40.001Z</time></trkpt><trkpt lat="53.394018225535696" lon="14.813063495834115"><ele>30.0</ele><time>2026-04-18T17:46:41.001Z</time></trkpt><trkpt lat="53.393979315551626" lon="14.812934952059065"><ele>30.0</ele><time>2026-04-18T17:46:42.001Z</time></trkpt><trkpt lat="53.393942820421096" lon="14.812817813036833"><ele>30.0</ele><time>2026-04-18T17:46:43.001Z</time></trkpt><trkpt lat="53.39390315034179" lon="14.812693173166691"><ele>30.0</ele><time>2026-04-18T17:46:44.001Z</time></trkpt><trkpt lat="53.39386357719827" lon="14.812563796684806"><ele>30.0</ele><time>2026-04-18T17:46:45.001Z</time></trkpt><trkpt lat="53.39383045242397" lon="14.812438423437573"><ele>30.0</ele><time>2026-04-18T17:46:46.001Z</time></trkpt><trkpt lat="53.393795539714134" lon="14.812288938110045"><ele>30.0</ele><time>2026-04-18T17:46:47.001Z</time></trkpt><trkpt lat="53.39375856309036" lon="14.812164878798901"><ele>30.0</ele><time>2026-04-18T17:46:48Z</time></trkpt><trkpt lat="53.393727731724645" lon="14.81202902770727"><ele>30.0</ele><time>2026-04-18T17:46:49Z</time></trkpt><trkpt lat="53.39368276432509" lon="14.811904578177147"><ele>30.0</ele><time>2026-04-18T17:46:50Z</time></trkpt><trkpt lat="53.393645017530346" lon="14.81177930682859"><ele>30.0</ele><time>2026-04-18T17:46:51Z</time></trkpt><trkpt lat="53.39362035145983" lon="14.81162349325701"><ele>30.0</ele><time>2026-04-18T17:46:52Z</time></trkpt><trkpt lat="53.39358423675099" lon="14.811470315470398"><ele>30.0</ele><time>2026-04-18T17:46:53Z</time></trkpt><trkpt lat="53.39353907984535" lon="14.811322958050575"><ele>30.0</ele><time>2026-04-18T17:46:54Z</time></trkpt><trkpt lat="53.393490306663196" lon="14.811161821394633"><ele>30.0</ele><time>2026-04-18T17:46:55Z</time></trkpt><trkpt lat="53.39345598430174" lon="14.81101480831811"><ele>30.0</ele><time>2026-04-18T17:46:56Z</time></trkpt><trkpt lat="53.393413138771244" lon="14.810864004266664"><ele>30.0</ele><time>2026-04-18T17:46:57Z</time></trkpt><trkpt lat="53.39338153132271" lon="14.810727226570567"><ele>30.0</ele><time>2026-04-18T17:46:58Z</time></trkpt><trkpt lat="53.393342422614865" lon="14.810582370118118"><ele>30.0</ele><time>2026-04-18T17:46:59Z</time></trkpt><trkpt lat="53.3933186081554" lon="14.810448091305059"><ele>29.833333333333332</ele><time>2026-04-18T17:47:00Z</time></trkpt><trkpt lat="53.393280446361615" lon="14.810304881952273"><ele>29.666666666666664</ele><time>2026-04-18T17:47:01Z</time></trkpt><trkpt lat="53.393243166979005" lon="14.810168326673612"><ele>29.5</ele><time>2026-04-18T17:47:02Z</time></trkpt><trkpt lat="53.393206084620246" lon="14.810034280991967"><ele>29.333333333333332</ele><time>2026-04-18T17:47:03Z</time></trkpt><trkpt lat="53.393161740788386" lon="14.809923339657816"><ele>29.166666666666664</ele><time>2026-04-18T17:47:04Z</time></trkpt><trkpt lat="53.3931282191367" lon="14.80980050599009"><ele>29.0</ele><time>2026-04-18T17:47:05Z</time></trkpt><trkpt lat="53.393085648320564" lon="14.809678262615353"><ele>28.999999999999996</ele><time>2026-04-18T17:47:06Z</time></trkpt><trkpt lat="53.39305948035986" lon="14.809568530664757"><ele>29.0</ele><time>2026-04-18T17:47:07Z</time></trkpt><trkpt lat="53.393026419008805" lon="14.80945380001737"><ele>29.0</ele><time>2026-04-18T17:47:08Z</time></trkpt><trkpt lat="53.39297787398416" lon="14.809351502052802"><ele>29.0</ele><time>2026-04-18T17:47:09Z</time></trkpt><trkpt lat="53.39292576931616" lon="14.809266404993426"><ele>28.999999999999996</ele><time>2026-04-18T17:47:10Z</time></trkpt><trkpt lat="53.39285019185896" lon="14.809178712238287"><ele>29.0</ele><time>2026-04-18T17:47:11Z</time></trkpt><trkpt lat="53.39277823357761" lon="14.809108161125598"><ele>29.166666666666664</ele><time>2026-04-18T17:47:12Z</time></trkpt><trkpt lat="53.39270331860823" lon="14.80906459940487"><ele>29.333333333333332</ele><time>2026-04-18T17:47:13Z</time></trkpt><trkpt lat="53.392626026812295" lon="14.808989383964171"><ele>29.5</ele><time>2026-04-18T17:47:14Z</time></trkpt><trkpt lat="53.39254480768765" lon="14.80892101958391"><ele>29.666666666666664</ele><time>2026-04-18T17:47:15Z</time></trkpt><trkpt lat="53.39246218840769" lon="14.808851143297346"><ele>29.833333333333332</ele><time>2026-04-18T17:47:16Z</time></trkpt><trkpt lat="53.39238633092341" lon="14.808783344326823"><ele>30.0</ele><time>2026-04-18T17:47:17Z</time></trkpt><trkpt lat="53.3923087386414" lon="14.80871105972913"><ele>30.0</ele><time>2026-04-18T17:47:18Z</time></trkpt><trkpt lat="53.39221694391675" lon="14.808625792241141"><ele>30.0</ele><time>2026-04-18T17:47:19Z</time></trkpt><trkpt lat="53.392143183652614" lon="14.80855395561999"><ele>30.0</ele><time>2026-04-18T17:47:20Z</time></trkpt><trkpt lat="53.392080962479774" lon="14.808484351456014"><ele>30.0</ele><time>2026-04-18T17:47:21Z</time></trkpt><trkpt lat="53.39200036842687" lon="14.808413736206873"><ele>30.0</ele><time>2026-04-18T17:47:22Z</time></trkpt><trkpt lat="53.39191722418402" lon="14.808346427451088"><ele>30.0</ele><time>2026-04-18T17:47:23Z</time></trkpt><trkpt lat="53.39184473002868" lon="14.808274695812326"><ele>30.333333333333332</ele><time>2026-04-18T17:47:24Z</time></trkpt><trkpt lat="53.39177053458004" lon="14.808204981258292"><ele>30.666666666666664</ele><time>2026-04-18T17:47:25Z</time></trkpt><trkpt lat="53.391693316378905" lon="14.808136629270273"><ele>31.0</ele><time>2026-04-18T17:47:26Z</time></trkpt><trkpt lat="53.39162106252667" lon="14.808064486822568"><ele>31.333333333333332</ele><time>2026-04-18T17:47:27Z</time></trkpt><trkpt lat="53.39155975631759" lon="14.807977713668118"><ele>31.666666666666664</ele><time>2026-04-18T17:47:28Z</time></trkpt><trkpt lat="53.39149647084809" lon="14.807883873663501"><ele>32.0</ele><time>2026-04-18T17:47:29Z</time></trkpt><trkpt lat="53.39145158911681" lon="14.807766651197822"><ele>31.8</ele><time>2026-04-18T17:47:30Z</time></trkpt><trkpt lat="53.39138788933637" lon="14.807651265884896"><ele>31.6</ele><time>2026-04-18T17:47:31Z</time></trkpt><trkpt lat="53.39134324100987" lon="14.807527003829009"><ele>31.400000000000002</ele><time>2026-04-18T17:47:32Z</time></trkpt><trkpt lat="53.39129619999015" lon="14.807396972691292"><ele>31.200000000000003</ele><time>2026-04-18T17:47:33Z</time></trkpt><trkpt lat="53.39125851991696" lon="14.807265632971781"><ele>31.0</ele><time>2026-04-18T17:47:34Z</time></trkpt><trkpt lat="53.391228657722486" lon="14.807119438933332"><ele>31.0</ele><time>2026-04-18T17:47:35Z</time></trkpt><trkpt lat="53.39123181756669" lon="14.80696993703928"><ele>31.0</ele><time>2026-04-18T17:47:36Z</time></trkpt><trkpt lat="53.391219345248885" lon="14.806807678180101"><ele>31.0</ele><time>2026-04-18T17:47:37Z</time></trkpt><trkpt lat="53.39123371150927" lon="14.806641832953018"><ele>31.0</ele><time>2026-04-18T17:47:38Z</time></trkpt><trkpt lat="53.39120911457173" lon="14.806420969837502"><ele>31.0</ele><time>2026-04-18T17:47:39Z</time></trkpt><trkpt lat="53.39119943991394" lon="14.806210299289793"><ele>31.0</ele><time>2026-04-18T17:47:40Z</time></trkpt><trkpt lat="53.39120279151585" lon="14.805995702678777"><ele>31.0</ele><time>2026-04-18T17:47:41Z</time></trkpt><trkpt lat="53.391201831638554" lon="14.805760362157264"><ele>31.0</ele><time>2026-04-18T17:47:42Z</time></trkpt><trkpt lat="53.391193864772745" lon="14.80553484640714"><ele>31.0</ele><time>2026-04-18T17:47:43Z</time></trkpt><trkpt lat="53.39117867317663" lon="14.805302652521107"><ele>30.75</ele><time>2026-04-18T17:47:44Z</time></trkpt><trkpt lat="53.391162212731196" lon="14.805083146173255"><ele>30.5</ele><time>2026-04-18T17:47:45Z</time></trkpt><trkpt lat="53.3911666075167" lon="14.804843134935144"><ele>30.25</ele><time>2026-04-18T17:47:46Z</time></trkpt><trkpt lat="53.3911621632756" lon="14.804617421636218"><ele>30.0</ele><time>2026-04-18T17:47:47Z</time></trkpt><trkpt lat="53.39115057743566" lon="14.804398463730719"><ele>30.0</ele><time>2026-04-18T17:47:48Z</time></trkpt><trkpt lat="53.39115290714081" lon="14.804225290741428"><ele>30.0</ele><time>2026-04-18T17:47:49Z</time></trkpt><trkpt lat="53.391148820657286" lon="14.804044114243892"><ele>30.0</ele><time>2026-04-18T17:47:50Z</time></trkpt><trkpt lat="53.39114922492303" lon="14.803858821358036"><ele>30.0</ele><time>2026-04-18T17:47:51Z</time></trkpt><trkpt lat="53.39114779369091" lon="14.803675806458322"><ele>30.0</ele><time>2026-04-18T17:47:52Z</time></trkpt><trkpt lat="53.391143779470184" lon="14.803490970664102"><ele>30.0</ele><time>2026-04-18T17:47:53Z</time></trkpt><trkpt lat="53.39114238755254" lon="14.803302038865995"><ele>30.0</ele><time>2026-04-18T17:47:54Z</time></trkpt><trkpt lat="53.391138083768226" lon="14.803118374718274"><ele>30.0</ele><time>2026-04-18T17:47:55Z</time></trkpt><trkpt lat="53.39113481495849" lon="14.802953782970315"><ele>30.0</ele><time>2026-04-18T17:47:56Z</time></trkpt><trkpt lat="53.39113444957626" lon="14.802841698690889"><ele>30.0</ele><time>2026-04-18T17:47:57Z</time></trkpt><trkpt lat="53.39114813428864" lon="14.802696918992163"><ele>30.0</ele><time>2026-04-18T17:48:02Z</time></trkpt><trkpt lat="53.391133541121846" lon="14.802519810850262"><ele>30.0</ele><time>2026-04-18T17:48:04Z</time></trkpt><trkpt lat="53.39112621514145" lon="14.802404057514076"><ele>30.0</ele><time>2026-04-18T17:48:05Z</time></trkpt><trkpt lat="53.391125240893366" lon="14.802238623981522"><ele>30.0</ele><time>2026-04-18T17:48:06Z</time></trkpt><trkpt lat="53.39112172373567" lon="14.802067653443745"><ele>30.0</ele><time>2026-04-18T17:48:07Z</time></trkpt><trkpt lat="53.391118762374184" lon="14.80188268846489"><ele>30.0</ele><time>2026-04-18T17:48:08.001Z</time></trkpt><trkpt lat="53.39111722886347" lon="14.801685785731761"><ele>30.0</ele><time>2026-04-18T17:48:09.001Z</time></trkpt><trkpt lat="53.391114083924045" lon="14.801466209199216"><ele>30.0</ele><time>2026-04-18T17:48:10.001Z</time></trkpt><trkpt lat="53.39109866978736" lon="14.8012245620013"><ele>30.0</ele><time>2026-04-18T17:48:11.001Z</time></trkpt><trkpt lat="53.391098877656944" lon="14.80099891534794"><ele>29.75</ele><time>2026-04-18T17:48:12.001Z</time></trkpt><trkpt lat="53.39109171664473" lon="14.800800843773592"><ele>29.5</ele><time>2026-04-18T17:48:13.001Z</time></trkpt><trkpt lat="53.391082939066294" lon="14.800595615595217"><ele>29.25</ele><time>2026-04-18T17:48:14.001Z</time></trkpt><trkpt lat="53.39107457012333" lon="14.800404215539432"><ele>29.0</ele><time>2026-04-18T17:48:15.001Z</time></trkpt><trkpt lat="53.39107199146601" lon="14.800210297948492"><ele>29.0</ele><time>2026-04-18T17:48:16.001Z</time></trkpt><trkpt lat="53.39106263710939" lon="14.800010179935686"><ele>29.0</ele><time>2026-04-18T17:48:17.001Z</time></trkpt><trkpt lat="53.391054067427305" lon="14.799824386551698"><ele>29.0</ele><time>2026-04-18T17:48:18.001Z</time></trkpt><trkpt lat="53.39104625894749" lon="14.799639992037246"><ele>29.0</ele><time>2026-04-18T17:48:19.001Z</time></trkpt><trkpt lat="53.39103273225344" lon="14.799463628425931"><ele>29.0</ele><time>2026-04-18T17:48:20.001Z</time></trkpt><trkpt lat="53.39103050810103" lon="14.799251460919685"><ele>29.25</ele><time>2026-04-18T17:48:21.001Z</time></trkpt><trkpt lat="53.39103988725348" lon="14.799041645604781"><ele>29.5</ele><time>2026-04-18T17:48:22.001Z</time></trkpt><trkpt lat="53.3910356012886" lon="14.798843842066432"><ele>29.75</ele><time>2026-04-18T17:48:23.001Z</time></trkpt><trkpt lat="53.39103179111753" lon="14.798653051588692"><ele>30.0</ele><time>2026-04-18T17:48:24.001Z</time></trkpt><trkpt lat="53.39102704245692" lon="14.798472948153801"><ele>30.25</ele><time>2026-04-18T17:48:25.001Z</time></trkpt><trkpt lat="53.39102104592482" lon="14.798273642428754"><ele>30.5</ele><time>2026-04-18T17:48:26.001Z</time></trkpt><trkpt lat="53.39101254496808" lon="14.798079442411924"><ele>30.75</ele><time>2026-04-18T17:48:27.001Z</time></trkpt><trkpt lat="53.391001810008675" lon="14.79790383570069"><ele>31.0</ele><time>2026-04-18T17:48:28.001Z</time></trkpt><trkpt lat="53.39100295609428" lon="14.797712508741077"><ele>30.5</ele><time>2026-04-18T17:48:29.001Z</time></trkpt><trkpt lat="53.39099920460627" lon="14.79750802246561"><ele>30.0</ele><time>2026-04-18T17:48:30.001Z</time></trkpt><trkpt lat="53.3909953450769" lon="14.797307035189744"><ele>29.5</ele><time>2026-04-18T17:48:31.001Z</time></trkpt><trkpt lat="53.391003518861524" lon="14.797114080230228"><ele>29.0</ele><time>2026-04-18T17:48:32.001Z</time></trkpt><trkpt lat="53.39100169804878" lon="14.796927272350272"><ele>29.0</ele><time>2026-04-18T17:48:33.001Z</time></trkpt><trkpt lat="53.39099459831668" lon="14.79675592623968"><ele>29.0</ele><time>2026-04-18T17:48:34.001Z</time></trkpt><trkpt lat="53.390997945356126" lon="14.796568604407476"><ele>29.0</ele><time>2026-04-18T17:48:35.001Z</time></trkpt><trkpt lat="53.39098707715187" lon="14.796367541107793"><ele>29.0</ele><time>2026-04-18T17:48:36.001Z</time></trkpt><trkpt lat="53.390984802491566" lon="14.796201715129193"><ele>29.0</ele><time>2026-04-18T17:48:37.001Z</time></trkpt><trkpt lat="53.39098476734887" lon="14.796011764675189"><ele>29.0</ele><time>2026-04-18T17:48:38.001Z</time></trkpt><trkpt lat="53.39097920088899" lon="14.795825798621276"><ele>29.0</ele><time>2026-04-18T17:48:39.001Z</time></trkpt><trkpt lat="53.390975159538925" lon="14.795640456678136"><ele>29.0</ele><time>2026-04-18T17:48:40.001Z</time></trkpt><trkpt lat="53.39096635502705" lon="14.795437392710996"><ele>29.0</ele><time>2026-04-18T17:48:41.001Z</time></trkpt><trkpt lat="53.39095899665225" lon="14.795260350390024"><ele>29.0</ele><time>2026-04-18T17:48:42.001Z</time></trkpt><trkpt lat="53.39095752115336" lon="14.795057049067283"><ele>28.5</ele><time>2026-04-18T17:48:43.001Z</time></trkpt><trkpt lat="53.39094990113309" lon="14.794845463565167"><ele>28.0</ele><time>2026-04-18T17:48:44.001Z</time></trkpt><trkpt lat="53.390947185770315" lon="14.79463849426809"><ele>27.5</ele><time>2026-04-18T17:48:45.001Z</time></trkpt><trkpt lat="53.39093911365238" lon="14.794440345524118"><ele>27.0</ele><time>2026-04-18T17:48:46.001Z</time></trkpt><trkpt lat="53.39093161566706" lon="14.794236944676504"><ele>27.0</ele><time>2026-04-18T17:48:47.001Z</time></trkpt><trkpt lat="53.39092560437442" lon="14.794039306477142"><ele>27.0</ele><time>2026-04-18T17:48:48.001Z</time></trkpt><trkpt lat="53.3909219552903" lon="14.793834790996026"><ele>27.0</ele><time>2026-04-18T17:48:49.001Z</time></trkpt><trkpt lat="53.390917048976696" lon="14.793631660351071"><ele>27.0</ele><time>2026-04-18T17:48:50.001Z</time></trkpt><trkpt lat="53.390911704764704" lon="14.79343347509485"><ele>27.0</ele><time>2026-04-18T17:48:51.001Z</time></trkpt><trkpt lat="53.390910884250175" lon="14.793229512005896"><ele>27.0</ele><time>2026-04-18T17:48:52.001Z</time></trkpt><trkpt lat="53.39090488744499" lon="14.79302844799808"><ele>27.0</ele><time>2026-04-18T17:48:53.001Z</time></trkpt><trkpt lat="53.39089999987803" lon="14.792840200370547"><ele>27.0</ele><time>2026-04-18T17:48:54Z</time></trkpt><trkpt lat="53.39089531725141" lon="14.79266167537189"><ele>27.25</ele><time>2026-04-18T17:48:55Z</time></trkpt><trkpt lat="53.39089442319026" lon="14.792450447895861"><ele>27.5</ele><time>2026-04-18T17:48:56Z</time></trkpt><trkpt lat="53.390885414675026" lon="14.792270888191254"><ele>27.75</ele><time>2026-04-18T17:48:57Z</time></trkpt><trkpt lat="53.390881115530945" lon="14.792081386803961"><ele>28.0</ele><time>2026-04-18T17:48:58Z</time></trkpt><trkpt lat="53.3908860388123" lon="14.79189244112701"><ele>28.0</ele><time>2026-04-18T17:48:59Z</time></trkpt><trkpt lat="53.3908849579428" lon="14.79170184381595"><ele>27.999999999999996</ele><time>2026-04-18T17:49:00Z</time></trkpt><trkpt lat="53.39087290667906" lon="14.791532651962081"><ele>27.999999999999996</ele><time>2026-04-18T17:49:01Z</time></trkpt><trkpt lat="53.390872688167285" lon="14.7913454954889"><ele>28.0</ele><time>2026-04-18T17:49:02Z</time></trkpt><trkpt lat="53.390865856108086" lon="14.791158716663809"><ele>28.0</ele><time>2026-04-18T17:49:03Z</time></trkpt><trkpt lat="53.39086519179314" lon="14.79097804412669"><ele>28.0</ele><time>2026-04-18T17:49:04Z</time></trkpt><trkpt lat="53.39085825098275" lon="14.790800704078414"><ele>27.999999999999996</ele><time>2026-04-18T17:49:05Z</time></trkpt><trkpt lat="53.3908644576873" lon="14.790630757045339"><ele>27.999999999999996</ele><time>2026-04-18T17:49:06Z</time></trkpt><trkpt lat="53.39085567429724" lon="14.790462193541183"><ele>28.0</ele><time>2026-04-18T17:49:07Z</time></trkpt><trkpt lat="53.39085062012042" lon="14.79028298875032"><ele>28.0</ele><time>2026-04-18T17:49:08Z</time></trkpt><trkpt lat="53.3908475821296" lon="14.790102814169584"><ele>27.799999999999997</ele><time>2026-04-18T17:49:09Z</time></trkpt><trkpt lat="53.39084561552738" lon="14.789919139039261"><ele>27.599999999999998</ele><time>2026-04-18T17:49:10Z</time></trkpt><trkpt lat="53.390840581796475" lon="14.78973759802467"><ele>27.400000000000002</ele><time>2026-04-18T17:49:11Z</time></trkpt><trkpt lat="53.390835096809866" lon="14.789571630915797"><ele>27.200000000000003</ele><time>2026-04-18T17:49:12Z</time></trkpt><trkpt lat="53.39083173812036" lon="14.789394626059847"><ele>27.0</ele><time>2026-04-18T17:49:13Z</time></trkpt><trkpt lat="53.390830246492655" lon="14.789220519154576"><ele>27.0</ele><time>2026-04-18T17:49:14Z</time></trkpt><trkpt lat="53.3908254749109" lon="14.789056723546818"><ele>27.000000000000004</ele><time>2026-04-18T17:49:15Z</time></trkpt><trkpt lat="53.39082418500392" lon="14.788878976178733"><ele>27.000000000000004</ele><time>2026-04-18T17:49:16Z</time></trkpt><trkpt lat="53.39082241824212" lon="14.78871038510773"><ele>27.0</ele><time>2026-04-18T17:49:17Z</time></trkpt><trkpt lat="53.39082397188161" lon="14.788542915907348"><ele>27.0</ele><time>2026-04-18T17:49:18Z</time></trkpt><trkpt lat="53.39082358912109" lon="14.788386380872003"><ele>26.8</ele><time>2026-04-18T17:49:19Z</time></trkpt><trkpt lat="53.390821293318545" lon="14.788231418865443"><ele>26.6</ele><time>2026-04-18T17:49:20Z</time></trkpt><trkpt lat="53.39082040924644" lon="14.788067109604327"><ele>26.400000000000002</ele><time>2026-04-18T17:49:21Z</time></trkpt><trkpt lat="53.390817743449475" lon="14.787909157433639"><ele>26.200000000000003</ele><time>2026-04-18T17:49:22Z</time></trkpt><trkpt lat="53.39080977421224" lon="14.787739687919256"><ele>26.0</ele><time>2026-04-18T17:49:23Z</time></trkpt><trkpt lat="53.39080276021809" lon="14.787570225898607"><ele>26.0</ele><time>2026-04-18T17:49:24Z</time></trkpt><trkpt lat="53.39080299885679" lon="14.787391792724474"><ele>26.0</ele><time>2026-04-18T17:49:25Z</time></trkpt><trkpt lat="53.390799155411386" lon="14.787219714199757"><ele>26.0</ele><time>2026-04-18T17:49:26Z</time></trkpt><trkpt lat="53.39079673421752" lon="14.78705940181688"><ele>26.0</ele><time>2026-04-18T17:49:27Z</time></trkpt><trkpt lat="53.390792873689335" lon="14.786900962420178"><ele>26.0</ele><time>2026-04-18T17:49:28Z</time></trkpt><trkpt lat="53.39078803554078" lon="14.78673254449281"><ele>26.0</ele><time>2026-04-18T17:49:29Z</time></trkpt><trkpt lat="53.39078232891932" lon="14.786576235771046"><ele>26.0</ele><time>2026-04-18T17:49:30Z</time></trkpt><trkpt lat="53.39077747398452" lon="14.786415957969693"><ele>26.0</ele><time>2026-04-18T17:49:31Z</time></trkpt><trkpt lat="53.39077464195683" lon="14.786239086454875"><ele>26.0</ele><time>2026-04-18T17:49:32Z</time></trkpt><trkpt lat="53.39077020608957" lon="14.786061913238566"><ele>26.0</ele><time>2026-04-18T17:49:33Z</time></trkpt><trkpt lat="53.39076517215681" lon="14.785903002044867"><ele>25.999999999999996</ele><time>2026-04-18T17:49:34Z</time></trkpt><trkpt lat="53.39075925165824" lon="14.785758567223668"><ele>26.0</ele><time>2026-04-18T17:49:35Z</time></trkpt><trkpt lat="53.39075561395015" lon="14.785614914658575"><ele>26.0</ele><time>2026-04-18T17:49:36Z</time></trkpt><trkpt lat="53.39075638103297" lon="14.785472875255099"><ele>26.0</ele><time>2026-04-18T17:49:37Z</time></trkpt><trkpt lat="53.390753863238665" lon="14.785339976081747"><ele>25.999999999999996</ele><time>2026-04-18T17:49:38Z</time></trkpt><trkpt lat="53.39075375504644" lon="14.785205071179675"><ele>26.0</ele><time>2026-04-18T17:49:39Z</time></trkpt><trkpt lat="53.39074543058531" lon="14.785095512421982"><ele>26.0</ele><time>2026-04-18T17:49:40Z</time></trkpt><trkpt lat="53.390743113726444" lon="14.784913230683115"><ele>26.0</ele><time>2026-04-18T17:49:42Z</time></trkpt><trkpt lat="53.39075114690407" lon="14.784782745071755"><ele>26.0</ele><time>2026-04-18T17:49:44Z</time></trkpt><trkpt lat="53.39073534467149" lon="14.785110179350784"><ele>26.0</ele><time>2026-04-18T17:49:54Z</time></trkpt><trkpt lat="53.39077197680473" lon="14.78526725183664"><ele>25.999999999999996</ele><time>2026-04-18T17:49:55Z</time></trkpt><trkpt lat="53.39077186696453" lon="14.785404972774138"><ele>26.0</ele><time>2026-04-18T17:49:56Z</time></trkpt><trkpt lat="53.39073329814825" lon="14.785573892687877"><ele>26.0</ele><time>2026-04-18T17:49:58Z</time></trkpt><trkpt lat="53.39073592913154" lon="14.785715020496431"><ele>26.0</ele><time>2026-04-18T17:50:01Z</time></trkpt><trkpt lat="53.39074983047925" lon="14.785842064485324"><ele>25.999999999999996</ele><time>2026-04-18T17:51:34Z</time></trkpt><trkpt lat="53.390740708145046" lon="14.785954985700881"><ele>26.0</ele><time>2026-04-18T17:51:36Z</time></trkpt><trkpt lat="53.39074545696159" lon="14.786192274139376"><ele>26.0</ele><time>2026-04-18T17:51:38Z</time></trkpt><trkpt lat="53.390748452206815" lon="14.78636728831619"><ele>26.0</ele><time>2026-04-18T17:51:39Z</time></trkpt><trkpt lat="53.390752259112354" lon="14.786539272136983"><ele>26.0</ele><time>2026-04-18T17:51:40Z</time></trkpt><trkpt lat="53.39075573339533" lon="14.786713481972267"><ele>26.0</ele><time>2026-04-18T17:51:41Z</time></trkpt><trkpt lat="53.390759797646155" lon="14.786914766123552"><ele>26.0</ele><time>2026-04-18T17:51:42Z</time></trkpt><trkpt lat="53.39078097569027" lon="14.787154998978409"><ele>26.0</ele><time>2026-04-18T17:51:43Z</time></trkpt><trkpt lat="53.390769290762016" lon="14.787395507697925"><ele>26.0</ele><time>2026-04-18T17:51:44Z</time></trkpt><trkpt lat="53.39078428742703" lon="14.787620204587332"><ele>26.0</ele><time>2026-04-18T17:51:45Z</time></trkpt><trkpt lat="53.39079324558838" lon="14.787836632748233"><ele>26.0</ele><time>2026-04-18T17:51:46Z</time></trkpt><trkpt lat="53.39078470545791" lon="14.788092567688283"><ele>26.0</ele><time>2026-04-18T17:51:47Z</time></trkpt><trkpt lat="53.390788891532544" lon="14.788345135663127"><ele>26.0</ele><time>2026-04-18T17:51:48Z</time></trkpt><trkpt lat="53.39078333842559" lon="14.788586941419384"><ele>26.0</ele><time>2026-04-18T17:51:49Z</time></trkpt><trkpt lat="53.39079484870474" lon="14.788829309775632"><ele>26.0</ele><time>2026-04-18T17:51:50Z</time></trkpt><trkpt lat="53.39080113457076" lon="14.789095985219628"><ele>26.0</ele><time>2026-04-18T17:51:51Z</time></trkpt><trkpt lat="53.390809005806126" lon="14.789334860635078"><ele>26.0</ele><time>2026-04-18T17:51:52Z</time></trkpt><trkpt lat="53.39081442204969" lon="14.789579206839628"><ele>26.0</ele><time>2026-04-18T17:51:53Z</time></trkpt><trkpt lat="53.390816898585825" lon="14.78982814572263"><ele>26.0</ele><time>2026-04-18T17:51:54Z</time></trkpt><trkpt lat="53.39081484455366" lon="14.790098309753708"><ele>26.666666666666664</ele><time>2026-04-18T17:51:55Z</time></trkpt><trkpt lat="53.390826963363104" lon="14.790340789869285"><ele>27.333333333333336</ele><time>2026-04-18T17:51:56Z</time></trkpt><trkpt lat="53.390835203585866" lon="14.790593899046984"><ele>28.0</ele><time>2026-04-18T17:51:57Z</time></trkpt><trkpt lat="53.39084134059886" lon="14.79085788015105"><ele>28.0</ele><time>2026-04-18T17:51:58Z</time></trkpt><trkpt lat="53.39084940939374" lon="14.791129059778255"><ele>28.0</ele><time>2026-04-18T17:51:59Z</time></trkpt><trkpt lat="53.39085531910072" lon="14.791406758870762"><ele>28.0</ele><time>2026-04-18T17:52:00Z</time></trkpt><trkpt lat="53.39086791894041" lon="14.791647263093079"><ele>28.0</ele><time>2026-04-18T17:52:01Z</time></trkpt><trkpt lat="53.3908716975986" lon="14.79188444463048"><ele>28.0</ele><time>2026-04-18T17:52:02Z</time></trkpt><trkpt lat="53.390877864200235" lon="14.792127998110455"><ele>28.0</ele><time>2026-04-18T17:52:03Z</time></trkpt><trkpt lat="53.39086512640578" lon="14.792369699531259"><ele>28.0</ele><time>2026-04-18T17:52:04Z</time></trkpt><trkpt lat="53.39086881063396" lon="14.79263448041422"><ele>27.75</ele><time>2026-04-18T17:52:05Z</time></trkpt><trkpt lat="53.390872684303105" lon="14.792868230357934"><ele>27.5</ele><time>2026-04-18T17:52:06Z</time></trkpt><trkpt lat="53.39087746150925" lon="14.793133355750376"><ele>27.25</ele><time>2026-04-18T17:52:07Z</time></trkpt><trkpt lat="53.39088255564611" lon="14.793381145352557"><ele>27.0</ele><time>2026-04-18T17:52:08Z</time></trkpt><trkpt lat="53.39088967360124" lon="14.793654497405548"><ele>27.0</ele><time>2026-04-18T17:52:09Z</time></trkpt><trkpt lat="53.390896552434114" lon="14.79389721430409"><ele>27.0</ele><time>2026-04-18T17:52:10Z</time></trkpt><trkpt lat="53.39091850236309" lon="14.794158415368523"><ele>27.0</ele><time>2026-04-18T17:52:11Z</time></trkpt><trkpt lat="53.390910968323304" lon="14.794480110884528"><ele>27.0</ele><time>2026-04-18T17:52:12Z</time></trkpt><trkpt lat="53.39091636714146" lon="14.794750532902697"><ele>27.0</ele><time>2026-04-18T17:52:13Z</time></trkpt><trkpt lat="53.39092075236133" lon="14.79501454619671"><ele>27.0</ele><time>2026-04-18T17:52:14Z</time></trkpt><trkpt lat="53.3909257870977" lon="14.79531848782672"><ele>27.666666666666664</ele><time>2026-04-18T17:52:15Z</time></trkpt><trkpt lat="53.39093013247069" lon="14.795559562890576"><ele>28.333333333333332</ele><time>2026-04-18T17:52:16Z</time></trkpt><trkpt lat="53.39093463811243" lon="14.795811372670395"><ele>29.0</ele><time>2026-04-18T17:52:17Z</time></trkpt><trkpt lat="53.39093985919846" lon="14.79607964683247"><ele>29.0</ele><time>2026-04-18T17:52:18Z</time></trkpt><trkpt lat="53.390946176483304" lon="14.796359658148223"><ele>29.0</ele><time>2026-04-18T17:52:19Z</time></trkpt><trkpt lat="53.390954299290236" lon="14.796641164135117"><ele>29.0</ele><time>2026-04-18T17:52:20Z</time></trkpt><trkpt lat="53.390963199371654" lon="14.796947063210805"><ele>29.0</ele><time>2026-04-18T17:52:21Z</time></trkpt><trkpt lat="53.39097098467333" lon="14.797217687261005"><ele>29.0</ele><time>2026-04-18T17:52:22Z</time></trkpt><trkpt lat="53.39097751068377" lon="14.79751703131146"><ele>29.0</ele><time>2026-04-18T17:52:23Z</time></trkpt><trkpt lat="53.39098328638012" lon="14.797825434073177"><ele>29.333333333333332</ele><time>2026-04-18T17:52:24Z</time></trkpt><trkpt lat="53.3909886636182" lon="14.798130313244775"><ele>29.666666666666664</ele><time>2026-04-18T17:52:25Z</time></trkpt><trkpt lat="53.39099354497022" lon="14.798421192016821"><ele>30.0</ele><time>2026-04-18T17:52:26Z</time></trkpt><trkpt lat="53.39099842398794" lon="14.798719508394743"><ele>30.0</ele><time>2026-04-18T17:52:27Z</time></trkpt><trkpt lat="53.39100420557912" lon="14.79901604015757"><ele>30.0</ele><time>2026-04-18T17:52:28Z</time></trkpt><trkpt lat="53.39101111146716" lon="14.799328442853808"><ele>30.0</ele><time>2026-04-18T17:52:29Z</time></trkpt><trkpt lat="53.391016996783755" lon="14.799603057571476"><ele>29.666666666666664</ele><time>2026-04-18T17:52:30Z</time></trkpt><trkpt lat="53.39102363116212" lon="14.7998616979827"><ele>29.333333333333332</ele><time>2026-04-18T17:52:31Z</time></trkpt><trkpt lat="53.391030541235544" lon="14.800153601976033"><ele>29.0</ele><time>2026-04-18T17:52:32Z</time></trkpt><trkpt lat="53.391036864843954" lon="14.800435120023195"><ele>29.0</ele><time>2026-04-18T17:52:33Z</time></trkpt><trkpt lat="53.39104336291522" lon="14.800731784946029"><ele>29.0</ele><time>2026-04-18T17:52:34Z</time></trkpt><trkpt lat="53.39105017076722" lon="14.801028645012815"><ele>29.0</ele><time>2026-04-18T17:52:35Z</time></trkpt><trkpt lat="53.39105689597075" lon="14.801332250960408"><ele>29.25</ele><time>2026-04-18T17:52:36Z</time></trkpt><trkpt lat="53.39106231889636" lon="14.801590889738291"><ele>29.5</ele><time>2026-04-18T17:52:37Z</time></trkpt><trkpt lat="53.39106789361298" lon="14.801830834840674"><ele>29.75</ele><time>2026-04-18T17:52:38Z</time></trkpt><trkpt lat="53.39107341746501" lon="14.802082349245534"><ele>30.0</ele><time>2026-04-18T17:52:39Z</time></trkpt><trkpt lat="53.39107775437614" lon="14.802273392674685"><ele>30.0</ele><time>2026-04-18T17:52:40Z</time></trkpt><trkpt lat="53.391081768908236" lon="14.802462874053647"><ele>30.0</ele><time>2026-04-18T17:52:41Z</time></trkpt><trkpt lat="53.39108442984156" lon="14.80260164178774"><ele>30.0</ele><time>2026-04-18T17:52:42Z</time></trkpt><trkpt lat="53.39110322164412" lon="14.802771842631127"><ele>30.0</ele><time>2026-04-18T17:52:44Z</time></trkpt><trkpt lat="53.391057216836614" lon="14.80285705337523"><ele>30.0</ele><time>2026-04-18T17:52:47.001Z</time></trkpt><trkpt lat="53.390845031452635" lon="14.802861673627966"><ele>30.0</ele><time>2026-04-18T17:52:57.001Z</time></trkpt><trkpt lat="53.390712636738385" lon="14.802859735003432"><ele>30.0</ele><time>2026-04-18T17:52:59.001Z</time></trkpt><trkpt lat="53.390625907707566" lon="14.802864080202703"><ele>30.0</ele><time>2026-04-18T17:53:00.001Z</time></trkpt><trkpt lat="53.39052606635984" lon="14.802871920958438"><ele>30.0</ele><time>2026-04-18T17:53:01.001Z</time></trkpt><trkpt lat="53.39041377327268" lon="14.802879281370746"><ele>30.0</ele><time>2026-04-18T17:53:02.001Z</time></trkpt><trkpt lat="53.39027969291583" lon="14.80288902637217"><ele>30.0</ele><time>2026-04-18T17:53:03.001Z</time></trkpt><trkpt lat="53.39013650488963" lon="14.802888080346287"><ele>30.0</ele><time>2026-04-18T17:53:04.001Z</time></trkpt><trkpt lat="53.3899982607339" lon="14.802891747596343"><ele>30.0</ele><time>2026-04-18T17:53:05.001Z</time></trkpt><trkpt lat="53.38985360440557" lon="14.802903878654872"><ele>30.0</ele><time>2026-04-18T17:53:06Z</time></trkpt><trkpt lat="53.38970790318188" lon="14.802916301139875"><ele>30.333333333333336</ele><time>2026-04-18T17:53:07Z</time></trkpt><trkpt lat="53.38956565241214" lon="14.802924784949466"><ele>30.666666666666668</ele><time>2026-04-18T17:53:08Z</time></trkpt><trkpt lat="53.389410442094935" lon="14.802928812823536"><ele>31.0</ele><time>2026-04-18T17:53:09Z</time></trkpt><trkpt lat="53.389240479179065" lon="14.80293783462358"><ele>31.0</ele><time>2026-04-18T17:53:10Z</time></trkpt><trkpt lat="53.38906876667174" lon="14.802949242360778"><ele>31.0</ele><time>2026-04-18T17:53:11Z</time></trkpt><trkpt lat="53.38890240483238" lon="14.802963990712746"><ele>31.0</ele><time>2026-04-18T17:53:12Z</time></trkpt><trkpt lat="53.38874016387101" lon="14.802981948661458"><ele>31.333333333333336</ele><time>2026-04-18T17:53:13Z</time></trkpt><trkpt lat="53.3885837808902" lon="14.802976537385343"><ele>31.666666666666664</ele><time>2026-04-18T17:53:14Z</time></trkpt><trkpt lat="53.38842308451829" lon="14.802982991666491"><ele>32.0</ele><time>2026-04-18T17:53:15Z</time></trkpt><trkpt lat="53.3882597696705" lon="14.803000252951346"><ele>32.0</ele><time>2026-04-18T17:53:16Z</time></trkpt><trkpt lat="53.388090289550995" lon="14.803005517456217"><ele>32.0</ele><time>2026-04-18T17:53:17Z</time></trkpt><trkpt lat="53.38792116811004" lon="14.803011304890989"><ele>32.0</ele><time>2026-04-18T17:53:18Z</time></trkpt><trkpt lat="53.38773942392827" lon="14.803016025496682"><ele>32.0</ele><time>2026-04-18T17:53:19Z</time></trkpt><trkpt lat="53.387551589365074" lon="14.803019803734275"><ele>32.0</ele><time>2026-04-18T17:53:20Z</time></trkpt><trkpt lat="53.38735692639707" lon="14.80302340571234"><ele>32.0</ele><time>2026-04-18T17:53:21Z</time></trkpt><trkpt lat="53.387152539937055" lon="14.803026006690944"><ele>32.0</ele><time>2026-04-18T17:53:22Z</time></trkpt><trkpt lat="53.386964827767954" lon="14.803046720204202"><ele>32.0</ele><time>2026-04-18T17:53:23Z</time></trkpt><trkpt lat="53.386781444086374" lon="14.803053697312464"><ele>32.0</ele><time>2026-04-18T17:53:24Z</time></trkpt><trkpt lat="53.38659057452202" lon="14.803067494897116"><ele>32.0</ele><time>2026-04-18T17:53:25Z</time></trkpt><trkpt lat="53.38639594097877" lon="14.803081378533676"><ele>32.0</ele><time>2026-04-18T17:53:26Z</time></trkpt><trkpt lat="53.38620042187887" lon="14.803094821206242"><ele>32.0</ele><time>2026-04-18T17:53:27Z</time></trkpt><trkpt lat="53.38602021002643" lon="14.80308533529909"><ele>31.666666666666664</ele><time>2026-04-18T17:53:28Z</time></trkpt><trkpt lat="53.3858353796629" lon="14.803097680591005"><ele>31.333333333333336</ele><time>2026-04-18T17:53:29Z</time></trkpt><trkpt lat="53.385661295992584" lon="14.803093941530467"><ele>31.0</ele><time>2026-04-18T17:53:30Z</time></trkpt><trkpt lat="53.385480356590726" lon="14.803111086568938"><ele>30.666666666666668</ele><time>2026-04-18T17:53:31Z</time></trkpt><trkpt lat="53.38529023394543" lon="14.803136571826863"><ele>30.333333333333336</ele><time>2026-04-18T17:53:32Z</time></trkpt><trkpt lat="53.38510215701036" lon="14.803141336817374"><ele>30.0</ele><time>2026-04-18T17:53:33Z</time></trkpt><trkpt lat="53.38490800967248" lon="14.803155817724294"><ele>30.0</ele><time>2026-04-18T17:53:34Z</time></trkpt><trkpt lat="53.38471479421468" lon="14.80316199753165"><ele>30.0</ele><time>2026-04-18T17:53:35Z</time></trkpt><trkpt lat="53.384539480810794" lon="14.803161325071477"><ele>30.0</ele><time>2026-04-18T17:53:36Z</time></trkpt><trkpt lat="53.38438189515174" lon="14.803174154897718"><ele>30.2</ele><time>2026-04-18T17:53:37Z</time></trkpt><trkpt lat="53.384232932086256" lon="14.803182941823014"><ele>30.4</ele><time>2026-04-18T17:53:38Z</time></trkpt><trkpt lat="53.38410221938259" lon="14.803188361988093"><ele>30.6</ele><time>2026-04-18T17:53:39Z</time></trkpt><trkpt lat="53.38401094921463" lon="14.80319014369129"><ele>30.8</ele><time>2026-04-18T17:53:40Z</time></trkpt><trkpt lat="53.383941641156" lon="14.803188614246178"><ele>31.0</ele><time>2026-04-18T17:53:41Z</time></trkpt><trkpt lat="53.38384092391004" lon="14.803189239377893"><ele>31.166666666666668</ele><time>2026-04-18T17:53:43Z</time></trkpt><trkpt lat="53.38392542380002" lon="14.803211241108892"><ele>31.333333333333336</ele><time>2026-04-18T17:54:02Z</time></trkpt><trkpt lat="53.384015767267805" lon="14.803192547972294"><ele>31.5</ele><time>2026-04-18T17:54:05Z</time></trkpt><trkpt lat="53.384105176542946" lon="14.803181135799475"><ele>31.666666666666664</ele><time>2026-04-18T17:54:07Z</time></trkpt><trkpt lat="53.38419600501039" lon="14.803176080860794"><ele>31.833333333333332</ele><time>2026-04-18T17:54:09Z</time></trkpt><trkpt lat="53.38426915456962" lon="14.803107894497698"><ele>32.0</ele><time>2026-04-18T17:54:11Z</time></trkpt><trkpt lat="53.38426864542719" lon="14.80293387808188"><ele>31.999999999999996</ele><time>2026-04-18T17:54:13Z</time></trkpt><trkpt lat="53.38423920274482" lon="14.802823349660299"><ele>32.0</ele><time>2026-04-18T17:54:14Z</time></trkpt><trkpt lat="53.384181293357926" lon="14.802744400920183"><ele>32.0</ele><time>2026-04-18T17:54:15Z</time></trkpt><trkpt lat="53.384107444856355" lon="14.802692645151472"><ele>32.0</ele><time>2026-04-18T17:54:16Z</time></trkpt><trkpt lat="53.38401690967722" lon="14.802629865407733"><ele>31.999999999999996</ele><time>2026-04-18T17:54:17Z</time></trkpt><trkpt lat="53.38392013392208" lon="14.802539310954524"><ele>32.0</ele><time>2026-04-18T17:54:18Z</time></trkpt><trkpt lat="53.38380194524817" lon="14.802432154060783"><ele>32.0</ele><time>2026-04-18T17:54:19Z</time></trkpt><trkpt lat="53.383677851096884" lon="14.802317455547287"><ele>32.0</ele><time>2026-04-18T17:54:20Z</time></trkpt><trkpt lat="53.383559607025155" lon="14.80220805959236"><ele>32.0</ele><time>2026-04-18T17:54:21Z</time></trkpt><trkpt lat="53.38343090707477" lon="14.802090494675141"><ele>32.0</ele><time>2026-04-18T17:54:22Z</time></trkpt><trkpt lat="53.38331019494653" lon="14.801988716748891"><ele>32.0</ele><time>2026-04-18T17:54:23Z</time></trkpt><trkpt lat="53.38318764432511" lon="14.801880238160544"><ele>32.0</ele><time>2026-04-18T17:54:24Z</time></trkpt><trkpt lat="53.38307174813908" lon="14.801767725940238"><ele>32.0</ele><time>2026-04-18T17:54:25Z</time></trkpt><trkpt lat="53.382951097208036" lon="14.801654959518011"><ele>32.0</ele><time>2026-04-18T17:54:26Z</time></trkpt><trkpt lat="53.38283375873967" lon="14.801535546005411"><ele>31.25</ele><time>2026-04-18T17:54:27Z</time></trkpt><trkpt lat="53.382712775562915" lon="14.801422911284735"><ele>30.5</ele><time>2026-04-18T17:54:28Z</time></trkpt><trkpt lat="53.38259428202002" lon="14.801305913471175"><ele>29.75</ele><time>2026-04-18T17:54:29Z</time></trkpt><trkpt lat="53.38247201196164" lon="14.801204082888834"><ele>29.0</ele><time>2026-04-18T17:54:30Z</time></trkpt><trkpt lat="53.382356736064246" lon="14.801079828881242"><ele>28.75</ele><time>2026-04-18T17:54:31Z</time></trkpt><trkpt lat="53.38223627577648" lon="14.800976237651739"><ele>28.5</ele><time>2026-04-18T17:54:32Z</time></trkpt><trkpt lat="53.382107008040144" lon="14.800873977145885"><ele>28.25</ele><time>2026-04-18T17:54:33Z</time></trkpt><trkpt lat="53.38198677480047" lon="14.800769626157589"><ele>28.0</ele><time>2026-04-18T17:54:34Z</time></trkpt><trkpt lat="53.38187321549601" lon="14.80066025640706"><ele>28.0</ele><time>2026-04-18T17:54:35Z</time></trkpt><trkpt lat="53.381764888695834" lon="14.800561044697995"><ele>28.0</ele><time>2026-04-18T17:54:36Z</time></trkpt><trkpt lat="53.381642228974194" lon="14.80043710401787"><ele>28.0</ele><time>2026-04-18T17:54:37Z</time></trkpt><trkpt lat="53.38152316928446" lon="14.80030978964205"><ele>28.0</ele><time>2026-04-18T17:54:38Z</time></trkpt><trkpt lat="53.38141398871118" lon="14.800186571263993"><ele>28.0</ele><time>2026-04-18T17:54:39Z</time></trkpt><trkpt lat="53.38130464222975" lon="14.800083379484693"><ele>28.0</ele><time>2026-04-18T17:54:40Z</time></trkpt><trkpt lat="53.381183729742894" lon="14.799972198828057"><ele>28.0</ele><time>2026-04-18T17:54:41Z</time></trkpt><trkpt lat="53.38107373324209" lon="14.799858658025668"><ele>28.0</ele><time>2026-04-18T17:54:42Z</time></trkpt><trkpt lat="53.38096210427854" lon="14.799710972838058"><ele>28.0</ele><time>2026-04-18T17:54:43Z</time></trkpt><trkpt lat="53.38085171622905" lon="14.799586828839052"><ele>27.999999999999996</ele><time>2026-04-18T17:54:44Z</time></trkpt><trkpt lat="53.38076037096534" lon="14.799466374488631"><ele>27.999999999999996</ele><time>2026-04-18T17:54:45.001Z</time></trkpt><trkpt lat="53.380677072910615" lon="14.799372333937866"><ele>28.0</ele><time>2026-04-18T17:54:46.001Z</time></trkpt><trkpt lat="53.38062088118626" lon="14.799273957203807"><ele>28.0</ele><time>2026-04-18T17:54:47.001Z</time></trkpt><trkpt lat="53.38055548339015" lon="14.799178459509081"><ele>28.0</ele><time>2026-04-18T17:54:48.001Z</time></trkpt><trkpt lat="53.38047515093672" lon="14.799078584610623"><ele>27.999999999999996</ele><time>2026-04-18T17:54:49.001Z</time></trkpt><trkpt lat="53.38041582832342" lon="14.798999461491366"><ele>27.999999999999996</ele><time>2026-04-18T17:54:50.001Z</time></trkpt><trkpt lat="53.38031363993657" lon="14.798847569120387"><ele>28.0</ele><time>2026-04-18T17:54:52.001Z</time></trkpt><trkpt lat="53.38024371860276" lon="14.7987548123109"><ele>28.0</ele><time>2026-04-18T17:54:53.001Z</time></trkpt><trkpt lat="53.380162300253765" lon="14.79868227228873"><ele>28.000000000000004</ele><time>2026-04-18T17:54:54.001Z</time></trkpt><trkpt lat="53.38008288026255" lon="14.79859174683365"><ele>28.0</ele><time>2026-04-18T17:54:55.001Z</time></trkpt><trkpt lat="53.380016085217854" lon="14.79850144180599"><ele>28.0</ele><time>2026-04-18T17:54:56.001Z</time></trkpt><trkpt lat="53.37995933184421" lon="14.798404822999872"><ele>28.0</ele><time>2026-04-18T17:54:57.001Z</time></trkpt><trkpt lat="53.379919600672075" lon="14.798233689955058"><ele>28.000000000000004</ele><time>2026-04-18T17:54:59.001Z</time></trkpt><trkpt lat="53.37992834395558" lon="14.79811858568306"><ele>28.0</ele><time>2026-04-18T17:55:00.001Z</time></trkpt><trkpt lat="53.379944430247825" lon="14.79798407553696"><ele>27.599999999999998</ele><time>2026-04-18T17:55:01.001Z</time></trkpt><trkpt lat="53.37996449957419" lon="14.79787157565436"><ele>27.199999999999996</ele><time>2026-04-18T17:55:02.001Z</time></trkpt><trkpt lat="53.37999405702104" lon="14.797739122536909"><ele>26.8</ele><time>2026-04-18T17:55:03.001Z</time></trkpt><trkpt lat="53.380014246366976" lon="14.79755617239234"><ele>26.4</ele><time>2026-04-18T17:55:04.001Z</time></trkpt><trkpt lat="53.38003160159952" lon="14.797361025522568"><ele>26.0</ele><time>2026-04-18T17:55:05.001Z</time></trkpt><trkpt lat="53.380047598724374" lon="14.79713833867384"><ele>26.0</ele><time>2026-04-18T17:55:06.001Z</time></trkpt><trkpt lat="53.38007028072796" lon="14.796923273906062"><ele>26.0</ele><time>2026-04-18T17:55:07.001Z</time></trkpt><trkpt lat="53.38009946709905" lon="14.796713677777841"><ele>26.0</ele><time>2026-04-18T17:55:08.001Z</time></trkpt><trkpt lat="53.38013915300948" lon="14.796513089001524"><ele>26.0</ele><time>2026-04-18T17:55:09.001Z</time></trkpt><trkpt lat="53.38016201744005" lon="14.796284261588257"><ele>26.0</ele><time>2026-04-18T17:55:10.001Z</time></trkpt><trkpt lat="53.38017838965084" lon="14.796006348291813"><ele>26.0</ele><time>2026-04-18T17:55:11.001Z</time></trkpt><trkpt lat="53.380203067854104" lon="14.795779655079672"><ele>26.0</ele><time>2026-04-18T17:55:12Z</time></trkpt><trkpt lat="53.380229536610656" lon="14.795546762347518"><ele>26.0</ele><time>2026-04-18T17:55:13Z</time></trkpt><trkpt lat="53.380254516203564" lon="14.795313428639728"><ele>26.0</ele><time>2026-04-18T17:55:14Z</time></trkpt><trkpt lat="53.38028298785548" lon="14.795091655242354"><ele>26.0</ele><time>2026-04-18T17:55:15Z</time></trkpt><trkpt lat="53.3803006289482" lon="14.794859129564648"><ele>26.0</ele><time>2026-04-18T17:55:16Z</time></trkpt><trkpt lat="53.3803205381122" lon="14.794595292842025"><ele>26.0</ele><time>2026-04-18T17:55:17Z</time></trkpt><trkpt lat="53.380345186751065" lon="14.794381402253707"><ele>26.0</ele><time>2026-04-18T17:55:18Z</time></trkpt><trkpt lat="53.38037819694871" lon="14.794163106747586"><ele>26.0</ele><time>2026-04-18T17:55:19Z</time></trkpt><trkpt lat="53.38039772070723" lon="14.793942195993157"><ele>26.0</ele><time>2026-04-18T17:55:20Z</time></trkpt><trkpt lat="53.38043088787041" lon="14.793731850402057"><ele>26.0</ele><time>2026-04-18T17:55:21Z</time></trkpt><trkpt lat="53.380464645130154" lon="14.793508314757931"><ele>26.0</ele><time>2026-04-18T17:55:22Z</time></trkpt><trkpt lat="53.38049393333327" lon="14.793304846648377"><ele>26.0</ele><time>2026-04-18T17:55:23Z</time></trkpt><trkpt lat="53.380522404394256" lon="14.793093664387394"><ele>26.0</ele><time>2026-04-18T17:55:24Z</time></trkpt><trkpt lat="53.38054092336964" lon="14.792880655700536"><ele>26.0</ele><time>2026-04-18T17:55:25Z</time></trkpt><trkpt lat="53.38054864241486" lon="14.792694462072523"><ele>26.25</ele><time>2026-04-18T17:55:26Z</time></trkpt><trkpt lat="53.38055902234085" lon="14.792492026471523"><ele>26.5</ele><time>2026-04-18T17:55:27Z</time></trkpt><trkpt lat="53.38057966404702" lon="14.792278561973866"><ele>26.75</ele><time>2026-04-18T17:55:28Z</time></trkpt><trkpt lat="53.380605728249776" lon="14.7920399248528"><ele>27.0</ele><time>2026-04-18T17:55:29Z</time></trkpt><trkpt lat="53.38063326674795" lon="14.79180040777514"><ele>27.0</ele><time>2026-04-18T17:55:30Z</time></trkpt><trkpt lat="53.38065333323582" lon="14.791550287599208"><ele>27.0</ele><time>2026-04-18T17:55:31Z</time></trkpt><trkpt lat="53.38068397904187" lon="14.791335290421538"><ele>27.0</ele><time>2026-04-18T17:55:32Z</time></trkpt><trkpt lat="53.380709675488006" lon="14.791091848266657"><ele>27.0</ele><time>2026-04-18T17:55:33Z</time></trkpt><trkpt lat="53.38072724926142" lon="14.790848483081845"><ele>27.25</ele><time>2026-04-18T17:55:34Z</time></trkpt><trkpt lat="53.38073967443286" lon="14.790624762038993"><ele>27.5</ele><time>2026-04-18T17:55:35Z</time></trkpt><trkpt lat="53.38076049479233" lon="14.790369324650634"><ele>27.75</ele><time>2026-04-18T17:55:36Z</time></trkpt><trkpt lat="53.38079756868959" lon="14.790139350940986"><ele>28.0</ele><time>2026-04-18T17:55:37Z</time></trkpt><trkpt lat="53.38082252601664" lon="14.789854950904024"><ele>28.0</ele><time>2026-04-18T17:55:38Z</time></trkpt><trkpt lat="53.38085106842183" lon="14.789620220139886"><ele>28.0</ele><time>2026-04-18T17:55:39Z</time></trkpt><trkpt lat="53.38088468417271" lon="14.78938059563241"><ele>28.0</ele><time>2026-04-18T17:55:40Z</time></trkpt><trkpt lat="53.38091986448832" lon="14.789146374047181"><ele>28.0</ele><time>2026-04-18T17:55:41Z</time></trkpt><trkpt lat="53.38094998150244" lon="14.78889954435403"><ele>28.0</ele><time>2026-04-18T17:55:42Z</time></trkpt><trkpt lat="53.38097415360267" lon="14.788623510156363"><ele>28.0</ele><time>2026-04-18T17:55:43Z</time></trkpt><trkpt lat="53.38099197794815" lon="14.788342461421479"><ele>28.0</ele><time>2026-04-18T17:55:44Z</time></trkpt><trkpt lat="53.38102562137587" lon="14.78806086609827"><ele>27.666666666666668</ele><time>2026-04-18T17:55:45Z</time></trkpt><trkpt lat="53.381055256988354" lon="14.78779297186788"><ele>27.333333333333336</ele><time>2026-04-18T17:55:46Z</time></trkpt><trkpt lat="53.38108790471966" lon="14.787520056872756"><ele>27.0</ele><time>2026-04-18T17:55:47Z</time></trkpt><trkpt lat="53.38110615223773" lon="14.787240314070623"><ele>26.666666666666664</ele><time>2026-04-18T17:55:48Z</time></trkpt><trkpt lat="53.381130955131376" lon="14.786952446612247"><ele>26.333333333333332</ele><time>2026-04-18T17:55:49Z</time></trkpt><trkpt lat="53.38115793046896" lon="14.786659513273937"><ele>26.0</ele><time>2026-04-18T17:55:50Z</time></trkpt><trkpt lat="53.38118719709569" lon="14.786402423052149"><ele>26.0</ele><time>2026-04-18T17:55:51Z</time></trkpt><trkpt lat="53.38122273224147" lon="14.786169636491513"><ele>26.0</ele><time>2026-04-18T17:55:52Z</time></trkpt><trkpt lat="53.38124942819292" lon="14.785904121641021"><ele>26.0</ele><time>2026-04-18T17:55:53Z</time></trkpt><trkpt lat="53.38127885748223" lon="14.785650646470874"><ele>26.0</ele><time>2026-04-18T17:55:54Z</time></trkpt><trkpt lat="53.381298297920985" lon="14.78539435874826"><ele>26.0</ele><time>2026-04-18T17:55:55Z</time></trkpt><trkpt lat="53.38130712166173" lon="14.785181879718655"><ele>26.0</ele><time>2026-04-18T17:55:56Z</time></trkpt><trkpt lat="53.38133298971486" lon="14.784948852731112"><ele>26.0</ele><time>2026-04-18T17:55:57Z</time></trkpt><trkpt lat="53.38135730021219" lon="14.78474648014255"><ele>26.25</ele><time>2026-04-18T17:55:58Z</time></trkpt><trkpt lat="53.381392021730825" lon="14.784517068944377"><ele>26.5</ele><time>2026-04-18T17:55:59Z</time></trkpt><trkpt lat="53.38141109485359" lon="14.784270403244438"><ele>26.75</ele><time>2026-04-18T17:56:00Z</time></trkpt><trkpt lat="53.38143960438179" lon="14.78401430504846"><ele>27.0</ele><time>2026-04-18T17:56:01Z</time></trkpt><trkpt lat="53.38146594988103" lon="14.783816421327675"><ele>27.0</ele><time>2026-04-18T17:56:02Z</time></trkpt><trkpt lat="53.38149132887213" lon="14.783615409691823"><ele>27.0</ele><time>2026-04-18T17:56:03Z</time></trkpt><trkpt lat="53.38152196310186" lon="14.783415963948332"><ele>27.0</ele><time>2026-04-18T17:56:04Z</time></trkpt><trkpt lat="53.38154514041059" lon="14.78319941293606"><ele>27.0</ele><time>2026-04-18T17:56:05Z</time></trkpt><trkpt lat="53.381567588835736" lon="14.7829731115593"><ele>26.75</ele><time>2026-04-18T17:56:06Z</time></trkpt><trkpt lat="53.38159262663109" lon="14.782759882931407"><ele>26.5</ele><time>2026-04-18T17:56:07Z</time></trkpt><trkpt lat="53.38160979272025" lon="14.78257669772153"><ele>26.25</ele><time>2026-04-18T17:56:08Z</time></trkpt><trkpt lat="53.38163257075282" lon="14.782377386579476"><ele>26.0</ele><time>2026-04-18T17:56:09Z</time></trkpt><trkpt lat="53.38164786752002" lon="14.78216666038155"><ele>26.0</ele><time>2026-04-18T17:56:10Z</time></trkpt><trkpt lat="53.38166533218729" lon="14.781957702926025"><ele>26.0</ele><time>2026-04-18T17:56:11Z</time></trkpt><trkpt lat="53.381689752234024" lon="14.781781064754844"><ele>26.0</ele><time>2026-04-18T17:56:12Z</time></trkpt><trkpt lat="53.38171379303744" lon="14.781594640438785"><ele>26.0</ele><time>2026-04-18T17:56:13Z</time></trkpt><trkpt lat="53.381726754139635" lon="14.7814206946967"><ele>25.5</ele><time>2026-04-18T17:56:14Z</time></trkpt><trkpt lat="53.38174307560489" lon="14.781243559574676"><ele>25.0</ele><time>2026-04-18T17:56:15Z</time></trkpt><trkpt lat="53.38175144685692" lon="14.781057978675978"><ele>24.5</ele><time>2026-04-18T17:56:16Z</time></trkpt><trkpt lat="53.381775603059054" lon="14.780859240040478"><ele>24.0</ele><time>2026-04-18T17:56:17Z</time></trkpt><trkpt lat="53.3818015563493" lon="14.78067482911103"><ele>24.0</ele><time>2026-04-18T17:56:18Z</time></trkpt><trkpt lat="53.38183241591754" lon="14.780500963452633"><ele>24.0</ele><time>2026-04-18T17:56:19Z</time></trkpt><trkpt lat="53.381850167088466" lon="14.780320388617984"><ele>24.0</ele><time>2026-04-18T17:56:20Z</time></trkpt><trkpt lat="53.38186767370457" lon="14.780128270072517"><ele>24.0</ele><time>2026-04-18T17:56:21Z</time></trkpt><trkpt lat="53.38189250600515" lon="14.779943505150174"><ele>24.0</ele><time>2026-04-18T17:56:22Z</time></trkpt><trkpt lat="53.38191295274537" lon="14.779755995701187"><ele>24.0</ele><time>2026-04-18T17:56:23Z</time></trkpt><trkpt lat="53.38192512413232" lon="14.779584172798263"><ele>24.0</ele><time>2026-04-18T17:56:24Z</time></trkpt><trkpt lat="53.381955504292044" lon="14.779408675362127"><ele>24.0</ele><time>2026-04-18T17:56:25Z</time></trkpt><trkpt lat="53.38197460483878" lon="14.77924981642809"><ele>24.0</ele><time>2026-04-18T17:56:26Z</time></trkpt><trkpt lat="53.38199343326494" lon="14.779043442345051"><ele>24.0</ele><time>2026-04-18T17:56:27Z</time></trkpt><trkpt lat="53.38200699923581" lon="14.778859125823438"><ele>24.0</ele><time>2026-04-18T17:56:28Z</time></trkpt><trkpt lat="53.382036350367166" lon="14.778670194565056"><ele>24.0</ele><time>2026-04-18T17:56:29Z</time></trkpt><trkpt lat="53.382057550000056" lon="14.77846308971107"><ele>24.0</ele><time>2026-04-18T17:56:30Z</time></trkpt><trkpt lat="53.382075176139054" lon="14.77827044299079"><ele>24.0</ele><time>2026-04-18T17:56:31.001Z</time></trkpt><trkpt lat="53.382093531689705" lon="14.778073182174845"><ele>24.0</ele><time>2026-04-18T17:56:32.001Z</time></trkpt><trkpt lat="53.38212256644037" lon="14.77786364056129"><ele>24.0</ele><time>2026-04-18T17:56:33.001Z</time></trkpt><trkpt lat="53.38214531753314" lon="14.777667603438196"><ele>24.0</ele><time>2026-04-18T17:56:34.001Z</time></trkpt><trkpt lat="53.38216927037832" lon="14.777479313040264"><ele>24.0</ele><time>2026-04-18T17:56:35.001Z</time></trkpt><trkpt lat="53.38218553156886" lon="14.77728929300074"><ele>24.75</ele><time>2026-04-18T17:56:36.001Z</time></trkpt><trkpt lat="53.382213085598536" lon="14.777091918545997"><ele>25.5</ele><time>2026-04-18T17:56:37.001Z</time></trkpt><trkpt lat="53.38223136571352" lon="14.776891181704256"><ele>26.25</ele><time>2026-04-18T17:56:38.001Z</time></trkpt><trkpt lat="53.38224377233892" lon="14.776679662519529"><ele>27.0</ele><time>2026-04-18T17:56:39.001Z</time></trkpt><trkpt lat="53.38225807267393" lon="14.776490089496617"><ele>27.0</ele><time>2026-04-18T17:56:40.001Z</time></trkpt><trkpt lat="53.38228643113294" lon="14.776274646266645"><ele>27.0</ele><time>2026-04-18T17:56:41.001Z</time></trkpt><trkpt lat="53.382312089863724" lon="14.77607122524511"><ele>27.0</ele><time>2026-04-18T17:56:42.001Z</time></trkpt><trkpt lat="53.38233563039922" lon="14.775878829105142"><ele>27.0</ele><time>2026-04-18T17:56:43.001Z</time></trkpt><trkpt lat="53.38237153009977" lon="14.775676314009829"><ele>26.75</ele><time>2026-04-18T17:56:44.001Z</time></trkpt><trkpt lat="53.38238553428593" lon="14.775480840507196"><ele>26.5</ele><time>2026-04-18T17:56:45.001Z</time></trkpt><trkpt lat="53.38240022613032" lon="14.775301189006218"><ele>26.25</ele><time>2026-04-18T17:56:46.001Z</time></trkpt><trkpt lat="53.3824291807043" lon="14.775124925879906"><ele>26.0</ele><time>2026-04-18T17:56:47.001Z</time></trkpt><trkpt lat="53.382459384234586" lon="14.774910375712764"><ele>25.75</ele><time>2026-04-18T17:56:48.001Z</time></trkpt><trkpt lat="53.382475061177395" lon="14.774726391246801"><ele>25.5</ele><time>2026-04-18T17:56:49.001Z</time></trkpt><trkpt lat="53.382492870212964" lon="14.77453261295276"><ele>25.25</ele><time>2026-04-18T17:56:50.001Z</time></trkpt><trkpt lat="53.382515416448975" lon="14.774319741875946"><ele>25.0</ele><time>2026-04-18T17:56:51.001Z</time></trkpt><trkpt lat="53.382533248859815" lon="14.774109447266264"><ele>24.75</ele><time>2026-04-18T17:56:52.001Z</time></trkpt><trkpt lat="53.38255116002546" lon="14.773924267751019"><ele>24.5</ele><time>2026-04-18T17:56:53.001Z</time></trkpt><trkpt lat="53.38257640027512" lon="14.773715377125015"><ele>24.25</ele><time>2026-04-18T17:56:54.001Z</time></trkpt><trkpt lat="53.3825854359293" lon="14.773519406986942"><ele>24.0</ele><time>2026-04-18T17:56:55.001Z</time></trkpt><trkpt lat="53.38259828657553" lon="14.773307459814239"><ele>23.75</ele><time>2026-04-18T17:56:56.001Z</time></trkpt><trkpt lat="53.38261134902244" lon="14.773138513926506"><ele>23.5</ele><time>2026-04-18T17:56:57.001Z</time></trkpt><trkpt lat="53.38262662072269" lon="14.77295233309875"><ele>23.25</ele><time>2026-04-18T17:56:58.001Z</time></trkpt><trkpt lat="53.38265239912913" lon="14.772737156193594"><ele>23.0</ele><time>2026-04-18T17:56:59.001Z</time></trkpt><trkpt lat="53.382673496245026" lon="14.772525802722678"><ele>22.666666666666668</ele><time>2026-04-18T17:57:00.001Z</time></trkpt><trkpt lat="53.38269830922392" lon="14.772247334748588"><ele>22.333333333333332</ele><time>2026-04-18T17:57:01.001Z</time></trkpt><trkpt lat="53.3827367987159" lon="14.771977332905875"><ele>22.0</ele><time>2026-04-18T17:57:02.001Z</time></trkpt><trkpt lat="53.3827640456603" lon="14.771732905487262"><ele>21.666666666666664</ele><time>2026-04-18T17:57:03.001Z</time></trkpt><trkpt lat="53.38278777332663" lon="14.771474065925249"><ele>21.333333333333332</ele><time>2026-04-18T17:57:04.001Z</time></trkpt><trkpt lat="53.38281254207002" lon="14.771228767679201"><ele>21.0</ele><time>2026-04-18T17:57:05.001Z</time></trkpt><trkpt lat="53.38284494766273" lon="14.770988371161407"><ele>21.0</ele><time>2026-04-18T17:57:06.001Z</time></trkpt><trkpt lat="53.38286382707502" lon="14.770726269338274"><ele>21.0</ele><time>2026-04-18T17:57:07.001Z</time></trkpt><trkpt lat="53.38288850231573" lon="14.77050480288789"><ele>21.0</ele><time>2026-04-18T17:57:08.001Z</time></trkpt><trkpt lat="53.38293411026835" lon="14.770260101373372"><ele>21.0</ele><time>2026-04-18T17:57:09.001Z</time></trkpt><trkpt lat="53.3829528422951" lon="14.770006773381827"><ele>21.25</ele><time>2026-04-18T17:57:10.001Z</time></trkpt><trkpt lat="53.38297478030481" lon="14.769772846272955"><ele>21.5</ele><time>2026-04-18T17:57:11.001Z</time></trkpt><trkpt lat="53.38299509755906" lon="14.76955513736392"><ele>21.75</ele><time>2026-04-18T17:57:12.001Z</time></trkpt><trkpt lat="53.38300776443843" lon="14.769355281081285"><ele>22.0</ele><time>2026-04-18T17:57:13.001Z</time></trkpt><trkpt lat="53.38303457060967" lon="14.769147078907777"><ele>22.6</ele><time>2026-04-18T17:57:14.001Z</time></trkpt><trkpt lat="53.383068646447384" lon="14.768948459280685"><ele>23.200000000000003</ele><time>2026-04-18T17:57:15.001Z</time></trkpt><trkpt lat="53.38308499941762" lon="14.76878681424188"><ele>23.8</ele><time>2026-04-18T17:57:16.001Z</time></trkpt><trkpt lat="53.38310520650453" lon="14.768621161969655"><ele>24.4</ele><time>2026-04-18T17:57:17.001Z</time></trkpt><trkpt lat="53.38312845193825" lon="14.768456967037562"><ele>25.0</ele><time>2026-04-18T17:57:18Z</time></trkpt><trkpt lat="53.383147620909604" lon="14.768275334286121"><ele>25.0</ele><time>2026-04-18T17:57:19Z</time></trkpt><trkpt lat="53.38317520810473" lon="14.768077896678983"><ele>25.0</ele><time>2026-04-18T17:57:20Z</time></trkpt><trkpt lat="53.383198069241296" lon="14.76787836657894"><ele>25.0</ele><time>2026-04-18T17:57:21Z</time></trkpt><trkpt lat="53.38321861002614" lon="14.76768951622349"><ele>25.0</ele><time>2026-04-18T17:57:21.999Z</time></trkpt><trkpt lat="53.38323926609265" lon="14.767506495663804"><ele>24.8</ele><time>2026-04-18T17:57:22.999Z</time></trkpt><trkpt lat="53.383253431202135" lon="14.767337773834582"><ele>24.6</ele><time>2026-04-18T17:57:24Z</time></trkpt><trkpt lat="53.38327103794878" lon="14.76717098629569"><ele>24.4</ele><time>2026-04-18T17:57:25Z</time></trkpt><trkpt lat="53.38328412246538" lon="14.76698442764937"><ele>24.2</ele><time>2026-04-18T17:57:26Z</time></trkpt><trkpt lat="53.38330205872076" lon="14.766765153763265"><ele>24.0</ele><time>2026-04-18T17:57:27Z</time></trkpt><trkpt lat="53.38332016925527" lon="14.76659310634392"><ele>23.666666666666668</ele><time>2026-04-18T17:57:28Z</time></trkpt><trkpt lat="53.38333929624866" lon="14.766450147065893"><ele>23.333333333333332</ele><time>2026-04-18T17:57:29Z</time></trkpt><trkpt lat="53.38334402408726" lon="14.766334940503981"><ele>23.0</ele><time>2026-04-18T17:57:30Z</time></trkpt><trkpt lat="53.383336585836624" lon="14.766111241684003"><ele>22.666666666666664</ele><time>2026-04-18T17:57:32Z</time></trkpt><trkpt lat="53.38332513470576" lon="14.765984582569605"><ele>22.333333333333332</ele><time>2026-04-18T17:57:33Z</time></trkpt><trkpt lat="53.383294617304934" lon="14.765871554409715"><ele>22.0</ele><time>2026-04-18T17:57:34Z</time></trkpt><trkpt lat="53.38327742807321" lon="14.765768671688372"><ele>21.0</ele><time>2026-04-18T17:57:35Z</time></trkpt><trkpt lat="53.383267661136664" lon="14.765588403856425"><ele>20.0</ele><time>2026-04-18T17:57:37Z</time></trkpt><trkpt lat="53.38327403514445" lon="14.765455188149494"><ele>19.0</ele><time>2026-04-18T17:57:39Z</time></trkpt><trkpt lat="53.38317896041084" lon="14.765349259539974"><ele>18.0</ele><time>2026-04-18T17:57:50Z</time></trkpt><trkpt lat="53.383095667610206" lon="14.765352428190399"><ele>17.0</ele><time>2026-04-18T17:57:51Z</time></trkpt><trkpt lat="53.38302386573679" lon="14.765367278074221"><ele>17.166666666666668</ele><time>2026-04-18T17:57:52Z</time></trkpt><trkpt lat="53.38295669462535" lon="14.765371908692368"><ele>17.333333333333336</ele><time>2026-04-18T17:57:53Z</time></trkpt><trkpt lat="53.38287908065186" lon="14.765365292416789"><ele>17.5</ele><time>2026-04-18T17:57:54Z</time></trkpt><trkpt lat="53.38280063557498" lon="14.765357221840063"><ele>17.666666666666668</ele><time>2026-04-18T17:57:55Z</time></trkpt><trkpt lat="53.382710278779925" lon="14.765358226583947"><ele>17.833333333333332</ele><time>2026-04-18T17:57:56Z</time></trkpt><trkpt lat="53.382606201195344" lon="14.76535478407179"><ele>18.0</ele><time>2026-04-18T17:57:57Z</time></trkpt><trkpt lat="53.38250196172356" lon="14.76534574676862"><ele>18.0</ele><time>2026-04-18T17:57:58Z</time></trkpt><trkpt lat="53.382409264746705" lon="14.765336556211748"><ele>18.0</ele><time>2026-04-18T17:57:59Z</time></trkpt><trkpt lat="53.38233164011012" lon="14.765316465777467"><ele>18.0</ele><time>2026-04-18T17:58:00Z</time></trkpt><trkpt lat="53.38226861445608" lon="14.765254557424923"><ele>18.0</ele><time>2026-04-18T17:58:01Z</time></trkpt><trkpt lat="53.38222163210371" lon="14.764933343444472"><ele>18.0</ele><time>2026-04-18T17:58:03Z</time></trkpt><trkpt lat="53.38219908532623" lon="14.76471945098247"><ele>18.25</ele><time>2026-04-18T17:58:04Z</time></trkpt><trkpt lat="53.38220625570114" lon="14.764511701532586"><ele>18.5</ele><time>2026-04-18T17:58:05Z</time></trkpt><trkpt lat="53.382225433953806" lon="14.76428367356239"><ele>18.75</ele><time>2026-04-18T17:58:06Z</time></trkpt><trkpt lat="53.38224974116772" lon="14.764052898763774"><ele>19.0</ele><time>2026-04-18T17:58:07Z</time></trkpt><trkpt lat="53.382276209198245" lon="14.763833983561929"><ele>19.4</ele><time>2026-04-18T17:58:08Z</time></trkpt><trkpt lat="53.38231188906357" lon="14.76364480766789"><ele>19.799999999999997</ele><time>2026-04-18T17:58:09Z</time></trkpt><trkpt lat="53.382361872662216" lon="14.76348872674226"><ele>20.200000000000003</ele><time>2026-04-18T17:58:10Z</time></trkpt><trkpt lat="53.382420684720984" lon="14.76335243932034"><ele>20.6</ele><time>2026-04-18T17:58:11Z</time></trkpt><trkpt lat="53.38249302061339" lon="14.763206932093057"><ele>21.0</ele><time>2026-04-18T17:58:12Z</time></trkpt><trkpt lat="53.38257171453642" lon="14.763041794103366"><ele>21.0</ele><time>2026-04-18T17:58:13Z</time></trkpt><trkpt lat="53.38264713060889" lon="14.762874247283124"><ele>21.0</ele><time>2026-04-18T17:58:14Z</time></trkpt><trkpt lat="53.382717446671705" lon="14.762686661709111"><ele>21.0</ele><time>2026-04-18T17:58:15Z</time></trkpt><trkpt lat="53.382763949699424" lon="14.762497063476552"><ele>21.0</ele><time>2026-04-18T17:58:16Z</time></trkpt><trkpt lat="53.38277923148298" lon="14.762292335945569"><ele>20.75</ele><time>2026-04-18T17:58:17Z</time></trkpt><trkpt lat="53.382821055997454" lon="14.762075066575745"><ele>20.5</ele><time>2026-04-18T17:58:18Z</time></trkpt><trkpt lat="53.38282680549964" lon="14.76187304388986"><ele>20.25</ele><time>2026-04-18T17:58:19Z</time></trkpt><trkpt lat="53.38286763808225" lon="14.761678487674384"><ele>20.0</ele><time>2026-04-18T17:58:20Z</time></trkpt><trkpt lat="53.382894184288766" lon="14.761493564256527"><ele>20.0</ele><time>2026-04-18T17:58:21Z</time></trkpt><trkpt lat="53.38291919516406" lon="14.761332557731231"><ele>20.0</ele><time>2026-04-18T17:58:22Z</time></trkpt><trkpt lat="53.38293952789242" lon="14.761204537019601"><ele>20.0</ele><time>2026-04-18T17:58:23Z</time></trkpt><trkpt lat="53.382957600308565" lon="14.761092627044412"><ele>20.0</ele><time>2026-04-18T17:58:25Z</time></trkpt><trkpt lat="53.38280281298605" lon="14.761040966242218"><ele>20.0</ele><time>2026-04-18T17:58:30Z</time></trkpt><trkpt lat="53.38276844824111" lon="14.760915283500376"><ele>20.166666666666668</ele><time>2026-04-18T17:58:32Z</time></trkpt><trkpt lat="53.38273984118854" lon="14.76079381060158"><ele>20.333333333333336</ele><time>2026-04-18T17:58:33Z</time></trkpt><trkpt lat="53.382688761433414" lon="14.760684051485192"><ele>20.5</ele><time>2026-04-18T17:58:34Z</time></trkpt><trkpt lat="53.38263313652988" lon="14.760589799840295"><ele>20.666666666666668</ele><time>2026-04-18T17:58:35Z</time></trkpt><trkpt lat="53.38256937504693" lon="14.76048884712909"><ele>20.833333333333332</ele><time>2026-04-18T17:58:36Z</time></trkpt><trkpt lat="53.38250802220446" lon="14.760384308132629"><ele>21.0</ele><time>2026-04-18T17:58:37Z</time></trkpt><trkpt lat="53.38245111846095" lon="14.760279862362557"><ele>21.6</ele><time>2026-04-18T17:58:38Z</time></trkpt><trkpt lat="53.382389854784286" lon="14.760171867445086"><ele>22.200000000000003</ele><time>2026-04-18T17:58:39Z</time></trkpt><trkpt lat="53.38233403481048" lon="14.760023374273226"><ele>22.799999999999997</ele><time>2026-04-18T17:58:40Z</time></trkpt><trkpt lat="53.38228825321577" lon="14.75987798223802"><ele>23.4</ele><time>2026-04-18T17:58:41Z</time></trkpt><trkpt lat="53.382236901240994" lon="14.759736040850797"><ele>24.0</ele><time>2026-04-18T17:58:42.001Z</time></trkpt><trkpt lat="53.382182877033046" lon="14.759580926530752"><ele>24.5</ele><time>2026-04-18T17:58:43.001Z</time></trkpt><trkpt lat="53.382136302918774" lon="14.7593921880601"><ele>25.0</ele><time>2026-04-18T17:58:44.001Z</time></trkpt><trkpt lat="53.3820989806909" lon="14.759204494396265"><ele>25.5</ele><time>2026-04-18T17:58:45.001Z</time></trkpt><trkpt lat="53.382064988125286" lon="14.759004325490626"><ele>26.0</ele><time>2026-04-18T17:58:46.001Z</time></trkpt><trkpt lat="53.382040962522254" lon="14.758827707233"><ele>26.0</ele><time>2026-04-18T17:58:47.001Z</time></trkpt><trkpt lat="53.38201717339397" lon="14.758651959146496"><ele>26.0</ele><time>2026-04-18T17:58:48.001Z</time></trkpt><trkpt lat="53.38199045233549" lon="14.758467549376983"><ele>26.0</ele><time>2026-04-18T17:58:49.001Z</time></trkpt><trkpt lat="53.38196244559158" lon="14.758274357939635"><ele>26.0</ele><time>2026-04-18T17:58:50.001Z</time></trkpt><trkpt lat="53.38193288263679" lon="14.758094551186288"><ele>26.0</ele><time>2026-04-18T17:58:51.001Z</time></trkpt><trkpt lat="53.38190471235774" lon="14.757926681479153"><ele>26.0</ele><time>2026-04-18T17:58:52.001Z</time></trkpt><trkpt lat="53.38187276125178" lon="14.757758144980818"><ele>26.0</ele><time>2026-04-18T17:58:53.001Z</time></trkpt><trkpt lat="53.38183261655243" lon="14.757562887937299"><ele>26.0</ele><time>2026-04-18T17:58:54.001Z</time></trkpt><trkpt lat="53.38178697714194" lon="14.757401886638302"><ele>26.0</ele><time>2026-04-18T17:58:55.001Z</time></trkpt><trkpt lat="53.38174817155389" lon="14.757225846050053"><ele>26.0</ele><time>2026-04-18T17:58:56.001Z</time></trkpt><trkpt lat="53.381694184488154" lon="14.757030456896352"><ele>26.0</ele><time>2026-04-18T17:58:57.001Z</time></trkpt><trkpt lat="53.38163982196902" lon="14.756831145724023"><ele>26.0</ele><time>2026-04-18T17:58:58.001Z</time></trkpt><trkpt lat="53.38158993901499" lon="14.756626177373182"><ele>26.0</ele><time>2026-04-18T17:58:59.001Z</time></trkpt><trkpt lat="53.38154101865209" lon="14.756413168067605"><ele>26.0</ele><time>2026-04-18T17:59:00.001Z</time></trkpt><trkpt lat="53.38150486915972" lon="14.756239632662846"><ele>26.0</ele><time>2026-04-18T17:59:01.001Z</time></trkpt><trkpt lat="53.381457608976945" lon="14.756068518310116"><ele>26.0</ele><time>2026-04-18T17:59:02.001Z</time></trkpt><trkpt lat="53.38140037968861" lon="14.755920519199364"><ele>26.0</ele><time>2026-04-18T17:59:03.001Z</time></trkpt><trkpt lat="53.381317192989314" lon="14.755757748989693"><ele>26.75</ele><time>2026-04-18T17:59:04.001Z</time></trkpt><trkpt lat="53.38124835325673" lon="14.755585843457803"><ele>27.5</ele><time>2026-04-18T17:59:05.001Z</time></trkpt><trkpt lat="53.38118961444739" lon="14.755442386904166"><ele>28.25</ele><time>2026-04-18T17:59:06.001Z</time></trkpt><trkpt lat="53.38113460168542" lon="14.755284681760017"><ele>29.0</ele><time>2026-04-18T17:59:07.001Z</time></trkpt><trkpt lat="53.381080569340355" lon="14.755114262286744"><ele>29.0</ele><time>2026-04-18T17:59:08.001Z</time></trkpt><trkpt lat="53.381028284200994" lon="14.754946912350702"><ele>29.0</ele><time>2026-04-18T17:59:09.001Z</time></trkpt><trkpt lat="53.38098211065567" lon="14.754820631668991"><ele>29.0</ele><time>2026-04-18T17:59:10.001Z</time></trkpt><trkpt lat="53.38093956064768" lon="14.754695305114902"><ele>29.0</ele><time>2026-04-18T17:59:11.001Z</time></trkpt><trkpt lat="53.380888476275516" lon="14.754558354038098"><ele>29.0</ele><time>2026-04-18T17:59:12.001Z</time></trkpt><trkpt lat="53.380844251433395" lon="14.754446149655678"><ele>29.142857142857146</ele><time>2026-04-18T17:59:13.001Z</time></trkpt><trkpt lat="53.380801998376455" lon="14.754366225431909"><ele>29.285714285714285</ele><time>2026-04-18T17:59:14.001Z</time></trkpt><trkpt lat="53.38074730911558" lon="14.754282260881316"><ele>29.42857142857143</ele><time>2026-04-18T17:59:15.001Z</time></trkpt><trkpt lat="53.38070036128749" lon="14.754206569492919"><ele>29.571428571428573</ele><time>2026-04-18T17:59:16.001Z</time></trkpt><trkpt lat="53.38062865798941" lon="14.754082800814396"><ele>29.714285714285715</ele><time>2026-04-18T17:59:18.001Z</time></trkpt><trkpt lat="53.38059145898753" lon="14.753997479268948"><ele>29.857142857142858</ele><time>2026-04-18T17:59:19.001Z</time></trkpt><trkpt lat="53.38055261174193" lon="14.753908077473252"><ele>30.0</ele><time>2026-04-18T17:59:20.001Z</time></trkpt><trkpt lat="53.38049533347209" lon="14.753820175224195"><ele>30.0</ele><time>2026-04-18T17:59:21.001Z</time></trkpt><trkpt lat="53.38043829878412" lon="14.753666470394569"><ele>30.0</ele><time>2026-04-18T17:59:22.001Z</time></trkpt><trkpt lat="53.38037312958918" lon="14.753478639720031"><ele>30.0</ele><time>2026-04-18T17:59:23.001Z</time></trkpt><trkpt lat="53.380308346331304" lon="14.75330052696207"><ele>30.0</ele><time>2026-04-18T17:59:24Z</time></trkpt><trkpt lat="53.38024710591267" lon="14.753139124864791"><ele>29.8</ele><time>2026-04-18T17:59:25Z</time></trkpt><trkpt lat="53.38019104957816" lon="14.752991337272467"><ele>29.6</ele><time>2026-04-18T17:59:26Z</time></trkpt><trkpt lat="53.38013921538466" lon="14.752846608632609"><ele>29.4</ele><time>2026-04-18T17:59:27Z</time></trkpt><trkpt lat="53.38008922293385" lon="14.752681963314641"><ele>29.2</ele><time>2026-04-18T17:59:28Z</time></trkpt><trkpt lat="53.38002969269872" lon="14.752517054602995"><ele>29.0</ele><time>2026-04-18T17:59:29Z</time></trkpt><trkpt lat="53.379983922860134" lon="14.752401147012598"><ele>29.0</ele><time>2026-04-18T17:59:30Z</time></trkpt><trkpt lat="53.379933959104655" lon="14.752274486570894"><ele>29.0</ele><time>2026-04-18T17:59:31Z</time></trkpt><trkpt lat="53.37989340706217" lon="14.752172119222191"><ele>29.0</ele><time>2026-04-18T17:59:32Z</time></trkpt><trkpt lat="53.37983270702322" lon="14.752023475919982"><ele>29.0</ele><time>2026-04-18T17:59:34Z</time></trkpt><trkpt lat="53.37976123366425" lon="14.751996284846587"><ele>29.0</ele><time>2026-04-18T17:59:35Z</time></trkpt><trkpt lat="53.37961930858467" lon="14.752084390565201"><ele>28.75</ele><time>2026-04-18T17:59:37Z</time></trkpt><trkpt lat="53.3795126367725" lon="14.75210228076603"><ele>28.5</ele><time>2026-04-18T17:59:38Z</time></trkpt><trkpt lat="53.379401387862394" lon="14.75211958269727"><ele>28.25</ele><time>2026-04-18T17:59:39Z</time></trkpt><trkpt lat="53.37927331065179" lon="14.752113874097576"><ele>28.0</ele><time>2026-04-18T17:59:40Z</time></trkpt><trkpt lat="53.37914213244528" lon="14.752128227985319"><ele>28.0</ele><time>2026-04-18T17:59:41Z</time></trkpt><trkpt lat="53.37902861002354" lon="14.752128169616803"><ele>28.0</ele><time>2026-04-18T17:59:42Z</time></trkpt><trkpt lat="53.37889703280923" lon="14.752140904915642"><ele>28.0</ele><time>2026-04-18T17:59:43Z</time></trkpt><trkpt lat="53.37878359382754" lon="14.75213133584461"><ele>28.0</ele><time>2026-04-18T17:59:44Z</time></trkpt><trkpt lat="53.37866950615226" lon="14.752139233855807"><ele>27.25</ele><time>2026-04-18T17:59:45Z</time></trkpt><trkpt lat="53.37855942111192" lon="14.752137307844142"><ele>26.5</ele><time>2026-04-18T17:59:46Z</time></trkpt><trkpt lat="53.37844350532338" lon="14.752160613089126"><ele>25.75</ele><time>2026-04-18T17:59:47Z</time></trkpt><trkpt lat="53.378328058030924" lon="14.752175158025215"><ele>25.0</ele><time>2026-04-18T17:59:48Z</time></trkpt><trkpt lat="53.378212241392674" lon="14.75219382006432"><ele>25.0</ele><time>2026-04-18T17:59:49Z</time></trkpt><trkpt lat="53.378104710070055" lon="14.752197237783493"><ele>25.0</ele><time>2026-04-18T17:59:50Z</time></trkpt><trkpt lat="53.378002157008495" lon="14.752206332044002"><ele>25.0</ele><time>2026-04-18T17:59:51Z</time></trkpt><trkpt lat="53.37789081369996" lon="14.752209369014242"><ele>25.0</ele><time>2026-04-18T17:59:52Z</time></trkpt><trkpt lat="53.3777785613452" lon="14.752198954768108"><ele>25.0</ele><time>2026-04-18T17:59:53Z</time></trkpt><trkpt lat="53.37768529836536" lon="14.752175846579847"><ele>25.2</ele><time>2026-04-18T17:59:54Z</time></trkpt><trkpt lat="53.377573470329956" lon="14.752177882703485"><ele>25.4</ele><time>2026-04-18T17:59:55Z</time></trkpt><trkpt lat="53.37746656153774" lon="14.752167437455979"><ele>25.6</ele><time>2026-04-18T17:59:56Z</time></trkpt><trkpt lat="53.37737436304028" lon="14.752178214819418"><ele>25.8</ele><time>2026-04-18T17:59:57Z</time></trkpt><trkpt lat="53.377292818577125" lon="14.752185350662318"><ele>26.0</ele><time>2026-04-18T17:59:58Z</time></trkpt><trkpt lat="53.37719356544997" lon="14.752200582572748"><ele>26.0</ele><time>2026-04-18T17:59:59Z</time></trkpt><trkpt lat="53.37708745540134" lon="14.752217471207143"><ele>26.0</ele><time>2026-04-18T18:00:00Z</time></trkpt><trkpt lat="53.377002244133024" lon="14.752207571778872"><ele>26.0</ele><time>2026-04-18T18:00:01Z</time></trkpt><trkpt lat="53.37691598092209" lon="14.75221249785269"><ele>26.0</ele><time>2026-04-18T18:00:02Z</time></trkpt><trkpt lat="53.37682702170305" lon="14.752243484620328"><ele>26.0</ele><time>2026-04-18T18:00:03Z</time></trkpt><trkpt lat="53.37674365455184" lon="14.752237158962721"><ele>25.999999999999996</ele><time>2026-04-18T18:00:04Z</time></trkpt><trkpt lat="53.37663673336109" lon="14.75222174573278"><ele>26.0</ele><time>2026-04-18T18:00:05Z</time></trkpt><trkpt lat="53.37655291351174" lon="14.752241784417773"><ele>26.0</ele><time>2026-04-18T18:00:06Z</time></trkpt><trkpt lat="53.37648637374355" lon="14.752282948403257"><ele>26.0</ele><time>2026-04-18T18:00:07Z</time></trkpt><trkpt lat="53.37640981472533" lon="14.752281726977394"><ele>25.999999999999996</ele><time>2026-04-18T18:00:09Z</time></trkpt><trkpt lat="53.376378118539236" lon="14.752142986011894"><ele>26.0</ele><time>2026-04-18T18:00:11Z</time></trkpt><trkpt lat="53.37640809495829" lon="14.75203021700285"><ele>25.999999999999996</ele><time>2026-04-18T18:00:13Z</time></trkpt><trkpt lat="53.376389061327565" lon="14.751922400072234"><ele>26.0</ele><time>2026-04-18T18:02:17Z</time></trkpt><trkpt lat="53.376323473977045" lon="14.75183327927486"><ele>26.0</ele><time>2026-04-18T18:02:38Z</time></trkpt><trkpt lat="53.37630555024178" lon="14.751665870823638"><ele>26.0</ele><time>2026-04-18T18:02:40Z</time></trkpt><trkpt lat="53.376309749242395" lon="14.751479776278739"><ele>25.999999999999996</ele><time>2026-04-18T18:02:42Z</time></trkpt><trkpt lat="53.376307363905646" lon="14.751360805449664"><ele>26.0</ele><time>2026-04-18T18:02:43Z</time></trkpt><trkpt lat="53.37630722412587" lon="14.7511964512386"><ele>26.25</ele><time>2026-04-18T18:02:44Z</time></trkpt><trkpt lat="53.37631297744361" lon="14.750998654492978"><ele>26.5</ele><time>2026-04-18T18:02:45Z</time></trkpt><trkpt lat="53.37632055393487" lon="14.750779654320935"><ele>26.75</ele><time>2026-04-18T18:02:46Z</time></trkpt><trkpt lat="53.37631781712258" lon="14.750559409011997"><ele>27.0</ele><time>2026-04-18T18:02:47Z</time></trkpt><trkpt lat="53.37631140653221" lon="14.750332109369515"><ele>26.5</ele><time>2026-04-18T18:02:48Z</time></trkpt><trkpt lat="53.376304575080084" lon="14.750106177218282"><ele>26.0</ele><time>2026-04-18T18:02:49Z</time></trkpt><trkpt lat="53.37630345507213" lon="14.749893826279664"><ele>25.5</ele><time>2026-04-18T18:02:50Z</time></trkpt><trkpt lat="53.37629804203233" lon="14.749661177020561"><ele>25.0</ele><time>2026-04-18T18:02:51Z</time></trkpt><trkpt lat="53.37630495656918" lon="14.749452402788897"><ele>24.8</ele><time>2026-04-18T18:02:52Z</time></trkpt><trkpt lat="53.376302945812455" lon="14.74924677598628"><ele>24.6</ele><time>2026-04-18T18:02:53Z</time></trkpt><trkpt lat="53.37629783898314" lon="14.749066069007046"><ele>24.4</ele><time>2026-04-18T18:02:54Z</time></trkpt><trkpt lat="53.37629941840818" lon="14.748908505253668"><ele>24.2</ele><time>2026-04-18T18:02:55Z</time></trkpt><trkpt lat="53.376295772867806" lon="14.74872992983903"><ele>24.0</ele><time>2026-04-18T18:02:56Z</time></trkpt><trkpt lat="53.37628167565254" lon="14.748538385516634"><ele>24.0</ele><time>2026-04-18T18:02:58Z</time></trkpt><trkpt lat="53.376232874746144" lon="14.748434406030933"><ele>24.0</ele><time>2026-04-18T18:03:01Z</time></trkpt><trkpt lat="53.37615321792375" lon="14.74841926704627"><ele>24.0</ele><time>2026-04-18T18:03:04Z</time></trkpt><trkpt lat="53.376028205608264" lon="14.748473549075444"><ele>24.0</ele><time>2026-04-18T18:03:06Z</time></trkpt><trkpt lat="53.37595262833822" lon="14.748519637381541"><ele>24.0</ele><time>2026-04-18T18:03:07Z</time></trkpt><trkpt lat="53.37582434315959" lon="14.7485828080245"><ele>24.0</ele><time>2026-04-18T18:03:09Z</time></trkpt><trkpt lat="53.375745616621565" lon="14.74856586004746"><ele>24.0</ele><time>2026-04-18T18:03:10Z</time></trkpt><trkpt lat="53.37568118835691" lon="14.748584513534768"><ele>24.0</ele><time>2026-04-18T18:03:11Z</time></trkpt><trkpt lat="53.3755942161452" lon="14.748611556374136"><ele>24.0</ele><time>2026-04-18T18:03:12Z</time></trkpt><trkpt lat="53.37552755995048" lon="14.74861139076018"><ele>24.0</ele><time>2026-04-18T18:03:13Z</time></trkpt><trkpt lat="53.375439577175776" lon="14.748638073547081"><ele>24.0</ele><time>2026-04-18T18:03:14.001Z</time></trkpt><trkpt lat="53.37537436086919" lon="14.748642881786616"><ele>24.5</ele><time>2026-04-18T18:03:15.001Z</time></trkpt><trkpt lat="53.3753046256541" lon="14.748654800120253"><ele>25.0</ele><time>2026-04-18T18:03:16.001Z</time></trkpt><trkpt lat="53.3752383236319" lon="14.7486660806489"><ele>25.5</ele><time>2026-04-18T18:03:17.001Z</time></trkpt><trkpt lat="53.375168638312566" lon="14.748689766146336"><ele>26.0</ele><time>2026-04-18T18:03:18.001Z</time></trkpt><trkpt lat="53.37510098452344" lon="14.74870139144515"><ele>26.5</ele><time>2026-04-18T18:03:19.001Z</time></trkpt><trkpt lat="53.37500911680223" lon="14.748724089524863"><ele>27.0</ele><time>2026-04-18T18:03:20.001Z</time></trkpt><trkpt lat="53.37489937645536" lon="14.74873543076121"><ele>27.0</ele><time>2026-04-18T18:03:21.001Z</time></trkpt><trkpt lat="53.37480603553506" lon="14.748734753805806"><ele>27.000000000000004</ele><time>2026-04-18T18:03:22.001Z</time></trkpt><trkpt lat="53.37471255973618" lon="14.748748590090111"><ele>27.000000000000004</ele><time>2026-04-18T18:03:23.001Z</time></trkpt><trkpt lat="53.37461267819484" lon="14.74876564591319"><ele>27.0</ele><time>2026-04-18T18:03:24.001Z</time></trkpt><trkpt lat="53.374513828731274" lon="14.748788617490703"><ele>27.0</ele><time>2026-04-18T18:03:25.001Z</time></trkpt><trkpt lat="53.37441875633889" lon="14.748836220753766"><ele>26.400000000000002</ele><time>2026-04-18T18:03:26.001Z</time></trkpt><trkpt lat="53.3743207202842" lon="14.748890021703719"><ele>25.800000000000004</ele><time>2026-04-18T18:03:27.001Z</time></trkpt><trkpt lat="53.374222576379054" lon="14.748908889991506"><ele>25.2</ele><time>2026-04-18T18:03:28.001Z</time></trkpt><trkpt lat="53.37413732422194" lon="14.748929316040314"><ele>24.6</ele><time>2026-04-18T18:03:29.001Z</time></trkpt><trkpt lat="53.374042190850695" lon="14.748945229767065"><ele>24.0</ele><time>2026-04-18T18:03:30.001Z</time></trkpt><trkpt lat="53.373943041603404" lon="14.748989499115412"><ele>24.4</ele><time>2026-04-18T18:03:31.001Z</time></trkpt><trkpt lat="53.37383777864924" lon="14.74900935694878"><ele>24.799999999999997</ele><time>2026-04-18T18:03:32.001Z</time></trkpt><trkpt lat="53.3737323220839" lon="14.74903080529134"><ele>25.200000000000003</ele><time>2026-04-18T18:03:33.001Z</time></trkpt><trkpt lat="53.37362142580872" lon="14.749040089843934"><ele>25.6</ele><time>2026-04-18T18:03:34.001Z</time></trkpt><trkpt lat="53.37350165158888" lon="14.749040087993869"><ele>26.0</ele><time>2026-04-18T18:03:35.001Z</time></trkpt><trkpt lat="53.37338271978442" lon="14.749013389230155"><ele>26.0</ele><time>2026-04-18T18:03:36Z</time></trkpt><trkpt lat="53.37326698600895" lon="14.74898497677232"><ele>26.0</ele><time>2026-04-18T18:03:37Z</time></trkpt><trkpt lat="53.37315754956544" lon="14.748981312160227"><ele>26.0</ele><time>2026-04-18T18:03:38Z</time></trkpt><trkpt lat="53.37304119404609" lon="14.74898164768222"><ele>26.0</ele><time>2026-04-18T18:03:39Z</time></trkpt><trkpt lat="53.372939435241804" lon="14.748985830554155"><ele>26.0</ele><time>2026-04-18T18:03:40Z</time></trkpt><trkpt lat="53.37283083014783" lon="14.749005505066014"><ele>26.5</ele><time>2026-04-18T18:03:41Z</time></trkpt><trkpt lat="53.37271692409643" lon="14.749026564079655"><ele>27.0</ele><time>2026-04-18T18:03:42Z</time></trkpt><trkpt lat="53.37259193031805" lon="14.749065353881265"><ele>27.5</ele><time>2026-04-18T18:03:43Z</time></trkpt><trkpt lat="53.37248235248156" lon="14.749092056171024"><ele>28.0</ele><time>2026-04-18T18:03:44Z</time></trkpt><trkpt lat="53.37236509800439" lon="14.74911828102468"><ele>28.0</ele><time>2026-04-18T18:03:45Z</time></trkpt><trkpt lat="53.37223759244132" lon="14.74915097844754"><ele>28.0</ele><time>2026-04-18T18:03:46Z</time></trkpt><trkpt lat="53.37212359511479" lon="14.749170752568615"><ele>28.0</ele><time>2026-04-18T18:03:47Z</time></trkpt><trkpt lat="53.37201439028429" lon="14.749193613659008"><ele>28.0</ele><time>2026-04-18T18:03:48Z</time></trkpt><trkpt lat="53.37190008972235" lon="14.749227724297516"><ele>28.25</ele><time>2026-04-18T18:03:49Z</time></trkpt><trkpt lat="53.371775664097534" lon="14.749273413963236"><ele>28.5</ele><time>2026-04-18T18:03:50Z</time></trkpt><trkpt lat="53.37165972889848" lon="14.749299444205004"><ele>28.75</ele><time>2026-04-18T18:03:51Z</time></trkpt><trkpt lat="53.37154455824817" lon="14.749327884904972"><ele>29.0</ele><time>2026-04-18T18:03:52Z</time></trkpt><trkpt lat="53.371437931574754" lon="14.74933691620061"><ele>29.0</ele><time>2026-04-18T18:03:53Z</time></trkpt><trkpt lat="53.371330520049796" lon="14.749354197525589"><ele>29.0</ele><time>2026-04-18T18:03:54Z</time></trkpt><trkpt lat="53.371215463261755" lon="14.749362284866393"><ele>29.0</ele><time>2026-04-18T18:03:55Z</time></trkpt><trkpt lat="53.371120384446755" lon="14.749363041660288"><ele>29.0</ele><time>2026-04-18T18:03:56Z</time></trkpt><trkpt lat="53.37103197610989" lon="14.749366896712802"><ele>29.0</ele><time>2026-04-18T18:03:57Z</time></trkpt><trkpt lat="53.37094792712672" lon="14.74935560799506"><ele>29.0</ele><time>2026-04-18T18:03:58Z</time></trkpt><trkpt lat="53.370844162424994" lon="14.749364549009737"><ele>29.0</ele><time>2026-04-18T18:03:59Z</time></trkpt><trkpt lat="53.37074930988599" lon="14.74939678333126"><ele>29.0</ele><time>2026-04-18T18:04:00Z</time></trkpt><trkpt lat="53.37065568053099" lon="14.749426270506316"><ele>29.0</ele><time>2026-04-18T18:04:01Z</time></trkpt><trkpt lat="53.37055361141492" lon="14.749457163168957"><ele>29.0</ele><time>2026-04-18T18:04:02Z</time></trkpt><trkpt lat="53.370454527817884" lon="14.749480954393741"><ele>29.75</ele><time>2026-04-18T18:04:03Z</time></trkpt><trkpt lat="53.37034462967091" lon="14.74951995245626"><ele>30.5</ele><time>2026-04-18T18:04:04Z</time></trkpt><trkpt lat="53.37023894714899" lon="14.749575416011416"><ele>31.25</ele><time>2026-04-18T18:04:05Z</time></trkpt><trkpt lat="53.37011265991362" lon="14.749608829154605"><ele>32.0</ele><time>2026-04-18T18:04:06Z</time></trkpt><trkpt lat="53.370010578326806" lon="14.749632362589475"><ele>32.0</ele><time>2026-04-18T18:04:07Z</time></trkpt><trkpt lat="53.36990304274599" lon="14.749645898494768"><ele>32.0</ele><time>2026-04-18T18:04:08Z</time></trkpt><trkpt lat="53.369786095987074" lon="14.749678901704858"><ele>32.0</ele><time>2026-04-18T18:04:09Z</time></trkpt><trkpt lat="53.36967877527833" lon="14.74970790446213"><ele>32.0</ele><time>2026-04-18T18:04:10Z</time></trkpt><trkpt lat="53.369604443308475" lon="14.7497171480821"><ele>32.0</ele><time>2026-04-18T18:04:11Z</time></trkpt><trkpt lat="53.369502502736495" lon="14.749735837680552"><ele>31.57142857142857</ele><time>2026-04-18T18:04:13Z</time></trkpt><trkpt lat="53.36942351185688" lon="14.749744943841616"><ele>31.14285714285714</ele><time>2026-04-18T18:04:28Z</time></trkpt><trkpt lat="53.36936472162312" lon="14.749784960716884"><ele>30.714285714285715</ele><time>2026-04-18T18:04:30Z</time></trkpt><trkpt lat="53.369306348321636" lon="14.749836924249193"><ele>30.285714285714285</ele><time>2026-04-18T18:04:38Z</time></trkpt><trkpt lat="53.36923748854358" lon="14.74988187185911"><ele>29.857142857142858</ele><time>2026-04-18T18:04:59Z</time></trkpt><trkpt lat="53.36914447256076" lon="14.74994375346165"><ele>29.42857142857143</ele><time>2026-04-18T18:05:11Z</time></trkpt><trkpt lat="53.36908062250818" lon="14.74996841831908"><ele>29.000000000000004</ele><time>2026-04-18T18:05:12Z</time></trkpt><trkpt lat="53.36900425351371" lon="14.749993910550977"><ele>28.999999999999996</ele><time>2026-04-18T18:05:13Z</time></trkpt><trkpt lat="53.369131351747356" lon="14.749917441197917"><ele>29.0</ele><time>2026-04-18T18:05:14Z</time></trkpt><trkpt lat="53.369061959189295" lon="14.749944902489524"><ele>29.0</ele><time>2026-04-18T18:05:19Z</time></trkpt><trkpt lat="53.368993071135435" lon="14.749955521049204"><ele>29.0</ele><time>2026-04-18T18:05:23.001Z</time></trkpt><trkpt lat="53.36892967029999" lon="14.749963342700612"><ele>28.999999999999996</ele><time>2026-04-18T18:05:26.001Z</time></trkpt><trkpt lat="53.36886060282298" lon="14.749969107991246"><ele>29.0</ele><time>2026-04-18T18:05:49Z</time></trkpt><trkpt lat="53.3688230287275" lon="14.750068499683957"><ele>28.999999999999996</ele><time>2026-04-18T18:11:55.004Z</time></trkpt><trkpt lat="53.36885580739846" lon="14.74996758781405"><ele>29.0</ele><time>2026-04-18T18:12:21.004Z</time></trkpt><trkpt lat="53.368925831944516" lon="14.749971528466368"><ele>29.0</ele><time>2026-04-18T18:12:25.004Z</time></trkpt><trkpt lat="53.36899177541709" lon="14.749925660780248"><ele>29.0</ele><time>2026-04-18T18:12:28.004Z</time></trkpt><trkpt lat="53.36905997660634" lon="14.749899191153967"><ele>28.999999999999996</ele><time>2026-04-18T18:12:33.004Z</time></trkpt><trkpt lat="53.36913579027004" lon="14.749857830912763"><ele>29.0</ele><time>2026-04-18T18:12:36.004Z</time></trkpt><trkpt lat="53.369234840335395" lon="14.749807829041584"><ele>29.0</ele><time>2026-04-18T18:12:40.004Z</time></trkpt><trkpt lat="53.369311371071895" lon="14.749740521853203"><ele>29.0</ele><time>2026-04-18T18:12:42.004Z</time></trkpt><trkpt lat="53.369359909019245" lon="14.749582921615234"><ele>29.0</ele><time>2026-04-18T18:12:44.004Z</time></trkpt><trkpt lat="53.36936917458613" lon="14.749475459019497"><ele>29.0</ele><time>2026-04-18T18:12:54.004Z</time></trkpt><trkpt lat="53.3693556390062" lon="14.74936682915916"><ele>29.0</ele><time>2026-04-18T18:12:55.004Z</time></trkpt><trkpt lat="53.36935711628041" lon="14.749150086642018"><ele>28.999999999999996</ele><time>2026-04-18T18:12:57.004Z</time></trkpt><trkpt lat="53.36934607867303" lon="14.749027455346473"><ele>29.0</ele><time>2026-04-18T18:12:58.004Z</time></trkpt><trkpt lat="53.3693441227465" lon="14.748921169074102"><ele>29.0</ele><time>2026-04-18T18:12:59.004Z</time></trkpt><trkpt lat="53.369357448812195" lon="14.748817571193461"><ele>29.0</ele><time>2026-04-18T18:13:00.004Z</time></trkpt><trkpt lat="53.369367368235544" lon="14.748710494088002"><ele>28.999999999999996</ele><time>2026-04-18T18:13:01.004Z</time></trkpt><trkpt lat="53.36936916758446" lon="14.74851534167013"><ele>29.0</ele><time>2026-04-18T18:13:03.004Z</time></trkpt><trkpt lat="53.369351637801365" lon="14.748293219270762"><ele>28.4</ele><time>2026-04-18T18:13:05.004Z</time></trkpt><trkpt lat="53.36934350606237" lon="14.748165973563616"><ele>27.799999999999997</ele><time>2026-04-18T18:13:06.004Z</time></trkpt><trkpt lat="53.369345882684335" lon="14.74804200369363"><ele>27.200000000000003</ele><time>2026-04-18T18:13:07.004Z</time></trkpt><trkpt lat="53.36933589730192" lon="14.747928353988007"><ele>26.6</ele><time>2026-04-18T18:13:08.004Z</time></trkpt><trkpt lat="53.36931841435588" lon="14.747723089526936"><ele>26.0</ele><time>2026-04-18T18:13:10.004Z</time></trkpt><trkpt lat="53.36931401124885" lon="14.747523645551974"><ele>25.4</ele><time>2026-04-18T18:13:12.004Z</time></trkpt><trkpt lat="53.36931741550655" lon="14.747348345383603"><ele>24.8</ele><time>2026-04-18T18:13:14.004Z</time></trkpt><trkpt lat="53.36930470054598" lon="14.747223727645107"><ele>24.2</ele><time>2026-04-18T18:13:16.004Z</time></trkpt><trkpt lat="53.36930860523041" lon="14.74702857574144"><ele>23.599999999999998</ele><time>2026-04-18T18:13:18.004Z</time></trkpt><trkpt lat="53.36929447992079" lon="14.746789592353105"><ele>23.0</ele><time>2026-04-18T18:13:20.004Z</time></trkpt><trkpt lat="53.36931127360866" lon="14.746651202718331"><ele>23.0</ele><time>2026-04-18T18:13:21.004Z</time></trkpt><trkpt lat="53.36933356106971" lon="14.7465285865388"><ele>23.0</ele><time>2026-04-18T18:13:23.004Z</time></trkpt><trkpt lat="53.36935296418502" lon="14.746383812365805"><ele>23.0</ele><time>2026-04-18T18:13:25.005Z</time></trkpt><trkpt lat="53.36933389314168" lon="14.746259076662852"><ele>23.0</ele><time>2026-04-18T18:13:27.005Z</time></trkpt><trkpt lat="53.369349206336025" lon="14.74600986249995"><ele>23.0</ele><time>2026-04-18T18:13:29.005Z</time></trkpt><trkpt lat="53.369345050235104" lon="14.74587233666263"><ele>23.2</ele><time>2026-04-18T18:13:30.005Z</time></trkpt><trkpt lat="53.369344039220515" lon="14.745715758594681"><ele>23.4</ele><time>2026-04-18T18:13:31.005Z</time></trkpt><trkpt lat="53.36932869719596" lon="14.745552957011794"><ele>23.599999999999998</ele><time>2026-04-18T18:13:32.005Z</time></trkpt><trkpt lat="53.36931300722064" lon="14.745379204259661"><ele>23.799999999999997</ele><time>2026-04-18T18:13:33.005Z</time></trkpt><trkpt lat="53.36929854602356" lon="14.745230276045508"><ele>24.0</ele><time>2026-04-18T18:13:34.005Z</time></trkpt><trkpt lat="53.36928480675303" lon="14.74508230306668"><ele>24.333333333333332</ele><time>2026-04-18T18:13:35.005Z</time></trkpt><trkpt lat="53.36927522404515" lon="14.744925894167169"><ele>24.666666666666664</ele><time>2026-04-18T18:13:37.005Z</time></trkpt><trkpt lat="53.36926036629384" lon="14.744770121686752"><ele>25.0</ele><time>2026-04-18T18:13:39.005Z</time></trkpt><trkpt lat="53.36925227681794" lon="14.744646674402565"><ele>25.333333333333332</ele><time>2026-04-18T18:13:40.005Z</time></trkpt><trkpt lat="53.36924352278948" lon="14.7445194147468"><ele>25.666666666666664</ele><time>2026-04-18T18:13:41.005Z</time></trkpt><trkpt lat="53.36926007725009" lon="14.744336835787099"><ele>26.0</ele><time>2026-04-18T18:13:43.005Z</time></trkpt><trkpt lat="53.36923875519945" lon="14.744171242148685"><ele>26.200000000000003</ele><time>2026-04-18T18:13:45.005Z</time></trkpt><trkpt lat="53.369226839421145" lon="14.744034440576826"><ele>26.400000000000002</ele><time>2026-04-18T18:13:47.005Z</time></trkpt><trkpt lat="53.36919143685464" lon="14.743943886627404"><ele>26.6</ele><time>2026-04-18T18:13:50.005Z</time></trkpt><trkpt lat="53.3691198402542" lon="14.74399742386651"><ele>26.8</ele><time>2026-04-18T18:13:52.005Z</time></trkpt><trkpt lat="53.36900008083102" lon="14.74417451954846"><ele>27.0</ele><time>2026-04-18T18:13:54.005Z</time></trkpt><trkpt lat="53.36894452956183" lon="14.744266240350651"><ele>27.0</ele><time>2026-04-18T18:13:55.005Z</time></trkpt><trkpt lat="53.36889832282732" lon="14.744345278383422"><ele>27.000000000000004</ele><time>2026-04-18T18:13:56.005Z</time></trkpt><trkpt lat="53.36877640773501" lon="14.744549536652876"><ele>27.000000000000004</ele><time>2026-04-18T18:13:58.005Z</time></trkpt><trkpt lat="53.36867924107856" lon="14.74465201881031"><ele>27.0</ele><time>2026-04-18T18:13:59.005Z</time></trkpt><trkpt lat="53.36860712478156" lon="14.74473796494772"><ele>27.0</ele><time>2026-04-18T18:14:00.005Z</time></trkpt><trkpt lat="53.36853049166467" lon="14.744833921399321"><ele>27.0</ele><time>2026-04-18T18:14:01.005Z</time></trkpt><trkpt lat="53.368470621874295" lon="14.744941449358562"><ele>27.0</ele><time>2026-04-18T18:14:02.005Z</time></trkpt><trkpt lat="53.368413137474654" lon="14.745028621386194"><ele>27.0</ele><time>2026-04-18T18:14:03.005Z</time></trkpt><trkpt lat="53.368351175623104" lon="14.745116992335525"><ele>27.0</ele><time>2026-04-18T18:14:04.005Z</time></trkpt><trkpt lat="53.36830418834499" lon="14.74521224856635"><ele>27.0</ele><time>2026-04-18T18:14:05.005Z</time></trkpt><trkpt lat="53.36823472153284" lon="14.745313844258115"><ele>27.0</ele><time>2026-04-18T18:14:06.005Z</time></trkpt><trkpt lat="53.368152921010946" lon="14.745409681272301"><ele>27.0</ele><time>2026-04-18T18:14:07.005Z</time></trkpt><trkpt lat="53.36806874835822" lon="14.745506399042844"><ele>27.000000000000004</ele><time>2026-04-18T18:14:08.005Z</time></trkpt><trkpt lat="53.36801769369179" lon="14.7455943225945"><ele>27.000000000000004</ele><time>2026-04-18T18:14:09.005Z</time></trkpt><trkpt lat="53.36795517834162" lon="14.7457129575692"><ele>27.0</ele><time>2026-04-18T18:14:10.005Z</time></trkpt><trkpt lat="53.36786946415748" lon="14.74586408818819"><ele>27.0</ele><time>2026-04-18T18:14:11.005Z</time></trkpt><trkpt lat="53.367773765673206" lon="14.74602169926763"><ele>27.25</ele><time>2026-04-18T18:14:12.005Z</time></trkpt><trkpt lat="53.36767551521413" lon="14.746149104199269"><ele>27.5</ele><time>2026-04-18T18:14:13.005Z</time></trkpt><trkpt lat="53.36758124245747" lon="14.746278386143677"><ele>27.75</ele><time>2026-04-18T18:14:14.005Z</time></trkpt><trkpt lat="53.36748295223314" lon="14.746401234360263"><ele>28.0</ele><time>2026-04-18T18:14:15.005Z</time></trkpt><trkpt lat="53.36738781112317" lon="14.746516783372922"><ele>28.0</ele><time>2026-04-18T18:14:16.005Z</time></trkpt><trkpt lat="53.36729885229035" lon="14.746618992044743"><ele>27.999999999999996</ele><time>2026-04-18T18:14:17.005Z</time></trkpt><trkpt lat="53.36721404472241" lon="14.746746782349199"><ele>27.999999999999996</ele><time>2026-04-18T18:14:18.005Z</time></trkpt><trkpt lat="53.36713882677247" lon="14.746841053971323"><ele>28.0</ele><time>2026-04-18T18:14:19.005Z</time></trkpt><trkpt lat="53.36704546730787" lon="14.746958146233007"><ele>28.0</ele><time>2026-04-18T18:14:21.005Z</time></trkpt><trkpt lat="53.366943969929096" lon="14.747110843041103"><ele>28.0</ele><time>2026-04-18T18:14:23.005Z</time></trkpt><trkpt lat="53.36682845281084" lon="14.74726921570582"><ele>28.0</ele><time>2026-04-18T18:14:25.005Z</time></trkpt><trkpt lat="53.36674419372279" lon="14.747354568035455"><ele>28.0</ele><time>2026-04-18T18:14:26.005Z</time></trkpt><trkpt lat="53.366643124799594" lon="14.747491098044813"><ele>28.0</ele><time>2026-04-18T18:14:27.005Z</time></trkpt><trkpt lat="53.36656402821006" lon="14.747580371883735"><ele>28.000000000000004</ele><time>2026-04-18T18:14:28.005Z</time></trkpt><trkpt lat="53.3664936379796" lon="14.747672192871182"><ele>28.0</ele><time>2026-04-18T18:14:29.005Z</time></trkpt><trkpt lat="53.36641603541562" lon="14.747765230969362"><ele>28.0</ele><time>2026-04-18T18:14:30.005Z</time></trkpt><trkpt lat="53.366345927191944" lon="14.747851945292497"><ele>28.0</ele><time>2026-04-18T18:14:31.005Z</time></trkpt><trkpt lat="53.366296552610635" lon="14.7479368174873"><ele>28.000000000000004</ele><time>2026-04-18T18:14:33.005Z</time></trkpt><trkpt lat="53.36623738123213" lon="14.748024272575515"><ele>28.0</ele><time>2026-04-18T18:14:34.005Z</time></trkpt><trkpt lat="53.366174669483975" lon="14.748116919945025"><ele>28.166666666666668</ele><time>2026-04-18T18:14:35.005Z</time></trkpt><trkpt lat="53.3661102001596" lon="14.74820277810617"><ele>28.333333333333336</ele><time>2026-04-18T18:14:36.005Z</time></trkpt><trkpt lat="53.36603886305194" lon="14.748305503921557"><ele>28.5</ele><time>2026-04-18T18:14:37.005Z</time></trkpt><trkpt lat="53.36597425953352" lon="14.748392847736598"><ele>28.666666666666664</ele><time>2026-04-18T18:14:38.005Z</time></trkpt><trkpt lat="53.36590892111215" lon="14.748488240310378"><ele>28.833333333333332</ele><time>2026-04-18T18:14:39.005Z</time></trkpt><trkpt lat="53.36584405996697" lon="14.748578964300703"><ele>29.0</ele><time>2026-04-18T18:14:40.005Z</time></trkpt><trkpt lat="53.36575784393756" lon="14.748689500317099"><ele>29.0</ele><time>2026-04-18T18:14:41.005Z</time></trkpt><trkpt lat="53.36566264556141" lon="14.74881650987977"><ele>29.0</ele><time>2026-04-18T18:14:42.005Z</time></trkpt><trkpt lat="53.36558245973235" lon="14.74893196749955"><ele>29.0</ele><time>2026-04-18T18:14:43.005Z</time></trkpt><trkpt lat="53.36551029184891" lon="14.74903221808161"><ele>29.0</ele><time>2026-04-18T18:14:44.005Z</time></trkpt><trkpt lat="53.3654424977946" lon="14.74914884424399"><ele>29.0</ele><time>2026-04-18T18:14:45.005Z</time></trkpt><trkpt lat="53.36532298868719" lon="14.749257553407523"><ele>29.2</ele><time>2026-04-18T18:14:47.005Z</time></trkpt><trkpt lat="53.36525056319165" lon="14.749321578174504"><ele>29.4</ele><time>2026-04-18T18:14:48.005Z</time></trkpt><trkpt lat="53.36519216181021" lon="14.74938965480653"><ele>29.6</ele><time>2026-04-18T18:14:49.005Z</time></trkpt><trkpt lat="53.365131951152684" lon="14.749520170004011"><ele>29.8</ele><time>2026-04-18T18:14:50.005Z</time></trkpt><trkpt lat="53.36510746975386" lon="14.749663772162943"><ele>30.0</ele><time>2026-04-18T18:14:51.005Z</time></trkpt><trkpt lat="53.36509089206569" lon="14.749846820024345"><ele>30.0</ele><time>2026-04-18T18:14:52.005Z</time></trkpt><trkpt lat="53.3650661806144" lon="14.75003188481775"><ele>30.0</ele><time>2026-04-18T18:14:53.005Z</time></trkpt><trkpt lat="53.365044039549865" lon="14.750134534816059"><ele>30.0</ele><time>2026-04-18T18:14:54.005Z</time></trkpt><trkpt lat="53.36501585826187" lon="14.750229892829278"><ele>30.0</ele><time>2026-04-18T18:15:31.006Z</time></trkpt><trkpt lat="53.36499637651091" lon="14.750330536094484"><ele>30.0</ele><time>2026-04-18T18:15:32.006Z</time></trkpt><trkpt lat="53.36497381392384" lon="14.750456364957014"><ele>30.0</ele><time>2026-04-18T18:15:33.006Z</time></trkpt><trkpt lat="53.364950807695884" lon="14.750564269526105"><ele>29.8</ele><time>2026-04-18T18:15:34.006Z</time></trkpt><trkpt lat="53.364913632142574" lon="14.75066437807957"><ele>29.6</ele><time>2026-04-18T18:15:35.006Z</time></trkpt><trkpt lat="53.3648513212693" lon="14.750801438535046"><ele>29.4</ele><time>2026-04-18T18:15:37.006Z</time></trkpt><trkpt lat="53.36475539652826" lon="14.75096141886467"><ele>29.2</ele><time>2026-04-18T18:15:39.006Z</time></trkpt><trkpt lat="53.36469238407651" lon="14.751067908551693"><ele>29.0</ele><time>2026-04-18T18:15:40.006Z</time></trkpt><trkpt lat="53.36462175018673" lon="14.751162818305335"><ele>29.6</ele><time>2026-04-18T18:15:41.006Z</time></trkpt><trkpt lat="53.36455967095543" lon="14.751270870235922"><ele>30.2</ele><time>2026-04-18T18:15:42.006Z</time></trkpt><trkpt lat="53.364506666914416" lon="14.751399362958503"><ele>30.800000000000004</ele><time>2026-04-18T18:15:43.006Z</time></trkpt><trkpt lat="53.36443847523249" lon="14.751584450639234"><ele>31.400000000000002</ele><time>2026-04-18T18:15:44.006Z</time></trkpt><trkpt lat="53.36439546746597" lon="14.751720164671084"><ele>32.0</ele><time>2026-04-18T18:15:45.006Z</time></trkpt><trkpt lat="53.36435072773935" lon="14.751839993464879"><ele>31.499999999999996</ele><time>2026-04-18T18:15:46.006Z</time></trkpt><trkpt lat="53.36430916274274" lon="14.751972812024414"><ele>31.0</ele><time>2026-04-18T18:15:47.006Z</time></trkpt><trkpt lat="53.36428286675468" lon="14.752115561283931"><ele>30.5</ele><time>2026-04-18T18:15:48.006Z</time></trkpt><trkpt lat="53.36422528411936" lon="14.752161741981675"><ele>30.0</ele><time>2026-04-18T18:15:49.006Z</time></trkpt><trkpt lat="53.36418412750446" lon="14.752257056529611"><ele>29.499999999999996</ele><time>2026-04-18T18:15:50.006Z</time></trkpt><trkpt lat="53.36412445509646" lon="14.7523880203342"><ele>29.0</ele><time>2026-04-18T18:15:51.006Z</time></trkpt><trkpt lat="53.36406663875112" lon="14.752510889533058"><ele>29.0</ele><time>2026-04-18T18:15:52.006Z</time></trkpt><trkpt lat="53.36401370595966" lon="14.752642327531559"><ele>29.0</ele><time>2026-04-18T18:15:53.006Z</time></trkpt><trkpt lat="53.363980436773566" lon="14.752738780457394"><ele>29.0</ele><time>2026-04-18T18:15:54.006Z</time></trkpt><trkpt lat="53.36390085193419" lon="14.752932863238225"><ele>29.0</ele><time>2026-04-18T18:15:56.006Z</time></trkpt><trkpt lat="53.363849829859355" lon="14.753044807463258"><ele>29.0</ele><time>2026-04-18T18:15:58.006Z</time></trkpt><trkpt lat="53.363792714096824" lon="14.753151575111723"><ele>28.6</ele><time>2026-04-18T18:16:00.006Z</time></trkpt><trkpt lat="53.363780691401665" lon="14.753301847395509"><ele>28.2</ele><time>2026-04-18T18:16:03.006Z</time></trkpt><trkpt lat="53.363830329610686" lon="14.753447895342484"><ele>27.800000000000004</ele><time>2026-04-18T18:16:05.006Z</time></trkpt><trkpt lat="53.36388185137501" lon="14.753606911594566"><ele>27.400000000000002</ele><time>2026-04-18T18:16:07.006Z</time></trkpt><trkpt lat="53.363885898540545" lon="14.753721202242097"><ele>27.0</ele><time>2026-04-18T18:16:08.006Z</time></trkpt><trkpt lat="53.363875374814135" lon="14.753868223149743"><ele>27.0</ele><time>2026-04-18T18:16:09.006Z</time></trkpt><trkpt lat="53.3638643292998" lon="14.754004202318045"><ele>27.0</ele><time>2026-04-18T18:16:10.006Z</time></trkpt><trkpt lat="53.36385316088348" lon="14.754152981890792"><ele>27.0</ele><time>2026-04-18T18:16:11.006Z</time></trkpt><trkpt lat="53.36385109545193" lon="14.754316226123832"><ele>27.0</ele><time>2026-04-18T18:16:13.006Z</time></trkpt><trkpt lat="53.36384276465748" lon="14.754493342289884"><ele>27.0</ele><time>2026-04-18T18:16:15.006Z</time></trkpt><trkpt lat="53.36380939088603" lon="14.754602415131298"><ele>27.0</ele><time>2026-04-18T18:16:17.006Z</time></trkpt><trkpt lat="53.363748864600126" lon="14.754655031821184"><ele>26.5</ele><time>2026-04-18T18:16:19.006Z</time></trkpt><trkpt lat="53.363669713023256" lon="14.754647198022726"><ele>26.0</ele><time>2026-04-18T18:16:22.006Z</time></trkpt><trkpt lat="53.3635565360876" lon="14.754617835836312"><ele>25.5</ele><time>2026-04-18T18:16:25.006Z</time></trkpt><trkpt lat="53.36348765033244" lon="14.754548507664355"><ele>25.0</ele><time>2026-04-18T18:16:26.006Z</time></trkpt><trkpt lat="53.363437997181826" lon="14.754428726880501"><ele>24.5</ele><time>2026-04-18T18:16:27.006Z</time></trkpt><trkpt lat="53.36336291610728" lon="14.75435523124108"><ele>24.0</ele><time>2026-04-18T18:16:28.006Z</time></trkpt><trkpt lat="53.36332869686164" lon="14.754194205672501"><ele>24.0</ele><time>2026-04-18T18:16:29.006Z</time></trkpt><trkpt lat="53.36324836228556" lon="14.754046132652194"><ele>24.0</ele><time>2026-04-18T18:16:30.006Z</time></trkpt><trkpt lat="53.36316920006408" lon="14.753909963412866"><ele>24.0</ele><time>2026-04-18T18:16:31.006Z</time></trkpt><trkpt lat="53.36309644419791" lon="14.753770854827568"><ele>24.0</ele><time>2026-04-18T18:16:32.006Z</time></trkpt><trkpt lat="53.363033150993424" lon="14.753610367707433"><ele>23.4</ele><time>2026-04-18T18:16:33.006Z</time></trkpt><trkpt lat="53.3629739288766" lon="14.753442983879816"><ele>22.799999999999997</ele><time>2026-04-18T18:16:34.006Z</time></trkpt><trkpt lat="53.362921506057425" lon="14.753265975576221"><ele>22.200000000000003</ele><time>2026-04-18T18:16:35.006Z</time></trkpt><trkpt lat="53.362875912199826" lon="14.753101407077958"><ele>21.6</ele><time>2026-04-18T18:16:36.006Z</time></trkpt><trkpt lat="53.36282671428234" lon="14.752963041111713"><ele>21.0</ele><time>2026-04-18T18:16:37.006Z</time></trkpt><trkpt lat="53.36277020079057" lon="14.752853841730731"><ele>21.0</ele><time>2026-04-18T18:16:38.006Z</time></trkpt><trkpt lat="53.36270223160644" lon="14.752776976273857"><ele>21.0</ele><time>2026-04-18T18:16:39.006Z</time></trkpt><trkpt lat="53.36264199499353" lon="14.752724118108324"><ele>21.0</ele><time>2026-04-18T18:16:40.006Z</time></trkpt><trkpt lat="53.36258379143401" lon="14.75265962420448"><ele>21.0</ele><time>2026-04-18T18:16:41.006Z</time></trkpt><trkpt lat="53.362536437884444" lon="14.752588923981582"><ele>21.0</ele><time>2026-04-18T18:16:42.006Z</time></trkpt><trkpt lat="53.36245149562748" lon="14.752499231943128"><ele>21.0</ele><time>2026-04-18T18:16:44.006Z</time></trkpt><trkpt lat="53.36248154020477" lon="14.752305726688753"><ele>21.6</ele><time>2026-04-18T18:16:45.006Z</time></trkpt><trkpt lat="53.36249491804826" lon="14.752163529627714"><ele>22.200000000000003</ele><time>2026-04-18T18:16:46.006Z</time></trkpt><trkpt lat="53.36251684567586" lon="14.751987364481023"><ele>22.799999999999997</ele><time>2026-04-18T18:16:47.007Z</time></trkpt><trkpt lat="53.362527059689846" lon="14.751800779949697"><ele>23.4</ele><time>2026-04-18T18:16:48.007Z</time></trkpt><trkpt lat="53.36253766692437" lon="14.751602777584678"><ele>24.0</ele><time>2026-04-18T18:16:49.007Z</time></trkpt><trkpt lat="53.36254054090445" lon="14.751394682345545"><ele>24.5</ele><time>2026-04-18T18:16:50.007Z</time></trkpt><trkpt lat="53.36254150365853" lon="14.751184755431543"><ele>25.0</ele><time>2026-04-18T18:16:51.007Z</time></trkpt><trkpt lat="53.3625261016529" lon="14.750973023588683"><ele>25.5</ele><time>2026-04-18T18:16:52.007Z</time></trkpt><trkpt lat="53.36251412474303" lon="14.750744617361647"><ele>26.0</ele><time>2026-04-18T18:16:53.007Z</time></trkpt><trkpt lat="53.3624931941331" lon="14.750513662407672"><ele>26.0</ele><time>2026-04-18T18:16:54.007Z</time></trkpt><trkpt lat="53.36246432963442" lon="14.750274201998485"><ele>26.0</ele><time>2026-04-18T18:16:55.007Z</time></trkpt><trkpt lat="53.362423779657895" lon="14.750053115377087"><ele>26.0</ele><time>2026-04-18T18:16:56.007Z</time></trkpt><trkpt lat="53.362380407027636" lon="14.749847365664964"><ele>26.0</ele><time>2026-04-18T18:16:57.007Z</time></trkpt><trkpt lat="53.36232604419709" lon="14.749660276616039"><ele>25.25</ele><time>2026-04-18T18:16:58.007Z</time></trkpt><trkpt lat="53.36227098057901" lon="14.749474148014592"><ele>24.5</ele><time>2026-04-18T18:16:59.007Z</time></trkpt><trkpt lat="53.36221451053894" lon="14.749287612296293"><ele>23.75</ele><time>2026-04-18T18:17:00.007Z</time></trkpt><trkpt lat="53.36215156032493" lon="14.749101370321478"><ele>23.0</ele><time>2026-04-18T18:17:01.007Z</time></trkpt><trkpt lat="53.36209265029148" lon="14.748902045068643"><ele>21.25</ele><time>2026-04-18T18:17:02.007Z</time></trkpt><trkpt lat="53.36202464537472" lon="14.748692920407839"><ele>19.5</ele><time>2026-04-18T18:17:03.007Z</time></trkpt><trkpt lat="53.36195643747666" lon="14.748481345652026"><ele>17.75</ele><time>2026-04-18T18:17:04.007Z</time></trkpt><trkpt lat="53.36188881577444" lon="14.74827380132607"><ele>16.0</ele><time>2026-04-18T18:17:05.007Z</time></trkpt><trkpt lat="53.36181873342635" lon="14.748064819474843"><ele>16.0</ele><time>2026-04-18T18:17:06.007Z</time></trkpt><trkpt lat="53.36174655591487" lon="14.747854983089264"><ele>16.0</ele><time>2026-04-18T18:17:07.007Z</time></trkpt><trkpt lat="53.361674913924745" lon="14.74763606898886"><ele>16.0</ele><time>2026-04-18T18:17:08.007Z</time></trkpt><trkpt lat="53.36160952511599" lon="14.747424866606952"><ele>16.0</ele><time>2026-04-18T18:17:09.007Z</time></trkpt><trkpt lat="53.36155404988082" lon="14.747227980923881"><ele>16.0</ele><time>2026-04-18T18:17:10.007Z</time></trkpt><trkpt lat="53.36152263752792" lon="14.747089555054886"><ele>16.0</ele><time>2026-04-18T18:17:11.007Z</time></trkpt><trkpt lat="53.36149567438542" lon="14.746943609530021"><ele>16.0</ele><time>2026-04-18T18:17:13.007Z</time></trkpt><trkpt lat="53.36131672409994" lon="14.747028226700474"><ele>16.0</ele><time>2026-04-18T18:17:25.007Z</time></trkpt><trkpt lat="53.361256782320325" lon="14.747065528052008"><ele>16.0</ele><time>2026-04-18T18:17:27.007Z</time></trkpt><trkpt lat="53.361167652728945" lon="14.747086765467772"><ele>16.0</ele><time>2026-04-18T18:17:29.007Z</time></trkpt><trkpt lat="53.36104916993506" lon="14.747131955806124"><ele>16.0</ele><time>2026-04-18T18:17:31.007Z</time></trkpt><trkpt lat="53.36098445241945" lon="14.747133637459076"><ele>16.0</ele><time>2026-04-18T18:17:32.007Z</time></trkpt><trkpt lat="53.3608810837702" lon="14.747208664379055"><ele>16.0</ele><time>2026-04-18T18:17:34.007Z</time></trkpt><trkpt lat="53.36079961843892" lon="14.747289270085956"><ele>16.0</ele><time>2026-04-18T18:17:35.007Z</time></trkpt><trkpt lat="53.36069409472804" lon="14.74735736977989"><ele>16.0</ele><time>2026-04-18T18:17:36.007Z</time></trkpt><trkpt lat="53.36068923750934" lon="14.74767476701879"><ele>16.0</ele><time>2026-04-18T18:17:37.007Z</time></trkpt><trkpt lat="53.36060212764919" lon="14.747757896732313"><ele>16.0</ele><time>2026-04-18T18:17:38.007Z</time></trkpt><trkpt lat="53.36054520802391" lon="14.747812215616483"><ele>16.0</ele><time>2026-04-18T18:17:39.007Z</time></trkpt><trkpt lat="53.36048540341967" lon="14.747868730535176"><ele>16.0</ele><time>2026-04-18T18:17:40.007Z</time></trkpt><trkpt lat="53.3604132767568" lon="14.747936504242233"><ele>16.25</ele><time>2026-04-18T18:17:41.007Z</time></trkpt><trkpt lat="53.360335544638836" lon="14.7480095450943"><ele>16.5</ele><time>2026-04-18T18:17:42.007Z</time></trkpt><trkpt lat="53.36024261154729" lon="14.74809686951727"><ele>16.75</ele><time>2026-04-18T18:17:44.007Z</time></trkpt><trkpt lat="53.36017277746455" lon="14.748162489003288"><ele>17.0</ele><time>2026-04-18T18:17:46.007Z</time></trkpt><trkpt lat="53.35999863728569" lon="14.747687507267413"><ele>17.2</ele><time>2026-04-18T18:17:47.007Z</time></trkpt><trkpt lat="53.35995442041644" lon="14.747560482987366"><ele>17.4</ele><time>2026-04-18T18:17:48.007Z</time></trkpt><trkpt lat="53.359903720706335" lon="14.747466808154984"><ele>17.6</ele><time>2026-04-18T18:17:49.007Z</time></trkpt><trkpt lat="53.359832650567455" lon="14.747302711608167"><ele>17.8</ele><time>2026-04-18T18:17:51.007Z</time></trkpt><trkpt lat="53.359778378033205" lon="14.74719554679996"><ele>18.0</ele><time>2026-04-18T18:17:52.007Z</time></trkpt><trkpt lat="53.359726702320586" lon="14.747071323869141"><ele>18.2</ele><time>2026-04-18T18:17:53.007Z</time></trkpt><trkpt lat="53.35968225957276" lon="14.74695751060337"><ele>18.4</ele><time>2026-04-18T18:17:54.007Z</time></trkpt><trkpt lat="53.35963980830181" lon="14.746854618894"><ele>18.599999999999998</ele><time>2026-04-18T18:17:55.007Z</time></trkpt><trkpt lat="53.35958929295131" lon="14.746718051561354"><ele>18.8</ele><time>2026-04-18T18:17:57.007Z</time></trkpt><trkpt lat="53.35951017306331" lon="14.746565881655137"><ele>19.0</ele><time>2026-04-18T18:17:59.007Z</time></trkpt><trkpt lat="53.35946114895779" lon="14.746464254022024"><ele>19.2</ele><time>2026-04-18T18:18:00.007Z</time></trkpt><trkpt lat="53.35941815124978" lon="14.746356245817537"><ele>19.4</ele><time>2026-04-18T18:18:01.007Z</time></trkpt><trkpt lat="53.3593608648718" lon="14.74623918572094"><ele>19.6</ele><time>2026-04-18T18:18:02.007Z</time></trkpt><trkpt lat="53.35929839345421" lon="14.746133493663157"><ele>19.8</ele><time>2026-04-18T18:18:03.007Z</time></trkpt><trkpt lat="53.359240196222785" lon="14.745998088623981"><ele>20.0</ele><time>2026-04-18T18:18:04.007Z</time></trkpt><trkpt lat="53.35917192515709" lon="14.745865524885334"><ele>20.0</ele><time>2026-04-18T18:18:05.007Z</time></trkpt><trkpt lat="53.359114111360654" lon="14.745737660511564"><ele>20.0</ele><time>2026-04-18T18:18:06.007Z</time></trkpt><trkpt lat="53.35904249058982" lon="14.745600732450786"><ele>20.0</ele><time>2026-04-18T18:18:07.007Z</time></trkpt><trkpt lat="53.358961752887176" lon="14.745441774678023"><ele>20.0</ele><time>2026-04-18T18:18:08.007Z</time></trkpt><trkpt lat="53.35888755601563" lon="14.745274757583985"><ele>19.833333333333336</ele><time>2026-04-18T18:18:09.007Z</time></trkpt><trkpt lat="53.358824953299596" lon="14.745119059247394"><ele>19.666666666666668</ele><time>2026-04-18T18:18:10.007Z</time></trkpt><trkpt lat="53.358766091181806" lon="14.744990765174675"><ele>19.5</ele><time>2026-04-18T18:18:11.007Z</time></trkpt><trkpt lat="53.358714031053935" lon="14.744876266411165"><ele>19.333333333333332</ele><time>2026-04-18T18:18:12.007Z</time></trkpt><trkpt lat="53.35866833881442" lon="14.744774841805794"><ele>19.166666666666664</ele><time>2026-04-18T18:18:13.007Z</time></trkpt><trkpt lat="53.35862627280491" lon="14.74467399038744"><ele>19.0</ele><time>2026-04-18T18:18:14.007Z</time></trkpt><trkpt lat="53.35857241743251" lon="14.744526819961687"><ele>19.0</ele><time>2026-04-18T18:18:16.007Z</time></trkpt><trkpt lat="53.35849784154464" lon="14.744365828300104"><ele>19.0</ele><time>2026-04-18T18:18:42.008Z</time></trkpt><trkpt lat="53.358439035325716" lon="14.7442284854775"><ele>19.0</ele><time>2026-04-18T18:18:43.008Z</time></trkpt><trkpt lat="53.35837661776049" lon="14.744055425399958"><ele>19.0</ele><time>2026-04-18T18:18:44.008Z</time></trkpt><trkpt lat="53.35833364009726" lon="14.743843424682591"><ele>19.0</ele><time>2026-04-18T18:18:45.008Z</time></trkpt><trkpt lat="53.358262335305525" lon="14.743636484586693"><ele>19.0</ele><time>2026-04-18T18:18:46.008Z</time></trkpt><trkpt lat="53.35818795526941" lon="14.74341997528207"><ele>19.0</ele><time>2026-04-18T18:18:47.008Z</time></trkpt><trkpt lat="53.35808712708154" lon="14.743223009273962"><ele>19.0</ele><time>2026-04-18T18:18:48.008Z</time></trkpt><trkpt lat="53.35802553566472" lon="14.743046999962544"><ele>19.0</ele><time>2026-04-18T18:18:49.008Z</time></trkpt><trkpt lat="53.35795573851136" lon="14.742851415941205"><ele>19.0</ele><time>2026-04-18T18:18:50.008Z</time></trkpt><trkpt lat="53.35788202147535" lon="14.742643802846247"><ele>19.0</ele><time>2026-04-18T18:18:51.008Z</time></trkpt><trkpt lat="53.35780079044776" lon="14.742423648221912"><ele>19.0</ele><time>2026-04-18T18:18:52.008Z</time></trkpt><trkpt lat="53.35772422316707" lon="14.742214896018462"><ele>19.0</ele><time>2026-04-18T18:18:53.008Z</time></trkpt><trkpt lat="53.35764177951411" lon="14.741986058833877"><ele>19.0</ele><time>2026-04-18T18:18:54.008Z</time></trkpt><trkpt lat="53.357590938528254" lon="14.7417177796681"><ele>19.0</ele><time>2026-04-18T18:18:55.008Z</time></trkpt><trkpt lat="53.357511970687106" lon="14.741493601246063"><ele>18.666666666666664</ele><time>2026-04-18T18:18:56.008Z</time></trkpt><trkpt lat="53.35742146470778" lon="14.741235917251117"><ele>18.333333333333332</ele><time>2026-04-18T18:18:57.008Z</time></trkpt><trkpt lat="53.357332329458345" lon="14.740982135851496"><ele>18.0</ele><time>2026-04-18T18:18:58.008Z</time></trkpt><trkpt lat="53.35722327340357" lon="14.740750373584515"><ele>18.0</ele><time>2026-04-18T18:18:59.008Z</time></trkpt><trkpt lat="53.3571354088049" lon="14.740491138153757"><ele>18.0</ele><time>2026-04-18T18:19:00.008Z</time></trkpt><trkpt lat="53.357051678479415" lon="14.740243477716186"><ele>18.0</ele><time>2026-04-18T18:19:01.008Z</time></trkpt><trkpt lat="53.356973301638995" lon="14.740011613924095"><ele>17.75</ele><time>2026-04-18T18:19:02.008Z</time></trkpt><trkpt lat="53.35692520159842" lon="14.739783794407405"><ele>17.5</ele><time>2026-04-18T18:19:03.008Z</time></trkpt><trkpt lat="53.356864472666885" lon="14.739576813504247"><ele>17.25</ele><time>2026-04-18T18:19:04.008Z</time></trkpt><trkpt lat="53.35677963126887" lon="14.73941288260428"><ele>17.0</ele><time>2026-04-18T18:19:05.008Z</time></trkpt><trkpt lat="53.35672028062292" lon="14.739222372926697"><ele>17.0</ele><time>2026-04-18T18:19:06.008Z</time></trkpt><trkpt lat="53.356670850941285" lon="14.739020103527244"><ele>17.0</ele><time>2026-04-18T18:19:07.008Z</time></trkpt><trkpt lat="53.35661683737975" lon="14.738823246555055"><ele>17.0</ele><time>2026-04-18T18:19:08.008Z</time></trkpt><trkpt lat="53.35658396067854" lon="14.738603740952469"><ele>17.0</ele><time>2026-04-18T18:19:09.008Z</time></trkpt><trkpt lat="53.35652924485891" lon="14.738407830526862"><ele>17.0</ele><time>2026-04-18T18:19:10.008Z</time></trkpt><trkpt lat="53.35646875844434" lon="14.738191697177033"><ele>17.0</ele><time>2026-04-18T18:19:11.008Z</time></trkpt><trkpt lat="53.3564010594578" lon="14.738008543975926"><ele>17.0</ele><time>2026-04-18T18:19:12.008Z</time></trkpt><trkpt lat="53.35635554567511" lon="14.737812402014328"><ele>17.0</ele><time>2026-04-18T18:19:13.008Z</time></trkpt><trkpt lat="53.35630519775949" lon="14.7376413207427"><ele>17.0</ele><time>2026-04-18T18:19:14.008Z</time></trkpt><trkpt lat="53.35626190562222" lon="14.73748012715123"><ele>17.0</ele><time>2026-04-18T18:19:15.008Z</time></trkpt><trkpt lat="53.3562294187787" lon="14.737349568864829"><ele>17.0</ele><time>2026-04-18T18:19:16.008Z</time></trkpt><trkpt lat="53.35617175518535" lon="14.737169670618306"><ele>17.0</ele><time>2026-04-18T18:19:18.008Z</time></trkpt><trkpt lat="53.35614875730751" lon="14.736991670514099"><ele>17.0</ele><time>2026-04-18T18:19:20.008Z</time></trkpt><trkpt lat="53.35608854799371" lon="14.736908294103404"><ele>16.8</ele><time>2026-04-18T18:19:21.008Z</time></trkpt><trkpt lat="53.356012240017584" lon="14.736796814524245"><ele>16.6</ele><time>2026-04-18T18:19:22.008Z</time></trkpt><trkpt lat="53.35594683509274" lon="14.73664886810221"><ele>16.400000000000002</ele><time>2026-04-18T18:19:23.008Z</time></trkpt><trkpt lat="53.355896122196675" lon="14.736491670946227"><ele>16.2</ele><time>2026-04-18T18:19:24.008Z</time></trkpt><trkpt lat="53.35583510010296" lon="14.736353356714737"><ele>16.0</ele><time>2026-04-18T18:19:25.008Z</time></trkpt><trkpt lat="53.355759926776145" lon="14.736200036905878"><ele>15.75</ele><time>2026-04-18T18:19:26.008Z</time></trkpt><trkpt lat="53.35567859369382" lon="14.736037376404578"><ele>15.5</ele><time>2026-04-18T18:19:27.008Z</time></trkpt><trkpt lat="53.35559722172944" lon="14.735866373531168"><ele>15.25</ele><time>2026-04-18T18:19:28.008Z</time></trkpt><trkpt lat="53.35553464035749" lon="14.735679836491473"><ele>15.0</ele><time>2026-04-18T18:19:29.008Z</time></trkpt><trkpt lat="53.35545606590791" lon="14.735518021699452"><ele>15.75</ele><time>2026-04-18T18:19:30.008Z</time></trkpt><trkpt lat="53.35537406118173" lon="14.735342044706796"><ele>16.5</ele><time>2026-04-18T18:19:31.008Z</time></trkpt><trkpt lat="53.35530419890126" lon="14.735177154996698"><ele>17.25</ele><time>2026-04-18T18:19:32.008Z</time></trkpt><trkpt lat="53.355229102098654" lon="14.73501704107028"><ele>18.0</ele><time>2026-04-18T18:19:33.008Z</time></trkpt><trkpt lat="53.35514954019119" lon="14.734852848872942"><ele>18.0</ele><time>2026-04-18T18:19:34.008Z</time></trkpt><trkpt lat="53.35508347621994" lon="14.734679868433846"><ele>18.0</ele><time>2026-04-18T18:19:35.008Z</time></trkpt><trkpt lat="53.355008630807305" lon="14.734512249607537"><ele>18.0</ele><time>2026-04-18T18:19:36.008Z</time></trkpt><trkpt lat="53.35494271902226" lon="14.73434033970372"><ele>18.0</ele><time>2026-04-18T18:19:37.008Z</time></trkpt><trkpt lat="53.35488239887697" lon="14.734155888849266"><ele>18.0</ele><time>2026-04-18T18:19:38.008Z</time></trkpt><trkpt lat="53.35483584973538" lon="14.733962679275466"><ele>18.0</ele><time>2026-04-18T18:19:39.008Z</time></trkpt><trkpt lat="53.354808957724124" lon="14.73377042733048"><ele>18.0</ele><time>2026-04-18T18:19:40.008Z</time></trkpt><trkpt lat="53.354801856056206" lon="14.733605776151219"><ele>18.0</ele><time>2026-04-18T18:19:41.008Z</time></trkpt><trkpt lat="53.35479034755927" lon="14.733471766276491"><ele>18.0</ele><time>2026-04-18T18:19:42.008Z</time></trkpt><trkpt lat="53.35477195492499" lon="14.733316764821655"><ele>18.0</ele><time>2026-04-18T18:19:44.008Z</time></trkpt><trkpt lat="53.3547643349001" lon="14.733185126914508"><ele>18.0</ele><time>2026-04-18T18:19:47.008Z</time></trkpt><trkpt lat="53.354617860245405" lon="14.7331484002439"><ele>18.0</ele><time>2026-04-18T18:19:48.008Z</time></trkpt><trkpt lat="53.35452912894582" lon="14.733112126649603"><ele>18.0</ele><time>2026-04-18T18:19:49.008Z</time></trkpt><trkpt lat="53.35442927157732" lon="14.73311297555129"><ele>18.0</ele><time>2026-04-18T18:19:50.008Z</time></trkpt><trkpt lat="53.35431719838583" lon="14.733114520075384"><ele>18.25</ele><time>2026-04-18T18:19:51.008Z</time></trkpt><trkpt lat="53.354194855847766" lon="14.73311041929701"><ele>18.5</ele><time>2026-04-18T18:19:52.008Z</time></trkpt><trkpt lat="53.35407142320958" lon="14.733103923981746"><ele>18.75</ele><time>2026-04-18T18:19:53.008Z</time></trkpt><trkpt lat="53.35394169831466" lon="14.733107079948946"><ele>19.0</ele><time>2026-04-18T18:19:54.008Z</time></trkpt><trkpt lat="53.35381629370063" lon="14.733098250996171"><ele>19.75</ele><time>2026-04-18T18:19:55.008Z</time></trkpt><trkpt lat="53.35368209210686" lon="14.733096749616628"><ele>20.5</ele><time>2026-04-18T18:19:56.008Z</time></trkpt><trkpt lat="53.353532220527285" lon="14.73309205624724"><ele>21.25</ele><time>2026-04-18T18:19:57.008Z</time></trkpt><trkpt lat="53.35340572864928" lon="14.733091274977513"><ele>22.0</ele><time>2026-04-18T18:19:58.008Z</time></trkpt><trkpt lat="53.35328909453191" lon="14.733084286785756"><ele>22.0</ele><time>2026-04-18T18:19:59.008Z</time></trkpt><trkpt lat="53.35319041934179" lon="14.733079063667935"><ele>22.0</ele><time>2026-04-18T18:20:00.008Z</time></trkpt><trkpt lat="53.35308564641685" lon="14.73306444651165"><ele>22.0</ele><time>2026-04-18T18:20:01.008Z</time></trkpt><trkpt lat="53.352980729498626" lon="14.73305416414022"><ele>22.0</ele><time>2026-04-18T18:20:02.008Z</time></trkpt><trkpt lat="53.352876009830226" lon="14.7330157898588"><ele>22.0</ele><time>2026-04-18T18:20:03.008Z</time></trkpt><trkpt lat="53.35278769714818" lon="14.732994470378284"><ele>22.200000000000003</ele><time>2026-04-18T18:20:04.008Z</time></trkpt><trkpt lat="53.3527192716219" lon="14.732981682600217"><ele>22.4</ele><time>2026-04-18T18:20:05.008Z</time></trkpt><trkpt lat="53.35260904525867" lon="14.73295054963807"><ele>22.6</ele><time>2026-04-18T18:20:07.008Z</time></trkpt><trkpt lat="53.35252748517568" lon="14.732904257267574"><ele>22.799999999999997</ele><time>2026-04-18T18:20:09.008Z</time></trkpt><trkpt lat="53.35247103494105" lon="14.732648380257338"><ele>23.0</ele><time>2026-04-18T18:20:11.009Z</time></trkpt><trkpt lat="53.35245020733536" lon="14.732519346638952"><ele>23.2</ele><time>2026-04-18T18:20:13.009Z</time></trkpt><trkpt lat="53.35251326222366" lon="14.732384560275154"><ele>23.4</ele><time>2026-04-18T18:20:15.009Z</time></trkpt><trkpt lat="53.352591757172554" lon="14.732350219547856"><ele>23.599999999999998</ele><time>2026-04-18T18:20:16.009Z</time></trkpt><trkpt lat="53.35268925319405" lon="14.732306406700745"><ele>23.799999999999997</ele><time>2026-04-18T18:20:17.009Z</time></trkpt><trkpt lat="53.35280822728406" lon="14.732271343757366"><ele>24.0</ele><time>2026-04-18T18:20:18.009Z</time></trkpt><trkpt lat="53.35292273302787" lon="14.732253733719446"><ele>24.0</ele><time>2026-04-18T18:20:19.009Z</time></trkpt><trkpt lat="53.353005439173316" lon="14.732244382962248"><ele>24.0</ele><time>2026-04-18T18:20:20.009Z</time></trkpt><trkpt lat="53.35308029810873" lon="14.732211860845682"><ele>24.0</ele><time>2026-04-18T18:20:21.009Z</time></trkpt><trkpt lat="53.353141235806596" lon="14.7321708141864"><ele>24.0</ele><time>2026-04-18T18:20:22.009Z</time></trkpt><trkpt lat="53.35321707017048" lon="14.732105362517562"><ele>24.0</ele><time>2026-04-18T18:20:24.009Z</time></trkpt><trkpt lat="53.35322517346667" lon="14.73183398841175"><ele>23.0</ele><time>2026-04-18T18:20:26.009Z</time></trkpt><trkpt lat="53.353249862341855" lon="14.731671954657687"><ele>22.0</ele><time>2026-04-18T18:20:27.009Z</time></trkpt><trkpt lat="53.35327051459846" lon="14.731470946146953"><ele>21.0</ele><time>2026-04-18T18:20:28.009Z</time></trkpt><trkpt lat="53.353293574227244" lon="14.73126242299447"><ele>20.0</ele><time>2026-04-18T18:20:29.009Z</time></trkpt><trkpt lat="53.353320013514" lon="14.73103233828394"><ele>20.0</ele><time>2026-04-18T18:20:30.009Z</time></trkpt><trkpt lat="53.35332858433079" lon="14.730811289884961"><ele>20.0</ele><time>2026-04-18T18:20:31.009Z</time></trkpt><trkpt lat="53.35335148778419" lon="14.7305774297928"><ele>20.0</ele><time>2026-04-18T18:20:32.009Z</time></trkpt><trkpt lat="53.353372725248796" lon="14.73034418595498"><ele>20.0</ele><time>2026-04-18T18:20:33.009Z</time></trkpt><trkpt lat="53.35337881896208" lon="14.730115359708257"><ele>20.4</ele><time>2026-04-18T18:20:34.009Z</time></trkpt><trkpt lat="53.35337456596653" lon="14.72990864242599"><ele>20.8</ele><time>2026-04-18T18:20:35.009Z</time></trkpt><trkpt lat="53.353368123265156" lon="14.729715887286778"><ele>21.200000000000003</ele><time>2026-04-18T18:20:36.009Z</time></trkpt><trkpt lat="53.353384766438936" lon="14.72956185288734"><ele>21.6</ele><time>2026-04-18T18:20:37.009Z</time></trkpt><trkpt lat="53.35339854845802" lon="14.729387547414767"><ele>22.0</ele><time>2026-04-18T18:20:38.009Z</time></trkpt><trkpt lat="53.3534152291155" lon="14.729193531481288"><ele>22.0</ele><time>2026-04-18T18:20:39.009Z</time></trkpt><trkpt lat="53.35341766269367" lon="14.728986602577322"><ele>22.0</ele><time>2026-04-18T18:20:40.009Z</time></trkpt><trkpt lat="53.35346741527779" lon="14.728784722965058"><ele>22.0</ele><time>2026-04-18T18:20:41.009Z</time></trkpt><trkpt lat="53.35345358164087" lon="14.7285365747548"><ele>22.0</ele><time>2026-04-18T18:20:42.009Z</time></trkpt><trkpt lat="53.35344319794328" lon="14.728318147349423"><ele>22.333333333333332</ele><time>2026-04-18T18:20:43.009Z</time></trkpt><trkpt lat="53.353436157115524" lon="14.728050146268574"><ele>22.666666666666668</ele><time>2026-04-18T18:20:44.009Z</time></trkpt><trkpt lat="53.35342437079679" lon="14.7277976407871"><ele>23.0</ele><time>2026-04-18T18:20:45.009Z</time></trkpt><trkpt lat="53.353417821318544" lon="14.72754291917998"><ele>23.25</ele><time>2026-04-18T18:20:46.009Z</time></trkpt><trkpt lat="53.35341805106257" lon="14.727297776427074"><ele>23.5</ele><time>2026-04-18T18:20:47.009Z</time></trkpt><trkpt lat="53.35341548556057" lon="14.727051734808265"><ele>23.75</ele><time>2026-04-18T18:20:48.009Z</time></trkpt><trkpt lat="53.3534078556842" lon="14.726800769110156"><ele>24.0</ele><time>2026-04-18T18:20:49.009Z</time></trkpt><trkpt lat="53.35339904193886" lon="14.726548338545813"><ele>24.333333333333336</ele><time>2026-04-18T18:20:50.009Z</time></trkpt><trkpt lat="53.35339212877986" lon="14.72627765190766"><ele>24.666666666666668</ele><time>2026-04-18T18:20:51.009Z</time></trkpt><trkpt lat="53.35337540973959" lon="14.726008423407894"><ele>25.0</ele><time>2026-04-18T18:20:52.009Z</time></trkpt><trkpt lat="53.3533825106898" lon="14.72574222025985"><ele>24.333333333333336</ele><time>2026-04-18T18:20:53.009Z</time></trkpt><trkpt lat="53.35338044163208" lon="14.725452238856969"><ele>23.666666666666668</ele><time>2026-04-18T18:20:54.009Z</time></trkpt><trkpt lat="53.35337574055978" lon="14.725187176804628"><ele>23.0</ele><time>2026-04-18T18:20:55.009Z</time></trkpt><trkpt lat="53.353388178923105" lon="14.724915251496688"><ele>22.666666666666668</ele><time>2026-04-18T18:20:56.009Z</time></trkpt><trkpt lat="53.35338317269578" lon="14.724619521127789"><ele>22.333333333333332</ele><time>2026-04-18T18:20:57.009Z</time></trkpt><trkpt lat="53.35337662492056" lon="14.724359786356052"><ele>22.0</ele><time>2026-04-18T18:20:58.009Z</time></trkpt><trkpt lat="53.35335237888268" lon="14.72406477887175"><ele>22.0</ele><time>2026-04-18T18:20:59.009Z</time></trkpt><trkpt lat="53.35334999058538" lon="14.723790010570236"><ele>22.0</ele><time>2026-04-18T18:21:00.009Z</time></trkpt><trkpt lat="53.35332060117459" lon="14.7235581459337"><ele>22.0</ele><time>2026-04-18T18:21:01.009Z</time></trkpt><trkpt lat="53.35332262508351" lon="14.723367103505229"><ele>22.0</ele><time>2026-04-18T18:21:02.009Z</time></trkpt><trkpt lat="53.353302331161196" lon="14.723188647466484"><ele>22.5</ele><time>2026-04-18T18:21:03.009Z</time></trkpt><trkpt lat="53.35328933836606" lon="14.723013119464206"><ele>23.0</ele><time>2026-04-18T18:21:04.009Z</time></trkpt><trkpt lat="53.35328605852269" lon="14.722806428367557"><ele>23.5</ele><time>2026-04-18T18:21:05.009Z</time></trkpt><trkpt lat="53.35327541751104" lon="14.722612335779631"><ele>24.0</ele><time>2026-04-18T18:21:06.009Z</time></trkpt><trkpt lat="53.35327507839773" lon="14.72243390094827"><ele>24.2</ele><time>2026-04-18T18:21:07.009Z</time></trkpt><trkpt lat="53.353266650238766" lon="14.722253704844466"><ele>24.4</ele><time>2026-04-18T18:21:08.009Z</time></trkpt><trkpt lat="53.35325697196003" lon="14.722051411086044"><ele>24.6</ele><time>2026-04-18T18:21:09.009Z</time></trkpt><trkpt lat="53.353248233563285" lon="14.721901370764161"><ele>24.8</ele><time>2026-04-18T18:21:10.009Z</time></trkpt><trkpt lat="53.35323176274154" lon="14.721736815512871"><ele>25.0</ele><time>2026-04-18T18:21:11.009Z</time></trkpt><trkpt lat="53.35321545691119" lon="14.721585527398066"><ele>24.6</ele><time>2026-04-18T18:21:12.009Z</time></trkpt><trkpt lat="53.35320410358388" lon="14.721423386820186"><ele>24.2</ele><time>2026-04-18T18:21:13.009Z</time></trkpt><trkpt lat="53.353188763851485" lon="14.721258788579407"><ele>23.799999999999997</ele><time>2026-04-18T18:21:14.009Z</time></trkpt><trkpt lat="53.35317013676072" lon="14.721090868043213"><ele>23.4</ele><time>2026-04-18T18:21:15.009Z</time></trkpt><trkpt lat="53.353149118473056" lon="14.720917446836275"><ele>23.0</ele><time>2026-04-18T18:21:16.009Z</time></trkpt><trkpt lat="53.35312580290998" lon="14.720705246667361"><ele>22.799999999999997</ele><time>2026-04-18T18:21:17.009Z</time></trkpt><trkpt lat="53.353119856878365" lon="14.720545761928754"><ele>22.6</ele><time>2026-04-18T18:21:18.009Z</time></trkpt><trkpt lat="53.35310940015858" lon="14.720368953951995"><ele>22.4</ele><time>2026-04-18T18:21:19.009Z</time></trkpt><trkpt lat="53.35307916932385" lon="14.720168793377823"><ele>22.200000000000003</ele><time>2026-04-18T18:21:20.009Z</time></trkpt><trkpt lat="53.353044356812994" lon="14.719969553679014"><ele>22.0</ele><time>2026-04-18T18:21:21.009Z</time></trkpt><trkpt lat="53.353024278630706" lon="14.71983585945414"><ele>22.8</ele><time>2026-04-18T18:21:22.009Z</time></trkpt><trkpt lat="53.353015933580174" lon="14.719720728351964"><ele>23.6</ele><time>2026-04-18T18:21:23.009Z</time></trkpt><trkpt lat="53.3529945166448" lon="14.719593901720037"><ele>24.400000000000002</ele><time>2026-04-18T18:21:24.009Z</time></trkpt><trkpt lat="53.35296300095207" lon="14.719370369781709"><ele>25.200000000000003</ele><time>2026-04-18T18:21:25.009Z</time></trkpt><trkpt lat="53.35295579382447" lon="14.719231214275805"><ele>26.0</ele><time>2026-04-18T18:21:26.009Z</time></trkpt><trkpt lat="53.35293622191342" lon="14.719089492173262"><ele>25.999999999999996</ele><time>2026-04-18T18:21:27.009Z</time></trkpt><trkpt lat="53.35292803252045" lon="14.718951495702713"><ele>26.0</ele><time>2026-04-18T18:21:28.009Z</time></trkpt><trkpt lat="53.35291316344461" lon="14.718824612654005"><ele>26.0</ele><time>2026-04-18T18:21:29.009Z</time></trkpt><trkpt lat="53.35289380849178" lon="14.718718823805462"><ele>26.0</ele><time>2026-04-18T18:21:30.009Z</time></trkpt><trkpt lat="53.35286874421434" lon="14.718527335816725"><ele>25.999999999999996</ele><time>2026-04-18T18:21:32.009Z</time></trkpt><trkpt lat="53.35286543678078" lon="14.718397307944352"><ele>26.0</ele><time>2026-04-18T18:21:33.009Z</time></trkpt><trkpt lat="53.352842986704324" lon="14.71824157196087"><ele>26.200000000000003</ele><time>2026-04-18T18:21:34.009Z</time></trkpt><trkpt lat="53.35280200620538" lon="14.71807428107108"><ele>26.400000000000002</ele><time>2026-04-18T18:21:35.009Z</time></trkpt><trkpt lat="53.352793045105194" lon="14.71790142364707"><ele>26.6</ele><time>2026-04-18T18:21:36.009Z</time></trkpt><trkpt lat="53.35278307318793" lon="14.717725252657491"><ele>26.8</ele><time>2026-04-18T18:21:37.009Z</time></trkpt><trkpt lat="53.3527709671658" lon="14.717520152881125"><ele>27.0</ele><time>2026-04-18T18:21:38.009Z</time></trkpt><trkpt lat="53.352747882727186" lon="14.717309762298813"><ele>27.200000000000003</ele><time>2026-04-18T18:21:39.009Z</time></trkpt><trkpt lat="53.352722738376016" lon="14.717118990046016"><ele>27.400000000000002</ele><time>2026-04-18T18:21:40.009Z</time></trkpt><trkpt lat="53.35269454946131" lon="14.716973499931605"><ele>27.599999999999998</ele><time>2026-04-18T18:21:41.009Z</time></trkpt><trkpt lat="53.35266574550952" lon="14.716847943761316"><ele>27.799999999999997</ele><time>2026-04-18T18:21:42.009Z</time></trkpt><trkpt lat="53.35264985529589" lon="14.71670584364949"><ele>28.0</ele><time>2026-04-18T18:21:43.009Z</time></trkpt><trkpt lat="53.35264836455568" lon="14.716553342348277"><ele>28.2</ele><time>2026-04-18T18:21:44.009Z</time></trkpt><trkpt lat="53.35273255939614" lon="14.716407977823689"><ele>28.4</ele><time>2026-04-18T18:21:45.009Z</time></trkpt><trkpt lat="53.352746336682635" lon="14.716221639983056"><ele>28.599999999999998</ele><time>2026-04-18T18:21:46.009Z</time></trkpt><trkpt lat="53.3527602550649" lon="14.71605078624298"><ele>28.799999999999997</ele><time>2026-04-18T18:21:47.009Z</time></trkpt><trkpt lat="53.35277290135889" lon="14.71590061165118"><ele>29.0</ele><time>2026-04-18T18:21:48.009Z</time></trkpt><trkpt lat="53.35278323690805" lon="14.715764753211007"><ele>29.2</ele><time>2026-04-18T18:21:49.009Z</time></trkpt><trkpt lat="53.352789359467266" lon="14.715600740277544"><ele>29.4</ele><time>2026-04-18T18:21:50.009Z</time></trkpt><trkpt lat="53.3528087744935" lon="14.715429359729832"><ele>29.6</ele><time>2026-04-18T18:21:51.01Z</time></trkpt><trkpt lat="53.35283605092421" lon="14.715255845682245"><ele>29.8</ele><time>2026-04-18T18:21:52.01Z</time></trkpt><trkpt lat="53.352854221979065" lon="14.715056997366402"><ele>30.0</ele><time>2026-04-18T18:21:53.01Z</time></trkpt><trkpt lat="53.35286200485623" lon="14.714867583080526"><ele>30.0</ele><time>2026-04-18T18:21:54.01Z</time></trkpt><trkpt lat="53.35287335339526" lon="14.714689610557693"><ele>30.0</ele><time>2026-04-18T18:21:55.01Z</time></trkpt><trkpt lat="53.35288715853954" lon="14.714535491966124"><ele>30.0</ele><time>2026-04-18T18:21:56.01Z</time></trkpt><trkpt lat="53.35290067205919" lon="14.714385291010291"><ele>30.0</ele><time>2026-04-18T18:21:57.01Z</time></trkpt><trkpt lat="53.3529300644966" lon="14.714259744274345"><ele>30.0</ele><time>2026-04-18T18:21:58.01Z</time></trkpt><trkpt lat="53.35295746334149" lon="14.714134472489821"><ele>30.0</ele><time>2026-04-18T18:21:59.01Z</time></trkpt><trkpt lat="53.353017845473175" lon="14.714008278616705"><ele>30.0</ele><time>2026-04-18T18:22:00.01Z</time></trkpt><trkpt lat="53.353062552345435" lon="14.71388103433256"><ele>30.0</ele><time>2026-04-18T18:22:01.01Z</time></trkpt><trkpt lat="53.35303165492109" lon="14.713670117359907"><ele>30.0</ele><time>2026-04-18T18:22:02.01Z</time></trkpt><trkpt lat="53.35304361769017" lon="14.71349917847636"><ele>30.0</ele><time>2026-04-18T18:22:03.01Z</time></trkpt><trkpt lat="53.35306071106823" lon="14.713344274423214"><ele>30.8</ele><time>2026-04-18T18:22:04.01Z</time></trkpt><trkpt lat="53.353095265719546" lon="14.713116455522277"><ele>31.6</ele><time>2026-04-18T18:22:06.01Z</time></trkpt><trkpt lat="53.35311707339818" lon="14.712936835974048"><ele>32.4</ele><time>2026-04-18T18:22:07.01Z</time></trkpt><trkpt lat="53.353146809697044" lon="14.712785750570838"><ele>33.2</ele><time>2026-04-18T18:22:08.01Z</time></trkpt><trkpt lat="53.35317590231913" lon="14.712663370930056"><ele>34.0</ele><time>2026-04-18T18:22:09.01Z</time></trkpt><trkpt lat="53.353193714443364" lon="14.7125286738445"><ele>34.4</ele><time>2026-04-18T18:22:10.01Z</time></trkpt><trkpt lat="53.35321605108697" lon="14.712379582277567"><ele>34.8</ele><time>2026-04-18T18:22:11.01Z</time></trkpt><trkpt lat="53.35324534405772" lon="14.712243600031853"><ele>35.2</ele><time>2026-04-18T18:22:12.01Z</time></trkpt><trkpt lat="53.35327718079683" lon="14.712106153759933"><ele>35.6</ele><time>2026-04-18T18:22:13.01Z</time></trkpt><trkpt lat="53.35331362052687" lon="14.711957147394827"><ele>36.0</ele><time>2026-04-18T18:22:14.01Z</time></trkpt><trkpt lat="53.35334051130546" lon="14.711804868819053"><ele>37.0</ele><time>2026-04-18T18:22:15.01Z</time></trkpt><trkpt lat="53.353374942538245" lon="14.711685738654023"><ele>38.0</ele><time>2026-04-18T18:22:16.01Z</time></trkpt><trkpt lat="53.35339085725138" lon="14.711574370397974"><ele>39.0</ele><time>2026-04-18T18:22:17.01Z</time></trkpt><trkpt lat="53.35337260067483" lon="14.711452610934908"><ele>40.0</ele><time>2026-04-18T18:22:18.01Z</time></trkpt><trkpt lat="53.35334596770675" lon="14.711315069137905"><ele>41.0</ele><time>2026-04-18T18:22:19.01Z</time></trkpt><trkpt lat="53.35332395521832" lon="14.711121279027978"><ele>42.0</ele><time>2026-04-18T18:22:20.01Z</time></trkpt><trkpt lat="53.3532929735792" lon="14.710946736425232"><ele>43.0</ele><time>2026-04-18T18:22:21.01Z</time></trkpt><trkpt lat="53.353243741421956" lon="14.71078445990458"><ele>44.0</ele><time>2026-04-18T18:22:22.01Z</time></trkpt><trkpt lat="53.35319933775323" lon="14.710654873276914"><ele>45.0</ele><time>2026-04-18T18:22:23.01Z</time></trkpt><trkpt lat="53.35314760152604" lon="14.71051716308368"><ele>46.0</ele><time>2026-04-18T18:22:24.01Z</time></trkpt><trkpt lat="53.35307123243899" lon="14.71036669226367"><ele>47.0</ele><time>2026-04-18T18:22:25.01Z</time></trkpt><trkpt lat="53.352990340658145" lon="14.710226098662165"><ele>48.5</ele><time>2026-04-18T18:22:26.01Z</time></trkpt><trkpt lat="53.35292506735094" lon="14.710084980834646"><ele>50.0</ele><time>2026-04-18T18:22:27.01Z</time></trkpt><trkpt lat="53.35284539399816" lon="14.70993385257605"><ele>51.5</ele><time>2026-04-18T18:22:28.01Z</time></trkpt><trkpt lat="53.35278367674217" lon="14.7097612242468"><ele>53.0</ele><time>2026-04-18T18:22:29.01Z</time></trkpt><trkpt lat="53.35273486808565" lon="14.70960908316286"><ele>53.0</ele><time>2026-04-18T18:22:30.01Z</time></trkpt><trkpt lat="53.35267279078467" lon="14.709438032425556"><ele>53.0</ele><time>2026-04-18T18:22:31.01Z</time></trkpt><trkpt lat="53.352615990709936" lon="14.709244062393433"><ele>53.0</ele><time>2026-04-18T18:22:32.01Z</time></trkpt><trkpt lat="53.35255498527306" lon="14.709035369282448"><ele>53.0</ele><time>2026-04-18T18:22:33.01Z</time></trkpt><trkpt lat="53.35248979601514" lon="14.708865470472965"><ele>53.75</ele><time>2026-04-18T18:22:34.01Z</time></trkpt><trkpt lat="53.35240932452584" lon="14.708683705132351"><ele>54.5</ele><time>2026-04-18T18:22:35.01Z</time></trkpt><trkpt lat="53.3523353031461" lon="14.708548953183241"><ele>55.25</ele><time>2026-04-18T18:22:36.01Z</time></trkpt><trkpt lat="53.352259069337805" lon="14.708393588702258"><ele>56.0</ele><time>2026-04-18T18:22:37.01Z</time></trkpt><trkpt lat="53.352169343723375" lon="14.708221380697939"><ele>56.25</ele><time>2026-04-18T18:22:38.01Z</time></trkpt><trkpt lat="53.3520691145539" lon="14.708098816662135"><ele>56.5</ele><time>2026-04-18T18:22:39.01Z</time></trkpt><trkpt lat="53.35198657202577" lon="14.707993994576723"><ele>56.75</ele><time>2026-04-18T18:22:40.01Z</time></trkpt><trkpt lat="53.35189264036348" lon="14.70791824022927"><ele>57.0</ele><time>2026-04-18T18:22:41.01Z</time></trkpt><trkpt lat="53.35176842221752" lon="14.707809452111759"><ele>57.25</ele><time>2026-04-18T18:22:42.01Z</time></trkpt><trkpt lat="53.35165627257325" lon="14.707682330902927"><ele>57.5</ele><time>2026-04-18T18:22:43.01Z</time></trkpt><trkpt lat="53.351547703274655" lon="14.7075393663697"><ele>57.75</ele><time>2026-04-18T18:22:44.01Z</time></trkpt><trkpt lat="53.35144040637429" lon="14.707364533808972"><ele>58.0</ele><time>2026-04-18T18:22:45.01Z</time></trkpt><trkpt lat="53.35132390019303" lon="14.707196623740915"><ele>58.0</ele><time>2026-04-18T18:22:46.01Z</time></trkpt><trkpt lat="53.35121371822101" lon="14.707028390681751"><ele>58.0</ele><time>2026-04-18T18:22:47.01Z</time></trkpt><trkpt lat="53.35110182850083" lon="14.706870435456707"><ele>58.0</ele><time>2026-04-18T18:22:48.01Z</time></trkpt><trkpt lat="53.351001811294424" lon="14.706705001078669"><ele>58.0</ele><time>2026-04-18T18:22:49.01Z</time></trkpt><trkpt lat="53.35089177576482" lon="14.706538974385564"><ele>60.33333333333333</ele><time>2026-04-18T18:22:50.01Z</time></trkpt><trkpt lat="53.35079038909392" lon="14.706376032333521"><ele>62.66666666666667</ele><time>2026-04-18T18:22:51.01Z</time></trkpt><trkpt lat="53.35066842065889" lon="14.706186162499042"><ele>65.0</ele><time>2026-04-18T18:22:52.01Z</time></trkpt><trkpt lat="53.35055271834817" lon="14.705983948069035"><ele>64.33333333333334</ele><time>2026-04-18T18:22:53.01Z</time></trkpt><trkpt lat="53.350437582536586" lon="14.705782599495718"><ele>63.66666666666667</ele><time>2026-04-18T18:22:54.01Z</time></trkpt><trkpt lat="53.35033740391782" lon="14.705591383101451"><ele>63.0</ele><time>2026-04-18T18:22:55.01Z</time></trkpt><trkpt lat="53.35023745467402" lon="14.705373586149756"><ele>65.33333333333333</ele><time>2026-04-18T18:22:56.01Z</time></trkpt><trkpt lat="53.35015527969899" lon="14.705153002108274"><ele>67.66666666666666</ele><time>2026-04-18T18:22:57.01Z</time></trkpt><trkpt lat="53.350088856673686" lon="14.704935953405245"><ele>70.0</ele><time>2026-04-18T18:22:58.01Z</time></trkpt><trkpt lat="53.35002157228462" lon="14.7047091690274"><ele>70.0</ele><time>2026-04-18T18:22:59.01Z</time></trkpt><trkpt lat="53.349962866050795" lon="14.704509545508238"><ele>70.0</ele><time>2026-04-18T18:23:00.01Z</time></trkpt><trkpt lat="53.34990019573661" lon="14.704329310896565"><ele>70.0</ele><time>2026-04-18T18:23:01.01Z</time></trkpt><trkpt lat="53.34984528571996" lon="14.704152419085219"><ele>70.0</ele><time>2026-04-18T18:23:02.01Z</time></trkpt><trkpt lat="53.349791411430125" lon="14.703982547853123"><ele>70.5</ele><time>2026-04-18T18:23:03.01Z</time></trkpt><trkpt lat="53.34973620846521" lon="14.703811560704501"><ele>71.0</ele><time>2026-04-18T18:23:04.01Z</time></trkpt><trkpt lat="53.34968179004312" lon="14.703605717521995"><ele>71.5</ele><time>2026-04-18T18:23:05.01Z</time></trkpt><trkpt lat="53.34961791908681" lon="14.703395314489084"><ele>72.0</ele><time>2026-04-18T18:23:06.01Z</time></trkpt><trkpt lat="53.34955377840149" lon="14.703189270134127"><ele>72.0</ele><time>2026-04-18T18:23:07.01Z</time></trkpt><trkpt lat="53.34949675997288" lon="14.702989822747458"><ele>72.0</ele><time>2026-04-18T18:23:08.01Z</time></trkpt><trkpt lat="53.349431510928326" lon="14.702774405306732"><ele>72.0</ele><time>2026-04-18T18:23:09.01Z</time></trkpt><trkpt lat="53.349383335480844" lon="14.702542543755486"><ele>72.0</ele><time>2026-04-18T18:23:10.01Z</time></trkpt><trkpt lat="53.349332208326764" lon="14.702297109538094"><ele>72.5</ele><time>2026-04-18T18:23:11.01Z</time></trkpt><trkpt lat="53.34928809005745" lon="14.702095840486507"><ele>73.0</ele><time>2026-04-18T18:23:12.01Z</time></trkpt><trkpt lat="53.349242299570975" lon="14.701900000094083"><ele>73.5</ele><time>2026-04-18T18:23:13.01Z</time></trkpt><trkpt lat="53.34919338964138" lon="14.701688498149206"><ele>74.0</ele><time>2026-04-18T18:23:14.01Z</time></trkpt><trkpt lat="53.349146938436434" lon="14.701472936131951"><ele>74.2</ele><time>2026-04-18T18:23:15.01Z</time></trkpt><trkpt lat="53.3491040351408" lon="14.701245995211346"><ele>74.4</ele><time>2026-04-18T18:23:16.01Z</time></trkpt><trkpt lat="53.349066664479075" lon="14.701076165010667"><ele>74.6</ele><time>2026-04-18T18:23:17.01Z</time></trkpt><trkpt lat="53.34903935065542" lon="14.700908822817029"><ele>74.8</ele><time>2026-04-18T18:23:18.01Z</time></trkpt><trkpt lat="53.34903427491717" lon="14.700769545933781"><ele>75.0</ele><time>2026-04-18T18:23:19.01Z</time></trkpt><trkpt lat="53.34901154619475" lon="14.700661594811702"><ele>75.4</ele><time>2026-04-18T18:23:20.01Z</time></trkpt><trkpt lat="53.349000448040655" lon="14.700529746246902"><ele>75.8</ele><time>2026-04-18T18:23:22.01Z</time></trkpt><trkpt lat="53.34904374956882" lon="14.700381681926595"><ele>76.2</ele><time>2026-04-18T18:23:24.01Z</time></trkpt><trkpt lat="53.34912901224657" lon="14.700176468134572"><ele>76.6</ele><time>2026-04-18T18:23:26.01Z</time></trkpt><trkpt lat="53.349208072967805" lon="14.700036972044671"><ele>77.0</ele><time>2026-04-18T18:23:27.01Z</time></trkpt><trkpt lat="53.34930417632083" lon="14.699941451991082"><ele>77.5</ele><time>2026-04-18T18:23:28.01Z</time></trkpt><trkpt lat="53.34941075622998" lon="14.699827512374508"><ele>78.0</ele><time>2026-04-18T18:23:29.01Z</time></trkpt><trkpt lat="53.34952168432627" lon="14.699728710249616"><ele>78.5</ele><time>2026-04-18T18:23:30.01Z</time></trkpt><trkpt lat="53.34964386823864" lon="14.699609869681577"><ele>79.0</ele><time>2026-04-18T18:23:31.01Z</time></trkpt><trkpt lat="53.349760519393485" lon="14.699496413080693"><ele>78.75</ele><time>2026-04-18T18:23:32.01Z</time></trkpt><trkpt lat="53.34987805525157" lon="14.699396605953508"><ele>78.5</ele><time>2026-04-18T18:23:33.011Z</time></trkpt><trkpt lat="53.34998162550546" lon="14.699302435785938"><ele>78.25</ele><time>2026-04-18T18:23:34.011Z</time></trkpt><trkpt lat="53.350085899880305" lon="14.699209387262561"><ele>78.0</ele><time>2026-04-18T18:23:35.011Z</time></trkpt><trkpt lat="53.3501932342103" lon="14.699103946989197"><ele>78.0</ele><time>2026-04-18T18:23:36.011Z</time></trkpt><trkpt lat="53.350310143944505" lon="14.699005604752672"><ele>78.0</ele><time>2026-04-18T18:23:37.011Z</time></trkpt><trkpt lat="53.350426874533895" lon="14.698916106066068"><ele>78.0</ele><time>2026-04-18T18:23:38.011Z</time></trkpt><trkpt lat="53.35055196902839" lon="14.698813540523748"><ele>78.0</ele><time>2026-04-18T18:23:39.011Z</time></trkpt><trkpt lat="53.3506626626486" lon="14.698721977254584"><ele>77.75</ele><time>2026-04-18T18:23:40.011Z</time></trkpt><trkpt lat="53.3507782872938" lon="14.69865024268167"><ele>77.5</ele><time>2026-04-18T18:23:41.011Z</time></trkpt><trkpt lat="53.35090082855862" lon="14.698589983203766"><ele>77.25</ele><time>2026-04-18T18:23:42.011Z</time></trkpt><trkpt lat="53.35100788520296" lon="14.698551459261788"><ele>77.0</ele><time>2026-04-18T18:23:43.011Z</time></trkpt><trkpt lat="53.351134880189925" lon="14.698476415945597"><ele>77.0</ele><time>2026-04-18T18:23:44.011Z</time></trkpt><trkpt lat="53.3512356011913" lon="14.698396824656731"><ele>77.0</ele><time>2026-04-18T18:23:45.011Z</time></trkpt><trkpt lat="53.35134131469642" lon="14.69828289466694"><ele>77.0</ele><time>2026-04-18T18:23:46.011Z</time></trkpt><trkpt lat="53.35143795015826" lon="14.698127041887549"><ele>77.0</ele><time>2026-04-18T18:23:47.011Z</time></trkpt><trkpt lat="53.351523551304965" lon="14.697938372385526"><ele>76.5</ele><time>2026-04-18T18:23:48.011Z</time></trkpt><trkpt lat="53.35161902222304" lon="14.697750921712913"><ele>76.0</ele><time>2026-04-18T18:23:49.011Z</time></trkpt><trkpt lat="53.351712736869466" lon="14.697567908751916"><ele>75.5</ele><time>2026-04-18T18:23:50.011Z</time></trkpt><trkpt lat="53.351805818467255" lon="14.697390938277781"><ele>75.0</ele><time>2026-04-18T18:23:51.011Z</time></trkpt><trkpt lat="53.35189891119436" lon="14.697218464797423"><ele>75.0</ele><time>2026-04-18T18:23:52.011Z</time></trkpt><trkpt lat="53.351993643420464" lon="14.697035398845289"><ele>75.0</ele><time>2026-04-18T18:23:53.011Z</time></trkpt><trkpt lat="53.35208921970905" lon="14.696841389532377"><ele>75.0</ele><time>2026-04-18T18:23:54.011Z</time></trkpt><trkpt lat="53.3521853689035" lon="14.69667584832509"><ele>75.0</ele><time>2026-04-18T18:23:55.011Z</time></trkpt><trkpt lat="53.35228305803558" lon="14.696511213594732"><ele>74.5</ele><time>2026-04-18T18:23:56.011Z</time></trkpt><trkpt lat="53.35239219740992" lon="14.696352192654757"><ele>74.0</ele><time>2026-04-18T18:23:57.011Z</time></trkpt><trkpt lat="53.35248375254656" lon="14.696183605198668"><ele>73.5</ele><time>2026-04-18T18:23:58.011Z</time></trkpt><trkpt lat="53.35256875116557" lon="14.696028946647044"><ele>73.0</ele><time>2026-04-18T18:23:59.011Z</time></trkpt><trkpt lat="53.35264304176511" lon="14.695895488035001"><ele>72.8</ele><time>2026-04-18T18:24:00.011Z</time></trkpt><trkpt lat="53.35270125089633" lon="14.69576503388189"><ele>72.6</ele><time>2026-04-18T18:24:01.011Z</time></trkpt><trkpt lat="53.35276956823428" lon="14.695644146997251"><ele>72.4</ele><time>2026-04-18T18:24:02.011Z</time></trkpt><trkpt lat="53.35283197056434" lon="14.695566479933568"><ele>72.2</ele><time>2026-04-18T18:24:03.011Z</time></trkpt><trkpt lat="53.35290559656158" lon="14.695496103847484"><ele>72.0</ele><time>2026-04-18T18:24:04.011Z</time></trkpt><trkpt lat="53.353002067322066" lon="14.695465606691622"><ele>71.75</ele><time>2026-04-18T18:24:05.011Z</time></trkpt><trkpt lat="53.35310899883632" lon="14.695448990248492"><ele>71.5</ele><time>2026-04-18T18:24:06.011Z</time></trkpt><trkpt lat="53.35324045298719" lon="14.69557521151674"><ele>71.25</ele><time>2026-04-18T18:24:07.011Z</time></trkpt><trkpt lat="53.353368982550656" lon="14.6955652453233"><ele>71.0</ele><time>2026-04-18T18:24:08.011Z</time></trkpt><trkpt lat="53.353480870386086" lon="14.695554039983218"><ele>71.0</ele><time>2026-04-18T18:24:09.011Z</time></trkpt><trkpt lat="53.35362398386137" lon="14.695536423494328"><ele>71.0</ele><time>2026-04-18T18:24:10.011Z</time></trkpt><trkpt lat="53.35376585623774" lon="14.695517068741438"><ele>71.0</ele><time>2026-04-18T18:24:11.011Z</time></trkpt><trkpt lat="53.353929539170494" lon="14.695494909974613"><ele>70.66666666666667</ele><time>2026-04-18T18:24:12.011Z</time></trkpt><trkpt lat="53.35407303911392" lon="14.695477770249912"><ele>70.33333333333333</ele><time>2026-04-18T18:24:13.011Z</time></trkpt><trkpt lat="53.354230823742" lon="14.695454140128184"><ele>70.0</ele><time>2026-04-18T18:24:14.011Z</time></trkpt><trkpt lat="53.35438602383023" lon="14.695426932863791"><ele>70.0</ele><time>2026-04-18T18:24:15.011Z</time></trkpt><trkpt lat="53.3545376904619" lon="14.695399023893767"><ele>70.0</ele><time>2026-04-18T18:24:16.011Z</time></trkpt><trkpt lat="53.3546718112146" lon="14.695385564397279"><ele>70.0</ele><time>2026-04-18T18:24:17.011Z</time></trkpt><trkpt lat="53.354806917777786" lon="14.695380895386075"><ele>70.0</ele><time>2026-04-18T18:24:18.011Z</time></trkpt><trkpt lat="53.354951179119944" lon="14.695387632619408"><ele>69.66666666666666</ele><time>2026-04-18T18:24:19.011Z</time></trkpt><trkpt lat="53.35510780580968" lon="14.695381227300462"><ele>69.33333333333333</ele><time>2026-04-18T18:24:20.011Z</time></trkpt><trkpt lat="53.355257601512704" lon="14.695380661057916"><ele>69.0</ele><time>2026-04-18T18:24:21.011Z</time></trkpt><trkpt lat="53.355419503613454" lon="14.695385459779834"><ele>67.33333333333333</ele><time>2026-04-18T18:24:22.011Z</time></trkpt><trkpt lat="53.355598087053096" lon="14.69540019036405"><ele>65.66666666666666</ele><time>2026-04-18T18:24:23.011Z</time></trkpt><trkpt lat="53.35575355377903" lon="14.695424955584075"><ele>64.0</ele><time>2026-04-18T18:24:24.011Z</time></trkpt><trkpt lat="53.35590789599982" lon="14.695460340735133"><ele>64.0</ele><time>2026-04-18T18:24:25.011Z</time></trkpt><trkpt lat="53.356059990674005" lon="14.695492511319435"><ele>64.0</ele><time>2026-04-18T18:24:26.011Z</time></trkpt><trkpt lat="53.35622921423974" lon="14.695556429199035"><ele>64.0</ele><time>2026-04-18T18:24:27.011Z</time></trkpt><trkpt lat="53.356372900203766" lon="14.695596331220173"><ele>63.25</ele><time>2026-04-18T18:24:28.011Z</time></trkpt><trkpt lat="53.35651348129875" lon="14.695641415131151"><ele>62.5</ele><time>2026-04-18T18:24:29.011Z</time></trkpt><trkpt lat="53.35666207020491" lon="14.695687926381272"><ele>61.75</ele><time>2026-04-18T18:24:30.011Z</time></trkpt><trkpt lat="53.356790751405626" lon="14.69576355195399"><ele>61.0</ele><time>2026-04-18T18:24:31.011Z</time></trkpt><trkpt lat="53.35693887311216" lon="14.695825679370095"><ele>61.0</ele><time>2026-04-18T18:24:32.011Z</time></trkpt><trkpt lat="53.35707504743878" lon="14.695885363950392"><ele>61.0</ele><time>2026-04-18T18:24:33.011Z</time></trkpt><trkpt lat="53.35719989461471" lon="14.695945461583555"><ele>61.0</ele><time>2026-04-18T18:24:34.011Z</time></trkpt><trkpt lat="53.35731034844824" lon="14.695972420255774"><ele>61.0</ele><time>2026-04-18T18:24:35.011Z</time></trkpt><trkpt lat="53.35742115060124" lon="14.696030305717219"><ele>60.5</ele><time>2026-04-18T18:24:36.011Z</time></trkpt><trkpt lat="53.35754627386786" lon="14.696072584154376"><ele>60.0</ele><time>2026-04-18T18:24:37.011Z</time></trkpt><trkpt lat="53.357704464845405" lon="14.69607261355007"><ele>59.5</ele><time>2026-04-18T18:24:38.011Z</time></trkpt><trkpt lat="53.357849454699284" lon="14.696067984303646"><ele>59.0</ele><time>2026-04-18T18:24:39.011Z</time></trkpt><trkpt lat="53.357995677352385" lon="14.696044130551407"><ele>57.75</ele><time>2026-04-18T18:24:40.011Z</time></trkpt><trkpt lat="53.35814736754357" lon="14.696022644383929"><ele>56.5</ele><time>2026-04-18T18:24:41.011Z</time></trkpt><trkpt lat="53.35829199478794" lon="14.696001125791224"><ele>55.25</ele><time>2026-04-18T18:24:42.011Z</time></trkpt><trkpt lat="53.35843111337311" lon="14.695989018595847"><ele>54.0</ele><time>2026-04-18T18:24:43.011Z</time></trkpt><trkpt lat="53.35855216884104" lon="14.695975979023856"><ele>54.0</ele><time>2026-04-18T18:24:44.011Z</time></trkpt><trkpt lat="53.358688426557976" lon="14.695958209762283"><ele>54.0</ele><time>2026-04-18T18:24:45.011Z</time></trkpt><trkpt lat="53.35879758094298" lon="14.695956312407809"><ele>54.0</ele><time>2026-04-18T18:24:46.011Z</time></trkpt><trkpt lat="53.35892314955085" lon="14.695932945556994"><ele>54.0</ele><time>2026-04-18T18:24:47.011Z</time></trkpt><trkpt lat="53.359069001614095" lon="14.695921655170038"><ele>50.25</ele><time>2026-04-18T18:24:48.011Z</time></trkpt><trkpt lat="53.3591907906788" lon="14.695893524778274"><ele>46.5</ele><time>2026-04-18T18:24:49.011Z</time></trkpt><trkpt lat="53.35931359927903" lon="14.69589279838189"><ele>42.75</ele><time>2026-04-18T18:24:50.011Z</time></trkpt><trkpt lat="53.359434567491725" lon="14.695875144470937"><ele>39.0</ele><time>2026-04-18T18:24:51.011Z</time></trkpt><trkpt lat="53.359561179396735" lon="14.695840517154457"><ele>39.0</ele><time>2026-04-18T18:24:52.011Z</time></trkpt><trkpt lat="53.359641859235" lon="14.695822620980136"><ele>39.0</ele><time>2026-04-18T18:24:53.011Z</time></trkpt><trkpt lat="53.35972709472252" lon="14.69578866803386"><ele>39.0</ele><time>2026-04-18T18:24:54.011Z</time></trkpt><trkpt lat="53.35979659666473" lon="14.695771385492833"><ele>39.0</ele><time>2026-04-18T18:24:55.011Z</time></trkpt><trkpt lat="53.35986385375066" lon="14.695756653817659"><ele>39.0</ele><time>2026-04-18T18:24:56.011Z</time></trkpt><trkpt lat="53.35993354089209" lon="14.695773994638996"><ele>39.0</ele><time>2026-04-18T18:24:58.011Z</time></trkpt><trkpt lat="53.35999990590757" lon="14.695784069351875"><ele>39.0</ele><time>2026-04-18T18:25:02.011Z</time></trkpt><trkpt lat="53.36009386595826" lon="14.695848375544285"><ele>37.6</ele><time>2026-04-18T18:25:05.011Z</time></trkpt><trkpt lat="53.36015121998566" lon="14.695970577207829"><ele>36.2</ele><time>2026-04-18T18:25:06.011Z</time></trkpt><trkpt lat="53.36020480146402" lon="14.69604453059244"><ele>34.800000000000004</ele><time>2026-04-18T18:25:07.011Z</time></trkpt><trkpt lat="53.36027314771789" lon="14.696140764625964"><ele>33.4</ele><time>2026-04-18T18:25:08.011Z</time></trkpt><trkpt lat="53.3603600775734" lon="14.696241056442837"><ele>32.0</ele><time>2026-04-18T18:25:09.011Z</time></trkpt><trkpt lat="53.360442999226024" lon="14.696372153387399"><ele>32.0</ele><time>2026-04-18T18:25:10.011Z</time></trkpt><trkpt lat="53.36052583745558" lon="14.696500872212159"><ele>32.0</ele><time>2026-04-18T18:25:11.011Z</time></trkpt><trkpt lat="53.36060069389367" lon="14.696630064649192"><ele>32.0</ele><time>2026-04-18T18:25:12.011Z</time></trkpt><trkpt lat="53.36067494888613" lon="14.696697964697323"><ele>32.0</ele><time>2026-04-18T18:25:13.011Z</time></trkpt><trkpt lat="53.36073731076855" lon="14.696785580124907"><ele>32.0</ele><time>2026-04-18T18:25:14.012Z</time></trkpt><trkpt lat="53.36079439495607" lon="14.696858937089893"><ele>32.33333333333333</ele><time>2026-04-18T18:25:15.012Z</time></trkpt><trkpt lat="53.36091010744125" lon="14.69695958909974"><ele>32.666666666666664</ele><time>2026-04-18T18:25:17.012Z</time></trkpt><trkpt lat="53.3609850030461" lon="14.697006216671205"><ele>33.0</ele><time>2026-04-18T18:25:18.012Z</time></trkpt><trkpt lat="53.36103701808171" lon="14.69706584791435"><ele>33.333333333333336</ele><time>2026-04-18T18:25:19.012Z</time></trkpt><trkpt lat="53.36109448935656" lon="14.697126031331488"><ele>33.66666666666667</ele><time>2026-04-18T18:25:20.012Z</time></trkpt><trkpt lat="53.36117817794679" lon="14.697226399631887"><ele>34.0</ele><time>2026-04-18T18:25:22.012Z</time></trkpt><trkpt lat="53.36128134673091" lon="14.697331402247281"><ele>34.0</ele><time>2026-04-18T18:25:24.012Z</time></trkpt><trkpt lat="53.36138718062939" lon="14.697416690784067"><ele>34.0</ele><time>2026-04-18T18:25:26.012Z</time></trkpt><trkpt lat="53.361483937078006" lon="14.697523493053948"><ele>34.0</ele><time>2026-04-18T18:25:28.012Z</time></trkpt><trkpt lat="53.36154277868391" lon="14.697582155826971"><ele>34.0</ele><time>2026-04-18T18:25:29.012Z</time></trkpt><trkpt lat="53.361605989033464" lon="14.697629320778681"><ele>34.0</ele><time>2026-04-18T18:25:30.012Z</time></trkpt><trkpt lat="53.36166767072258" lon="14.697679774176525"><ele>34.0</ele><time>2026-04-18T18:25:31.012Z</time></trkpt><trkpt lat="53.361734118759664" lon="14.697729358186638"><ele>33.8</ele><time>2026-04-18T18:25:32.012Z</time></trkpt><trkpt lat="53.36183751563762" lon="14.697816358351272"><ele>33.599999999999994</ele><time>2026-04-18T18:25:34.012Z</time></trkpt><trkpt lat="53.36189501799806" lon="14.697869450537484"><ele>33.4</ele><time>2026-04-18T18:25:35.012Z</time></trkpt><trkpt lat="53.36199797065798" lon="14.697951338552718"><ele>33.199999999999996</ele><time>2026-04-18T18:25:37.012Z</time></trkpt><trkpt lat="53.36206032742308" lon="14.697981849837607"><ele>33.0</ele><time>2026-04-18T18:25:38.012Z</time></trkpt><trkpt lat="53.362160830347726" lon="14.698091953373632"><ele>33.0</ele><time>2026-04-18T18:25:40.012Z</time></trkpt><trkpt lat="53.36228405896963" lon="14.698170807556709"><ele>33.0</ele><time>2026-04-18T18:25:42.012Z</time></trkpt><trkpt lat="53.362344965445494" lon="14.698218808898448"><ele>33.0</ele><time>2026-04-18T18:25:42.998Z</time></trkpt><trkpt lat="53.36245268064726" lon="14.698315829138119"><ele>33.0</ele><time>2026-04-18T18:25:44.998Z</time></trkpt><trkpt lat="53.36251770778834" lon="14.698358784892088"><ele>33.0</ele><time>2026-04-18T18:25:45.998Z</time></trkpt><trkpt lat="53.3626204739668" lon="14.698449058760689"><ele>33.0</ele><time>2026-04-18T18:25:47.998Z</time></trkpt><trkpt lat="53.36273192485708" lon="14.698534070808002"><ele>33.0</ele><time>2026-04-18T18:25:49.998Z</time></trkpt><trkpt lat="53.36285048147455" lon="14.69860316541592"><ele>33.0</ele><time>2026-04-18T18:25:51.998Z</time></trkpt><trkpt lat="53.362905486721026" lon="14.69866769003984"><ele>33.0</ele><time>2026-04-18T18:25:52.998Z</time></trkpt><trkpt lat="53.36296558840956" lon="14.698722698964742"><ele>33.0</ele><time>2026-04-18T18:25:53.998Z</time></trkpt><trkpt lat="53.36301813158965" lon="14.698783273504436"><ele>33.0</ele><time>2026-04-18T18:25:54.998Z</time></trkpt><trkpt lat="53.36312162810556" lon="14.69886259531906"><ele>32.8</ele><time>2026-04-18T18:25:56.998Z</time></trkpt><trkpt lat="53.36323988920057" lon="14.698945030018828"><ele>32.599999999999994</ele><time>2026-04-18T18:25:58.998Z</time></trkpt><trkpt lat="53.363303197411625" lon="14.699004695801785"><ele>32.400000000000006</ele><time>2026-04-18T18:25:59.998Z</time></trkpt><trkpt lat="53.363356534596164" lon="14.699074584642918"><ele>32.2</ele><time>2026-04-18T18:26:00.998Z</time></trkpt><trkpt lat="53.363403194260634" lon="14.69915230707635"><ele>32.0</ele><time>2026-04-18T18:26:01.998Z</time></trkpt><trkpt lat="53.36348745857274" lon="14.699291725942244"><ele>31.75</ele><time>2026-04-18T18:26:03.998Z</time></trkpt><trkpt lat="53.36357184417015" lon="14.699448672480278"><ele>31.5</ele><time>2026-04-18T18:26:05.998Z</time></trkpt><trkpt lat="53.36362708849471" lon="14.699520384678072"><ele>31.25</ele><time>2026-04-18T18:26:06.998Z</time></trkpt><trkpt lat="53.36373617129359" lon="14.69957040265299"><ele>31.0</ele><time>2026-04-18T18:26:08.998Z</time></trkpt><trkpt lat="53.363937676369424" lon="14.699499394268342"><ele>30.200000000000003</ele><time>2026-04-18T18:26:12.998Z</time></trkpt><trkpt lat="53.36404306894422" lon="14.699467064549351"><ele>29.400000000000002</ele><time>2026-04-18T18:26:14.998Z</time></trkpt><trkpt lat="53.364169882070776" lon="14.699401992685818"><ele>28.6</ele><time>2026-04-18T18:26:16.998Z</time></trkpt><trkpt lat="53.364249429478676" lon="14.699355394243469"><ele>27.8</ele><time>2026-04-18T18:26:17.998Z</time></trkpt><trkpt lat="53.36431997734609" lon="14.699321606624919"><ele>27.0</ele><time>2026-04-18T18:26:18.998Z</time></trkpt><trkpt lat="53.364391987370325" lon="14.699282720809107"><ele>27.0</ele><time>2026-04-18T18:26:19.998Z</time></trkpt><trkpt lat="53.36445911669395" lon="14.699239747527107"><ele>27.0</ele><time>2026-04-18T18:26:20.998Z</time></trkpt><trkpt lat="53.36453185298148" lon="14.699188869293698"><ele>27.0</ele><time>2026-04-18T18:26:21.998Z</time></trkpt><trkpt lat="53.364657196854985" lon="14.699117107052174"><ele>27.0</ele><time>2026-04-18T18:26:23.999Z</time></trkpt><trkpt lat="53.36472120378405" lon="14.699102562555547"><ele>27.0</ele><time>2026-04-18T18:26:24.999Z</time></trkpt><trkpt lat="53.36479373008799" lon="14.6990580152675"><ele>27.0</ele><time>2026-04-18T18:26:25.999Z</time></trkpt><trkpt lat="53.36486706368799" lon="14.699006192531579"><ele>27.0</ele><time>2026-04-18T18:26:26.999Z</time></trkpt><trkpt lat="53.364982862420725" lon="14.69891969435264"><ele>27.0</ele><time>2026-04-18T18:26:28.999Z</time></trkpt><trkpt lat="53.36504392363306" lon="14.698852668180693"><ele>27.0</ele><time>2026-04-18T18:26:29.999Z</time></trkpt><trkpt lat="53.36510410416665" lon="14.698787885692875"><ele>27.0</ele><time>2026-04-18T18:26:30.999Z</time></trkpt><trkpt lat="53.36516113330131" lon="14.698724281793192"><ele>27.0</ele><time>2026-04-18T18:26:31.999Z</time></trkpt><trkpt lat="53.36521754463007" lon="14.698659468700406"><ele>27.0</ele><time>2026-04-18T18:26:32.999Z</time></trkpt><trkpt lat="53.365274081971876" lon="14.698593608905487"><ele>26.666666666666668</ele><time>2026-04-18T18:26:33.999Z</time></trkpt><trkpt lat="53.365341856635304" lon="14.698484541137367"><ele>26.333333333333336</ele><time>2026-04-18T18:26:34.999Z</time></trkpt><trkpt lat="53.36541913246984" lon="14.698347341272475"><ele>26.0</ele><time>2026-04-18T18:26:36.999Z</time></trkpt><trkpt lat="53.36546867275835" lon="14.6982635991353"><ele>25.666666666666668</ele><time>2026-04-18T18:26:37.999Z</time></trkpt><trkpt lat="53.36550310769121" lon="14.698174735726317"><ele>25.333333333333336</ele><time>2026-04-18T18:26:38.999Z</time></trkpt><trkpt lat="53.36554123075535" lon="14.698085991739937"><ele>25.0</ele><time>2026-04-18T18:26:39.999Z</time></trkpt><trkpt lat="53.36562202411998" lon="14.697959479315157"><ele>25.0</ele><time>2026-04-18T18:26:41.998Z</time></trkpt><trkpt lat="53.36571410993665" lon="14.697853652583008"><ele>25.0</ele><time>2026-04-18T18:26:43.998Z</time></trkpt><trkpt lat="53.36577934040546" lon="14.697745555746176"><ele>25.0</ele><time>2026-04-18T18:26:45.998Z</time></trkpt><trkpt lat="53.365851264344634" lon="14.697645273157708"><ele>25.0</ele><time>2026-04-18T18:26:47.998Z</time></trkpt><trkpt lat="53.365928502477175" lon="14.697532328602879"><ele>25.0</ele><time>2026-04-18T18:26:49.998Z</time></trkpt><trkpt lat="53.365996937670666" lon="14.697413275416226"><ele>24.833333333333336</ele><time>2026-04-18T18:26:51.997Z</time></trkpt><trkpt lat="53.36605452112615" lon="14.69734204669553"><ele>24.666666666666668</ele><time>2026-04-18T18:26:53.998Z</time></trkpt><trkpt lat="53.3661145950567" lon="14.697243006262172"><ele>24.5</ele><time>2026-04-18T18:26:55.998Z</time></trkpt><trkpt lat="53.36617386124795" lon="14.697153601578469"><ele>24.333333333333336</ele><time>2026-04-18T18:26:58.998Z</time></trkpt><trkpt lat="53.36622794520874" lon="14.697065561318864"><ele>24.166666666666668</ele><time>2026-04-18T18:27:00.998Z</time></trkpt><trkpt lat="53.36630460535653" lon="14.696961783983188"><ele>24.0</ele><time>2026-04-18T18:27:03.998Z</time></trkpt><trkpt lat="53.36636413503155" lon="14.69689862112003"><ele>23.6</ele><time>2026-04-18T18:27:05.998Z</time></trkpt><trkpt lat="53.3664322890307" lon="14.696817510988431"><ele>23.2</ele><time>2026-04-18T18:27:07.998Z</time></trkpt><trkpt lat="53.36648879440235" lon="14.696734029286153"><ele>22.8</ele><time>2026-04-18T18:27:09.998Z</time></trkpt><trkpt lat="53.366582485684624" lon="14.69660135887733"><ele>22.400000000000002</ele><time>2026-04-18T18:27:11.998Z</time></trkpt><trkpt lat="53.366642013340766" lon="14.696504315574112"><ele>22.0</ele><time>2026-04-18T18:27:13.998Z</time></trkpt><trkpt lat="53.366717877992535" lon="14.696402824707663"><ele>22.0</ele><time>2026-04-18T18:27:15.998Z</time></trkpt><trkpt lat="53.36681969506949" lon="14.696318518578408"><ele>22.0</ele><time>2026-04-18T18:27:17.998Z</time></trkpt><trkpt lat="53.36687447852382" lon="14.696249925725065"><ele>22.0</ele><time>2026-04-18T18:27:18.998Z</time></trkpt><trkpt lat="53.366937192571214" lon="14.696176557579701"><ele>22.0</ele><time>2026-04-18T18:27:19.998Z</time></trkpt><trkpt lat="53.366986478796555" lon="14.696098927384057"><ele>22.0</ele><time>2026-04-18T18:27:20.998Z</time></trkpt><trkpt lat="53.36706368063855" lon="14.695970704586578"><ele>22.0</ele><time>2026-04-18T18:27:22.998Z</time></trkpt><trkpt lat="53.36711690262913" lon="14.695885237037608"><ele>22.166666666666664</ele><time>2026-04-18T18:27:23.998Z</time></trkpt><trkpt lat="53.36718207162404" lon="14.69575939314599"><ele>22.333333333333332</ele><time>2026-04-18T18:27:24.998Z</time></trkpt><trkpt lat="53.36722082569189" lon="14.695668602448741"><ele>22.5</ele><time>2026-04-18T18:27:25.998Z</time></trkpt><trkpt lat="53.36726280860966" lon="14.69554777856437"><ele>22.666666666666668</ele><time>2026-04-18T18:27:26.998Z</time></trkpt><trkpt lat="53.36730642201177" lon="14.695436111190187"><ele>22.833333333333336</ele><time>2026-04-18T18:27:27.998Z</time></trkpt><trkpt lat="53.367366430313325" lon="14.695310507110001"><ele>23.0</ele><time>2026-04-18T18:27:28.998Z</time></trkpt><trkpt lat="53.3674377800492" lon="14.695192438600499"><ele>23.4</ele><time>2026-04-18T18:27:29.998Z</time></trkpt><trkpt lat="53.36751269212372" lon="14.695101579057368"><ele>23.799999999999997</ele><time>2026-04-18T18:27:30.998Z</time></trkpt><trkpt lat="53.36759527615818" lon="14.69499161562227"><ele>24.2</ele><time>2026-04-18T18:27:31.998Z</time></trkpt><trkpt lat="53.36766501055702" lon="14.694896697844595"><ele>24.6</ele><time>2026-04-18T18:27:32.998Z</time></trkpt><trkpt lat="53.36772805201784" lon="14.69480175457622"><ele>25.0</ele><time>2026-04-18T18:27:33.998Z</time></trkpt><trkpt lat="53.36778836457571" lon="14.694708573916309"><ele>25.000000000000004</ele><time>2026-04-18T18:27:34.998Z</time></trkpt><trkpt lat="53.36784526194779" lon="14.694621049351651"><ele>25.0</ele><time>2026-04-18T18:27:35.998Z</time></trkpt><trkpt lat="53.36790504757235" lon="14.6945063566731"><ele>25.0</ele><time>2026-04-18T18:27:36.998Z</time></trkpt><trkpt lat="53.36797069230718" lon="14.69440594314119"><ele>25.0</ele><time>2026-04-18T18:27:37.998Z</time></trkpt><trkpt lat="53.36805242309672" lon="14.69430917064635"><ele>25.000000000000004</ele><time>2026-04-18T18:27:38.998Z</time></trkpt><trkpt lat="53.36812638926178" lon="14.694223515077185"><ele>25.0</ele><time>2026-04-18T18:27:39.998Z</time></trkpt><trkpt lat="53.36820397171888" lon="14.694123813035178"><ele>23.833333333333336</ele><time>2026-04-18T18:27:40.998Z</time></trkpt><trkpt lat="53.36827137914286" lon="14.694053691311433"><ele>22.666666666666668</ele><time>2026-04-18T18:27:41.998Z</time></trkpt><trkpt lat="53.368339200002005" lon="14.693988103594751"><ele>21.5</ele><time>2026-04-18T18:27:42.998Z</time></trkpt><trkpt lat="53.3684084174198" lon="14.693903768736783"><ele>20.333333333333336</ele><time>2026-04-18T18:27:43.998Z</time></trkpt><trkpt lat="53.36846575828403" lon="14.693822663119262"><ele>19.166666666666668</ele><time>2026-04-18T18:27:44.998Z</time></trkpt><trkpt lat="53.368547307896385" lon="14.693707530019168"><ele>18.0</ele><time>2026-04-18T18:27:45.998Z</time></trkpt><trkpt lat="53.368646951101155" lon="14.693587719616193"><ele>17.6</ele><time>2026-04-18T18:27:46.998Z</time></trkpt><trkpt lat="53.36872702177124" lon="14.693503181511941"><ele>17.200000000000003</ele><time>2026-04-18T18:27:47.998Z</time></trkpt><trkpt lat="53.36877383021742" lon="14.693421720486636"><ele>16.8</ele><time>2026-04-18T18:27:48.998Z</time></trkpt><trkpt lat="53.368861858396976" lon="14.693287745467881"><ele>16.400000000000002</ele><time>2026-04-18T18:27:50.998Z</time></trkpt><trkpt lat="53.36895942452262" lon="14.693160830643388"><ele>16.0</ele><time>2026-04-18T18:27:52.998Z</time></trkpt><trkpt lat="53.36900772138603" lon="14.69308578179569"><ele>15.499999999999998</ele><time>2026-04-18T18:27:53.998Z</time></trkpt><trkpt lat="53.369059149056724" lon="14.693018792809381"><ele>15.0</ele><time>2026-04-18T18:27:54.998Z</time></trkpt><trkpt lat="53.36911433138983" lon="14.692957759774616"><ele>14.5</ele><time>2026-04-18T18:27:55.998Z</time></trkpt><trkpt lat="53.369180661199024" lon="14.692856207368674"><ele>14.0</ele><time>2026-04-18T18:27:56.998Z</time></trkpt><trkpt lat="53.369256821670824" lon="14.692745477865998"><ele>13.499999999999998</ele><time>2026-04-18T18:27:57.998Z</time></trkpt><trkpt lat="53.369325074984914" lon="14.692634709213284"><ele>13.0</ele><time>2026-04-18T18:27:58.998Z</time></trkpt><trkpt lat="53.36939878097437" lon="14.692531910631729"><ele>13.0</ele><time>2026-04-18T18:27:59.998Z</time></trkpt><trkpt lat="53.36949954228383" lon="14.692404158823022"><ele>13.0</ele><time>2026-04-18T18:28:00.998Z</time></trkpt><trkpt lat="53.36958984951374" lon="14.692281078669142"><ele>13.0</ele><time>2026-04-18T18:28:01.998Z</time></trkpt><trkpt lat="53.36969041825181" lon="14.692141840563904"><ele>13.0</ele><time>2026-04-18T18:28:02.998Z</time></trkpt><trkpt lat="53.36979732966324" lon="14.692000070238343"><ele>12.666666666666666</ele><time>2026-04-18T18:28:03.998Z</time></trkpt><trkpt lat="53.369937139121866" lon="14.6918112228825"><ele>12.333333333333332</ele><time>2026-04-18T18:28:04.998Z</time></trkpt><trkpt lat="53.37007306575285" lon="14.691619783846825"><ele>12.0</ele><time>2026-04-18T18:28:05.998Z</time></trkpt><trkpt lat="53.3702342627458" lon="14.691409743494894"><ele>12.0</ele><time>2026-04-18T18:28:06.998Z</time></trkpt><trkpt lat="53.37039033240663" lon="14.691205048485495"><ele>12.0</ele><time>2026-04-18T18:28:07.998Z</time></trkpt><trkpt lat="53.37054438553155" lon="14.691050505627985"><ele>12.0</ele><time>2026-04-18T18:28:08.998Z</time></trkpt><trkpt lat="53.37066204896465" lon="14.690889488578394"><ele>12.0</ele><time>2026-04-18T18:28:09.998Z</time></trkpt><trkpt lat="53.3707567203694" lon="14.690748197420584"><ele>12.0</ele><time>2026-04-18T18:28:10.998Z</time></trkpt><trkpt lat="53.37083289461561" lon="14.69062609650163"><ele>12.0</ele><time>2026-04-18T18:28:11.998Z</time></trkpt><trkpt lat="53.37089826680443" lon="14.690536290740244"><ele>12.0</ele><time>2026-04-18T18:28:12.998Z</time></trkpt><trkpt lat="53.370954943042314" lon="14.690482000246265"><ele>12.0</ele><time>2026-04-18T18:28:13.999Z</time></trkpt><trkpt lat="53.37100872347839" lon="14.690414059059776"><ele>12.0</ele><time>2026-04-18T18:28:16.999Z</time></trkpt><trkpt lat="53.37091121672107" lon="14.690196288460363"><ele>11.8</ele><time>2026-04-18T18:28:18.999Z</time></trkpt><trkpt lat="53.37083801955294" lon="14.690128776473893"><ele>11.6</ele><time>2026-04-18T18:28:19.999Z</time></trkpt><trkpt lat="53.370771276207485" lon="14.690048906277264"><ele>11.4</ele><time>2026-04-18T18:28:20.999Z</time></trkpt><trkpt lat="53.37068466977326" lon="14.689959942936333"><ele>11.200000000000001</ele><time>2026-04-18T18:28:21.999Z</time></trkpt><trkpt lat="53.37059312406693" lon="14.689846426395018"><ele>11.0</ele><time>2026-04-18T18:28:22.999Z</time></trkpt><trkpt lat="53.37049482068663" lon="14.689731857156742"><ele>10.666666666666666</ele><time>2026-04-18T18:28:23.999Z</time></trkpt><trkpt lat="53.370415423675105" lon="14.689635976136143"><ele>10.333333333333332</ele><time>2026-04-18T18:28:24.999Z</time></trkpt><trkpt lat="53.37034117660776" lon="14.689550180289714"><ele>10.0</ele><time>2026-04-18T18:28:25.999Z</time></trkpt><trkpt lat="53.37027265189147" lon="14.689476931935543"><ele>9.666666666666666</ele><time>2026-04-18T18:28:26.999Z</time></trkpt><trkpt lat="53.370204049218295" lon="14.689393600346465"><ele>9.333333333333334</ele><time>2026-04-18T18:28:27.999Z</time></trkpt><trkpt lat="53.37014553762676" lon="14.689280605085903"><ele>9.0</ele><time>2026-04-18T18:28:28.999Z</time></trkpt><trkpt lat="53.370051211818634" lon="14.689172735332832"><ele>9.0</ele><time>2026-04-18T18:28:29.999Z</time></trkpt><trkpt lat="53.36996483118215" lon="14.689067630360611"><ele>9.0</ele><time>2026-04-18T18:28:30.999Z</time></trkpt><trkpt lat="53.369892967091126" lon="14.688974833855031"><ele>9.0</ele><time>2026-04-18T18:28:31.999Z</time></trkpt><trkpt lat="53.369831335494425" lon="14.688884755209145"><ele>9.0</ele><time>2026-04-18T18:28:32.999Z</time></trkpt><trkpt lat="53.36976487093324" lon="14.68880873128226"><ele>9.0</ele><time>2026-04-18T18:28:33.999Z</time></trkpt><trkpt lat="53.36969523308994" lon="14.688694783980276"><ele>8.8</ele><time>2026-04-18T18:28:35.999Z</time></trkpt><trkpt lat="53.36973585258053" lon="14.688431124665163"><ele>8.600000000000001</ele><time>2026-04-18T18:28:39.999Z</time></trkpt><trkpt lat="53.36973641828101" lon="14.688240317536643"><ele>8.4</ele><time>2026-04-18T18:28:41.999Z</time></trkpt><trkpt lat="53.36973722078847" lon="14.688117884644255"><ele>8.200000000000001</ele><time>2026-04-18T18:28:42.999Z</time></trkpt><trkpt lat="53.36973728356434" lon="14.687990297241292"><ele>8.0</ele><time>2026-04-18T18:28:43.999Z</time></trkpt><trkpt lat="53.36972915160699" lon="14.68787938710314"><ele>8.5</ele><time>2026-04-18T18:28:44.999Z</time></trkpt><trkpt lat="53.3696899657854" lon="14.687759501916522"><ele>9.0</ele><time>2026-04-18T18:28:45.999Z</time></trkpt><trkpt lat="53.36958775345166" lon="14.687653430799475"><ele>9.5</ele><time>2026-04-18T18:28:47.998Z</time></trkpt><trkpt lat="53.36950962228831" lon="14.68763372443745"><ele>10.0</ele><time>2026-04-18T18:28:48.997Z</time></trkpt><trkpt lat="53.36944040983744" lon="14.687614709540334"><ele>10.5</ele><time>2026-04-18T18:28:49.997Z</time></trkpt><trkpt lat="53.3693713506765" lon="14.687558844536325"><ele>11.0</ele><time>2026-04-18T18:28:50.998Z</time></trkpt><trkpt lat="53.36931449960934" lon="14.687495385944297"><ele>11.0</ele><time>2026-04-18T18:28:51.998Z</time></trkpt><trkpt lat="53.36924363897161" lon="14.687421900671238"><ele>11.0</ele><time>2026-04-18T18:28:52.998Z</time></trkpt><trkpt lat="53.3691873290658" lon="14.687347470852204"><ele>11.0</ele><time>2026-04-18T18:28:53.998Z</time></trkpt><trkpt lat="53.36913216407146" lon="14.68728791177588"><ele>11.0</ele><time>2026-04-18T18:28:54.998Z</time></trkpt><trkpt lat="53.36909156717541" lon="14.687185905435804"><ele>11.0</ele><time>2026-04-18T18:28:55.998Z</time></trkpt><trkpt lat="53.36902255246115" lon="14.687103886814175"><ele>11.0</ele><time>2026-04-18T18:28:56.998Z</time></trkpt><trkpt lat="53.36897008306003" lon="14.686974557804108"><ele>11.0</ele><time>2026-04-18T18:28:57.997Z</time></trkpt><trkpt lat="53.36892275338278" lon="14.686884415656946"><ele>11.0</ele><time>2026-04-18T18:28:58.997Z</time></trkpt><trkpt lat="53.36886196393276" lon="14.686745387887603"><ele>11.0</ele><time>2026-04-18T18:29:00.997Z</time></trkpt><trkpt lat="53.36882172129964" lon="14.686577040724567"><ele>11.0</ele><time>2026-04-18T18:29:02.997Z</time></trkpt><trkpt lat="53.36882178117561" lon="14.686469888531235"><ele>11.0</ele><time>2026-04-18T18:29:03.997Z</time></trkpt><trkpt lat="53.36881906069603" lon="14.686327741249636"><ele>11.0</ele><time>2026-04-18T18:29:04.997Z</time></trkpt><trkpt lat="53.368829428845025" lon="14.686217131053766"><ele>11.0</ele><time>2026-04-18T18:29:05.997Z</time></trkpt><trkpt lat="53.368827477810406" lon="14.686111532303872"><ele>11.0</ele><time>2026-04-18T18:29:06.997Z</time></trkpt><trkpt lat="53.368836307806106" lon="14.68599847473114"><ele>11.0</ele><time>2026-04-18T18:29:07.997Z</time></trkpt><trkpt lat="53.36884852877648" lon="14.685881483809224"><ele>11.0</ele><time>2026-04-18T18:29:08.997Z</time></trkpt><trkpt lat="53.36886772813088" lon="14.685759028892946"><ele>11.0</ele><time>2026-04-18T18:29:09.997Z</time></trkpt><trkpt lat="53.36892459022481" lon="14.685550893394785"><ele>11.0</ele><time>2026-04-18T18:29:11.997Z</time></trkpt><trkpt lat="53.36897903114092" lon="14.685469214948583"><ele>10.666666666666666</ele><time>2026-04-18T18:29:12.997Z</time></trkpt><trkpt lat="53.369034193016965" lon="14.685396568491369"><ele>10.333333333333332</ele><time>2026-04-18T18:29:13.997Z</time></trkpt><trkpt lat="53.369095476561185" lon="14.685327933837826"><ele>10.0</ele><time>2026-04-18T18:29:14.997Z</time></trkpt><trkpt lat="53.369163313227304" lon="14.685238350071042"><ele>9.666666666666666</ele><time>2026-04-18T18:29:15.997Z</time></trkpt><trkpt lat="53.36922343945981" lon="14.685150386755677"><ele>9.333333333333334</ele><time>2026-04-18T18:29:16.997Z</time></trkpt><trkpt lat="53.36928663520948" lon="14.685095316819206"><ele>9.0</ele><time>2026-04-18T18:29:17.997Z</time></trkpt><trkpt lat="53.36934918198422" lon="14.685034487287007"><ele>9.0</ele><time>2026-04-18T18:29:18.997Z</time></trkpt><trkpt lat="53.369463655819125" lon="14.684916706864419"><ele>9.0</ele><time>2026-04-18T18:29:20.997Z</time></trkpt><trkpt lat="53.36952622953534" lon="14.684869048077633"><ele>9.0</ele><time>2026-04-18T18:29:21.997Z</time></trkpt><trkpt lat="53.36959125000958" lon="14.684819180930454"><ele>9.0</ele><time>2026-04-18T18:29:22.997Z</time></trkpt><trkpt lat="53.3696600945287" lon="14.68477161723485"><ele>9.0</ele><time>2026-04-18T18:29:23.997Z</time></trkpt><trkpt lat="53.369735714888556" lon="14.684728628845235"><ele>9.0</ele><time>2026-04-18T18:29:24.997Z</time></trkpt><trkpt lat="53.36981155812471" lon="14.684676800436346"><ele>9.166666666666666</ele><time>2026-04-18T18:29:25.997Z</time></trkpt><trkpt lat="53.36986091278962" lon="14.68460386225063"><ele>9.333333333333334</ele><time>2026-04-18T18:29:26.997Z</time></trkpt><trkpt lat="53.3699228741653" lon="14.6845419627241"><ele>9.5</ele><time>2026-04-18T18:29:27.997Z</time></trkpt><trkpt lat="53.36998600735874" lon="14.684496934233321"><ele>9.666666666666668</ele><time>2026-04-18T18:29:28.997Z</time></trkpt><trkpt lat="53.37005543596094" lon="14.684466297716162"><ele>9.833333333333334</ele><time>2026-04-18T18:29:29.997Z</time></trkpt><trkpt lat="53.370178149880765" lon="14.68441847293532"><ele>10.0</ele><time>2026-04-18T18:29:31.997Z</time></trkpt><trkpt lat="53.37029355621123" lon="14.684377200874968"><ele>10.0</ele><time>2026-04-18T18:29:33.997Z</time></trkpt><trkpt lat="53.3703577136069" lon="14.684352142693532"><ele>10.0</ele><time>2026-04-18T18:29:34.997Z</time></trkpt><trkpt lat="53.37046433855311" lon="14.684319183182762"><ele>10.0</ele><time>2026-04-18T18:29:36.997Z</time></trkpt><trkpt lat="53.37058148808923" lon="14.684263856707465"><ele>10.0</ele><time>2026-04-18T18:29:38.998Z</time></trkpt><trkpt lat="53.37069641267519" lon="14.684214374163238"><ele>10.0</ele><time>2026-04-18T18:29:40.998Z</time></trkpt><trkpt lat="53.37080001990677" lon="14.684139541673629"><ele>9.8</ele><time>2026-04-18T18:29:42.998Z</time></trkpt><trkpt lat="53.37091759826406" lon="14.684085536655616"><ele>9.6</ele><time>2026-04-18T18:29:44.998Z</time></trkpt><trkpt lat="53.37098204012883" lon="14.684042239521402"><ele>9.4</ele><time>2026-04-18T18:29:45.998Z</time></trkpt><trkpt lat="53.371095994416905" lon="14.683967017229643"><ele>9.2</ele><time>2026-04-18T18:29:47.998Z</time></trkpt><trkpt lat="53.37115355698825" lon="14.683920296122157"><ele>9.0</ele><time>2026-04-18T18:29:48.998Z</time></trkpt><trkpt lat="53.37126550020865" lon="14.683843103347604"><ele>9.0</ele><time>2026-04-18T18:29:50.998Z</time></trkpt><trkpt lat="53.37132667362847" lon="14.683797062692772"><ele>9.0</ele><time>2026-04-18T18:29:51.998Z</time></trkpt><trkpt lat="53.3713957424953" lon="14.683746271804202"><ele>9.0</ele><time>2026-04-18T18:29:52.998Z</time></trkpt><trkpt lat="53.37146314329264" lon="14.683697654971136"><ele>9.0</ele><time>2026-04-18T18:29:53.998Z</time></trkpt><trkpt lat="53.371519588060266" lon="14.683629548016345"><ele>9.0</ele><time>2026-04-18T18:29:54.998Z</time></trkpt><trkpt lat="53.371632748259366" lon="14.683521984662537"><ele>9.0</ele><time>2026-04-18T18:29:56.998Z</time></trkpt><trkpt lat="53.37169647223768" lon="14.6834776270568"><ele>9.333333333333334</ele><time>2026-04-18T18:29:57.998Z</time></trkpt><trkpt lat="53.37175619885193" lon="14.683434449972182"><ele>9.666666666666666</ele><time>2026-04-18T18:29:58.998Z</time></trkpt><trkpt lat="53.37181506746464" lon="14.683389143593297"><ele>10.0</ele><time>2026-04-18T18:29:59.998Z</time></trkpt><trkpt lat="53.3718861915237" lon="14.683336457836791"><ele>10.333333333333332</ele><time>2026-04-18T18:30:00.998Z</time></trkpt><trkpt lat="53.37196163792226" lon="14.683289255892296"><ele>10.666666666666666</ele><time>2026-04-18T18:30:01.998Z</time></trkpt><trkpt lat="53.3720439569199" lon="14.683247123348448"><ele>11.0</ele><time>2026-04-18T18:30:02.998Z</time></trkpt><trkpt lat="53.3721497370248" lon="14.6831807924808"><ele>10.5</ele><time>2026-04-18T18:30:04.998Z</time></trkpt><trkpt lat="53.372203127431405" lon="14.68312307162078"><ele>10.0</ele><time>2026-04-18T18:30:05.998Z</time></trkpt><trkpt lat="53.37226354909148" lon="14.68307751674151"><ele>9.5</ele><time>2026-04-18T18:30:06.998Z</time></trkpt><trkpt lat="53.372354516967725" lon="14.682991265308747"><ele>9.0</ele><time>2026-04-18T18:30:08.998Z</time></trkpt><trkpt lat="53.3724481326917" lon="14.682889620666622"><ele>8.5</ele><time>2026-04-18T18:30:10.998Z</time></trkpt><trkpt lat="53.372508541156606" lon="14.682853183665436"><ele>8.0</ele><time>2026-04-18T18:30:11.998Z</time></trkpt><trkpt lat="53.37260846694872" lon="14.682793989561624"><ele>8.333333333333332</ele><time>2026-04-18T18:30:13.998Z</time></trkpt><trkpt lat="53.372675042585556" lon="14.682753478419217"><ele>8.666666666666666</ele><time>2026-04-18T18:30:14.998Z</time></trkpt><trkpt lat="53.37272963007594" lon="14.68269758068436"><ele>9.0</ele><time>2026-04-18T18:30:15.998Z</time></trkpt><trkpt lat="53.37283046211274" lon="14.68260208664685"><ele>9.333333333333334</ele><time>2026-04-18T18:30:17.998Z</time></trkpt><trkpt lat="53.37288806635319" lon="14.68253060250005"><ele>9.666666666666668</ele><time>2026-04-18T18:30:19.998Z</time></trkpt><trkpt lat="53.372973377399" lon="14.682394805743105"><ele>10.0</ele><time>2026-04-18T18:30:22.998Z</time></trkpt><trkpt lat="53.37302418124812" lon="14.682291149844147"><ele>10.0</ele><time>2026-04-18T18:30:23.998Z</time></trkpt><trkpt lat="53.373092276748196" lon="14.682170303198616"><ele>10.0</ele><time>2026-04-18T18:30:24.998Z</time></trkpt><trkpt lat="53.37315190043052" lon="14.682041358370869"><ele>10.0</ele><time>2026-04-18T18:30:25.998Z</time></trkpt><trkpt lat="53.37322448915749" lon="14.681867256967449"><ele>10.0</ele><time>2026-04-18T18:30:26.998Z</time></trkpt><trkpt lat="53.37328603034059" lon="14.681713257176765"><ele>10.0</ele><time>2026-04-18T18:30:27.998Z</time></trkpt><trkpt lat="53.37333582482551" lon="14.6816006275162"><ele>10.6</ele><time>2026-04-18T18:30:28.998Z</time></trkpt><trkpt lat="53.373402711188135" lon="14.681502228297878"><ele>11.2</ele><time>2026-04-18T18:30:29.998Z</time></trkpt><trkpt lat="53.37347509632765" lon="14.681374161682808"><ele>11.8</ele><time>2026-04-18T18:30:30.998Z</time></trkpt><trkpt lat="53.373523079500465" lon="14.681230303822064"><ele>12.4</ele><time>2026-04-18T18:30:31.998Z</time></trkpt><trkpt lat="53.37357385392286" lon="14.68107671728412"><ele>13.0</ele><time>2026-04-18T18:30:32.998Z</time></trkpt><trkpt lat="53.37362524547945" lon="14.6809436294545"><ele>13.25</ele><time>2026-04-18T18:30:33.998Z</time></trkpt><trkpt lat="53.37369878765764" lon="14.680808998098597"><ele>13.5</ele><time>2026-04-18T18:30:34.998Z</time></trkpt><trkpt lat="53.37376028016014" lon="14.680652890498841"><ele>13.75</ele><time>2026-04-18T18:30:35.998Z</time></trkpt><trkpt lat="53.37382959558608" lon="14.680494822442533"><ele>14.0</ele><time>2026-04-18T18:30:36.998Z</time></trkpt><trkpt lat="53.373901088942524" lon="14.680344149872452"><ele>14.6</ele><time>2026-04-18T18:30:37.998Z</time></trkpt><trkpt lat="53.37396710688502" lon="14.68018798467504"><ele>15.2</ele><time>2026-04-18T18:30:38.998Z</time></trkpt><trkpt lat="53.37403620085697" lon="14.680006148209145"><ele>15.799999999999999</ele><time>2026-04-18T18:30:39.998Z</time></trkpt><trkpt lat="53.374084317708544" lon="14.679869844011163"><ele>16.4</ele><time>2026-04-18T18:30:40.998Z</time></trkpt><trkpt lat="53.37413842190326" lon="14.679717857098032"><ele>17.0</ele><time>2026-04-18T18:30:41.998Z</time></trkpt><trkpt lat="53.37420510966325" lon="14.679564873001011"><ele>16.25</ele><time>2026-04-18T18:30:42.998Z</time></trkpt><trkpt lat="53.374267956899665" lon="14.67940733401945"><ele>15.5</ele><time>2026-04-18T18:30:43.998Z</time></trkpt><trkpt lat="53.374330065931765" lon="14.67924004578323"><ele>14.75</ele><time>2026-04-18T18:30:44.998Z</time></trkpt><trkpt lat="53.37440298987478" lon="14.679080767648431"><ele>14.0</ele><time>2026-04-18T18:30:45.998Z</time></trkpt><trkpt lat="53.374474636741795" lon="14.67890681169492"><ele>14.0</ele><time>2026-04-18T18:30:46.998Z</time></trkpt><trkpt lat="53.37456000130992" lon="14.678715119609617"><ele>14.0</ele><time>2026-04-18T18:30:47.998Z</time></trkpt><trkpt lat="53.37463094770646" lon="14.67853556063691"><ele>14.0</ele><time>2026-04-18T18:30:48.998Z</time></trkpt><trkpt lat="53.37469481493156" lon="14.67836202918682"><ele>14.0</ele><time>2026-04-18T18:30:49.998Z</time></trkpt><trkpt lat="53.37476801017449" lon="14.678198791040483"><ele>13.75</ele><time>2026-04-18T18:30:50.998Z</time></trkpt><trkpt lat="53.37484249477744" lon="14.678054595443578"><ele>13.5</ele><time>2026-04-18T18:30:51.998Z</time></trkpt><trkpt lat="53.37490028343493" lon="14.677898173721527"><ele>13.25</ele><time>2026-04-18T18:30:52.998Z</time></trkpt><trkpt lat="53.37497062511261" lon="14.677734845094676"><ele>13.0</ele><time>2026-04-18T18:30:53.998Z</time></trkpt><trkpt lat="53.37503659301673" lon="14.677586392378494"><ele>13.0</ele><time>2026-04-18T18:30:54.998Z</time></trkpt><trkpt lat="53.375106238577345" lon="14.677434808593498"><ele>13.0</ele><time>2026-04-18T18:30:55.998Z</time></trkpt><trkpt lat="53.37518629216115" lon="14.677273430928842"><ele>13.0</ele><time>2026-04-18T18:30:56.998Z</time></trkpt><trkpt lat="53.375303987486724" lon="14.677171088353445"><ele>13.0</ele><time>2026-04-18T18:30:57.998Z</time></trkpt><trkpt lat="53.37537747169195" lon="14.677006023194982"><ele>13.0</ele><time>2026-04-18T18:30:58.998Z</time></trkpt><trkpt lat="53.375447666357736" lon="14.67686499503882"><ele>13.0</ele><time>2026-04-18T18:30:59.998Z</time></trkpt><trkpt lat="53.375510116702266" lon="14.676740629182262"><ele>13.0</ele><time>2026-04-18T18:31:00.998Z</time></trkpt><trkpt lat="53.37556408980658" lon="14.676630416105754"><ele>13.0</ele><time>2026-04-18T18:31:01.998Z</time></trkpt><trkpt lat="53.37562341500021" lon="14.676504970015664"><ele>13.0</ele><time>2026-04-18T18:31:02.998Z</time></trkpt><trkpt lat="53.37568676003497" lon="14.676369196917696"><ele>13.0</ele><time>2026-04-18T18:31:03.998Z</time></trkpt><trkpt lat="53.37574106730629" lon="14.676251736398298"><ele>13.0</ele><time>2026-04-18T18:31:04.998Z</time></trkpt><trkpt lat="53.37576807980157" lon="14.676101823387128"><ele>13.0</ele><time>2026-04-18T18:31:05.998Z</time></trkpt><trkpt lat="53.375821513841146" lon="14.675971331230395"><ele>13.0</ele><time>2026-04-18T18:31:06.998Z</time></trkpt><trkpt lat="53.37591667407613" lon="14.675867313156669"><ele>13.0</ele><time>2026-04-18T18:31:07.998Z</time></trkpt><trkpt lat="53.375984030372585" lon="14.675723904169592"><ele>13.0</ele><time>2026-04-18T18:31:08.998Z</time></trkpt><trkpt lat="53.37603521485143" lon="14.675613468100403"><ele>13.0</ele><time>2026-04-18T18:31:09.998Z</time></trkpt><trkpt lat="53.3760442379063" lon="14.675459896885268"><ele>13.0</ele><time>2026-04-18T18:31:10.998Z</time></trkpt><trkpt lat="53.3761089653561" lon="14.675368638514584"><ele>13.0</ele><time>2026-04-18T18:31:11.998Z</time></trkpt><trkpt lat="53.37619387019084" lon="14.67532405592004"><ele>13.0</ele><time>2026-04-18T18:31:12.998Z</time></trkpt><trkpt lat="53.37626946394684" lon="14.675208897511986"><ele>13.2</ele><time>2026-04-18T18:31:13.998Z</time></trkpt><trkpt lat="53.376341226196274" lon="14.675106588828589"><ele>13.4</ele><time>2026-04-18T18:31:14.998Z</time></trkpt><trkpt lat="53.37640703756923" lon="14.675017820502918"><ele>13.599999999999998</ele><time>2026-04-18T18:31:15.998Z</time></trkpt><trkpt lat="53.37647168996867" lon="14.674933112441039"><ele>13.799999999999999</ele><time>2026-04-18T18:31:16.998Z</time></trkpt><trkpt lat="53.376549030754106" lon="14.674822344403944"><ele>14.0</ele><time>2026-04-18T18:31:17.998Z</time></trkpt><trkpt lat="53.376635105926226" lon="14.674669057725033"><ele>14.0</ele><time>2026-04-18T18:31:18.998Z</time></trkpt><trkpt lat="53.37670369063428" lon="14.674462630134897"><ele>13.999999999999998</ele><time>2026-04-18T18:31:19.998Z</time></trkpt><trkpt lat="53.37673699496861" lon="14.674332847278922"><ele>13.999999999999998</ele><time>2026-04-18T18:31:20.998Z</time></trkpt><trkpt lat="53.3767757489799" lon="14.674181624562737"><ele>14.0</ele><time>2026-04-18T18:31:21.998Z</time></trkpt><trkpt lat="53.37681580075381" lon="14.674061275586594"><ele>14.0</ele><time>2026-04-18T18:31:23.998Z</time></trkpt><trkpt lat="53.3766077036457" lon="14.673614020590719"><ele>13.399999999999999</ele><time>2026-04-18T18:31:25.998Z</time></trkpt><trkpt lat="53.3765106111706" lon="14.673430330922622"><ele>12.799999999999999</ele><time>2026-04-18T18:31:27.998Z</time></trkpt><trkpt lat="53.37644987362073" lon="14.673315182628606"><ele>12.2</ele><time>2026-04-18T18:31:28.998Z</time></trkpt><trkpt lat="53.37639975375326" lon="14.673220163661554"><ele>11.600000000000001</ele><time>2026-04-18T18:31:29.998Z</time></trkpt><trkpt lat="53.376349642147574" lon="14.673123271653838"><ele>11.0</ele><time>2026-04-18T18:31:30.998Z</time></trkpt><trkpt lat="53.37628706945274" lon="14.67300166796247"><ele>11.0</ele><time>2026-04-18T18:31:31.998Z</time></trkpt><trkpt lat="53.37622892962091" lon="14.672888682423826"><ele>11.0</ele><time>2026-04-18T18:31:32.998Z</time></trkpt><trkpt lat="53.376181239870455" lon="14.67279600499078"><ele>11.0</ele><time>2026-04-18T18:31:33.998Z</time></trkpt><trkpt lat="53.37614015772969" lon="14.672715900874442"><ele>11.0</ele><time>2026-04-18T18:31:34.998Z</time></trkpt><trkpt lat="53.37606600179346" lon="14.67257127605497"><ele>11.0</ele><time>2026-04-18T18:31:36.998Z</time></trkpt><trkpt lat="53.37599436247426" lon="14.672431584979533"><ele>11.0</ele><time>2026-04-18T18:31:38.998Z</time></trkpt><trkpt lat="53.37593231654643" lon="14.672310234658324"><ele>10.600000000000001</ele><time>2026-04-18T18:31:40.998Z</time></trkpt><trkpt lat="53.37586854657954" lon="14.672188051229602"><ele>10.200000000000001</ele><time>2026-04-18T18:31:43.998Z</time></trkpt><trkpt lat="53.37581400016203" lon="14.672084286183777"><ele>9.8</ele><time>2026-04-18T18:31:45.998Z</time></trkpt><trkpt lat="53.375769409080824" lon="14.671999459421802"><ele>9.4</ele><time>2026-04-18T18:31:47.998Z</time></trkpt><trkpt lat="53.37570490648383" lon="14.671998953226744"><ele>9.0</ele><time>2026-04-18T18:31:49.998Z</time></trkpt><trkpt lat="53.375559458216564" lon="14.672173115618222"><ele>9.4</ele><time>2026-04-18T18:31:50.998Z</time></trkpt><trkpt lat="53.37550490174452" lon="14.671980936798711"><ele>9.8</ele><time>2026-04-18T18:31:52.998Z</time></trkpt><trkpt lat="53.37548438306905" lon="14.671869954741158"><ele>10.200000000000001</ele><time>2026-04-18T18:31:53.998Z</time></trkpt><trkpt lat="53.375450984412154" lon="14.671707338605811"><ele>10.600000000000001</ele><time>2026-04-18T18:31:54.998Z</time></trkpt><trkpt lat="53.37539885339139" lon="14.67159493851218"><ele>11.0</ele><time>2026-04-18T18:31:55.998Z</time></trkpt><trkpt lat="53.375354739473174" lon="14.671468430811043"><ele>11.333333333333332</ele><time>2026-04-18T18:31:56.998Z</time></trkpt><trkpt lat="53.37532143521789" lon="14.671322501181013"><ele>11.666666666666666</ele><time>2026-04-18T18:31:58.998Z</time></trkpt><trkpt lat="53.37533101981394" lon="14.671199493368869"><ele>12.0</ele><time>2026-04-18T18:32:00.998Z</time></trkpt><trkpt lat="53.37537697286486" lon="14.671064362953562"><ele>12.333333333333332</ele><time>2026-04-18T18:32:02.998Z</time></trkpt><trkpt lat="53.37538591331395" lon="14.6709313273451"><ele>12.666666666666666</ele><time>2026-04-18T18:32:04.998Z</time></trkpt><trkpt lat="53.37538964791742" lon="14.67081783179158"><ele>13.0</ele><time>2026-04-18T18:32:05.998Z</time></trkpt><trkpt lat="53.375407454112626" lon="14.670670772378676"><ele>13.4</ele><time>2026-04-18T18:32:08.998Z</time></trkpt><trkpt lat="53.3754672231117" lon="14.670443164003968"><ele>13.8</ele><time>2026-04-18T18:32:10.998Z</time></trkpt><trkpt lat="53.37548036225609" lon="14.670312333732594"><ele>14.2</ele><time>2026-04-18T18:32:11.998Z</time></trkpt><trkpt lat="53.375487579158815" lon="14.6701598702843"><ele>14.6</ele><time>2026-04-18T18:32:12.998Z</time></trkpt><trkpt lat="53.37549766593638" lon="14.669986849794872"><ele>15.0</ele><time>2026-04-18T18:32:13.998Z</time></trkpt><trkpt lat="53.37550255911286" lon="14.669783216866762"><ele>15.0</ele><time>2026-04-18T18:32:14.998Z</time></trkpt><trkpt lat="53.37550300972723" lon="14.669576784197947"><ele>15.0</ele><time>2026-04-18T18:32:15.998Z</time></trkpt><trkpt lat="53.37550807233148" lon="14.669377872024727"><ele>15.0</ele><time>2026-04-18T18:32:16.998Z</time></trkpt><trkpt lat="53.3755129790498" lon="14.669187419309095"><ele>15.0</ele><time>2026-04-18T18:32:17.998Z</time></trkpt><trkpt lat="53.3755146039359" lon="14.669032735362501"><ele>15.0</ele><time>2026-04-18T18:32:18.998Z</time></trkpt><trkpt lat="53.3755161201762" lon="14.668895217933093"><ele>15.166666666666666</ele><time>2026-04-18T18:32:19.998Z</time></trkpt><trkpt lat="53.375509828520215" lon="14.668763576074813"><ele>15.333333333333332</ele><time>2026-04-18T18:32:20.998Z</time></trkpt><trkpt lat="53.375516813255935" lon="14.668633173432484"><ele>15.5</ele><time>2026-04-18T18:32:21.998Z</time></trkpt><trkpt lat="53.37551761340207" lon="14.66850557493195"><ele>15.666666666666666</ele><time>2026-04-18T18:32:22.998Z</time></trkpt><trkpt lat="53.37552075603316" lon="14.668373251789646"><ele>15.833333333333332</ele><time>2026-04-18T18:32:23.998Z</time></trkpt><trkpt lat="53.375522132018226" lon="14.668261255074105"><ele>16.0</ele><time>2026-04-18T18:32:24.998Z</time></trkpt><trkpt lat="53.37552729796003" lon="14.668053300984507"><ele>16.0</ele><time>2026-04-18T18:32:26.998Z</time></trkpt><trkpt lat="53.375531485587786" lon="14.66788350517829"><ele>16.0</ele><time>2026-04-18T18:32:28.999Z</time></trkpt><trkpt lat="53.37543594843642" lon="14.667748900856626"><ele>16.0</ele><time>2026-04-18T18:32:30.999Z</time></trkpt><trkpt lat="53.375352548874716" lon="14.667733539033504"><ele>16.0</ele><time>2026-04-18T18:32:31.999Z</time></trkpt><trkpt lat="53.37525904699617" lon="14.66772551288704"><ele>16.0</ele><time>2026-04-18T18:32:32.999Z</time></trkpt><trkpt lat="53.37516286145599" lon="14.667716409220196"><ele>16.2</ele><time>2026-04-18T18:32:33.999Z</time></trkpt><trkpt lat="53.37507800685549" lon="14.667712205311762"><ele>16.400000000000002</ele><time>2026-04-18T18:32:34.999Z</time></trkpt><trkpt lat="53.37500825910135" lon="14.667710344526542"><ele>16.6</ele><time>2026-04-18T18:32:35.999Z</time></trkpt><trkpt lat="53.37493185860558" lon="14.667673623835313"><ele>16.8</ele><time>2026-04-18T18:32:37.999Z</time></trkpt><trkpt lat="53.37490781253902" lon="14.668016314287337"><ele>17.0</ele><time>2026-04-18T18:33:08.999Z</time></trkpt><trkpt lat="53.37489947512724" lon="14.66816778934149"><ele>17.0</ele><time>2026-04-18T18:33:10.997Z</time></trkpt><trkpt lat="53.3748702072178" lon="14.668324054781532"><ele>17.0</ele><time>2026-04-18T18:33:11.998Z</time></trkpt><trkpt lat="53.3748479818753" lon="14.66849981915061"><ele>17.0</ele><time>2026-04-18T18:33:12.998Z</time></trkpt><trkpt lat="53.37483104261092" lon="14.668631522459757"><ele>17.0</ele><time>2026-04-18T18:33:13.998Z</time></trkpt><trkpt lat="53.37481952047144" lon="14.668744697975878"><ele>17.0</ele><time>2026-04-18T18:33:14.998Z</time></trkpt><trkpt lat="53.37480581344085" lon="14.6689203245751"><ele>16.833333333333336</ele><time>2026-04-18T18:33:16.998Z</time></trkpt><trkpt lat="53.37479378361471" lon="14.669109068429128"><ele>16.666666666666668</ele><time>2026-04-18T18:33:18.998Z</time></trkpt><trkpt lat="53.37480113506183" lon="14.669223825548384"><ele>16.5</ele><time>2026-04-18T18:33:19.998Z</time></trkpt><trkpt lat="53.37477770647859" lon="14.669371879339703"><ele>16.333333333333332</ele><time>2026-04-18T18:33:21.998Z</time></trkpt><trkpt lat="53.374765226970716" lon="14.66949616880005"><ele>16.166666666666664</ele><time>2026-04-18T18:33:23.998Z</time></trkpt><trkpt lat="53.37467213365901" lon="14.669475755888483"><ele>16.0</ele><time>2026-04-18T18:33:25.998Z</time></trkpt><trkpt lat="53.37456281285181" lon="14.669454391006804"><ele>18.0</ele><time>2026-04-18T18:33:27.998Z</time></trkpt><trkpt lat="53.37448251028335" lon="14.669438697239192"><ele>18.0</ele><time>2026-04-18T18:33:29.998Z</time></trkpt></trkseg></trk></gpx>